<?xml version="1.0" encoding="UTF-8" standalone="no" ?>
<gpx xmlns="http://www.topografix.com/GPX/1/1" xmlns:xsi="http://www.w3.org/2001/XMLSchema-instance" xsi:schemaLocation="http://www.topografix.com/GPX/1/1 http://www.topografix.com/GPX/1/1/gpx.xsd" version="1.1" creator="VisuGPX - https://www.visugpx.com">
  <metadata>
    <name>2018-04-20pm Bike ride VTT-Amberieux-Saone O Quincieux O</name>
    <desc><![CDATA[2018-04-20pm Bike ride VTT-Amberieux-Saone O Quincieux O]]></desc>
  </metadata>
  <wpt lat="45.92454" lon="4.73711">
    <ele>174</ele>
    <name><![CDATA[2018-04-20 13:52 (Start)]]></name>
  </wpt>
  <wpt lat="45.92466" lon="4.737">
    <ele>174</ele>
    <name><![CDATA[2018-04-20 13:52 (End)]]></name>
  </wpt>
  <trk>
    <name><![CDATA[2018-04-20 13:52]]></name>
    <trkseg>
      <trkpt lat="45.92454" lon="4.73711">
        <ele>174</ele>
        <time>2018-04-20T11:52:40.96Z</time>
      </trkpt>
      <trkpt lat="45.92453" lon="4.73722">
        <ele>174</ele>
        <time>2018-04-20T11:52:47Z</time>
      </trkpt>
      <trkpt lat="45.92453" lon="4.73725">
        <ele>174</ele>
        <time>2018-04-20T11:52:48Z</time>
      </trkpt>
      <trkpt lat="45.92455" lon="4.73718">
        <ele>174</ele>
        <time>2018-04-20T11:53:38Z</time>
      </trkpt>
      <trkpt lat="45.92456" lon="4.73717">
        <ele>174</ele>
        <time>2018-04-20T11:53:39Z</time>
      </trkpt>
      <trkpt lat="45.92456" lon="4.73717">
        <ele>174</ele>
        <time>2018-04-20T11:53:40Z</time>
      </trkpt>
      <trkpt lat="45.92456" lon="4.73717">
        <ele>174</ele>
        <time>2018-04-20T11:53:41Z</time>
      </trkpt>
      <trkpt lat="45.9246" lon="4.73716">
        <ele>174</ele>
        <time>2018-04-20T11:53:47Z</time>
      </trkpt>
      <trkpt lat="45.9246" lon="4.73716">
        <ele>174</ele>
        <time>2018-04-20T11:53:48Z</time>
      </trkpt>
      <trkpt lat="45.9246" lon="4.73713">
        <ele>174</ele>
        <time>2018-04-20T11:53:53Z</time>
      </trkpt>
      <trkpt lat="45.9246" lon="4.73713">
        <ele>174</ele>
        <time>2018-04-20T11:53:54Z</time>
      </trkpt>
      <trkpt lat="45.92466" lon="4.73723">
        <ele>174</ele>
        <time>2018-04-20T11:54:34Z</time>
      </trkpt>
      <trkpt lat="45.92466" lon="4.73725">
        <ele>174</ele>
        <time>2018-04-20T11:54:35Z</time>
      </trkpt>
      <trkpt lat="45.92467" lon="4.73737">
        <ele>174</ele>
        <time>2018-04-20T11:54:39Z</time>
      </trkpt>
      <trkpt lat="45.92467" lon="4.73741">
        <ele>174</ele>
        <time>2018-04-20T11:54:40Z</time>
      </trkpt>
      <trkpt lat="45.92466" lon="4.73751">
        <ele>173</ele>
        <time>2018-04-20T11:54:43Z</time>
      </trkpt>
      <trkpt lat="45.92466" lon="4.73755">
        <ele>173</ele>
        <time>2018-04-20T11:54:44Z</time>
      </trkpt>
      <trkpt lat="45.92466" lon="4.7376">
        <ele>173</ele>
        <time>2018-04-20T11:54:45Z</time>
      </trkpt>
      <trkpt lat="45.92467" lon="4.73774">
        <ele>173</ele>
        <time>2018-04-20T11:54:46Z</time>
      </trkpt>
      <trkpt lat="45.92466" lon="4.73785">
        <ele>172</ele>
        <time>2018-04-20T11:54:50Z</time>
      </trkpt>
      <trkpt lat="45.92466" lon="4.73788">
        <ele>172</ele>
        <time>2018-04-20T11:54:51Z</time>
      </trkpt>
      <trkpt lat="45.92465" lon="4.73796">
        <ele>172</ele>
        <time>2018-04-20T11:54:54Z</time>
      </trkpt>
      <trkpt lat="45.92465" lon="4.73797">
        <ele>172</ele>
        <time>2018-04-20T11:54:55Z</time>
      </trkpt>
      <trkpt lat="45.92465" lon="4.73798">
        <ele>172</ele>
        <time>2018-04-20T11:54:56Z</time>
      </trkpt>
      <trkpt lat="45.92463" lon="4.73807">
        <ele>172</ele>
        <time>2018-04-20T11:55:03Z</time>
      </trkpt>
      <trkpt lat="45.92463" lon="4.7381">
        <ele>172</ele>
        <time>2018-04-20T11:55:04Z</time>
      </trkpt>
      <trkpt lat="45.92463" lon="4.73814">
        <ele>172</ele>
        <time>2018-04-20T11:55:05Z</time>
      </trkpt>
      <trkpt lat="45.92461" lon="4.73828">
        <ele>172</ele>
        <time>2018-04-20T11:55:06Z</time>
      </trkpt>
      <trkpt lat="45.9246" lon="4.73834">
        <ele>171</ele>
        <time>2018-04-20T11:55:07Z</time>
      </trkpt>
      <trkpt lat="45.9246" lon="4.73841">
        <ele>171</ele>
        <time>2018-04-20T11:55:08Z</time>
      </trkpt>
      <trkpt lat="45.92459" lon="4.73853">
        <ele>171</ele>
        <time>2018-04-20T11:55:10Z</time>
      </trkpt>
      <trkpt lat="45.92459" lon="4.73856">
        <ele>171</ele>
        <time>2018-04-20T11:55:11Z</time>
      </trkpt>
      <trkpt lat="45.92458" lon="4.73869">
        <ele>171</ele>
        <time>2018-04-20T11:55:13Z</time>
      </trkpt>
      <trkpt lat="45.9246" lon="4.73876">
        <ele>171</ele>
        <time>2018-04-20T11:55:14Z</time>
      </trkpt>
      <trkpt lat="45.9246" lon="4.73883">
        <ele>171</ele>
        <time>2018-04-20T11:55:15Z</time>
      </trkpt>
      <trkpt lat="45.9246" lon="4.73891">
        <ele>171</ele>
        <time>2018-04-20T11:55:16Z</time>
      </trkpt>
      <trkpt lat="45.9246" lon="4.73903">
        <ele>171</ele>
        <time>2018-04-20T11:55:18Z</time>
      </trkpt>
      <trkpt lat="45.9246" lon="4.73908">
        <ele>171</ele>
        <time>2018-04-20T11:55:19Z</time>
      </trkpt>
      <trkpt lat="45.9246" lon="4.7392">
        <ele>172</ele>
        <time>2018-04-20T11:55:21Z</time>
      </trkpt>
      <trkpt lat="45.92461" lon="4.73925">
        <ele>172</ele>
        <time>2018-04-20T11:55:22Z</time>
      </trkpt>
      <trkpt lat="45.9246" lon="4.73936">
        <ele>172</ele>
        <time>2018-04-20T11:55:24Z</time>
      </trkpt>
      <trkpt lat="45.92461" lon="4.73941">
        <ele>172</ele>
        <time>2018-04-20T11:55:25Z</time>
      </trkpt>
      <trkpt lat="45.92465" lon="4.73951">
        <ele>172</ele>
        <time>2018-04-20T11:55:28Z</time>
      </trkpt>
      <trkpt lat="45.92473" lon="4.73956">
        <ele>172</ele>
        <time>2018-04-20T11:55:29Z</time>
      </trkpt>
      <trkpt lat="45.92478" lon="4.73958">
        <ele>172</ele>
        <time>2018-04-20T11:55:31Z</time>
      </trkpt>
      <trkpt lat="45.92483" lon="4.73961">
        <ele>172</ele>
        <time>2018-04-20T11:55:32Z</time>
      </trkpt>
      <trkpt lat="45.92491" lon="4.73965">
        <ele>172</ele>
        <time>2018-04-20T11:55:34Z</time>
      </trkpt>
      <trkpt lat="45.92493" lon="4.73965">
        <ele>172</ele>
        <time>2018-04-20T11:55:35Z</time>
      </trkpt>
      <trkpt lat="45.92495" lon="4.73967">
        <ele>172</ele>
        <time>2018-04-20T11:55:36Z</time>
      </trkpt>
      <trkpt lat="45.925" lon="4.73971">
        <ele>172</ele>
        <time>2018-04-20T11:55:37Z</time>
      </trkpt>
      <trkpt lat="45.92507" lon="4.73977">
        <ele>172</ele>
        <time>2018-04-20T11:55:39Z</time>
      </trkpt>
      <trkpt lat="45.92515" lon="4.7398">
        <ele>172</ele>
        <time>2018-04-20T11:55:40Z</time>
      </trkpt>
      <trkpt lat="45.92518" lon="4.73982">
        <ele>172</ele>
        <time>2018-04-20T11:55:41Z</time>
      </trkpt>
      <trkpt lat="45.92524" lon="4.73981">
        <ele>172</ele>
        <time>2018-04-20T11:55:42Z</time>
      </trkpt>
      <trkpt lat="45.92531" lon="4.73987">
        <ele>172</ele>
        <time>2018-04-20T11:55:44Z</time>
      </trkpt>
      <trkpt lat="45.92535" lon="4.73991">
        <ele>172</ele>
        <time>2018-04-20T11:55:45Z</time>
      </trkpt>
      <trkpt lat="45.92541" lon="4.73999">
        <ele>172</ele>
        <time>2018-04-20T11:55:47Z</time>
      </trkpt>
      <trkpt lat="45.92547" lon="4.73999">
        <ele>172</ele>
        <time>2018-04-20T11:55:48Z</time>
      </trkpt>
      <trkpt lat="45.92551" lon="4.74008">
        <ele>172</ele>
        <time>2018-04-20T11:55:50Z</time>
      </trkpt>
      <trkpt lat="45.92551" lon="4.74011">
        <ele>172</ele>
        <time>2018-04-20T11:55:51Z</time>
      </trkpt>
      <trkpt lat="45.9255" lon="4.74021">
        <ele>172</ele>
        <time>2018-04-20T11:55:53Z</time>
      </trkpt>
      <trkpt lat="45.92547" lon="4.74027">
        <ele>172</ele>
        <time>2018-04-20T11:55:54Z</time>
      </trkpt>
      <trkpt lat="45.92542" lon="4.74037">
        <ele>172</ele>
        <time>2018-04-20T11:55:56Z</time>
      </trkpt>
      <trkpt lat="45.92538" lon="4.7404">
        <ele>172</ele>
        <time>2018-04-20T11:55:57Z</time>
      </trkpt>
      <trkpt lat="45.92534" lon="4.74045">
        <ele>172</ele>
        <time>2018-04-20T11:55:58Z</time>
      </trkpt>
      <trkpt lat="45.92531" lon="4.7405">
        <ele>172</ele>
        <time>2018-04-20T11:55:59Z</time>
      </trkpt>
      <trkpt lat="45.92527" lon="4.74055">
        <ele>172</ele>
        <time>2018-04-20T11:56:01Z</time>
      </trkpt>
      <trkpt lat="45.92523" lon="4.7406">
        <ele>172</ele>
        <time>2018-04-20T11:56:02Z</time>
      </trkpt>
      <trkpt lat="45.92518" lon="4.74068">
        <ele>172</ele>
        <time>2018-04-20T11:56:04Z</time>
      </trkpt>
      <trkpt lat="45.92515" lon="4.74072">
        <ele>172</ele>
        <time>2018-04-20T11:56:05Z</time>
      </trkpt>
      <trkpt lat="45.92508" lon="4.7408">
        <ele>172</ele>
        <time>2018-04-20T11:56:07Z</time>
      </trkpt>
      <trkpt lat="45.92505" lon="4.74084">
        <ele>172</ele>
        <time>2018-04-20T11:56:08Z</time>
      </trkpt>
      <trkpt lat="45.92501" lon="4.74089">
        <ele>172</ele>
        <time>2018-04-20T11:56:09Z</time>
      </trkpt>
      <trkpt lat="45.92498" lon="4.74092">
        <ele>172</ele>
        <time>2018-04-20T11:56:10Z</time>
      </trkpt>
      <trkpt lat="45.92495" lon="4.74097">
        <ele>172</ele>
        <time>2018-04-20T11:56:11Z</time>
      </trkpt>
      <trkpt lat="45.92491" lon="4.74102">
        <ele>172</ele>
        <time>2018-04-20T11:56:12Z</time>
      </trkpt>
      <trkpt lat="45.92488" lon="4.74108">
        <ele>172</ele>
        <time>2018-04-20T11:56:13Z</time>
      </trkpt>
      <trkpt lat="45.92486" lon="4.74113">
        <ele>172</ele>
        <time>2018-04-20T11:56:14Z</time>
      </trkpt>
      <trkpt lat="45.92483" lon="4.74121">
        <ele>172</ele>
        <time>2018-04-20T11:56:15Z</time>
      </trkpt>
      <trkpt lat="45.92482" lon="4.74127">
        <ele>171</ele>
        <time>2018-04-20T11:56:16Z</time>
      </trkpt>
      <trkpt lat="45.9248" lon="4.74133">
        <ele>171</ele>
        <time>2018-04-20T11:56:17Z</time>
      </trkpt>
      <trkpt lat="45.9248" lon="4.7414">
        <ele>171</ele>
        <time>2018-04-20T11:56:18Z</time>
      </trkpt>
      <trkpt lat="45.92477" lon="4.74151">
        <ele>171</ele>
        <time>2018-04-20T11:56:20Z</time>
      </trkpt>
      <trkpt lat="45.92475" lon="4.74157">
        <ele>171</ele>
        <time>2018-04-20T11:56:21Z</time>
      </trkpt>
      <trkpt lat="45.92472" lon="4.74167">
        <ele>171</ele>
        <time>2018-04-20T11:56:23Z</time>
      </trkpt>
      <trkpt lat="45.9247" lon="4.74173">
        <ele>171</ele>
        <time>2018-04-20T11:56:24Z</time>
      </trkpt>
      <trkpt lat="45.92467" lon="4.74184">
        <ele>171</ele>
        <time>2018-04-20T11:56:26Z</time>
      </trkpt>
      <trkpt lat="45.92465" lon="4.74189">
        <ele>171</ele>
        <time>2018-04-20T11:56:27Z</time>
      </trkpt>
      <trkpt lat="45.9246" lon="4.74199">
        <ele>171</ele>
        <time>2018-04-20T11:56:30Z</time>
      </trkpt>
      <trkpt lat="45.92459" lon="4.74201">
        <ele>171</ele>
        <time>2018-04-20T11:56:31Z</time>
      </trkpt>
      <trkpt lat="45.92454" lon="4.7421">
        <ele>171</ele>
        <time>2018-04-20T11:56:35Z</time>
      </trkpt>
      <trkpt lat="45.92452" lon="4.74211">
        <ele>171</ele>
        <time>2018-04-20T11:56:36Z</time>
      </trkpt>
      <trkpt lat="45.9245" lon="4.74216">
        <ele>171</ele>
        <time>2018-04-20T11:56:39Z</time>
      </trkpt>
      <trkpt lat="45.92449" lon="4.74217">
        <ele>171</ele>
        <time>2018-04-20T11:56:40Z</time>
      </trkpt>
      <trkpt lat="45.92449" lon="4.74219">
        <ele>171</ele>
        <time>2018-04-20T11:56:44Z</time>
      </trkpt>
      <trkpt lat="45.92449" lon="4.74219">
        <ele>171</ele>
        <time>2018-04-20T11:56:45Z</time>
      </trkpt>
      <trkpt lat="45.92444" lon="4.74229">
        <ele>171</ele>
        <time>2018-04-20T11:56:51Z</time>
      </trkpt>
      <trkpt lat="45.92443" lon="4.74231">
        <ele>171</ele>
        <time>2018-04-20T11:56:52Z</time>
      </trkpt>
      <trkpt lat="45.92441" lon="4.74234">
        <ele>171</ele>
        <time>2018-04-20T11:56:53Z</time>
      </trkpt>
      <trkpt lat="45.92437" lon="4.74244">
        <ele>171</ele>
        <time>2018-04-20T11:56:54Z</time>
      </trkpt>
      <trkpt lat="45.92433" lon="4.74253">
        <ele>171</ele>
        <time>2018-04-20T11:56:57Z</time>
      </trkpt>
      <trkpt lat="45.92428" lon="4.74262">
        <ele>171</ele>
        <time>2018-04-20T11:56:58Z</time>
      </trkpt>
      <trkpt lat="45.92426" lon="4.74267">
        <ele>170</ele>
        <time>2018-04-20T11:57:00Z</time>
      </trkpt>
      <trkpt lat="45.92422" lon="4.74275">
        <ele>170</ele>
        <time>2018-04-20T11:57:01Z</time>
      </trkpt>
      <trkpt lat="45.92417" lon="4.74284">
        <ele>170</ele>
        <time>2018-04-20T11:57:03Z</time>
      </trkpt>
      <trkpt lat="45.92415" lon="4.74289">
        <ele>170</ele>
        <time>2018-04-20T11:57:04Z</time>
      </trkpt>
      <trkpt lat="45.9241" lon="4.74298">
        <ele>170</ele>
        <time>2018-04-20T11:57:06Z</time>
      </trkpt>
      <trkpt lat="45.92407" lon="4.74304">
        <ele>170</ele>
        <time>2018-04-20T11:57:07Z</time>
      </trkpt>
      <trkpt lat="45.92401" lon="4.7431">
        <ele>170</ele>
        <time>2018-04-20T11:57:09Z</time>
      </trkpt>
      <trkpt lat="45.92397" lon="4.74311">
        <ele>170</ele>
        <time>2018-04-20T11:57:10Z</time>
      </trkpt>
      <trkpt lat="45.92389" lon="4.74313">
        <ele>170</ele>
        <time>2018-04-20T11:57:12Z</time>
      </trkpt>
      <trkpt lat="45.92386" lon="4.74315">
        <ele>170</ele>
        <time>2018-04-20T11:57:13Z</time>
      </trkpt>
      <trkpt lat="45.92379" lon="4.74313">
        <ele>170</ele>
        <time>2018-04-20T11:57:15Z</time>
      </trkpt>
      <trkpt lat="45.92375" lon="4.74311">
        <ele>170</ele>
        <time>2018-04-20T11:57:16Z</time>
      </trkpt>
      <trkpt lat="45.92367" lon="4.74308">
        <ele>170</ele>
        <time>2018-04-20T11:57:18Z</time>
      </trkpt>
      <trkpt lat="45.92364" lon="4.74307">
        <ele>170</ele>
        <time>2018-04-20T11:57:19Z</time>
      </trkpt>
      <trkpt lat="45.92355" lon="4.74302">
        <ele>170</ele>
        <time>2018-04-20T11:57:21Z</time>
      </trkpt>
      <trkpt lat="45.9235" lon="4.743">
        <ele>170</ele>
        <time>2018-04-20T11:57:22Z</time>
      </trkpt>
      <trkpt lat="45.92346" lon="4.74299">
        <ele>170</ele>
        <time>2018-04-20T11:57:23Z</time>
      </trkpt>
      <trkpt lat="45.92341" lon="4.743">
        <ele>170</ele>
        <time>2018-04-20T11:57:24Z</time>
      </trkpt>
      <trkpt lat="45.92332" lon="4.74301">
        <ele>170</ele>
        <time>2018-04-20T11:57:26Z</time>
      </trkpt>
      <trkpt lat="45.92329" lon="4.74303">
        <ele>170</ele>
        <time>2018-04-20T11:57:27Z</time>
      </trkpt>
      <trkpt lat="45.92321" lon="4.74309">
        <ele>170</ele>
        <time>2018-04-20T11:57:29Z</time>
      </trkpt>
      <trkpt lat="45.92318" lon="4.74312">
        <ele>170</ele>
        <time>2018-04-20T11:57:30Z</time>
      </trkpt>
      <trkpt lat="45.92311" lon="4.74318">
        <ele>170</ele>
        <time>2018-04-20T11:57:32Z</time>
      </trkpt>
      <trkpt lat="45.92307" lon="4.74321">
        <ele>170</ele>
        <time>2018-04-20T11:57:33Z</time>
      </trkpt>
      <trkpt lat="45.92299" lon="4.74328">
        <ele>170</ele>
        <time>2018-04-20T11:57:35Z</time>
      </trkpt>
      <trkpt lat="45.92295" lon="4.74332">
        <ele>170</ele>
        <time>2018-04-20T11:57:36Z</time>
      </trkpt>
      <trkpt lat="45.92288" lon="4.74339">
        <ele>171</ele>
        <time>2018-04-20T11:57:38Z</time>
      </trkpt>
      <trkpt lat="45.92284" lon="4.74342">
        <ele>171</ele>
        <time>2018-04-20T11:57:39Z</time>
      </trkpt>
      <trkpt lat="45.92278" lon="4.74348">
        <ele>171</ele>
        <time>2018-04-20T11:57:41Z</time>
      </trkpt>
      <trkpt lat="45.92274" lon="4.74352">
        <ele>171</ele>
        <time>2018-04-20T11:57:42Z</time>
      </trkpt>
      <trkpt lat="45.92271" lon="4.74356">
        <ele>171</ele>
        <time>2018-04-20T11:57:43Z</time>
      </trkpt>
      <trkpt lat="45.92268" lon="4.74362">
        <ele>171</ele>
        <time>2018-04-20T11:57:44Z</time>
      </trkpt>
      <trkpt lat="45.92264" lon="4.74373">
        <ele>171</ele>
        <time>2018-04-20T11:57:46Z</time>
      </trkpt>
      <trkpt lat="45.92261" lon="4.74378">
        <ele>171</ele>
        <time>2018-04-20T11:57:47Z</time>
      </trkpt>
      <trkpt lat="45.92256" lon="4.74389">
        <ele>171</ele>
        <time>2018-04-20T11:57:49Z</time>
      </trkpt>
      <trkpt lat="45.92255" lon="4.74391">
        <ele>171</ele>
        <time>2018-04-20T11:57:50Z</time>
      </trkpt>
      <trkpt lat="45.92251" lon="4.74402">
        <ele>171</ele>
        <time>2018-04-20T11:57:52Z</time>
      </trkpt>
      <trkpt lat="45.9225" lon="4.74408">
        <ele>171</ele>
        <time>2018-04-20T11:57:53Z</time>
      </trkpt>
      <trkpt lat="45.92246" lon="4.74418">
        <ele>171</ele>
        <time>2018-04-20T11:57:55Z</time>
      </trkpt>
      <trkpt lat="45.92244" lon="4.74423">
        <ele>171</ele>
        <time>2018-04-20T11:57:56Z</time>
      </trkpt>
      <trkpt lat="45.92241" lon="4.74435">
        <ele>171</ele>
        <time>2018-04-20T11:57:58Z</time>
      </trkpt>
      <trkpt lat="45.92241" lon="4.74441">
        <ele>171</ele>
        <time>2018-04-20T11:57:59Z</time>
      </trkpt>
      <trkpt lat="45.92239" lon="4.74452">
        <ele>171</ele>
        <time>2018-04-20T11:58:01Z</time>
      </trkpt>
      <trkpt lat="45.9224" lon="4.74457">
        <ele>171</ele>
        <time>2018-04-20T11:58:02Z</time>
      </trkpt>
      <trkpt lat="45.92245" lon="4.74468">
        <ele>171</ele>
        <time>2018-04-20T11:58:04Z</time>
      </trkpt>
      <trkpt lat="45.92248" lon="4.74472">
        <ele>171</ele>
        <time>2018-04-20T11:58:05Z</time>
      </trkpt>
      <trkpt lat="45.92253" lon="4.74476">
        <ele>171</ele>
        <time>2018-04-20T11:58:08Z</time>
      </trkpt>
      <trkpt lat="45.9226" lon="4.74482">
        <ele>171</ele>
        <time>2018-04-20T11:58:09Z</time>
      </trkpt>
      <trkpt lat="45.92264" lon="4.74486">
        <ele>171</ele>
        <time>2018-04-20T11:58:10Z</time>
      </trkpt>
      <trkpt lat="45.92268" lon="4.74492">
        <ele>171</ele>
        <time>2018-04-20T11:58:11Z</time>
      </trkpt>
      <trkpt lat="45.92272" lon="4.74494">
        <ele>171</ele>
        <time>2018-04-20T11:58:12Z</time>
      </trkpt>
      <trkpt lat="45.92277" lon="4.74496">
        <ele>171</ele>
        <time>2018-04-20T11:58:13Z</time>
      </trkpt>
      <trkpt lat="45.92285" lon="4.745">
        <ele>171</ele>
        <time>2018-04-20T11:58:15Z</time>
      </trkpt>
      <trkpt lat="45.92289" lon="4.745">
        <ele>171</ele>
        <time>2018-04-20T11:58:16Z</time>
      </trkpt>
      <trkpt lat="45.92293" lon="4.74507">
        <ele>171</ele>
        <time>2018-04-20T11:58:18Z</time>
      </trkpt>
      <trkpt lat="45.92296" lon="4.74512">
        <ele>171</ele>
        <time>2018-04-20T11:58:19Z</time>
      </trkpt>
      <trkpt lat="45.923" lon="4.74515">
        <ele>171</ele>
        <time>2018-04-20T11:58:20Z</time>
      </trkpt>
      <trkpt lat="45.92305" lon="4.74517">
        <ele>171</ele>
        <time>2018-04-20T11:58:21Z</time>
      </trkpt>
      <trkpt lat="45.92312" lon="4.74521">
        <ele>171</ele>
        <time>2018-04-20T11:58:23Z</time>
      </trkpt>
      <trkpt lat="45.92316" lon="4.74524">
        <ele>171</ele>
        <time>2018-04-20T11:58:24Z</time>
      </trkpt>
      <trkpt lat="45.92324" lon="4.74528">
        <ele>171</ele>
        <time>2018-04-20T11:58:26Z</time>
      </trkpt>
      <trkpt lat="45.92327" lon="4.7453">
        <ele>171</ele>
        <time>2018-04-20T11:58:27Z</time>
      </trkpt>
      <trkpt lat="45.92336" lon="4.74533">
        <ele>171</ele>
        <time>2018-04-20T11:58:29Z</time>
      </trkpt>
      <trkpt lat="45.9234" lon="4.74534">
        <ele>171</ele>
        <time>2018-04-20T11:58:30Z</time>
      </trkpt>
      <trkpt lat="45.92344" lon="4.74538">
        <ele>171</ele>
        <time>2018-04-20T11:58:31Z</time>
      </trkpt>
      <trkpt lat="45.92349" lon="4.74541">
        <ele>171</ele>
        <time>2018-04-20T11:58:32Z</time>
      </trkpt>
      <trkpt lat="45.92353" lon="4.74545">
        <ele>170</ele>
        <time>2018-04-20T11:58:33Z</time>
      </trkpt>
      <trkpt lat="45.92357" lon="4.74547">
        <ele>170</ele>
        <time>2018-04-20T11:58:34Z</time>
      </trkpt>
      <trkpt lat="45.92365" lon="4.7455">
        <ele>170</ele>
        <time>2018-04-20T11:58:36Z</time>
      </trkpt>
      <trkpt lat="45.92368" lon="4.74553">
        <ele>170</ele>
        <time>2018-04-20T11:58:37Z</time>
      </trkpt>
      <trkpt lat="45.92375" lon="4.74556">
        <ele>171</ele>
        <time>2018-04-20T11:58:39Z</time>
      </trkpt>
      <trkpt lat="45.92381" lon="4.74557">
        <ele>171</ele>
        <time>2018-04-20T11:58:40Z</time>
      </trkpt>
      <trkpt lat="45.92386" lon="4.74559">
        <ele>171</ele>
        <time>2018-04-20T11:58:41Z</time>
      </trkpt>
      <trkpt lat="45.92391" lon="4.74558">
        <ele>171</ele>
        <time>2018-04-20T11:58:42Z</time>
      </trkpt>
      <trkpt lat="45.92399" lon="4.74563">
        <ele>171</ele>
        <time>2018-04-20T11:58:44Z</time>
      </trkpt>
      <trkpt lat="45.92402" lon="4.74566">
        <ele>171</ele>
        <time>2018-04-20T11:58:45Z</time>
      </trkpt>
      <trkpt lat="45.92406" lon="4.7457">
        <ele>171</ele>
        <time>2018-04-20T11:58:46Z</time>
      </trkpt>
      <trkpt lat="45.9241" lon="4.74573">
        <ele>171</ele>
        <time>2018-04-20T11:58:47Z</time>
      </trkpt>
      <trkpt lat="45.92413" lon="4.74577">
        <ele>171</ele>
        <time>2018-04-20T11:58:48Z</time>
      </trkpt>
      <trkpt lat="45.92417" lon="4.7458">
        <ele>171</ele>
        <time>2018-04-20T11:58:49Z</time>
      </trkpt>
      <trkpt lat="45.92424" lon="4.74588">
        <ele>171</ele>
        <time>2018-04-20T11:58:51Z</time>
      </trkpt>
      <trkpt lat="45.92426" lon="4.7459">
        <ele>171</ele>
        <time>2018-04-20T11:58:52Z</time>
      </trkpt>
      <trkpt lat="45.92429" lon="4.74596">
        <ele>171</ele>
        <time>2018-04-20T11:58:53Z</time>
      </trkpt>
      <trkpt lat="45.92431" lon="4.74601">
        <ele>171</ele>
        <time>2018-04-20T11:58:54Z</time>
      </trkpt>
      <trkpt lat="45.92432" lon="4.74612">
        <ele>171</ele>
        <time>2018-04-20T11:58:56Z</time>
      </trkpt>
      <trkpt lat="45.92432" lon="4.74618">
        <ele>171</ele>
        <time>2018-04-20T11:58:57Z</time>
      </trkpt>
      <trkpt lat="45.9243" lon="4.74626">
        <ele>171</ele>
        <time>2018-04-20T11:58:59Z</time>
      </trkpt>
      <trkpt lat="45.92426" lon="4.74633">
        <ele>171</ele>
        <time>2018-04-20T11:59:00Z</time>
      </trkpt>
      <trkpt lat="45.92421" lon="4.7464">
        <ele>171</ele>
        <time>2018-04-20T11:59:02Z</time>
      </trkpt>
      <trkpt lat="45.92419" lon="4.74642">
        <ele>171</ele>
        <time>2018-04-20T11:59:03Z</time>
      </trkpt>
      <trkpt lat="45.92415" lon="4.74647">
        <ele>171</ele>
        <time>2018-04-20T11:59:04Z</time>
      </trkpt>
      <trkpt lat="45.92412" lon="4.74651">
        <ele>171</ele>
        <time>2018-04-20T11:59:05Z</time>
      </trkpt>
      <trkpt lat="45.92407" lon="4.74659">
        <ele>171</ele>
        <time>2018-04-20T11:59:07Z</time>
      </trkpt>
      <trkpt lat="45.92404" lon="4.74663">
        <ele>171</ele>
        <time>2018-04-20T11:59:08Z</time>
      </trkpt>
      <trkpt lat="45.92398" lon="4.74673">
        <ele>171</ele>
        <time>2018-04-20T11:59:10Z</time>
      </trkpt>
      <trkpt lat="45.92395" lon="4.74677">
        <ele>171</ele>
        <time>2018-04-20T11:59:11Z</time>
      </trkpt>
      <trkpt lat="45.92392" lon="4.74684">
        <ele>171</ele>
        <time>2018-04-20T11:59:12Z</time>
      </trkpt>
      <trkpt lat="45.92389" lon="4.74689">
        <ele>171</ele>
        <time>2018-04-20T11:59:13Z</time>
      </trkpt>
      <trkpt lat="45.92386" lon="4.74694">
        <ele>171</ele>
        <time>2018-04-20T11:59:14Z</time>
      </trkpt>
      <trkpt lat="45.92383" lon="4.747">
        <ele>171</ele>
        <time>2018-04-20T11:59:15Z</time>
      </trkpt>
      <trkpt lat="45.92378" lon="4.74709">
        <ele>171</ele>
        <time>2018-04-20T11:59:17Z</time>
      </trkpt>
      <trkpt lat="45.92376" lon="4.74714">
        <ele>171</ele>
        <time>2018-04-20T11:59:18Z</time>
      </trkpt>
      <trkpt lat="45.92371" lon="4.74725">
        <ele>171</ele>
        <time>2018-04-20T11:59:20Z</time>
      </trkpt>
      <trkpt lat="45.92369" lon="4.74729">
        <ele>171</ele>
        <time>2018-04-20T11:59:21Z</time>
      </trkpt>
      <trkpt lat="45.92363" lon="4.74739">
        <ele>171</ele>
        <time>2018-04-20T11:59:23Z</time>
      </trkpt>
      <trkpt lat="45.92361" lon="4.74745">
        <ele>171</ele>
        <time>2018-04-20T11:59:24Z</time>
      </trkpt>
      <trkpt lat="45.92356" lon="4.74754">
        <ele>171</ele>
        <time>2018-04-20T11:59:26Z</time>
      </trkpt>
      <trkpt lat="45.92353" lon="4.74759">
        <ele>171</ele>
        <time>2018-04-20T11:59:27Z</time>
      </trkpt>
      <trkpt lat="45.92348" lon="4.74769">
        <ele>171</ele>
        <time>2018-04-20T11:59:29Z</time>
      </trkpt>
      <trkpt lat="45.92346" lon="4.74774">
        <ele>171</ele>
        <time>2018-04-20T11:59:30Z</time>
      </trkpt>
      <trkpt lat="45.92341" lon="4.74784">
        <ele>171</ele>
        <time>2018-04-20T11:59:32Z</time>
      </trkpt>
      <trkpt lat="45.92337" lon="4.74788">
        <ele>171</ele>
        <time>2018-04-20T11:59:33Z</time>
      </trkpt>
      <trkpt lat="45.92335" lon="4.74793">
        <ele>171</ele>
        <time>2018-04-20T11:59:34Z</time>
      </trkpt>
      <trkpt lat="45.92332" lon="4.74799">
        <ele>171</ele>
        <time>2018-04-20T11:59:35Z</time>
      </trkpt>
      <trkpt lat="45.92327" lon="4.74809">
        <ele>171</ele>
        <time>2018-04-20T11:59:37Z</time>
      </trkpt>
      <trkpt lat="45.92324" lon="4.74814">
        <ele>171</ele>
        <time>2018-04-20T11:59:38Z</time>
      </trkpt>
      <trkpt lat="45.92319" lon="4.74824">
        <ele>171</ele>
        <time>2018-04-20T11:59:40Z</time>
      </trkpt>
      <trkpt lat="45.92317" lon="4.74829">
        <ele>171</ele>
        <time>2018-04-20T11:59:41Z</time>
      </trkpt>
      <trkpt lat="45.92312" lon="4.74836">
        <ele>172</ele>
        <time>2018-04-20T11:59:43Z</time>
      </trkpt>
      <trkpt lat="45.9231" lon="4.7484">
        <ele>172</ele>
        <time>2018-04-20T11:59:44Z</time>
      </trkpt>
      <trkpt lat="45.92305" lon="4.7485">
        <ele>172</ele>
        <time>2018-04-20T11:59:46Z</time>
      </trkpt>
      <trkpt lat="45.92302" lon="4.74855">
        <ele>172</ele>
        <time>2018-04-20T11:59:47Z</time>
      </trkpt>
      <trkpt lat="45.92297" lon="4.74865">
        <ele>172</ele>
        <time>2018-04-20T11:59:49Z</time>
      </trkpt>
      <trkpt lat="45.92294" lon="4.7487">
        <ele>172</ele>
        <time>2018-04-20T11:59:50Z</time>
      </trkpt>
      <trkpt lat="45.92289" lon="4.74879">
        <ele>172</ele>
        <time>2018-04-20T11:59:52Z</time>
      </trkpt>
      <trkpt lat="45.92286" lon="4.74883">
        <ele>172</ele>
        <time>2018-04-20T11:59:53Z</time>
      </trkpt>
      <trkpt lat="45.92281" lon="4.74893">
        <ele>172</ele>
        <time>2018-04-20T11:59:55Z</time>
      </trkpt>
      <trkpt lat="45.92278" lon="4.74897">
        <ele>172</ele>
        <time>2018-04-20T11:59:56Z</time>
      </trkpt>
      <trkpt lat="45.92271" lon="4.74904">
        <ele>172</ele>
        <time>2018-04-20T11:59:59Z</time>
      </trkpt>
      <trkpt lat="45.92266" lon="4.7491">
        <ele>172</ele>
        <time>2018-04-20T12:00:00Z</time>
      </trkpt>
      <trkpt lat="45.92259" lon="4.74916">
        <ele>172</ele>
        <time>2018-04-20T12:00:02Z</time>
      </trkpt>
      <trkpt lat="45.92256" lon="4.7492">
        <ele>172</ele>
        <time>2018-04-20T12:00:03Z</time>
      </trkpt>
      <trkpt lat="45.92251" lon="4.7493">
        <ele>172</ele>
        <time>2018-04-20T12:00:05Z</time>
      </trkpt>
      <trkpt lat="45.9225" lon="4.74936">
        <ele>172</ele>
        <time>2018-04-20T12:00:06Z</time>
      </trkpt>
      <trkpt lat="45.92247" lon="4.74947">
        <ele>172</ele>
        <time>2018-04-20T12:00:09Z</time>
      </trkpt>
      <trkpt lat="45.92247" lon="4.7495">
        <ele>172</ele>
        <time>2018-04-20T12:00:10Z</time>
      </trkpt>
      <trkpt lat="45.92241" lon="4.7496">
        <ele>172</ele>
        <time>2018-04-20T12:00:14Z</time>
      </trkpt>
      <trkpt lat="45.92239" lon="4.74961">
        <ele>171</ele>
        <time>2018-04-20T12:00:15Z</time>
      </trkpt>
      <trkpt lat="45.92231" lon="4.74959">
        <ele>171</ele>
        <time>2018-04-20T12:00:20Z</time>
      </trkpt>
      <trkpt lat="45.9223" lon="4.74958">
        <ele>171</ele>
        <time>2018-04-20T12:00:21Z</time>
      </trkpt>
      <trkpt lat="45.92223" lon="4.74955">
        <ele>171</ele>
        <time>2018-04-20T12:01:06Z</time>
      </trkpt>
      <trkpt lat="45.92221" lon="4.74954">
        <ele>171</ele>
        <time>2018-04-20T12:01:07Z</time>
      </trkpt>
      <trkpt lat="45.92213" lon="4.7495">
        <ele>171</ele>
        <time>2018-04-20T12:01:10Z</time>
      </trkpt>
      <trkpt lat="45.92211" lon="4.74949">
        <ele>171</ele>
        <time>2018-04-20T12:01:11Z</time>
      </trkpt>
      <trkpt lat="45.92203" lon="4.74945">
        <ele>171</ele>
        <time>2018-04-20T12:01:14Z</time>
      </trkpt>
      <trkpt lat="45.92201" lon="4.74944">
        <ele>171</ele>
        <time>2018-04-20T12:01:15Z</time>
      </trkpt>
      <trkpt lat="45.92192" lon="4.74939">
        <ele>171</ele>
        <time>2018-04-20T12:01:16Z</time>
      </trkpt>
      <trkpt lat="45.92185" lon="4.74936">
        <ele>171</ele>
        <time>2018-04-20T12:01:18Z</time>
      </trkpt>
      <trkpt lat="45.92181" lon="4.74934">
        <ele>171</ele>
        <time>2018-04-20T12:01:19Z</time>
      </trkpt>
      <trkpt lat="45.92173" lon="4.7493">
        <ele>171</ele>
        <time>2018-04-20T12:01:21Z</time>
      </trkpt>
      <trkpt lat="45.92169" lon="4.74928">
        <ele>170</ele>
        <time>2018-04-20T12:01:22Z</time>
      </trkpt>
      <trkpt lat="45.92164" lon="4.74925">
        <ele>170</ele>
        <time>2018-04-20T12:01:23Z</time>
      </trkpt>
      <trkpt lat="45.9216" lon="4.74921">
        <ele>170</ele>
        <time>2018-04-20T12:01:24Z</time>
      </trkpt>
      <trkpt lat="45.92155" lon="4.74919">
        <ele>170</ele>
        <time>2018-04-20T12:01:25Z</time>
      </trkpt>
      <trkpt lat="45.92151" lon="4.74916">
        <ele>170</ele>
        <time>2018-04-20T12:01:26Z</time>
      </trkpt>
      <trkpt lat="45.92146" lon="4.74913">
        <ele>170</ele>
        <time>2018-04-20T12:01:27Z</time>
      </trkpt>
      <trkpt lat="45.92142" lon="4.74911">
        <ele>170</ele>
        <time>2018-04-20T12:01:28Z</time>
      </trkpt>
      <trkpt lat="45.92137" lon="4.74908">
        <ele>170</ele>
        <time>2018-04-20T12:01:29Z</time>
      </trkpt>
      <trkpt lat="45.92133" lon="4.74906">
        <ele>170</ele>
        <time>2018-04-20T12:01:30Z</time>
      </trkpt>
      <trkpt lat="45.92128" lon="4.74904">
        <ele>170</ele>
        <time>2018-04-20T12:01:31Z</time>
      </trkpt>
      <trkpt lat="45.92124" lon="4.74901">
        <ele>170</ele>
        <time>2018-04-20T12:01:32Z</time>
      </trkpt>
      <trkpt lat="45.92119" lon="4.74899">
        <ele>170</ele>
        <time>2018-04-20T12:01:33Z</time>
      </trkpt>
      <trkpt lat="45.92115" lon="4.74898">
        <ele>170</ele>
        <time>2018-04-20T12:01:34Z</time>
      </trkpt>
      <trkpt lat="45.92109" lon="4.74896">
        <ele>170</ele>
        <time>2018-04-20T12:01:35Z</time>
      </trkpt>
      <trkpt lat="45.92105" lon="4.74894">
        <ele>170</ele>
        <time>2018-04-20T12:01:36Z</time>
      </trkpt>
      <trkpt lat="45.921" lon="4.74892">
        <ele>170</ele>
        <time>2018-04-20T12:01:37Z</time>
      </trkpt>
      <trkpt lat="45.92096" lon="4.74888">
        <ele>170</ele>
        <time>2018-04-20T12:01:38Z</time>
      </trkpt>
      <trkpt lat="45.92091" lon="4.74885">
        <ele>170</ele>
        <time>2018-04-20T12:01:39Z</time>
      </trkpt>
      <trkpt lat="45.92087" lon="4.74883">
        <ele>170</ele>
        <time>2018-04-20T12:01:40Z</time>
      </trkpt>
      <trkpt lat="45.92082" lon="4.74879">
        <ele>169</ele>
        <time>2018-04-20T12:01:41Z</time>
      </trkpt>
      <trkpt lat="45.92078" lon="4.74876">
        <ele>169</ele>
        <time>2018-04-20T12:01:42Z</time>
      </trkpt>
      <trkpt lat="45.92073" lon="4.74874">
        <ele>169</ele>
        <time>2018-04-20T12:01:43Z</time>
      </trkpt>
      <trkpt lat="45.92069" lon="4.74872">
        <ele>169</ele>
        <time>2018-04-20T12:01:44Z</time>
      </trkpt>
      <trkpt lat="45.92061" lon="4.74867">
        <ele>169</ele>
        <time>2018-04-20T12:01:46Z</time>
      </trkpt>
      <trkpt lat="45.92056" lon="4.74865">
        <ele>169</ele>
        <time>2018-04-20T12:01:47Z</time>
      </trkpt>
      <trkpt lat="45.92052" lon="4.7486">
        <ele>169</ele>
        <time>2018-04-20T12:01:48Z</time>
      </trkpt>
      <trkpt lat="45.92047" lon="4.74858">
        <ele>169</ele>
        <time>2018-04-20T12:01:49Z</time>
      </trkpt>
      <trkpt lat="45.92043" lon="4.74855">
        <ele>169</ele>
        <time>2018-04-20T12:01:50Z</time>
      </trkpt>
      <trkpt lat="45.92039" lon="4.74853">
        <ele>169</ele>
        <time>2018-04-20T12:01:51Z</time>
      </trkpt>
      <trkpt lat="45.92034" lon="4.7485">
        <ele>169</ele>
        <time>2018-04-20T12:01:52Z</time>
      </trkpt>
      <trkpt lat="45.92029" lon="4.74847">
        <ele>169</ele>
        <time>2018-04-20T12:01:53Z</time>
      </trkpt>
      <trkpt lat="45.92024" lon="4.74845">
        <ele>169</ele>
        <time>2018-04-20T12:01:54Z</time>
      </trkpt>
      <trkpt lat="45.92019" lon="4.74842">
        <ele>169</ele>
        <time>2018-04-20T12:01:55Z</time>
      </trkpt>
      <trkpt lat="45.92014" lon="4.74839">
        <ele>168</ele>
        <time>2018-04-20T12:01:56Z</time>
      </trkpt>
      <trkpt lat="45.92009" lon="4.74836">
        <ele>168</ele>
        <time>2018-04-20T12:01:57Z</time>
      </trkpt>
      <trkpt lat="45.92004" lon="4.74832">
        <ele>168</ele>
        <time>2018-04-20T12:01:58Z</time>
      </trkpt>
      <trkpt lat="45.92" lon="4.7483">
        <ele>168</ele>
        <time>2018-04-20T12:01:59Z</time>
      </trkpt>
      <trkpt lat="45.91995" lon="4.74826">
        <ele>169</ele>
        <time>2018-04-20T12:02:00Z</time>
      </trkpt>
      <trkpt lat="45.9199" lon="4.74824">
        <ele>169</ele>
        <time>2018-04-20T12:02:01Z</time>
      </trkpt>
      <trkpt lat="45.91985" lon="4.74822">
        <ele>169</ele>
        <time>2018-04-20T12:02:02Z</time>
      </trkpt>
      <trkpt lat="45.91979" lon="4.74819">
        <ele>169</ele>
        <time>2018-04-20T12:02:03Z</time>
      </trkpt>
      <trkpt lat="45.91975" lon="4.74817">
        <ele>169</ele>
        <time>2018-04-20T12:02:04Z</time>
      </trkpt>
      <trkpt lat="45.9197" lon="4.74814">
        <ele>170</ele>
        <time>2018-04-20T12:02:05Z</time>
      </trkpt>
      <trkpt lat="45.91962" lon="4.74808">
        <ele>170</ele>
        <time>2018-04-20T12:02:07Z</time>
      </trkpt>
      <trkpt lat="45.91952" lon="4.74807">
        <ele>170</ele>
        <time>2018-04-20T12:02:08Z</time>
      </trkpt>
      <trkpt lat="45.91947" lon="4.74805">
        <ele>170</ele>
        <time>2018-04-20T12:02:09Z</time>
      </trkpt>
      <trkpt lat="45.91942" lon="4.74802">
        <ele>170</ele>
        <time>2018-04-20T12:02:10Z</time>
      </trkpt>
      <trkpt lat="45.91934" lon="4.74798">
        <ele>170</ele>
        <time>2018-04-20T12:02:12Z</time>
      </trkpt>
      <trkpt lat="45.9193" lon="4.74796">
        <ele>170</ele>
        <time>2018-04-20T12:02:13Z</time>
      </trkpt>
      <trkpt lat="45.91925" lon="4.74795">
        <ele>170</ele>
        <time>2018-04-20T12:02:14Z</time>
      </trkpt>
      <trkpt lat="45.9192" lon="4.74792">
        <ele>171</ele>
        <time>2018-04-20T12:02:15Z</time>
      </trkpt>
      <trkpt lat="45.91915" lon="4.7479">
        <ele>172</ele>
        <time>2018-04-20T12:02:16Z</time>
      </trkpt>
      <trkpt lat="45.9191" lon="4.74787">
        <ele>172</ele>
        <time>2018-04-20T12:02:17Z</time>
      </trkpt>
      <trkpt lat="45.91906" lon="4.74783">
        <ele>172</ele>
        <time>2018-04-20T12:02:18Z</time>
      </trkpt>
      <trkpt lat="45.91901" lon="4.74779">
        <ele>172</ele>
        <time>2018-04-20T12:02:19Z</time>
      </trkpt>
      <trkpt lat="45.91896" lon="4.74778">
        <ele>172</ele>
        <time>2018-04-20T12:02:20Z</time>
      </trkpt>
      <trkpt lat="45.91892" lon="4.74776">
        <ele>172</ele>
        <time>2018-04-20T12:02:21Z</time>
      </trkpt>
      <trkpt lat="45.91887" lon="4.74772">
        <ele>172</ele>
        <time>2018-04-20T12:02:22Z</time>
      </trkpt>
      <trkpt lat="45.91881" lon="4.74769">
        <ele>172</ele>
        <time>2018-04-20T12:02:23Z</time>
      </trkpt>
      <trkpt lat="45.91877" lon="4.74767">
        <ele>172</ele>
        <time>2018-04-20T12:02:24Z</time>
      </trkpt>
      <trkpt lat="45.91872" lon="4.74765">
        <ele>171</ele>
        <time>2018-04-20T12:02:25Z</time>
      </trkpt>
      <trkpt lat="45.91867" lon="4.74765">
        <ele>171</ele>
        <time>2018-04-20T12:02:26Z</time>
      </trkpt>
      <trkpt lat="45.91862" lon="4.74765">
        <ele>171</ele>
        <time>2018-04-20T12:02:27Z</time>
      </trkpt>
      <trkpt lat="45.91855" lon="4.7477">
        <ele>171</ele>
        <time>2018-04-20T12:02:29Z</time>
      </trkpt>
      <trkpt lat="45.91851" lon="4.74774">
        <ele>171</ele>
        <time>2018-04-20T12:02:30Z</time>
      </trkpt>
      <trkpt lat="45.91847" lon="4.74778">
        <ele>171</ele>
        <time>2018-04-20T12:02:31Z</time>
      </trkpt>
      <trkpt lat="45.91843" lon="4.74783">
        <ele>171</ele>
        <time>2018-04-20T12:02:32Z</time>
      </trkpt>
      <trkpt lat="45.91839" lon="4.74789">
        <ele>171</ele>
        <time>2018-04-20T12:02:33Z</time>
      </trkpt>
      <trkpt lat="45.91836" lon="4.74794">
        <ele>172</ele>
        <time>2018-04-20T12:02:34Z</time>
      </trkpt>
      <trkpt lat="45.91829" lon="4.74802">
        <ele>172</ele>
        <time>2018-04-20T12:02:36Z</time>
      </trkpt>
      <trkpt lat="45.91826" lon="4.74808">
        <ele>172</ele>
        <time>2018-04-20T12:02:37Z</time>
      </trkpt>
      <trkpt lat="45.91824" lon="4.74817">
        <ele>172</ele>
        <time>2018-04-20T12:02:38Z</time>
      </trkpt>
      <trkpt lat="45.91821" lon="4.74823">
        <ele>172</ele>
        <time>2018-04-20T12:02:39Z</time>
      </trkpt>
      <trkpt lat="45.91817" lon="4.74827">
        <ele>172</ele>
        <time>2018-04-20T12:02:40Z</time>
      </trkpt>
      <trkpt lat="45.91816" lon="4.74834">
        <ele>172</ele>
        <time>2018-04-20T12:02:41Z</time>
      </trkpt>
      <trkpt lat="45.91814" lon="4.7484">
        <ele>172</ele>
        <time>2018-04-20T12:02:42Z</time>
      </trkpt>
      <trkpt lat="45.91808" lon="4.74845">
        <ele>172</ele>
        <time>2018-04-20T12:02:43Z</time>
      </trkpt>
      <trkpt lat="45.91804" lon="4.74851">
        <ele>173</ele>
        <time>2018-04-20T12:02:44Z</time>
      </trkpt>
      <trkpt lat="45.91801" lon="4.74856">
        <ele>173</ele>
        <time>2018-04-20T12:02:45Z</time>
      </trkpt>
      <trkpt lat="45.91798" lon="4.74862">
        <ele>173</ele>
        <time>2018-04-20T12:02:46Z</time>
      </trkpt>
      <trkpt lat="45.91795" lon="4.74868">
        <ele>173</ele>
        <time>2018-04-20T12:02:47Z</time>
      </trkpt>
      <trkpt lat="45.91792" lon="4.74875">
        <ele>173</ele>
        <time>2018-04-20T12:02:48Z</time>
      </trkpt>
      <trkpt lat="45.91789" lon="4.74881">
        <ele>173</ele>
        <time>2018-04-20T12:02:49Z</time>
      </trkpt>
      <trkpt lat="45.91786" lon="4.74887">
        <ele>173</ele>
        <time>2018-04-20T12:02:50Z</time>
      </trkpt>
      <trkpt lat="45.91783" lon="4.74893">
        <ele>173</ele>
        <time>2018-04-20T12:02:51Z</time>
      </trkpt>
      <trkpt lat="45.91781" lon="4.74899">
        <ele>173</ele>
        <time>2018-04-20T12:02:52Z</time>
      </trkpt>
      <trkpt lat="45.91778" lon="4.74905">
        <ele>173</ele>
        <time>2018-04-20T12:02:53Z</time>
      </trkpt>
      <trkpt lat="45.91772" lon="4.74914">
        <ele>173</ele>
        <time>2018-04-20T12:02:55Z</time>
      </trkpt>
      <trkpt lat="45.91769" lon="4.74919">
        <ele>174</ele>
        <time>2018-04-20T12:02:56Z</time>
      </trkpt>
      <trkpt lat="45.91764" lon="4.74927">
        <ele>174</ele>
        <time>2018-04-20T12:02:58Z</time>
      </trkpt>
      <trkpt lat="45.9176" lon="4.74931">
        <ele>174</ele>
        <time>2018-04-20T12:02:59Z</time>
      </trkpt>
      <trkpt lat="45.91755" lon="4.74938">
        <ele>174</ele>
        <time>2018-04-20T12:03:01Z</time>
      </trkpt>
      <trkpt lat="45.91753" lon="4.74942">
        <ele>174</ele>
        <time>2018-04-20T12:03:02Z</time>
      </trkpt>
      <trkpt lat="45.91747" lon="4.74948">
        <ele>174</ele>
        <time>2018-04-20T12:03:04Z</time>
      </trkpt>
      <trkpt lat="45.91743" lon="4.74951">
        <ele>174</ele>
        <time>2018-04-20T12:03:05Z</time>
      </trkpt>
      <trkpt lat="45.91736" lon="4.74955">
        <ele>175</ele>
        <time>2018-04-20T12:03:07Z</time>
      </trkpt>
      <trkpt lat="45.91732" lon="4.74958">
        <ele>175</ele>
        <time>2018-04-20T12:03:08Z</time>
      </trkpt>
      <trkpt lat="45.91726" lon="4.74964">
        <ele>175</ele>
        <time>2018-04-20T12:03:10Z</time>
      </trkpt>
      <trkpt lat="45.91722" lon="4.74967">
        <ele>175</ele>
        <time>2018-04-20T12:03:11Z</time>
      </trkpt>
      <trkpt lat="45.91715" lon="4.74973">
        <ele>175</ele>
        <time>2018-04-20T12:03:13Z</time>
      </trkpt>
      <trkpt lat="45.91711" lon="4.74976">
        <ele>175</ele>
        <time>2018-04-20T12:03:14Z</time>
      </trkpt>
      <trkpt lat="45.91703" lon="4.7498">
        <ele>175</ele>
        <time>2018-04-20T12:03:16Z</time>
      </trkpt>
      <trkpt lat="45.91699" lon="4.74982">
        <ele>175</ele>
        <time>2018-04-20T12:03:17Z</time>
      </trkpt>
      <trkpt lat="45.9169" lon="4.74984">
        <ele>175</ele>
        <time>2018-04-20T12:03:19Z</time>
      </trkpt>
      <trkpt lat="45.91685" lon="4.74983">
        <ele>175</ele>
        <time>2018-04-20T12:03:20Z</time>
      </trkpt>
      <trkpt lat="45.91681" lon="4.74981">
        <ele>175</ele>
        <time>2018-04-20T12:03:21Z</time>
      </trkpt>
      <trkpt lat="45.91677" lon="4.74979">
        <ele>175</ele>
        <time>2018-04-20T12:03:22Z</time>
      </trkpt>
      <trkpt lat="45.91668" lon="4.74976">
        <ele>175</ele>
        <time>2018-04-20T12:03:24Z</time>
      </trkpt>
      <trkpt lat="45.91664" lon="4.74974">
        <ele>176</ele>
        <time>2018-04-20T12:03:25Z</time>
      </trkpt>
      <trkpt lat="45.91656" lon="4.74971">
        <ele>176</ele>
        <time>2018-04-20T12:03:27Z</time>
      </trkpt>
      <trkpt lat="45.91652" lon="4.74969">
        <ele>176</ele>
        <time>2018-04-20T12:03:28Z</time>
      </trkpt>
      <trkpt lat="45.91643" lon="4.74965">
        <ele>176</ele>
        <time>2018-04-20T12:03:30Z</time>
      </trkpt>
      <trkpt lat="45.91639" lon="4.74965">
        <ele>176</ele>
        <time>2018-04-20T12:03:31Z</time>
      </trkpt>
      <trkpt lat="45.91635" lon="4.74962">
        <ele>176</ele>
        <time>2018-04-20T12:03:32Z</time>
      </trkpt>
      <trkpt lat="45.9163" lon="4.7496">
        <ele>176</ele>
        <time>2018-04-20T12:03:33Z</time>
      </trkpt>
      <trkpt lat="45.91625" lon="4.74958">
        <ele>176</ele>
        <time>2018-04-20T12:03:34Z</time>
      </trkpt>
      <trkpt lat="45.9162" lon="4.74955">
        <ele>177</ele>
        <time>2018-04-20T12:03:35Z</time>
      </trkpt>
      <trkpt lat="45.91612" lon="4.74951">
        <ele>177</ele>
        <time>2018-04-20T12:03:37Z</time>
      </trkpt>
      <trkpt lat="45.91606" lon="4.74951">
        <ele>177</ele>
        <time>2018-04-20T12:03:38Z</time>
      </trkpt>
      <trkpt lat="45.91598" lon="4.74946">
        <ele>177</ele>
        <time>2018-04-20T12:03:40Z</time>
      </trkpt>
      <trkpt lat="45.91593" lon="4.74944">
        <ele>177</ele>
        <time>2018-04-20T12:03:41Z</time>
      </trkpt>
      <trkpt lat="45.91585" lon="4.74941">
        <ele>177</ele>
        <time>2018-04-20T12:03:43Z</time>
      </trkpt>
      <trkpt lat="45.91582" lon="4.74938">
        <ele>177</ele>
        <time>2018-04-20T12:03:44Z</time>
      </trkpt>
      <trkpt lat="45.91575" lon="4.74938">
        <ele>178</ele>
        <time>2018-04-20T12:03:46Z</time>
      </trkpt>
      <trkpt lat="45.9157" lon="4.74936">
        <ele>177</ele>
        <time>2018-04-20T12:03:47Z</time>
      </trkpt>
      <trkpt lat="45.91565" lon="4.74936">
        <ele>178</ele>
        <time>2018-04-20T12:03:48Z</time>
      </trkpt>
      <trkpt lat="45.91561" lon="4.74935">
        <ele>178</ele>
        <time>2018-04-20T12:03:49Z</time>
      </trkpt>
      <trkpt lat="45.91556" lon="4.74935">
        <ele>178</ele>
        <time>2018-04-20T12:03:50Z</time>
      </trkpt>
      <trkpt lat="45.91551" lon="4.74935">
        <ele>178</ele>
        <time>2018-04-20T12:03:51Z</time>
      </trkpt>
      <trkpt lat="45.91547" lon="4.74935">
        <ele>178</ele>
        <time>2018-04-20T12:03:52Z</time>
      </trkpt>
      <trkpt lat="45.91542" lon="4.74935">
        <ele>178</ele>
        <time>2018-04-20T12:03:53Z</time>
      </trkpt>
      <trkpt lat="45.91533" lon="4.74936">
        <ele>178</ele>
        <time>2018-04-20T12:03:55Z</time>
      </trkpt>
      <trkpt lat="45.9153" lon="4.74936">
        <ele>178</ele>
        <time>2018-04-20T12:03:56Z</time>
      </trkpt>
      <trkpt lat="45.91525" lon="4.74935">
        <ele>177</ele>
        <time>2018-04-20T12:03:57Z</time>
      </trkpt>
      <trkpt lat="45.9152" lon="4.74933">
        <ele>177</ele>
        <time>2018-04-20T12:03:58Z</time>
      </trkpt>
      <trkpt lat="45.91511" lon="4.74931">
        <ele>177</ele>
        <time>2018-04-20T12:04:00Z</time>
      </trkpt>
      <trkpt lat="45.91507" lon="4.7493">
        <ele>177</ele>
        <time>2018-04-20T12:04:01Z</time>
      </trkpt>
      <trkpt lat="45.91503" lon="4.74931">
        <ele>177</ele>
        <time>2018-04-20T12:04:02Z</time>
      </trkpt>
      <trkpt lat="45.91498" lon="4.7493">
        <ele>177</ele>
        <time>2018-04-20T12:04:03Z</time>
      </trkpt>
      <trkpt lat="45.9149" lon="4.7493">
        <ele>178</ele>
        <time>2018-04-20T12:04:05Z</time>
      </trkpt>
      <trkpt lat="45.91485" lon="4.7493">
        <ele>178</ele>
        <time>2018-04-20T12:04:06Z</time>
      </trkpt>
      <trkpt lat="45.91481" lon="4.74929">
        <ele>178</ele>
        <time>2018-04-20T12:04:07Z</time>
      </trkpt>
      <trkpt lat="45.91476" lon="4.74929">
        <ele>178</ele>
        <time>2018-04-20T12:04:08Z</time>
      </trkpt>
      <trkpt lat="45.9147" lon="4.74928">
        <ele>178</ele>
        <time>2018-04-20T12:04:09Z</time>
      </trkpt>
      <trkpt lat="45.91466" lon="4.74927">
        <ele>178</ele>
        <time>2018-04-20T12:04:10Z</time>
      </trkpt>
      <trkpt lat="45.91462" lon="4.74926">
        <ele>178</ele>
        <time>2018-04-20T12:04:11Z</time>
      </trkpt>
      <trkpt lat="45.91457" lon="4.74926">
        <ele>178</ele>
        <time>2018-04-20T12:04:12Z</time>
      </trkpt>
      <trkpt lat="45.9145" lon="4.7492">
        <ele>178</ele>
        <time>2018-04-20T12:04:14Z</time>
      </trkpt>
      <trkpt lat="45.91445" lon="4.74916">
        <ele>177</ele>
        <time>2018-04-20T12:04:15Z</time>
      </trkpt>
      <trkpt lat="45.91439" lon="4.74913">
        <ele>177</ele>
        <time>2018-04-20T12:04:16Z</time>
      </trkpt>
      <trkpt lat="45.91427" lon="4.74915">
        <ele>177</ele>
        <time>2018-04-20T12:04:17Z</time>
      </trkpt>
      <trkpt lat="45.9142" lon="4.74913">
        <ele>178</ele>
        <time>2018-04-20T12:04:19Z</time>
      </trkpt>
      <trkpt lat="45.91415" lon="4.74912">
        <ele>178</ele>
        <time>2018-04-20T12:04:20Z</time>
      </trkpt>
      <trkpt lat="45.9141" lon="4.74911">
        <ele>177</ele>
        <time>2018-04-20T12:04:22Z</time>
      </trkpt>
      <trkpt lat="45.91404" lon="4.7491">
        <ele>177</ele>
        <time>2018-04-20T12:04:23Z</time>
      </trkpt>
      <trkpt lat="45.914" lon="4.74909">
        <ele>177</ele>
        <time>2018-04-20T12:04:24Z</time>
      </trkpt>
      <trkpt lat="45.91394" lon="4.74907">
        <ele>177</ele>
        <time>2018-04-20T12:04:25Z</time>
      </trkpt>
      <trkpt lat="45.91389" lon="4.74905">
        <ele>177</ele>
        <time>2018-04-20T12:04:26Z</time>
      </trkpt>
      <trkpt lat="45.91383" lon="4.74903">
        <ele>177</ele>
        <time>2018-04-20T12:04:27Z</time>
      </trkpt>
      <trkpt lat="45.91377" lon="4.74902">
        <ele>177</ele>
        <time>2018-04-20T12:04:28Z</time>
      </trkpt>
      <trkpt lat="45.91375" lon="4.74897">
        <ele>177</ele>
        <time>2018-04-20T12:04:29Z</time>
      </trkpt>
      <trkpt lat="45.9137" lon="4.74895">
        <ele>177</ele>
        <time>2018-04-20T12:04:30Z</time>
      </trkpt>
      <trkpt lat="45.91366" lon="4.74893">
        <ele>176</ele>
        <time>2018-04-20T12:04:31Z</time>
      </trkpt>
      <trkpt lat="45.91357" lon="4.7489">
        <ele>176</ele>
        <time>2018-04-20T12:04:33Z</time>
      </trkpt>
      <trkpt lat="45.91353" lon="4.74888">
        <ele>176</ele>
        <time>2018-04-20T12:04:34Z</time>
      </trkpt>
      <trkpt lat="45.91348" lon="4.74888">
        <ele>176</ele>
        <time>2018-04-20T12:04:35Z</time>
      </trkpt>
      <trkpt lat="45.91343" lon="4.74887">
        <ele>176</ele>
        <time>2018-04-20T12:04:36Z</time>
      </trkpt>
      <trkpt lat="45.91336" lon="4.74883">
        <ele>176</ele>
        <time>2018-04-20T12:04:40Z</time>
      </trkpt>
      <trkpt lat="45.91334" lon="4.74883">
        <ele>176</ele>
        <time>2018-04-20T12:04:41Z</time>
      </trkpt>
      <trkpt lat="45.91326" lon="4.7488">
        <ele>176</ele>
        <time>2018-04-20T12:04:46Z</time>
      </trkpt>
      <trkpt lat="45.91325" lon="4.74879">
        <ele>176</ele>
        <time>2018-04-20T12:04:47Z</time>
      </trkpt>
      <trkpt lat="45.91325" lon="4.74879">
        <ele>176</ele>
        <time>2018-04-20T12:04:48Z</time>
      </trkpt>
      <trkpt lat="45.91324" lon="4.74879">
        <ele>176</ele>
        <time>2018-04-20T12:04:49Z</time>
      </trkpt>
      <trkpt lat="45.91322" lon="4.74879">
        <ele>176</ele>
        <time>2018-04-20T12:04:59Z</time>
      </trkpt>
      <trkpt lat="45.91322" lon="4.74879">
        <ele>176</ele>
        <time>2018-04-20T12:05:00Z</time>
      </trkpt>
      <trkpt lat="45.91316" lon="4.74884">
        <ele>176</ele>
        <time>2018-04-20T12:05:05Z</time>
      </trkpt>
      <trkpt lat="45.91315" lon="4.74887">
        <ele>176</ele>
        <time>2018-04-20T12:05:06Z</time>
      </trkpt>
      <trkpt lat="45.91312" lon="4.74897">
        <ele>176</ele>
        <time>2018-04-20T12:05:09Z</time>
      </trkpt>
      <trkpt lat="45.91311" lon="4.749">
        <ele>176</ele>
        <time>2018-04-20T12:05:10Z</time>
      </trkpt>
      <trkpt lat="45.91309" lon="4.74912">
        <ele>176</ele>
        <time>2018-04-20T12:06:13Z</time>
      </trkpt>
      <trkpt lat="45.91309" lon="4.74913">
        <ele>176</ele>
        <time>2018-04-20T12:06:14Z</time>
      </trkpt>
      <trkpt lat="45.91308" lon="4.74923">
        <ele>177</ele>
        <time>2018-04-20T12:06:18Z</time>
      </trkpt>
      <trkpt lat="45.91308" lon="4.74926">
        <ele>177</ele>
        <time>2018-04-20T12:06:19Z</time>
      </trkpt>
      <trkpt lat="45.91307" lon="4.74937">
        <ele>177</ele>
        <time>2018-04-20T12:06:22Z</time>
      </trkpt>
      <trkpt lat="45.91306" lon="4.7494">
        <ele>177</ele>
        <time>2018-04-20T12:06:23Z</time>
      </trkpt>
      <trkpt lat="45.91305" lon="4.74951">
        <ele>177</ele>
        <time>2018-04-20T12:06:26Z</time>
      </trkpt>
      <trkpt lat="45.91305" lon="4.74955">
        <ele>177</ele>
        <time>2018-04-20T12:06:27Z</time>
      </trkpt>
      <trkpt lat="45.91304" lon="4.74964">
        <ele>177</ele>
        <time>2018-04-20T12:06:29Z</time>
      </trkpt>
      <trkpt lat="45.91303" lon="4.74977">
        <ele>177</ele>
        <time>2018-04-20T12:06:30Z</time>
      </trkpt>
      <trkpt lat="45.91301" lon="4.74987">
        <ele>177</ele>
        <time>2018-04-20T12:06:32Z</time>
      </trkpt>
      <trkpt lat="45.91301" lon="4.74992">
        <ele>177</ele>
        <time>2018-04-20T12:06:33Z</time>
      </trkpt>
      <trkpt lat="45.913" lon="4.75004">
        <ele>177</ele>
        <time>2018-04-20T12:06:35Z</time>
      </trkpt>
      <trkpt lat="45.91299" lon="4.7501">
        <ele>177</ele>
        <time>2018-04-20T12:06:36Z</time>
      </trkpt>
      <trkpt lat="45.91298" lon="4.75022">
        <ele>177</ele>
        <time>2018-04-20T12:06:38Z</time>
      </trkpt>
      <trkpt lat="45.91298" lon="4.75028">
        <ele>177</ele>
        <time>2018-04-20T12:06:39Z</time>
      </trkpt>
      <trkpt lat="45.91298" lon="4.75035">
        <ele>177</ele>
        <time>2018-04-20T12:06:40Z</time>
      </trkpt>
      <trkpt lat="45.91298" lon="4.75041">
        <ele>177</ele>
        <time>2018-04-20T12:06:41Z</time>
      </trkpt>
      <trkpt lat="45.91299" lon="4.75047">
        <ele>177</ele>
        <time>2018-04-20T12:06:42Z</time>
      </trkpt>
      <trkpt lat="45.91301" lon="4.75054">
        <ele>177</ele>
        <time>2018-04-20T12:06:43Z</time>
      </trkpt>
      <trkpt lat="45.91302" lon="4.75061">
        <ele>177</ele>
        <time>2018-04-20T12:06:44Z</time>
      </trkpt>
      <trkpt lat="45.91302" lon="4.75068">
        <ele>177</ele>
        <time>2018-04-20T12:06:45Z</time>
      </trkpt>
      <trkpt lat="45.91301" lon="4.75075">
        <ele>177</ele>
        <time>2018-04-20T12:06:46Z</time>
      </trkpt>
      <trkpt lat="45.91302" lon="4.75081">
        <ele>177</ele>
        <time>2018-04-20T12:06:47Z</time>
      </trkpt>
      <trkpt lat="45.91303" lon="4.75094">
        <ele>177</ele>
        <time>2018-04-20T12:06:49Z</time>
      </trkpt>
      <trkpt lat="45.91304" lon="4.75099">
        <ele>177</ele>
        <time>2018-04-20T12:06:50Z</time>
      </trkpt>
      <trkpt lat="45.91304" lon="4.75111">
        <ele>177</ele>
        <time>2018-04-20T12:06:52Z</time>
      </trkpt>
      <trkpt lat="45.91305" lon="4.75117">
        <ele>177</ele>
        <time>2018-04-20T12:06:53Z</time>
      </trkpt>
      <trkpt lat="45.91305" lon="4.75127">
        <ele>177</ele>
        <time>2018-04-20T12:06:55Z</time>
      </trkpt>
      <trkpt lat="45.91305" lon="4.75132">
        <ele>177</ele>
        <time>2018-04-20T12:06:56Z</time>
      </trkpt>
      <trkpt lat="45.91305" lon="4.75144">
        <ele>177</ele>
        <time>2018-04-20T12:06:58Z</time>
      </trkpt>
      <trkpt lat="45.91305" lon="4.75147">
        <ele>177</ele>
        <time>2018-04-20T12:06:59Z</time>
      </trkpt>
      <trkpt lat="45.913" lon="4.75157">
        <ele>177</ele>
        <time>2018-04-20T12:07:04Z</time>
      </trkpt>
      <trkpt lat="45.91297" lon="4.75157">
        <ele>177</ele>
        <time>2018-04-20T12:07:05Z</time>
      </trkpt>
      <trkpt lat="45.91288" lon="4.75154">
        <ele>177</ele>
        <time>2018-04-20T12:07:08Z</time>
      </trkpt>
      <trkpt lat="45.91286" lon="4.75153">
        <ele>177</ele>
        <time>2018-04-20T12:07:09Z</time>
      </trkpt>
      <trkpt lat="45.91278" lon="4.75148">
        <ele>177</ele>
        <time>2018-04-20T12:07:13Z</time>
      </trkpt>
      <trkpt lat="45.91276" lon="4.75146">
        <ele>177</ele>
        <time>2018-04-20T12:07:14Z</time>
      </trkpt>
      <trkpt lat="45.91269" lon="4.75139">
        <ele>177</ele>
        <time>2018-04-20T12:07:23Z</time>
      </trkpt>
      <trkpt lat="45.91268" lon="4.75138">
        <ele>177</ele>
        <time>2018-04-20T12:07:24Z</time>
      </trkpt>
      <trkpt lat="45.91261" lon="4.75135">
        <ele>177</ele>
        <time>2018-04-20T12:07:29Z</time>
      </trkpt>
      <trkpt lat="45.91258" lon="4.75134">
        <ele>177</ele>
        <time>2018-04-20T12:07:30Z</time>
      </trkpt>
      <trkpt lat="45.91251" lon="4.7513">
        <ele>177</ele>
        <time>2018-04-20T12:07:32Z</time>
      </trkpt>
      <trkpt lat="45.91248" lon="4.75129">
        <ele>177</ele>
        <time>2018-04-20T12:07:33Z</time>
      </trkpt>
      <trkpt lat="45.91241" lon="4.75126">
        <ele>177</ele>
        <time>2018-04-20T12:07:35Z</time>
      </trkpt>
      <trkpt lat="45.91238" lon="4.75124">
        <ele>177</ele>
        <time>2018-04-20T12:07:36Z</time>
      </trkpt>
      <trkpt lat="45.91229" lon="4.75121">
        <ele>177</ele>
        <time>2018-04-20T12:07:37Z</time>
      </trkpt>
      <trkpt lat="45.91222" lon="4.75118">
        <ele>177</ele>
        <time>2018-04-20T12:07:40Z</time>
      </trkpt>
      <trkpt lat="45.9122" lon="4.75118">
        <ele>177</ele>
        <time>2018-04-20T12:07:41Z</time>
      </trkpt>
      <trkpt lat="45.91212" lon="4.75116">
        <ele>177</ele>
        <time>2018-04-20T12:07:44Z</time>
      </trkpt>
      <trkpt lat="45.91209" lon="4.75115">
        <ele>177</ele>
        <time>2018-04-20T12:07:45Z</time>
      </trkpt>
      <trkpt lat="45.91199" lon="4.75112">
        <ele>178</ele>
        <time>2018-04-20T12:07:46Z</time>
      </trkpt>
      <trkpt lat="45.91191" lon="4.7511">
        <ele>178</ele>
        <time>2018-04-20T12:07:48Z</time>
      </trkpt>
      <trkpt lat="45.91187" lon="4.7511">
        <ele>178</ele>
        <time>2018-04-20T12:07:49Z</time>
      </trkpt>
      <trkpt lat="45.91179" lon="4.75108">
        <ele>178</ele>
        <time>2018-04-20T12:07:51Z</time>
      </trkpt>
      <trkpt lat="45.91177" lon="4.75108">
        <ele>178</ele>
        <time>2018-04-20T12:07:52Z</time>
      </trkpt>
      <trkpt lat="45.91171" lon="4.75106">
        <ele>178</ele>
        <time>2018-04-20T12:07:53Z</time>
      </trkpt>
      <trkpt lat="45.91167" lon="4.75106">
        <ele>178</ele>
        <time>2018-04-20T12:07:54Z</time>
      </trkpt>
      <trkpt lat="45.91159" lon="4.75104">
        <ele>179</ele>
        <time>2018-04-20T12:07:56Z</time>
      </trkpt>
      <trkpt lat="45.91154" lon="4.75103">
        <ele>179</ele>
        <time>2018-04-20T12:07:57Z</time>
      </trkpt>
      <trkpt lat="45.91146" lon="4.75101">
        <ele>179</ele>
        <time>2018-04-20T12:07:59Z</time>
      </trkpt>
      <trkpt lat="45.91143" lon="4.751">
        <ele>179</ele>
        <time>2018-04-20T12:08:00Z</time>
      </trkpt>
      <trkpt lat="45.91135" lon="4.75098">
        <ele>179</ele>
        <time>2018-04-20T12:08:03Z</time>
      </trkpt>
      <trkpt lat="45.91133" lon="4.75097">
        <ele>179</ele>
        <time>2018-04-20T12:08:04Z</time>
      </trkpt>
      <trkpt lat="45.91126" lon="4.75094">
        <ele>179</ele>
        <time>2018-04-20T12:08:05Z</time>
      </trkpt>
      <trkpt lat="45.91122" lon="4.75092">
        <ele>179</ele>
        <time>2018-04-20T12:08:06Z</time>
      </trkpt>
      <trkpt lat="45.91115" lon="4.7509">
        <ele>179</ele>
        <time>2018-04-20T12:08:08Z</time>
      </trkpt>
      <trkpt lat="45.9111" lon="4.75088">
        <ele>180</ele>
        <time>2018-04-20T12:08:09Z</time>
      </trkpt>
      <trkpt lat="45.91105" lon="4.75086">
        <ele>180</ele>
        <time>2018-04-20T12:08:10Z</time>
      </trkpt>
      <trkpt lat="45.91101" lon="4.75084">
        <ele>180</ele>
        <time>2018-04-20T12:08:11Z</time>
      </trkpt>
      <trkpt lat="45.91097" lon="4.7508">
        <ele>179</ele>
        <time>2018-04-20T12:08:12Z</time>
      </trkpt>
      <trkpt lat="45.91092" lon="4.75078">
        <ele>179</ele>
        <time>2018-04-20T12:08:13Z</time>
      </trkpt>
      <trkpt lat="45.91088" lon="4.75076">
        <ele>180</ele>
        <time>2018-04-20T12:08:14Z</time>
      </trkpt>
      <trkpt lat="45.91083" lon="4.75076">
        <ele>180</ele>
        <time>2018-04-20T12:08:15Z</time>
      </trkpt>
      <trkpt lat="45.91076" lon="4.75074">
        <ele>179</ele>
        <time>2018-04-20T12:08:18Z</time>
      </trkpt>
      <trkpt lat="45.91069" lon="4.75072">
        <ele>179</ele>
        <time>2018-04-20T12:08:19Z</time>
      </trkpt>
      <trkpt lat="45.91062" lon="4.75069">
        <ele>179</ele>
        <time>2018-04-20T12:08:22Z</time>
      </trkpt>
      <trkpt lat="45.9106" lon="4.75068">
        <ele>179</ele>
        <time>2018-04-20T12:08:23Z</time>
      </trkpt>
      <trkpt lat="45.91052" lon="4.75066">
        <ele>179</ele>
        <time>2018-04-20T12:08:26Z</time>
      </trkpt>
      <trkpt lat="45.91049" lon="4.75065">
        <ele>179</ele>
        <time>2018-04-20T12:08:27Z</time>
      </trkpt>
      <trkpt lat="45.9104" lon="4.75062">
        <ele>179</ele>
        <time>2018-04-20T12:08:28Z</time>
      </trkpt>
      <trkpt lat="45.91033" lon="4.75059">
        <ele>179</ele>
        <time>2018-04-20T12:08:31Z</time>
      </trkpt>
      <trkpt lat="45.91025" lon="4.75056">
        <ele>179</ele>
        <time>2018-04-20T12:08:32Z</time>
      </trkpt>
      <trkpt lat="45.91017" lon="4.75053">
        <ele>179</ele>
        <time>2018-04-20T12:08:34Z</time>
      </trkpt>
      <trkpt lat="45.91013" lon="4.75051">
        <ele>178</ele>
        <time>2018-04-20T12:08:35Z</time>
      </trkpt>
      <trkpt lat="45.91005" lon="4.75046">
        <ele>178</ele>
        <time>2018-04-20T12:08:37Z</time>
      </trkpt>
      <trkpt lat="45.91001" lon="4.75046">
        <ele>178</ele>
        <time>2018-04-20T12:08:38Z</time>
      </trkpt>
      <trkpt lat="45.90992" lon="4.75043">
        <ele>179</ele>
        <time>2018-04-20T12:08:40Z</time>
      </trkpt>
      <trkpt lat="45.90987" lon="4.75042">
        <ele>179</ele>
        <time>2018-04-20T12:08:41Z</time>
      </trkpt>
      <trkpt lat="45.90981" lon="4.75038">
        <ele>178</ele>
        <time>2018-04-20T12:08:43Z</time>
      </trkpt>
      <trkpt lat="45.90978" lon="4.75036">
        <ele>178</ele>
        <time>2018-04-20T12:08:44Z</time>
      </trkpt>
      <trkpt lat="45.90971" lon="4.75032">
        <ele>178</ele>
        <time>2018-04-20T12:08:47Z</time>
      </trkpt>
      <trkpt lat="45.90968" lon="4.75032">
        <ele>179</ele>
        <time>2018-04-20T12:08:48Z</time>
      </trkpt>
      <trkpt lat="45.90965" lon="4.75033">
        <ele>179</ele>
        <time>2018-04-20T12:08:49Z</time>
      </trkpt>
      <trkpt lat="45.90958" lon="4.75037">
        <ele>179</ele>
        <time>2018-04-20T12:08:50Z</time>
      </trkpt>
      <trkpt lat="45.90955" lon="4.75047">
        <ele>179</ele>
        <time>2018-04-20T12:08:53Z</time>
      </trkpt>
      <trkpt lat="45.90955" lon="4.75051">
        <ele>179</ele>
        <time>2018-04-20T12:08:54Z</time>
      </trkpt>
      <trkpt lat="45.90954" lon="4.75063">
        <ele>179</ele>
        <time>2018-04-20T12:08:57Z</time>
      </trkpt>
      <trkpt lat="45.90954" lon="4.75068">
        <ele>179</ele>
        <time>2018-04-20T12:08:58Z</time>
      </trkpt>
      <trkpt lat="45.90954" lon="4.75081">
        <ele>179</ele>
        <time>2018-04-20T12:08:59Z</time>
      </trkpt>
      <trkpt lat="45.90953" lon="4.75092">
        <ele>181</ele>
        <time>2018-04-20T12:09:01Z</time>
      </trkpt>
      <trkpt lat="45.90953" lon="4.75098">
        <ele>181</ele>
        <time>2018-04-20T12:09:02Z</time>
      </trkpt>
      <trkpt lat="45.90952" lon="4.75109">
        <ele>181</ele>
        <time>2018-04-20T12:09:04Z</time>
      </trkpt>
      <trkpt lat="45.90952" lon="4.75114">
        <ele>181</ele>
        <time>2018-04-20T12:09:05Z</time>
      </trkpt>
      <trkpt lat="45.90951" lon="4.75127">
        <ele>181</ele>
        <time>2018-04-20T12:09:08Z</time>
      </trkpt>
      <trkpt lat="45.90951" lon="4.7513">
        <ele>181</ele>
        <time>2018-04-20T12:09:09Z</time>
      </trkpt>
      <trkpt lat="45.9095" lon="4.75141">
        <ele>182</ele>
        <time>2018-04-20T12:09:12Z</time>
      </trkpt>
      <trkpt lat="45.90949" lon="4.75144">
        <ele>182</ele>
        <time>2018-04-20T12:09:13Z</time>
      </trkpt>
      <trkpt lat="45.90949" lon="4.75152">
        <ele>182</ele>
        <time>2018-04-20T12:09:15Z</time>
      </trkpt>
      <trkpt lat="45.90947" lon="4.75164">
        <ele>182</ele>
        <time>2018-04-20T12:09:16Z</time>
      </trkpt>
      <trkpt lat="45.90946" lon="4.75175">
        <ele>183</ele>
        <time>2018-04-20T12:09:20Z</time>
      </trkpt>
      <trkpt lat="45.90946" lon="4.75178">
        <ele>183</ele>
        <time>2018-04-20T12:09:21Z</time>
      </trkpt>
      <trkpt lat="45.90945" lon="4.75191">
        <ele>183</ele>
        <time>2018-04-20T12:09:24Z</time>
      </trkpt>
      <trkpt lat="45.90945" lon="4.75195">
        <ele>183</ele>
        <time>2018-04-20T12:09:25Z</time>
      </trkpt>
      <trkpt lat="45.90944" lon="4.75204">
        <ele>184</ele>
        <time>2018-04-20T12:09:27Z</time>
      </trkpt>
      <trkpt lat="45.90943" lon="4.75208">
        <ele>184</ele>
        <time>2018-04-20T12:09:28Z</time>
      </trkpt>
      <trkpt lat="45.90942" lon="4.75221">
        <ele>184</ele>
        <time>2018-04-20T12:09:29Z</time>
      </trkpt>
      <trkpt lat="45.90942" lon="4.75223">
        <ele>184</ele>
        <time>2018-04-20T12:09:30Z</time>
      </trkpt>
      <trkpt lat="45.90941" lon="4.75232">
        <ele>184</ele>
        <time>2018-04-20T12:09:33Z</time>
      </trkpt>
      <trkpt lat="45.90941" lon="4.75236">
        <ele>184</ele>
        <time>2018-04-20T12:09:34Z</time>
      </trkpt>
      <trkpt lat="45.90941" lon="4.75248">
        <ele>184</ele>
        <time>2018-04-20T12:09:37Z</time>
      </trkpt>
      <trkpt lat="45.90941" lon="4.75252">
        <ele>185</ele>
        <time>2018-04-20T12:09:38Z</time>
      </trkpt>
      <trkpt lat="45.9094" lon="4.75261">
        <ele>185</ele>
        <time>2018-04-20T12:09:40Z</time>
      </trkpt>
      <trkpt lat="45.9094" lon="4.75266">
        <ele>185</ele>
        <time>2018-04-20T12:09:41Z</time>
      </trkpt>
      <trkpt lat="45.90939" lon="4.75274">
        <ele>185</ele>
        <time>2018-04-20T12:09:43Z</time>
      </trkpt>
      <trkpt lat="45.90939" lon="4.75279">
        <ele>185</ele>
        <time>2018-04-20T12:09:44Z</time>
      </trkpt>
      <trkpt lat="45.90938" lon="4.75288">
        <ele>185</ele>
        <time>2018-04-20T12:09:46Z</time>
      </trkpt>
      <trkpt lat="45.90938" lon="4.75293">
        <ele>185</ele>
        <time>2018-04-20T12:09:47Z</time>
      </trkpt>
      <trkpt lat="45.90937" lon="4.75298">
        <ele>185</ele>
        <time>2018-04-20T12:09:48Z</time>
      </trkpt>
      <trkpt lat="45.90936" lon="4.75313">
        <ele>185</ele>
        <time>2018-04-20T12:09:49Z</time>
      </trkpt>
      <trkpt lat="45.90934" lon="4.75324">
        <ele>185</ele>
        <time>2018-04-20T12:09:51Z</time>
      </trkpt>
      <trkpt lat="45.90934" lon="4.75329">
        <ele>185</ele>
        <time>2018-04-20T12:09:52Z</time>
      </trkpt>
      <trkpt lat="45.90932" lon="4.75339">
        <ele>185</ele>
        <time>2018-04-20T12:09:54Z</time>
      </trkpt>
      <trkpt lat="45.90932" lon="4.75344">
        <ele>185</ele>
        <time>2018-04-20T12:09:55Z</time>
      </trkpt>
      <trkpt lat="45.9093" lon="4.75355">
        <ele>185</ele>
        <time>2018-04-20T12:09:58Z</time>
      </trkpt>
      <trkpt lat="45.9093" lon="4.75363">
        <ele>185</ele>
        <time>2018-04-20T12:09:59Z</time>
      </trkpt>
      <trkpt lat="45.90929" lon="4.75374">
        <ele>185</ele>
        <time>2018-04-20T12:10:01Z</time>
      </trkpt>
      <trkpt lat="45.90928" lon="4.75379">
        <ele>185</ele>
        <time>2018-04-20T12:10:02Z</time>
      </trkpt>
      <trkpt lat="45.90927" lon="4.7539">
        <ele>185</ele>
        <time>2018-04-20T12:10:04Z</time>
      </trkpt>
      <trkpt lat="45.90927" lon="4.75396">
        <ele>185</ele>
        <time>2018-04-20T12:10:05Z</time>
      </trkpt>
      <trkpt lat="45.90926" lon="4.75402">
        <ele>185</ele>
        <time>2018-04-20T12:10:07Z</time>
      </trkpt>
      <trkpt lat="45.90925" lon="4.7541">
        <ele>185</ele>
        <time>2018-04-20T12:10:08Z</time>
      </trkpt>
      <trkpt lat="45.90925" lon="4.75422">
        <ele>185</ele>
        <time>2018-04-20T12:10:10Z</time>
      </trkpt>
      <trkpt lat="45.90924" lon="4.75427">
        <ele>185</ele>
        <time>2018-04-20T12:10:11Z</time>
      </trkpt>
      <trkpt lat="45.90923" lon="4.75439">
        <ele>185</ele>
        <time>2018-04-20T12:10:13Z</time>
      </trkpt>
      <trkpt lat="45.90922" lon="4.75445">
        <ele>185</ele>
        <time>2018-04-20T12:10:14Z</time>
      </trkpt>
      <trkpt lat="45.90921" lon="4.75455">
        <ele>185</ele>
        <time>2018-04-20T12:10:17Z</time>
      </trkpt>
      <trkpt lat="45.9092" lon="4.75459">
        <ele>185</ele>
        <time>2018-04-20T12:10:18Z</time>
      </trkpt>
      <trkpt lat="45.9092" lon="4.75463">
        <ele>185</ele>
        <time>2018-04-20T12:10:19Z</time>
      </trkpt>
      <trkpt lat="45.90918" lon="4.75475">
        <ele>186</ele>
        <time>2018-04-20T12:10:20Z</time>
      </trkpt>
      <trkpt lat="45.90918" lon="4.75483">
        <ele>186</ele>
        <time>2018-04-20T12:10:22Z</time>
      </trkpt>
      <trkpt lat="45.90917" lon="4.75489">
        <ele>186</ele>
        <time>2018-04-20T12:10:23Z</time>
      </trkpt>
      <trkpt lat="45.90915" lon="4.755">
        <ele>186</ele>
        <time>2018-04-20T12:10:25Z</time>
      </trkpt>
      <trkpt lat="45.90914" lon="4.75505">
        <ele>186</ele>
        <time>2018-04-20T12:10:26Z</time>
      </trkpt>
      <trkpt lat="45.90912" lon="4.75515">
        <ele>186</ele>
        <time>2018-04-20T12:10:28Z</time>
      </trkpt>
      <trkpt lat="45.90912" lon="4.7552">
        <ele>186</ele>
        <time>2018-04-20T12:10:29Z</time>
      </trkpt>
      <trkpt lat="45.90911" lon="4.75532">
        <ele>186</ele>
        <time>2018-04-20T12:10:32Z</time>
      </trkpt>
      <trkpt lat="45.9091" lon="4.75539">
        <ele>186</ele>
        <time>2018-04-20T12:10:33Z</time>
      </trkpt>
      <trkpt lat="45.90909" lon="4.75549">
        <ele>186</ele>
        <time>2018-04-20T12:10:35Z</time>
      </trkpt>
      <trkpt lat="45.90909" lon="4.75554">
        <ele>186</ele>
        <time>2018-04-20T12:10:36Z</time>
      </trkpt>
      <trkpt lat="45.90907" lon="4.75566">
        <ele>186</ele>
        <time>2018-04-20T12:10:38Z</time>
      </trkpt>
      <trkpt lat="45.90907" lon="4.75572">
        <ele>185</ele>
        <time>2018-04-20T12:10:39Z</time>
      </trkpt>
      <trkpt lat="45.90905" lon="4.75584">
        <ele>185</ele>
        <time>2018-04-20T12:10:41Z</time>
      </trkpt>
      <trkpt lat="45.90904" lon="4.75589">
        <ele>185</ele>
        <time>2018-04-20T12:10:42Z</time>
      </trkpt>
      <trkpt lat="45.90902" lon="4.75601">
        <ele>185</ele>
        <time>2018-04-20T12:10:44Z</time>
      </trkpt>
      <trkpt lat="45.90902" lon="4.75607">
        <ele>185</ele>
        <time>2018-04-20T12:10:45Z</time>
      </trkpt>
      <trkpt lat="45.909" lon="4.75619">
        <ele>185</ele>
        <time>2018-04-20T12:10:47Z</time>
      </trkpt>
      <trkpt lat="45.90899" lon="4.75624">
        <ele>185</ele>
        <time>2018-04-20T12:10:48Z</time>
      </trkpt>
      <trkpt lat="45.90898" lon="4.75636">
        <ele>185</ele>
        <time>2018-04-20T12:10:50Z</time>
      </trkpt>
      <trkpt lat="45.90898" lon="4.75641">
        <ele>185</ele>
        <time>2018-04-20T12:10:51Z</time>
      </trkpt>
      <trkpt lat="45.90898" lon="4.75654">
        <ele>184</ele>
        <time>2018-04-20T12:10:55Z</time>
      </trkpt>
      <trkpt lat="45.90898" lon="4.75664">
        <ele>184</ele>
        <time>2018-04-20T12:10:56Z</time>
      </trkpt>
      <trkpt lat="45.90897" lon="4.75674">
        <ele>184</ele>
        <time>2018-04-20T12:10:58Z</time>
      </trkpt>
      <trkpt lat="45.90897" lon="4.75677">
        <ele>184</ele>
        <time>2018-04-20T12:10:59Z</time>
      </trkpt>
      <trkpt lat="45.90897" lon="4.75685">
        <ele>184</ele>
        <time>2018-04-20T12:11:00Z</time>
      </trkpt>
      <trkpt lat="45.90897" lon="4.75691">
        <ele>184</ele>
        <time>2018-04-20T12:11:01Z</time>
      </trkpt>
      <trkpt lat="45.90896" lon="4.75701">
        <ele>184</ele>
        <time>2018-04-20T12:11:03Z</time>
      </trkpt>
      <trkpt lat="45.90896" lon="4.75704">
        <ele>184</ele>
        <time>2018-04-20T12:11:04Z</time>
      </trkpt>
      <trkpt lat="45.90896" lon="4.75711">
        <ele>184</ele>
        <time>2018-04-20T12:11:06Z</time>
      </trkpt>
      <trkpt lat="45.90896" lon="4.75722">
        <ele>185</ele>
        <time>2018-04-20T12:11:07Z</time>
      </trkpt>
      <trkpt lat="45.90894" lon="4.75733">
        <ele>185</ele>
        <time>2018-04-20T12:11:09Z</time>
      </trkpt>
      <trkpt lat="45.90893" lon="4.75739">
        <ele>185</ele>
        <time>2018-04-20T12:11:10Z</time>
      </trkpt>
      <trkpt lat="45.90893" lon="4.75748">
        <ele>185</ele>
        <time>2018-04-20T12:11:12Z</time>
      </trkpt>
      <trkpt lat="45.90893" lon="4.75755">
        <ele>185</ele>
        <time>2018-04-20T12:11:13Z</time>
      </trkpt>
      <trkpt lat="45.90892" lon="4.75766">
        <ele>185</ele>
        <time>2018-04-20T12:11:15Z</time>
      </trkpt>
      <trkpt lat="45.90892" lon="4.75772">
        <ele>185</ele>
        <time>2018-04-20T12:11:16Z</time>
      </trkpt>
      <trkpt lat="45.90891" lon="4.75783">
        <ele>185</ele>
        <time>2018-04-20T12:11:18Z</time>
      </trkpt>
      <trkpt lat="45.90891" lon="4.75789">
        <ele>185</ele>
        <time>2018-04-20T12:11:19Z</time>
      </trkpt>
      <trkpt lat="45.9089" lon="4.75801">
        <ele>184</ele>
        <time>2018-04-20T12:11:21Z</time>
      </trkpt>
      <trkpt lat="45.9089" lon="4.75808">
        <ele>184</ele>
        <time>2018-04-20T12:11:22Z</time>
      </trkpt>
      <trkpt lat="45.9089" lon="4.7582">
        <ele>184</ele>
        <time>2018-04-20T12:11:24Z</time>
      </trkpt>
      <trkpt lat="45.9089" lon="4.75826">
        <ele>184</ele>
        <time>2018-04-20T12:11:25Z</time>
      </trkpt>
      <trkpt lat="45.9089" lon="4.75837">
        <ele>184</ele>
        <time>2018-04-20T12:11:27Z</time>
      </trkpt>
      <trkpt lat="45.9089" lon="4.7584">
        <ele>184</ele>
        <time>2018-04-20T12:11:28Z</time>
      </trkpt>
      <trkpt lat="45.9089" lon="4.7585">
        <ele>184</ele>
        <time>2018-04-20T12:11:31Z</time>
      </trkpt>
      <trkpt lat="45.9089" lon="4.75853">
        <ele>184</ele>
        <time>2018-04-20T12:11:32Z</time>
      </trkpt>
      <trkpt lat="45.90889" lon="4.75863">
        <ele>184</ele>
        <time>2018-04-20T12:11:36Z</time>
      </trkpt>
      <trkpt lat="45.90888" lon="4.75866">
        <ele>184</ele>
        <time>2018-04-20T12:11:37Z</time>
      </trkpt>
      <trkpt lat="45.90879" lon="4.7587">
        <ele>184</ele>
        <time>2018-04-20T12:11:42Z</time>
      </trkpt>
      <trkpt lat="45.90877" lon="4.7587">
        <ele>184</ele>
        <time>2018-04-20T12:11:43Z</time>
      </trkpt>
      <trkpt lat="45.9087" lon="4.7587">
        <ele>184</ele>
        <time>2018-04-20T12:11:46Z</time>
      </trkpt>
      <trkpt lat="45.90867" lon="4.7587">
        <ele>184</ele>
        <time>2018-04-20T12:11:47Z</time>
      </trkpt>
      <trkpt lat="45.90859" lon="4.75869">
        <ele>184</ele>
        <time>2018-04-20T12:11:51Z</time>
      </trkpt>
      <trkpt lat="45.90857" lon="4.75869">
        <ele>184</ele>
        <time>2018-04-20T12:11:52Z</time>
      </trkpt>
      <trkpt lat="45.90856" lon="4.75869">
        <ele>184</ele>
        <time>2018-04-20T12:11:53Z</time>
      </trkpt>
      <trkpt lat="45.90853" lon="4.75869">
        <ele>184</ele>
        <time>2018-04-20T12:12:15Z</time>
      </trkpt>
      <trkpt lat="45.90853" lon="4.75869">
        <ele>184</ele>
        <time>2018-04-20T12:12:16Z</time>
      </trkpt>
      <trkpt lat="45.90845" lon="4.75865">
        <ele>184</ele>
        <time>2018-04-20T12:12:24Z</time>
      </trkpt>
      <trkpt lat="45.90843" lon="4.75865">
        <ele>184</ele>
        <time>2018-04-20T12:12:25Z</time>
      </trkpt>
      <trkpt lat="45.90836" lon="4.75864">
        <ele>184</ele>
        <time>2018-04-20T12:12:28Z</time>
      </trkpt>
      <trkpt lat="45.90833" lon="4.75864">
        <ele>185</ele>
        <time>2018-04-20T12:12:29Z</time>
      </trkpt>
      <trkpt lat="45.90824" lon="4.75864">
        <ele>185</ele>
        <time>2018-04-20T12:12:30Z</time>
      </trkpt>
      <trkpt lat="45.90822" lon="4.75864">
        <ele>185</ele>
        <time>2018-04-20T12:12:31Z</time>
      </trkpt>
      <trkpt lat="45.90815" lon="4.75864">
        <ele>185</ele>
        <time>2018-04-20T12:12:34Z</time>
      </trkpt>
      <trkpt lat="45.90812" lon="4.75863">
        <ele>185</ele>
        <time>2018-04-20T12:12:35Z</time>
      </trkpt>
      <trkpt lat="45.9081" lon="4.75863">
        <ele>185</ele>
        <time>2018-04-20T12:12:36Z</time>
      </trkpt>
      <trkpt lat="45.908" lon="4.75862">
        <ele>185</ele>
        <time>2018-04-20T12:12:37Z</time>
      </trkpt>
      <trkpt lat="45.90792" lon="4.75862">
        <ele>185</ele>
        <time>2018-04-20T12:12:39Z</time>
      </trkpt>
      <trkpt lat="45.90785" lon="4.75862">
        <ele>185</ele>
        <time>2018-04-20T12:12:40Z</time>
      </trkpt>
      <trkpt lat="45.90781" lon="4.75859">
        <ele>185</ele>
        <time>2018-04-20T12:12:41Z</time>
      </trkpt>
      <trkpt lat="45.90776" lon="4.75859">
        <ele>185</ele>
        <time>2018-04-20T12:12:42Z</time>
      </trkpt>
      <trkpt lat="45.90772" lon="4.75858">
        <ele>185</ele>
        <time>2018-04-20T12:12:43Z</time>
      </trkpt>
      <trkpt lat="45.90767" lon="4.75858">
        <ele>185</ele>
        <time>2018-04-20T12:12:44Z</time>
      </trkpt>
      <trkpt lat="45.90759" lon="4.75859">
        <ele>186</ele>
        <time>2018-04-20T12:12:48Z</time>
      </trkpt>
      <trkpt lat="45.90753" lon="4.75859">
        <ele>186</ele>
        <time>2018-04-20T12:12:49Z</time>
      </trkpt>
      <trkpt lat="45.90745" lon="4.75861">
        <ele>186</ele>
        <time>2018-04-20T12:12:51Z</time>
      </trkpt>
      <trkpt lat="45.90741" lon="4.75861">
        <ele>186</ele>
        <time>2018-04-20T12:12:52Z</time>
      </trkpt>
      <trkpt lat="45.90733" lon="4.75861">
        <ele>186</ele>
        <time>2018-04-20T12:12:54Z</time>
      </trkpt>
      <trkpt lat="45.90729" lon="4.75861">
        <ele>186</ele>
        <time>2018-04-20T12:12:55Z</time>
      </trkpt>
      <trkpt lat="45.90725" lon="4.75861">
        <ele>186</ele>
        <time>2018-04-20T12:12:57Z</time>
      </trkpt>
      <trkpt lat="45.90719" lon="4.7586">
        <ele>186</ele>
        <time>2018-04-20T12:12:58Z</time>
      </trkpt>
      <trkpt lat="45.90713" lon="4.7586">
        <ele>187</ele>
        <time>2018-04-20T12:13:00Z</time>
      </trkpt>
      <trkpt lat="45.90707" lon="4.75859">
        <ele>187</ele>
        <time>2018-04-20T12:13:01Z</time>
      </trkpt>
      <trkpt lat="45.90698" lon="4.7586">
        <ele>187</ele>
        <time>2018-04-20T12:13:03Z</time>
      </trkpt>
      <trkpt lat="45.90694" lon="4.75862">
        <ele>187</ele>
        <time>2018-04-20T12:13:04Z</time>
      </trkpt>
      <trkpt lat="45.90685" lon="4.75865">
        <ele>187</ele>
        <time>2018-04-20T12:13:06Z</time>
      </trkpt>
      <trkpt lat="45.90681" lon="4.75867">
        <ele>187</ele>
        <time>2018-04-20T12:13:07Z</time>
      </trkpt>
      <trkpt lat="45.90675" lon="4.75871">
        <ele>187</ele>
        <time>2018-04-20T12:13:09Z</time>
      </trkpt>
      <trkpt lat="45.90673" lon="4.75873">
        <ele>187</ele>
        <time>2018-04-20T12:13:10Z</time>
      </trkpt>
      <trkpt lat="45.90667" lon="4.75879">
        <ele>187</ele>
        <time>2018-04-20T12:13:11Z</time>
      </trkpt>
      <trkpt lat="45.90664" lon="4.75882">
        <ele>187</ele>
        <time>2018-04-20T12:13:12Z</time>
      </trkpt>
      <trkpt lat="45.90659" lon="4.7589">
        <ele>187</ele>
        <time>2018-04-20T12:13:14Z</time>
      </trkpt>
      <trkpt lat="45.90656" lon="4.75894">
        <ele>187</ele>
        <time>2018-04-20T12:13:15Z</time>
      </trkpt>
      <trkpt lat="45.90651" lon="4.75902">
        <ele>187</ele>
        <time>2018-04-20T12:13:17Z</time>
      </trkpt>
      <trkpt lat="45.9065" lon="4.75904">
        <ele>187</ele>
        <time>2018-04-20T12:13:18Z</time>
      </trkpt>
      <trkpt lat="45.90645" lon="4.75912">
        <ele>187</ele>
        <time>2018-04-20T12:13:21Z</time>
      </trkpt>
      <trkpt lat="45.90643" lon="4.75916">
        <ele>187</ele>
        <time>2018-04-20T12:13:22Z</time>
      </trkpt>
      <trkpt lat="45.90638" lon="4.75925">
        <ele>186</ele>
        <time>2018-04-20T12:13:23Z</time>
      </trkpt>
      <trkpt lat="45.90635" lon="4.7593">
        <ele>186</ele>
        <time>2018-04-20T12:13:24Z</time>
      </trkpt>
      <trkpt lat="45.90631" lon="4.75936">
        <ele>186</ele>
        <time>2018-04-20T12:13:25Z</time>
      </trkpt>
      <trkpt lat="45.90628" lon="4.7594">
        <ele>186</ele>
        <time>2018-04-20T12:13:26Z</time>
      </trkpt>
      <trkpt lat="45.90625" lon="4.75945">
        <ele>186</ele>
        <time>2018-04-20T12:13:27Z</time>
      </trkpt>
      <trkpt lat="45.90622" lon="4.7595">
        <ele>186</ele>
        <time>2018-04-20T12:13:28Z</time>
      </trkpt>
      <trkpt lat="45.90618" lon="4.75955">
        <ele>186</ele>
        <time>2018-04-20T12:13:29Z</time>
      </trkpt>
      <trkpt lat="45.90615" lon="4.7596">
        <ele>186</ele>
        <time>2018-04-20T12:13:30Z</time>
      </trkpt>
      <trkpt lat="45.90612" lon="4.75965">
        <ele>186</ele>
        <time>2018-04-20T12:13:31Z</time>
      </trkpt>
      <trkpt lat="45.90609" lon="4.7597">
        <ele>186</ele>
        <time>2018-04-20T12:13:32Z</time>
      </trkpt>
      <trkpt lat="45.90603" lon="4.75977">
        <ele>186</ele>
        <time>2018-04-20T12:13:34Z</time>
      </trkpt>
      <trkpt lat="45.90599" lon="4.75979">
        <ele>186</ele>
        <time>2018-04-20T12:13:35Z</time>
      </trkpt>
      <trkpt lat="45.90591" lon="4.75979">
        <ele>186</ele>
        <time>2018-04-20T12:13:37Z</time>
      </trkpt>
      <trkpt lat="45.90587" lon="4.75977">
        <ele>186</ele>
        <time>2018-04-20T12:13:38Z</time>
      </trkpt>
      <trkpt lat="45.9058" lon="4.75973">
        <ele>186</ele>
        <time>2018-04-20T12:13:40Z</time>
      </trkpt>
      <trkpt lat="45.90577" lon="4.7597">
        <ele>186</ele>
        <time>2018-04-20T12:13:41Z</time>
      </trkpt>
      <trkpt lat="45.9057" lon="4.75965">
        <ele>186</ele>
        <time>2018-04-20T12:13:43Z</time>
      </trkpt>
      <trkpt lat="45.90566" lon="4.75961">
        <ele>186</ele>
        <time>2018-04-20T12:13:44Z</time>
      </trkpt>
      <trkpt lat="45.90562" lon="4.75958">
        <ele>186</ele>
        <time>2018-04-20T12:13:45Z</time>
      </trkpt>
      <trkpt lat="45.90557" lon="4.75956">
        <ele>186</ele>
        <time>2018-04-20T12:13:46Z</time>
      </trkpt>
      <trkpt lat="45.9055" lon="4.75952">
        <ele>186</ele>
        <time>2018-04-20T12:13:49Z</time>
      </trkpt>
      <trkpt lat="45.90548" lon="4.75951">
        <ele>186</ele>
        <time>2018-04-20T12:13:50Z</time>
      </trkpt>
      <trkpt lat="45.90541" lon="4.75949">
        <ele>186</ele>
        <time>2018-04-20T12:13:54Z</time>
      </trkpt>
      <trkpt lat="45.90539" lon="4.75949">
        <ele>186</ele>
        <time>2018-04-20T12:13:55Z</time>
      </trkpt>
      <trkpt lat="45.90534" lon="4.75957">
        <ele>186</ele>
        <time>2018-04-20T12:13:59Z</time>
      </trkpt>
      <trkpt lat="45.90533" lon="4.7596">
        <ele>186</ele>
        <time>2018-04-20T12:14:00Z</time>
      </trkpt>
      <trkpt lat="45.90529" lon="4.75965">
        <ele>186</ele>
        <time>2018-04-20T12:14:02Z</time>
      </trkpt>
      <trkpt lat="45.90523" lon="4.75972">
        <ele>186</ele>
        <time>2018-04-20T12:14:03Z</time>
      </trkpt>
      <trkpt lat="45.90518" lon="4.75981">
        <ele>186</ele>
        <time>2018-04-20T12:14:05Z</time>
      </trkpt>
      <trkpt lat="45.90517" lon="4.75984">
        <ele>186</ele>
        <time>2018-04-20T12:14:06Z</time>
      </trkpt>
      <trkpt lat="45.90515" lon="4.75991">
        <ele>186</ele>
        <time>2018-04-20T12:14:07Z</time>
      </trkpt>
      <trkpt lat="45.90514" lon="4.75996">
        <ele>186</ele>
        <time>2018-04-20T12:14:08Z</time>
      </trkpt>
      <trkpt lat="45.90514" lon="4.76009">
        <ele>186</ele>
        <time>2018-04-20T12:14:10Z</time>
      </trkpt>
      <trkpt lat="45.90513" lon="4.76015">
        <ele>186</ele>
        <time>2018-04-20T12:14:11Z</time>
      </trkpt>
      <trkpt lat="45.90511" lon="4.76025">
        <ele>186</ele>
        <time>2018-04-20T12:14:13Z</time>
      </trkpt>
      <trkpt lat="45.90512" lon="4.76031">
        <ele>185</ele>
        <time>2018-04-20T12:14:14Z</time>
      </trkpt>
      <trkpt lat="45.90511" lon="4.76039">
        <ele>185</ele>
        <time>2018-04-20T12:14:16Z</time>
      </trkpt>
      <trkpt lat="45.9051" lon="4.76046">
        <ele>185</ele>
        <time>2018-04-20T12:14:17Z</time>
      </trkpt>
      <trkpt lat="45.90506" lon="4.76057">
        <ele>185</ele>
        <time>2018-04-20T12:14:19Z</time>
      </trkpt>
      <trkpt lat="45.90504" lon="4.76062">
        <ele>185</ele>
        <time>2018-04-20T12:14:20Z</time>
      </trkpt>
      <trkpt lat="45.905" lon="4.76073">
        <ele>185</ele>
        <time>2018-04-20T12:14:22Z</time>
      </trkpt>
      <trkpt lat="45.90497" lon="4.76078">
        <ele>185</ele>
        <time>2018-04-20T12:14:23Z</time>
      </trkpt>
      <trkpt lat="45.90492" lon="4.76086">
        <ele>185</ele>
        <time>2018-04-20T12:14:25Z</time>
      </trkpt>
      <trkpt lat="45.9049" lon="4.76091">
        <ele>185</ele>
        <time>2018-04-20T12:14:26Z</time>
      </trkpt>
      <trkpt lat="45.90484" lon="4.761">
        <ele>185</ele>
        <time>2018-04-20T12:14:28Z</time>
      </trkpt>
      <trkpt lat="45.90481" lon="4.76103">
        <ele>185</ele>
        <time>2018-04-20T12:14:29Z</time>
      </trkpt>
      <trkpt lat="45.90477" lon="4.76108">
        <ele>185</ele>
        <time>2018-04-20T12:14:30Z</time>
      </trkpt>
      <trkpt lat="45.90473" lon="4.76113">
        <ele>185</ele>
        <time>2018-04-20T12:14:31Z</time>
      </trkpt>
      <trkpt lat="45.90471" lon="4.76119">
        <ele>185</ele>
        <time>2018-04-20T12:14:32Z</time>
      </trkpt>
      <trkpt lat="45.90467" lon="4.76122">
        <ele>185</ele>
        <time>2018-04-20T12:14:33Z</time>
      </trkpt>
      <trkpt lat="45.90463" lon="4.76128">
        <ele>185</ele>
        <time>2018-04-20T12:14:34Z</time>
      </trkpt>
      <trkpt lat="45.90459" lon="4.76132">
        <ele>185</ele>
        <time>2018-04-20T12:14:35Z</time>
      </trkpt>
      <trkpt lat="45.90452" lon="4.76139">
        <ele>186</ele>
        <time>2018-04-20T12:14:37Z</time>
      </trkpt>
      <trkpt lat="45.9045" lon="4.7614">
        <ele>186</ele>
        <time>2018-04-20T12:14:38Z</time>
      </trkpt>
      <trkpt lat="45.90444" lon="4.76148">
        <ele>186</ele>
        <time>2018-04-20T12:14:39Z</time>
      </trkpt>
      <trkpt lat="45.90441" lon="4.76151">
        <ele>186</ele>
        <time>2018-04-20T12:14:40Z</time>
      </trkpt>
      <trkpt lat="45.90435" lon="4.76159">
        <ele>186</ele>
        <time>2018-04-20T12:14:42Z</time>
      </trkpt>
      <trkpt lat="45.90433" lon="4.76161">
        <ele>186</ele>
        <time>2018-04-20T12:14:43Z</time>
      </trkpt>
      <trkpt lat="45.90432" lon="4.76163">
        <ele>186</ele>
        <time>2018-04-20T12:14:44Z</time>
      </trkpt>
      <trkpt lat="45.90426" lon="4.76171">
        <ele>186</ele>
        <time>2018-04-20T12:14:45Z</time>
      </trkpt>
      <trkpt lat="45.90422" lon="4.76177">
        <ele>186</ele>
        <time>2018-04-20T12:14:47Z</time>
      </trkpt>
      <trkpt lat="45.9042" lon="4.76181">
        <ele>186</ele>
        <time>2018-04-20T12:14:48Z</time>
      </trkpt>
      <trkpt lat="45.90424" lon="4.76192">
        <ele>186</ele>
        <time>2018-04-20T12:14:52Z</time>
      </trkpt>
      <trkpt lat="45.90426" lon="4.76193">
        <ele>186</ele>
        <time>2018-04-20T12:14:53Z</time>
      </trkpt>
      <trkpt lat="45.90428" lon="4.76195">
        <ele>186</ele>
        <time>2018-04-20T12:14:54Z</time>
      </trkpt>
      <trkpt lat="45.90436" lon="4.76199">
        <ele>186</ele>
        <time>2018-04-20T12:14:55Z</time>
      </trkpt>
      <trkpt lat="45.90443" lon="4.76204">
        <ele>186</ele>
        <time>2018-04-20T12:14:57Z</time>
      </trkpt>
      <trkpt lat="45.90446" lon="4.76207">
        <ele>186</ele>
        <time>2018-04-20T12:14:58Z</time>
      </trkpt>
      <trkpt lat="45.90453" lon="4.76213">
        <ele>186</ele>
        <time>2018-04-20T12:15:00Z</time>
      </trkpt>
      <trkpt lat="45.90457" lon="4.76216">
        <ele>186</ele>
        <time>2018-04-20T12:15:01Z</time>
      </trkpt>
      <trkpt lat="45.90461" lon="4.76218">
        <ele>185</ele>
        <time>2018-04-20T12:15:02Z</time>
      </trkpt>
      <trkpt lat="45.90465" lon="4.7622">
        <ele>185</ele>
        <time>2018-04-20T12:15:03Z</time>
      </trkpt>
      <trkpt lat="45.90472" lon="4.76225">
        <ele>185</ele>
        <time>2018-04-20T12:15:05Z</time>
      </trkpt>
      <trkpt lat="45.90474" lon="4.76226">
        <ele>185</ele>
        <time>2018-04-20T12:15:06Z</time>
      </trkpt>
      <trkpt lat="45.90477" lon="4.7623">
        <ele>185</ele>
        <time>2018-04-20T12:15:08Z</time>
      </trkpt>
      <trkpt lat="45.90484" lon="4.76235">
        <ele>185</ele>
        <time>2018-04-20T12:15:09Z</time>
      </trkpt>
      <trkpt lat="45.9049" lon="4.76241">
        <ele>185</ele>
        <time>2018-04-20T12:15:11Z</time>
      </trkpt>
      <trkpt lat="45.90491" lon="4.76247">
        <ele>185</ele>
        <time>2018-04-20T12:15:12Z</time>
      </trkpt>
      <trkpt lat="45.90492" lon="4.76258">
        <ele>185</ele>
        <time>2018-04-20T12:15:14Z</time>
      </trkpt>
      <trkpt lat="45.90491" lon="4.76264">
        <ele>185</ele>
        <time>2018-04-20T12:15:15Z</time>
      </trkpt>
      <trkpt lat="45.90489" lon="4.7627">
        <ele>186</ele>
        <time>2018-04-20T12:15:16Z</time>
      </trkpt>
      <trkpt lat="45.90485" lon="4.76275">
        <ele>186</ele>
        <time>2018-04-20T12:15:17Z</time>
      </trkpt>
      <trkpt lat="45.90483" lon="4.7628">
        <ele>186</ele>
        <time>2018-04-20T12:15:18Z</time>
      </trkpt>
      <trkpt lat="45.90481" lon="4.76287">
        <ele>186</ele>
        <time>2018-04-20T12:15:19Z</time>
      </trkpt>
      <trkpt lat="45.90477" lon="4.76299">
        <ele>186</ele>
        <time>2018-04-20T12:15:21Z</time>
      </trkpt>
      <trkpt lat="45.90476" lon="4.76305">
        <ele>186</ele>
        <time>2018-04-20T12:15:22Z</time>
      </trkpt>
      <trkpt lat="45.90472" lon="4.76316">
        <ele>186</ele>
        <time>2018-04-20T12:15:24Z</time>
      </trkpt>
      <trkpt lat="45.9047" lon="4.76319">
        <ele>186</ele>
        <time>2018-04-20T12:15:25Z</time>
      </trkpt>
      <trkpt lat="45.90467" lon="4.7633">
        <ele>186</ele>
        <time>2018-04-20T12:15:27Z</time>
      </trkpt>
      <trkpt lat="45.90464" lon="4.76336">
        <ele>186</ele>
        <time>2018-04-20T12:15:28Z</time>
      </trkpt>
      <trkpt lat="45.90463" lon="4.76341">
        <ele>186</ele>
        <time>2018-04-20T12:15:29Z</time>
      </trkpt>
      <trkpt lat="45.90461" lon="4.76348">
        <ele>186</ele>
        <time>2018-04-20T12:15:30Z</time>
      </trkpt>
      <trkpt lat="45.90458" lon="4.76359">
        <ele>186</ele>
        <time>2018-04-20T12:15:32Z</time>
      </trkpt>
      <trkpt lat="45.90456" lon="4.76366">
        <ele>186</ele>
        <time>2018-04-20T12:15:33Z</time>
      </trkpt>
      <trkpt lat="45.90452" lon="4.76377">
        <ele>186</ele>
        <time>2018-04-20T12:15:35Z</time>
      </trkpt>
      <trkpt lat="45.90451" lon="4.76382">
        <ele>186</ele>
        <time>2018-04-20T12:15:36Z</time>
      </trkpt>
      <trkpt lat="45.90447" lon="4.76392">
        <ele>187</ele>
        <time>2018-04-20T12:15:39Z</time>
      </trkpt>
      <trkpt lat="45.90443" lon="4.76401">
        <ele>187</ele>
        <time>2018-04-20T12:15:40Z</time>
      </trkpt>
      <trkpt lat="45.90438" lon="4.7641">
        <ele>187</ele>
        <time>2018-04-20T12:15:42Z</time>
      </trkpt>
      <trkpt lat="45.90436" lon="4.76414">
        <ele>187</ele>
        <time>2018-04-20T12:15:43Z</time>
      </trkpt>
      <trkpt lat="45.90432" lon="4.76423">
        <ele>187</ele>
        <time>2018-04-20T12:15:45Z</time>
      </trkpt>
      <trkpt lat="45.9043" lon="4.76428">
        <ele>187</ele>
        <time>2018-04-20T12:15:46Z</time>
      </trkpt>
      <trkpt lat="45.90426" lon="4.76439">
        <ele>187</ele>
        <time>2018-04-20T12:15:48Z</time>
      </trkpt>
      <trkpt lat="45.90426" lon="4.76448">
        <ele>186</ele>
        <time>2018-04-20T12:15:49Z</time>
      </trkpt>
      <trkpt lat="45.90424" lon="4.76454">
        <ele>186</ele>
        <time>2018-04-20T12:15:50Z</time>
      </trkpt>
      <trkpt lat="45.90421" lon="4.76459">
        <ele>186</ele>
        <time>2018-04-20T12:15:51Z</time>
      </trkpt>
      <trkpt lat="45.90415" lon="4.76467">
        <ele>188</ele>
        <time>2018-04-20T12:15:53Z</time>
      </trkpt>
      <trkpt lat="45.90412" lon="4.7647">
        <ele>188</ele>
        <time>2018-04-20T12:15:54Z</time>
      </trkpt>
      <trkpt lat="45.90405" lon="4.76474">
        <ele>188</ele>
        <time>2018-04-20T12:15:56Z</time>
      </trkpt>
      <trkpt lat="45.90403" lon="4.76474">
        <ele>188</ele>
        <time>2018-04-20T12:15:57Z</time>
      </trkpt>
      <trkpt lat="45.90397" lon="4.76474">
        <ele>188</ele>
        <time>2018-04-20T12:16:00Z</time>
      </trkpt>
      <trkpt lat="45.90393" lon="4.76473">
        <ele>188</ele>
        <time>2018-04-20T12:16:01Z</time>
      </trkpt>
      <trkpt lat="45.90385" lon="4.76473">
        <ele>188</ele>
        <time>2018-04-20T12:16:02Z</time>
      </trkpt>
      <trkpt lat="45.90381" lon="4.76473">
        <ele>188</ele>
        <time>2018-04-20T12:16:03Z</time>
      </trkpt>
      <trkpt lat="45.90373" lon="4.76474">
        <ele>188</ele>
        <time>2018-04-20T12:16:05Z</time>
      </trkpt>
      <trkpt lat="45.9037" lon="4.76476">
        <ele>188</ele>
        <time>2018-04-20T12:16:06Z</time>
      </trkpt>
      <trkpt lat="45.90363" lon="4.76483">
        <ele>188</ele>
        <time>2018-04-20T12:16:08Z</time>
      </trkpt>
      <trkpt lat="45.9036" lon="4.76487">
        <ele>188</ele>
        <time>2018-04-20T12:16:09Z</time>
      </trkpt>
      <trkpt lat="45.90354" lon="4.76495">
        <ele>188</ele>
        <time>2018-04-20T12:16:11Z</time>
      </trkpt>
      <trkpt lat="45.90352" lon="4.76499">
        <ele>188</ele>
        <time>2018-04-20T12:16:12Z</time>
      </trkpt>
      <trkpt lat="45.90346" lon="4.76509">
        <ele>187</ele>
        <time>2018-04-20T12:16:14Z</time>
      </trkpt>
      <trkpt lat="45.90344" lon="4.76514">
        <ele>187</ele>
        <time>2018-04-20T12:16:15Z</time>
      </trkpt>
      <trkpt lat="45.90341" lon="4.76526">
        <ele>186</ele>
        <time>2018-04-20T12:16:17Z</time>
      </trkpt>
      <trkpt lat="45.9034" lon="4.76533">
        <ele>186</ele>
        <time>2018-04-20T12:16:18Z</time>
      </trkpt>
      <trkpt lat="45.9034" lon="4.7654">
        <ele>186</ele>
        <time>2018-04-20T12:16:19Z</time>
      </trkpt>
      <trkpt lat="45.90342" lon="4.76549">
        <ele>186</ele>
        <time>2018-04-20T12:16:20Z</time>
      </trkpt>
      <trkpt lat="45.90342" lon="4.76556">
        <ele>185</ele>
        <time>2018-04-20T12:16:21Z</time>
      </trkpt>
      <trkpt lat="45.90341" lon="4.76563">
        <ele>185</ele>
        <time>2018-04-20T12:16:22Z</time>
      </trkpt>
      <trkpt lat="45.90342" lon="4.76572">
        <ele>185</ele>
        <time>2018-04-20T12:16:23Z</time>
      </trkpt>
      <trkpt lat="45.90341" lon="4.76579">
        <ele>185</ele>
        <time>2018-04-20T12:16:24Z</time>
      </trkpt>
      <trkpt lat="45.90342" lon="4.76588">
        <ele>184</ele>
        <time>2018-04-20T12:16:25Z</time>
      </trkpt>
      <trkpt lat="45.90342" lon="4.76597">
        <ele>184</ele>
        <time>2018-04-20T12:16:26Z</time>
      </trkpt>
      <trkpt lat="45.9034" lon="4.76606">
        <ele>184</ele>
        <time>2018-04-20T12:16:27Z</time>
      </trkpt>
      <trkpt lat="45.90341" lon="4.76616">
        <ele>184</ele>
        <time>2018-04-20T12:16:28Z</time>
      </trkpt>
      <trkpt lat="45.9034" lon="4.76625">
        <ele>184</ele>
        <time>2018-04-20T12:16:29Z</time>
      </trkpt>
      <trkpt lat="45.90342" lon="4.76635">
        <ele>184</ele>
        <time>2018-04-20T12:16:30Z</time>
      </trkpt>
      <trkpt lat="45.90341" lon="4.76644">
        <ele>184</ele>
        <time>2018-04-20T12:16:31Z</time>
      </trkpt>
      <trkpt lat="45.9034" lon="4.76654">
        <ele>184</ele>
        <time>2018-04-20T12:16:32Z</time>
      </trkpt>
      <trkpt lat="45.90342" lon="4.76664">
        <ele>184</ele>
        <time>2018-04-20T12:16:33Z</time>
      </trkpt>
      <trkpt lat="45.90341" lon="4.76673">
        <ele>184</ele>
        <time>2018-04-20T12:16:34Z</time>
      </trkpt>
      <trkpt lat="45.90341" lon="4.76682">
        <ele>183</ele>
        <time>2018-04-20T12:16:35Z</time>
      </trkpt>
      <trkpt lat="45.90342" lon="4.76691">
        <ele>183</ele>
        <time>2018-04-20T12:16:36Z</time>
      </trkpt>
      <trkpt lat="45.90344" lon="4.76699">
        <ele>183</ele>
        <time>2018-04-20T12:16:37Z</time>
      </trkpt>
      <trkpt lat="45.90343" lon="4.76708">
        <ele>183</ele>
        <time>2018-04-20T12:16:38Z</time>
      </trkpt>
      <trkpt lat="45.90344" lon="4.76716">
        <ele>183</ele>
        <time>2018-04-20T12:16:39Z</time>
      </trkpt>
      <trkpt lat="45.90345" lon="4.76724">
        <ele>183</ele>
        <time>2018-04-20T12:16:40Z</time>
      </trkpt>
      <trkpt lat="45.90345" lon="4.76732">
        <ele>183</ele>
        <time>2018-04-20T12:16:41Z</time>
      </trkpt>
      <trkpt lat="45.90344" lon="4.7674">
        <ele>183</ele>
        <time>2018-04-20T12:16:42Z</time>
      </trkpt>
      <trkpt lat="45.90344" lon="4.76748">
        <ele>183</ele>
        <time>2018-04-20T12:16:43Z</time>
      </trkpt>
      <trkpt lat="45.90343" lon="4.76755">
        <ele>183</ele>
        <time>2018-04-20T12:16:44Z</time>
      </trkpt>
      <trkpt lat="45.90343" lon="4.76762">
        <ele>182</ele>
        <time>2018-04-20T12:16:45Z</time>
      </trkpt>
      <trkpt lat="45.90343" lon="4.76769">
        <ele>182</ele>
        <time>2018-04-20T12:16:46Z</time>
      </trkpt>
      <trkpt lat="45.90342" lon="4.76782">
        <ele>182</ele>
        <time>2018-04-20T12:16:48Z</time>
      </trkpt>
      <trkpt lat="45.90341" lon="4.76789">
        <ele>182</ele>
        <time>2018-04-20T12:16:49Z</time>
      </trkpt>
      <trkpt lat="45.9034" lon="4.768">
        <ele>182</ele>
        <time>2018-04-20T12:16:51Z</time>
      </trkpt>
      <trkpt lat="45.90339" lon="4.76806">
        <ele>182</ele>
        <time>2018-04-20T12:16:52Z</time>
      </trkpt>
      <trkpt lat="45.90338" lon="4.76813">
        <ele>182</ele>
        <time>2018-04-20T12:16:53Z</time>
      </trkpt>
      <trkpt lat="45.90338" lon="4.7682">
        <ele>182</ele>
        <time>2018-04-20T12:16:54Z</time>
      </trkpt>
      <trkpt lat="45.90337" lon="4.76832">
        <ele>182</ele>
        <time>2018-04-20T12:16:56Z</time>
      </trkpt>
      <trkpt lat="45.90337" lon="4.7684">
        <ele>182</ele>
        <time>2018-04-20T12:16:57Z</time>
      </trkpt>
      <trkpt lat="45.90338" lon="4.76846">
        <ele>182</ele>
        <time>2018-04-20T12:16:58Z</time>
      </trkpt>
      <trkpt lat="45.90342" lon="4.76854">
        <ele>182</ele>
        <time>2018-04-20T12:16:59Z</time>
      </trkpt>
      <trkpt lat="45.90347" lon="4.76859">
        <ele>182</ele>
        <time>2018-04-20T12:17:01Z</time>
      </trkpt>
      <trkpt lat="45.9035" lon="4.7686">
        <ele>182</ele>
        <time>2018-04-20T12:17:02Z</time>
      </trkpt>
      <trkpt lat="45.90357" lon="4.76861">
        <ele>182</ele>
        <time>2018-04-20T12:17:04Z</time>
      </trkpt>
      <trkpt lat="45.90362" lon="4.76861">
        <ele>182</ele>
        <time>2018-04-20T12:17:05Z</time>
      </trkpt>
      <trkpt lat="45.9037" lon="4.76861">
        <ele>182</ele>
        <time>2018-04-20T12:17:07Z</time>
      </trkpt>
      <trkpt lat="45.90375" lon="4.76862">
        <ele>182</ele>
        <time>2018-04-20T12:17:08Z</time>
      </trkpt>
      <trkpt lat="45.9038" lon="4.76863">
        <ele>182</ele>
        <time>2018-04-20T12:17:09Z</time>
      </trkpt>
      <trkpt lat="45.90385" lon="4.76864">
        <ele>182</ele>
        <time>2018-04-20T12:17:10Z</time>
      </trkpt>
      <trkpt lat="45.90394" lon="4.76865">
        <ele>182</ele>
        <time>2018-04-20T12:17:12Z</time>
      </trkpt>
      <trkpt lat="45.90398" lon="4.76866">
        <ele>182</ele>
        <time>2018-04-20T12:17:13Z</time>
      </trkpt>
      <trkpt lat="45.90406" lon="4.76866">
        <ele>182</ele>
        <time>2018-04-20T12:17:15Z</time>
      </trkpt>
      <trkpt lat="45.9041" lon="4.76867">
        <ele>182</ele>
        <time>2018-04-20T12:17:16Z</time>
      </trkpt>
      <trkpt lat="45.90419" lon="4.76869">
        <ele>181</ele>
        <time>2018-04-20T12:17:18Z</time>
      </trkpt>
      <trkpt lat="45.90423" lon="4.76869">
        <ele>181</ele>
        <time>2018-04-20T12:17:19Z</time>
      </trkpt>
      <trkpt lat="45.90429" lon="4.76871">
        <ele>181</ele>
        <time>2018-04-20T12:17:21Z</time>
      </trkpt>
      <trkpt lat="45.90435" lon="4.76872">
        <ele>181</ele>
        <time>2018-04-20T12:17:22Z</time>
      </trkpt>
      <trkpt lat="45.90441" lon="4.76873">
        <ele>181</ele>
        <time>2018-04-20T12:17:23Z</time>
      </trkpt>
      <trkpt lat="45.90447" lon="4.76872">
        <ele>181</ele>
        <time>2018-04-20T12:17:24Z</time>
      </trkpt>
      <trkpt lat="45.90455" lon="4.76872">
        <ele>181</ele>
        <time>2018-04-20T12:17:26Z</time>
      </trkpt>
      <trkpt lat="45.9046" lon="4.76872">
        <ele>181</ele>
        <time>2018-04-20T12:17:27Z</time>
      </trkpt>
      <trkpt lat="45.90464" lon="4.76874">
        <ele>181</ele>
        <time>2018-04-20T12:17:28Z</time>
      </trkpt>
      <trkpt lat="45.90468" lon="4.76873">
        <ele>181</ele>
        <time>2018-04-20T12:17:29Z</time>
      </trkpt>
      <trkpt lat="45.90473" lon="4.76874">
        <ele>181</ele>
        <time>2018-04-20T12:17:30Z</time>
      </trkpt>
      <trkpt lat="45.90478" lon="4.76873">
        <ele>181</ele>
        <time>2018-04-20T12:17:31Z</time>
      </trkpt>
      <trkpt lat="45.90486" lon="4.76874">
        <ele>181</ele>
        <time>2018-04-20T12:17:34Z</time>
      </trkpt>
      <trkpt lat="45.90493" lon="4.76875">
        <ele>181</ele>
        <time>2018-04-20T12:17:35Z</time>
      </trkpt>
      <trkpt lat="45.90497" lon="4.76876">
        <ele>181</ele>
        <time>2018-04-20T12:17:36Z</time>
      </trkpt>
      <trkpt lat="45.90502" lon="4.76878">
        <ele>180</ele>
        <time>2018-04-20T12:17:37Z</time>
      </trkpt>
      <trkpt lat="45.9051" lon="4.76879">
        <ele>180</ele>
        <time>2018-04-20T12:17:39Z</time>
      </trkpt>
      <trkpt lat="45.90514" lon="4.7688">
        <ele>180</ele>
        <time>2018-04-20T12:17:40Z</time>
      </trkpt>
      <trkpt lat="45.90522" lon="4.76881">
        <ele>180</ele>
        <time>2018-04-20T12:17:42Z</time>
      </trkpt>
      <trkpt lat="45.90525" lon="4.76882">
        <ele>180</ele>
        <time>2018-04-20T12:17:43Z</time>
      </trkpt>
      <trkpt lat="45.90532" lon="4.76887">
        <ele>180</ele>
        <time>2018-04-20T12:17:45Z</time>
      </trkpt>
      <trkpt lat="45.90536" lon="4.76889">
        <ele>180</ele>
        <time>2018-04-20T12:17:46Z</time>
      </trkpt>
      <trkpt lat="45.90543" lon="4.76892">
        <ele>180</ele>
        <time>2018-04-20T12:17:48Z</time>
      </trkpt>
      <trkpt lat="45.90547" lon="4.76894">
        <ele>180</ele>
        <time>2018-04-20T12:17:49Z</time>
      </trkpt>
      <trkpt lat="45.90552" lon="4.76895">
        <ele>180</ele>
        <time>2018-04-20T12:17:50Z</time>
      </trkpt>
      <trkpt lat="45.90556" lon="4.76897">
        <ele>180</ele>
        <time>2018-04-20T12:17:51Z</time>
      </trkpt>
      <trkpt lat="45.90564" lon="4.769">
        <ele>180</ele>
        <time>2018-04-20T12:17:53Z</time>
      </trkpt>
      <trkpt lat="45.90568" lon="4.76901">
        <ele>180</ele>
        <time>2018-04-20T12:17:54Z</time>
      </trkpt>
      <trkpt lat="45.90576" lon="4.76902">
        <ele>180</ele>
        <time>2018-04-20T12:17:56Z</time>
      </trkpt>
      <trkpt lat="45.9058" lon="4.76903">
        <ele>180</ele>
        <time>2018-04-20T12:17:57Z</time>
      </trkpt>
      <trkpt lat="45.90589" lon="4.76905">
        <ele>180</ele>
        <time>2018-04-20T12:17:59Z</time>
      </trkpt>
      <trkpt lat="45.90594" lon="4.76907">
        <ele>180</ele>
        <time>2018-04-20T12:18:00Z</time>
      </trkpt>
      <trkpt lat="45.90599" lon="4.7691">
        <ele>180</ele>
        <time>2018-04-20T12:18:01Z</time>
      </trkpt>
      <trkpt lat="45.90603" lon="4.76912">
        <ele>179</ele>
        <time>2018-04-20T12:18:02Z</time>
      </trkpt>
      <trkpt lat="45.90607" lon="4.76913">
        <ele>179</ele>
        <time>2018-04-20T12:18:03Z</time>
      </trkpt>
      <trkpt lat="45.90612" lon="4.76914">
        <ele>179</ele>
        <time>2018-04-20T12:18:04Z</time>
      </trkpt>
      <trkpt lat="45.9062" lon="4.76916">
        <ele>179</ele>
        <time>2018-04-20T12:18:06Z</time>
      </trkpt>
      <trkpt lat="45.90623" lon="4.76918">
        <ele>180</ele>
        <time>2018-04-20T12:18:07Z</time>
      </trkpt>
      <trkpt lat="45.90629" lon="4.76918">
        <ele>180</ele>
        <time>2018-04-20T12:18:08Z</time>
      </trkpt>
      <trkpt lat="45.90633" lon="4.7692">
        <ele>180</ele>
        <time>2018-04-20T12:18:09Z</time>
      </trkpt>
      <trkpt lat="45.90641" lon="4.76922">
        <ele>180</ele>
        <time>2018-04-20T12:18:11Z</time>
      </trkpt>
      <trkpt lat="45.90642" lon="4.76923">
        <ele>179</ele>
        <time>2018-04-20T12:18:12Z</time>
      </trkpt>
      <trkpt lat="45.90651" lon="4.76925">
        <ele>179</ele>
        <time>2018-04-20T12:18:14Z</time>
      </trkpt>
      <trkpt lat="45.90655" lon="4.76926">
        <ele>179</ele>
        <time>2018-04-20T12:18:15Z</time>
      </trkpt>
      <trkpt lat="45.90662" lon="4.76928">
        <ele>179</ele>
        <time>2018-04-20T12:18:17Z</time>
      </trkpt>
      <trkpt lat="45.90667" lon="4.7693">
        <ele>179</ele>
        <time>2018-04-20T12:18:18Z</time>
      </trkpt>
      <trkpt lat="45.90671" lon="4.76932">
        <ele>179</ele>
        <time>2018-04-20T12:18:19Z</time>
      </trkpt>
      <trkpt lat="45.90676" lon="4.76933">
        <ele>179</ele>
        <time>2018-04-20T12:18:20Z</time>
      </trkpt>
      <trkpt lat="45.90682" lon="4.76934">
        <ele>179</ele>
        <time>2018-04-20T12:18:22Z</time>
      </trkpt>
      <trkpt lat="45.90687" lon="4.76936">
        <ele>179</ele>
        <time>2018-04-20T12:18:23Z</time>
      </trkpt>
      <trkpt lat="45.90695" lon="4.76941">
        <ele>179</ele>
        <time>2018-04-20T12:18:25Z</time>
      </trkpt>
      <trkpt lat="45.907" lon="4.76944">
        <ele>179</ele>
        <time>2018-04-20T12:18:26Z</time>
      </trkpt>
      <trkpt lat="45.90704" lon="4.76947">
        <ele>179</ele>
        <time>2018-04-20T12:18:27Z</time>
      </trkpt>
      <trkpt lat="45.90709" lon="4.76949">
        <ele>179</ele>
        <time>2018-04-20T12:18:28Z</time>
      </trkpt>
      <trkpt lat="45.90717" lon="4.76954">
        <ele>179</ele>
        <time>2018-04-20T12:18:30Z</time>
      </trkpt>
      <trkpt lat="45.9072" lon="4.76957">
        <ele>179</ele>
        <time>2018-04-20T12:18:31Z</time>
      </trkpt>
      <trkpt lat="45.90728" lon="4.76962">
        <ele>179</ele>
        <time>2018-04-20T12:18:33Z</time>
      </trkpt>
      <trkpt lat="45.90731" lon="4.76964">
        <ele>179</ele>
        <time>2018-04-20T12:18:34Z</time>
      </trkpt>
      <trkpt lat="45.90738" lon="4.76966">
        <ele>179</ele>
        <time>2018-04-20T12:18:36Z</time>
      </trkpt>
      <trkpt lat="45.90742" lon="4.76968">
        <ele>179</ele>
        <time>2018-04-20T12:18:37Z</time>
      </trkpt>
      <trkpt lat="45.90748" lon="4.76972">
        <ele>179</ele>
        <time>2018-04-20T12:18:39Z</time>
      </trkpt>
      <trkpt lat="45.90752" lon="4.76975">
        <ele>178</ele>
        <time>2018-04-20T12:18:40Z</time>
      </trkpt>
      <trkpt lat="45.90759" lon="4.76979">
        <ele>178</ele>
        <time>2018-04-20T12:18:42Z</time>
      </trkpt>
      <trkpt lat="45.90762" lon="4.76981">
        <ele>178</ele>
        <time>2018-04-20T12:18:43Z</time>
      </trkpt>
      <trkpt lat="45.90769" lon="4.76985">
        <ele>178</ele>
        <time>2018-04-20T12:18:46Z</time>
      </trkpt>
      <trkpt lat="45.90771" lon="4.76986">
        <ele>178</ele>
        <time>2018-04-20T12:18:47Z</time>
      </trkpt>
      <trkpt lat="45.90778" lon="4.76991">
        <ele>178</ele>
        <time>2018-04-20T12:20:17Z</time>
      </trkpt>
      <trkpt lat="45.90779" lon="4.76992">
        <ele>178</ele>
        <time>2018-04-20T12:20:18Z</time>
      </trkpt>
      <trkpt lat="45.90784" lon="4.77">
        <ele>178</ele>
        <time>2018-04-20T12:20:23Z</time>
      </trkpt>
      <trkpt lat="45.90785" lon="4.77003">
        <ele>178</ele>
        <time>2018-04-20T12:20:24Z</time>
      </trkpt>
      <trkpt lat="45.9079" lon="4.77012">
        <ele>178</ele>
        <time>2018-04-20T12:20:28Z</time>
      </trkpt>
      <trkpt lat="45.90792" lon="4.77014">
        <ele>177</ele>
        <time>2018-04-20T12:20:29Z</time>
      </trkpt>
      <trkpt lat="45.90798" lon="4.77019">
        <ele>177</ele>
        <time>2018-04-20T12:20:32Z</time>
      </trkpt>
      <trkpt lat="45.908" lon="4.77021">
        <ele>177</ele>
        <time>2018-04-20T12:20:33Z</time>
      </trkpt>
      <trkpt lat="45.90808" lon="4.77026">
        <ele>177</ele>
        <time>2018-04-20T12:20:36Z</time>
      </trkpt>
      <trkpt lat="45.9081" lon="4.77028">
        <ele>177</ele>
        <time>2018-04-20T12:20:37Z</time>
      </trkpt>
      <trkpt lat="45.90816" lon="4.77034">
        <ele>177</ele>
        <time>2018-04-20T12:20:39Z</time>
      </trkpt>
      <trkpt lat="45.90819" lon="4.77037">
        <ele>177</ele>
        <time>2018-04-20T12:20:40Z</time>
      </trkpt>
      <trkpt lat="45.90825" lon="4.77043">
        <ele>177</ele>
        <time>2018-04-20T12:20:42Z</time>
      </trkpt>
      <trkpt lat="45.90827" lon="4.77045">
        <ele>177</ele>
        <time>2018-04-20T12:20:43Z</time>
      </trkpt>
      <trkpt lat="45.9083" lon="4.77048">
        <ele>177</ele>
        <time>2018-04-20T12:20:44Z</time>
      </trkpt>
      <trkpt lat="45.90837" lon="4.77055">
        <ele>177</ele>
        <time>2018-04-20T12:20:45Z</time>
      </trkpt>
      <trkpt lat="45.90845" lon="4.7706">
        <ele>177</ele>
        <time>2018-04-20T12:20:47Z</time>
      </trkpt>
      <trkpt lat="45.90848" lon="4.77063">
        <ele>177</ele>
        <time>2018-04-20T12:20:48Z</time>
      </trkpt>
      <trkpt lat="45.90855" lon="4.77069">
        <ele>177</ele>
        <time>2018-04-20T12:20:50Z</time>
      </trkpt>
      <trkpt lat="45.90859" lon="4.77072">
        <ele>177</ele>
        <time>2018-04-20T12:20:51Z</time>
      </trkpt>
      <trkpt lat="45.90865" lon="4.77078">
        <ele>177</ele>
        <time>2018-04-20T12:20:53Z</time>
      </trkpt>
      <trkpt lat="45.90867" lon="4.77081">
        <ele>177</ele>
        <time>2018-04-20T12:20:54Z</time>
      </trkpt>
      <trkpt lat="45.90873" lon="4.77088">
        <ele>176</ele>
        <time>2018-04-20T12:20:56Z</time>
      </trkpt>
      <trkpt lat="45.90877" lon="4.77091">
        <ele>176</ele>
        <time>2018-04-20T12:20:57Z</time>
      </trkpt>
      <trkpt lat="45.90884" lon="4.77099">
        <ele>176</ele>
        <time>2018-04-20T12:20:59Z</time>
      </trkpt>
      <trkpt lat="45.90887" lon="4.77104">
        <ele>176</ele>
        <time>2018-04-20T12:21:00Z</time>
      </trkpt>
      <trkpt lat="45.90893" lon="4.77111">
        <ele>176</ele>
        <time>2018-04-20T12:21:02Z</time>
      </trkpt>
      <trkpt lat="45.90897" lon="4.77114">
        <ele>176</ele>
        <time>2018-04-20T12:21:03Z</time>
      </trkpt>
      <trkpt lat="45.909" lon="4.77118">
        <ele>176</ele>
        <time>2018-04-20T12:21:04Z</time>
      </trkpt>
      <trkpt lat="45.90904" lon="4.77123">
        <ele>176</ele>
        <time>2018-04-20T12:21:05Z</time>
      </trkpt>
      <trkpt lat="45.90907" lon="4.77128">
        <ele>176</ele>
        <time>2018-04-20T12:21:06Z</time>
      </trkpt>
      <trkpt lat="45.9091" lon="4.77133">
        <ele>176</ele>
        <time>2018-04-20T12:21:07Z</time>
      </trkpt>
      <trkpt lat="45.90915" lon="4.77137">
        <ele>176</ele>
        <time>2018-04-20T12:21:08Z</time>
      </trkpt>
      <trkpt lat="45.90919" lon="4.77142">
        <ele>176</ele>
        <time>2018-04-20T12:21:09Z</time>
      </trkpt>
      <trkpt lat="45.90922" lon="4.77147">
        <ele>176</ele>
        <time>2018-04-20T12:21:10Z</time>
      </trkpt>
      <trkpt lat="45.90926" lon="4.77151">
        <ele>176</ele>
        <time>2018-04-20T12:21:11Z</time>
      </trkpt>
      <trkpt lat="45.90929" lon="4.77156">
        <ele>176</ele>
        <time>2018-04-20T12:21:12Z</time>
      </trkpt>
      <trkpt lat="45.90931" lon="4.77162">
        <ele>176</ele>
        <time>2018-04-20T12:21:13Z</time>
      </trkpt>
      <trkpt lat="45.90937" lon="4.7717">
        <ele>176</ele>
        <time>2018-04-20T12:21:15Z</time>
      </trkpt>
      <trkpt lat="45.9094" lon="4.77174">
        <ele>176</ele>
        <time>2018-04-20T12:21:16Z</time>
      </trkpt>
      <trkpt lat="45.90946" lon="4.77183">
        <ele>176</ele>
        <time>2018-04-20T12:21:19Z</time>
      </trkpt>
      <trkpt lat="45.90948" lon="4.77185">
        <ele>176</ele>
        <time>2018-04-20T12:21:20Z</time>
      </trkpt>
      <trkpt lat="45.90953" lon="4.77194">
        <ele>176</ele>
        <time>2018-04-20T12:21:21Z</time>
      </trkpt>
      <trkpt lat="45.90955" lon="4.77198">
        <ele>177</ele>
        <time>2018-04-20T12:21:22Z</time>
      </trkpt>
      <trkpt lat="45.9096" lon="4.77208">
        <ele>177</ele>
        <time>2018-04-20T12:21:24Z</time>
      </trkpt>
      <trkpt lat="45.90962" lon="4.77213">
        <ele>177</ele>
        <time>2018-04-20T12:21:25Z</time>
      </trkpt>
      <trkpt lat="45.90966" lon="4.77223">
        <ele>177</ele>
        <time>2018-04-20T12:21:27Z</time>
      </trkpt>
      <trkpt lat="45.90968" lon="4.77228">
        <ele>177</ele>
        <time>2018-04-20T12:21:28Z</time>
      </trkpt>
      <trkpt lat="45.90973" lon="4.77237">
        <ele>177</ele>
        <time>2018-04-20T12:21:30Z</time>
      </trkpt>
      <trkpt lat="45.90975" lon="4.77242">
        <ele>178</ele>
        <time>2018-04-20T12:21:31Z</time>
      </trkpt>
      <trkpt lat="45.90978" lon="4.77253">
        <ele>178</ele>
        <time>2018-04-20T12:21:33Z</time>
      </trkpt>
      <trkpt lat="45.90979" lon="4.77259">
        <ele>178</ele>
        <time>2018-04-20T12:21:34Z</time>
      </trkpt>
      <trkpt lat="45.90977" lon="4.77271">
        <ele>178</ele>
        <time>2018-04-20T12:21:36Z</time>
      </trkpt>
      <trkpt lat="45.90976" lon="4.77276">
        <ele>178</ele>
        <time>2018-04-20T12:21:37Z</time>
      </trkpt>
      <trkpt lat="45.90973" lon="4.77282">
        <ele>178</ele>
        <time>2018-04-20T12:21:38Z</time>
      </trkpt>
      <trkpt lat="45.9097" lon="4.77287">
        <ele>178</ele>
        <time>2018-04-20T12:21:39Z</time>
      </trkpt>
      <trkpt lat="45.90965" lon="4.77297">
        <ele>178</ele>
        <time>2018-04-20T12:21:41Z</time>
      </trkpt>
      <trkpt lat="45.90962" lon="4.77302">
        <ele>178</ele>
        <time>2018-04-20T12:21:42Z</time>
      </trkpt>
      <trkpt lat="45.90957" lon="4.77311">
        <ele>178</ele>
        <time>2018-04-20T12:21:44Z</time>
      </trkpt>
      <trkpt lat="45.90954" lon="4.77314">
        <ele>178</ele>
        <time>2018-04-20T12:21:45Z</time>
      </trkpt>
      <trkpt lat="45.90947" lon="4.77322">
        <ele>178</ele>
        <time>2018-04-20T12:21:47Z</time>
      </trkpt>
      <trkpt lat="45.90944" lon="4.77327">
        <ele>178</ele>
        <time>2018-04-20T12:21:48Z</time>
      </trkpt>
      <trkpt lat="45.90939" lon="4.77337">
        <ele>177</ele>
        <time>2018-04-20T12:21:50Z</time>
      </trkpt>
      <trkpt lat="45.90937" lon="4.77342">
        <ele>177</ele>
        <time>2018-04-20T12:21:51Z</time>
      </trkpt>
      <trkpt lat="45.90932" lon="4.77352">
        <ele>177</ele>
        <time>2018-04-20T12:21:53Z</time>
      </trkpt>
      <trkpt lat="45.90929" lon="4.77357">
        <ele>177</ele>
        <time>2018-04-20T12:21:54Z</time>
      </trkpt>
      <trkpt lat="45.90926" lon="4.77362">
        <ele>177</ele>
        <time>2018-04-20T12:21:55Z</time>
      </trkpt>
      <trkpt lat="45.90923" lon="4.77367">
        <ele>177</ele>
        <time>2018-04-20T12:21:56Z</time>
      </trkpt>
      <trkpt lat="45.9092" lon="4.77372">
        <ele>177</ele>
        <time>2018-04-20T12:21:57Z</time>
      </trkpt>
      <trkpt lat="45.90918" lon="4.77377">
        <ele>176</ele>
        <time>2018-04-20T12:21:58Z</time>
      </trkpt>
      <trkpt lat="45.90915" lon="4.77382">
        <ele>177</ele>
        <time>2018-04-20T12:21:59Z</time>
      </trkpt>
      <trkpt lat="45.90912" lon="4.77388">
        <ele>177</ele>
        <time>2018-04-20T12:22:00Z</time>
      </trkpt>
      <trkpt lat="45.90909" lon="4.77394">
        <ele>177</ele>
        <time>2018-04-20T12:22:01Z</time>
      </trkpt>
      <trkpt lat="45.90906" lon="4.77399">
        <ele>177</ele>
        <time>2018-04-20T12:22:02Z</time>
      </trkpt>
      <trkpt lat="45.90903" lon="4.77404">
        <ele>177</ele>
        <time>2018-04-20T12:22:03Z</time>
      </trkpt>
      <trkpt lat="45.90901" lon="4.7741">
        <ele>177</ele>
        <time>2018-04-20T12:22:04Z</time>
      </trkpt>
      <trkpt lat="45.90899" lon="4.77416">
        <ele>177</ele>
        <time>2018-04-20T12:22:05Z</time>
      </trkpt>
      <trkpt lat="45.90896" lon="4.77423">
        <ele>177</ele>
        <time>2018-04-20T12:22:06Z</time>
      </trkpt>
      <trkpt lat="45.9089" lon="4.77431">
        <ele>177</ele>
        <time>2018-04-20T12:22:08Z</time>
      </trkpt>
      <trkpt lat="45.90887" lon="4.77435">
        <ele>177</ele>
        <time>2018-04-20T12:22:09Z</time>
      </trkpt>
      <trkpt lat="45.90883" lon="4.77445">
        <ele>178</ele>
        <time>2018-04-20T12:22:11Z</time>
      </trkpt>
      <trkpt lat="45.9088" lon="4.77448">
        <ele>178</ele>
        <time>2018-04-20T12:22:12Z</time>
      </trkpt>
      <trkpt lat="45.90874" lon="4.77457">
        <ele>178</ele>
        <time>2018-04-20T12:22:14Z</time>
      </trkpt>
      <trkpt lat="45.90872" lon="4.77462">
        <ele>178</ele>
        <time>2018-04-20T12:22:15Z</time>
      </trkpt>
      <trkpt lat="45.90867" lon="4.7747">
        <ele>178</ele>
        <time>2018-04-20T12:22:17Z</time>
      </trkpt>
      <trkpt lat="45.90864" lon="4.77475">
        <ele>178</ele>
        <time>2018-04-20T12:22:18Z</time>
      </trkpt>
      <trkpt lat="45.90859" lon="4.77484">
        <ele>178</ele>
        <time>2018-04-20T12:22:20Z</time>
      </trkpt>
      <trkpt lat="45.90857" lon="4.7749">
        <ele>178</ele>
        <time>2018-04-20T12:22:21Z</time>
      </trkpt>
      <trkpt lat="45.90851" lon="4.77499">
        <ele>178</ele>
        <time>2018-04-20T12:22:23Z</time>
      </trkpt>
      <trkpt lat="45.9085" lon="4.77501">
        <ele>179</ele>
        <time>2018-04-20T12:22:24Z</time>
      </trkpt>
      <trkpt lat="45.90843" lon="4.77509">
        <ele>179</ele>
        <time>2018-04-20T12:22:26Z</time>
      </trkpt>
      <trkpt lat="45.90841" lon="4.77513">
        <ele>179</ele>
        <time>2018-04-20T12:22:27Z</time>
      </trkpt>
      <trkpt lat="45.90836" lon="4.77522">
        <ele>178</ele>
        <time>2018-04-20T12:22:29Z</time>
      </trkpt>
      <trkpt lat="45.90833" lon="4.77525">
        <ele>178</ele>
        <time>2018-04-20T12:22:30Z</time>
      </trkpt>
      <trkpt lat="45.9083" lon="4.77531">
        <ele>178</ele>
        <time>2018-04-20T12:22:31Z</time>
      </trkpt>
      <trkpt lat="45.90827" lon="4.77535">
        <ele>178</ele>
        <time>2018-04-20T12:22:32Z</time>
      </trkpt>
      <trkpt lat="45.90821" lon="4.77543">
        <ele>178</ele>
        <time>2018-04-20T12:22:34Z</time>
      </trkpt>
      <trkpt lat="45.90818" lon="4.77547">
        <ele>178</ele>
        <time>2018-04-20T12:22:35Z</time>
      </trkpt>
      <trkpt lat="45.90812" lon="4.77554">
        <ele>178</ele>
        <time>2018-04-20T12:22:37Z</time>
      </trkpt>
      <trkpt lat="45.90809" lon="4.77558">
        <ele>178</ele>
        <time>2018-04-20T12:22:38Z</time>
      </trkpt>
      <trkpt lat="45.90803" lon="4.77565">
        <ele>178</ele>
        <time>2018-04-20T12:22:40Z</time>
      </trkpt>
      <trkpt lat="45.908" lon="4.77568">
        <ele>178</ele>
        <time>2018-04-20T12:22:41Z</time>
      </trkpt>
      <trkpt lat="45.90795" lon="4.77577">
        <ele>178</ele>
        <time>2018-04-20T12:22:43Z</time>
      </trkpt>
      <trkpt lat="45.90792" lon="4.77581">
        <ele>178</ele>
        <time>2018-04-20T12:22:44Z</time>
      </trkpt>
      <trkpt lat="45.90787" lon="4.77589">
        <ele>179</ele>
        <time>2018-04-20T12:22:46Z</time>
      </trkpt>
      <trkpt lat="45.90784" lon="4.77592">
        <ele>179</ele>
        <time>2018-04-20T12:22:47Z</time>
      </trkpt>
      <trkpt lat="45.90777" lon="4.77599">
        <ele>179</ele>
        <time>2018-04-20T12:22:50Z</time>
      </trkpt>
      <trkpt lat="45.90772" lon="4.77605">
        <ele>179</ele>
        <time>2018-04-20T12:22:51Z</time>
      </trkpt>
      <trkpt lat="45.90767" lon="4.77613">
        <ele>179</ele>
        <time>2018-04-20T12:22:54Z</time>
      </trkpt>
      <trkpt lat="45.90766" lon="4.77616">
        <ele>179</ele>
        <time>2018-04-20T12:22:55Z</time>
      </trkpt>
      <trkpt lat="45.90762" lon="4.77623">
        <ele>179</ele>
        <time>2018-04-20T12:22:57Z</time>
      </trkpt>
      <trkpt lat="45.9076" lon="4.77627">
        <ele>179</ele>
        <time>2018-04-20T12:22:58Z</time>
      </trkpt>
      <trkpt lat="45.90755" lon="4.77633">
        <ele>179</ele>
        <time>2018-04-20T12:23:00Z</time>
      </trkpt>
      <trkpt lat="45.90748" lon="4.77643">
        <ele>180</ele>
        <time>2018-04-20T12:23:01Z</time>
      </trkpt>
      <trkpt lat="45.90744" lon="4.7765">
        <ele>180</ele>
        <time>2018-04-20T12:23:03Z</time>
      </trkpt>
      <trkpt lat="45.90743" lon="4.77656">
        <ele>180</ele>
        <time>2018-04-20T12:23:04Z</time>
      </trkpt>
      <trkpt lat="45.90747" lon="4.77665">
        <ele>181</ele>
        <time>2018-04-20T12:23:06Z</time>
      </trkpt>
      <trkpt lat="45.90751" lon="4.77669">
        <ele>181</ele>
        <time>2018-04-20T12:23:07Z</time>
      </trkpt>
      <trkpt lat="45.90757" lon="4.77671">
        <ele>180</ele>
        <time>2018-04-20T12:23:09Z</time>
      </trkpt>
      <trkpt lat="45.9076" lon="4.7767">
        <ele>180</ele>
        <time>2018-04-20T12:23:10Z</time>
      </trkpt>
      <trkpt lat="45.90765" lon="4.77668">
        <ele>180</ele>
        <time>2018-04-20T12:23:12Z</time>
      </trkpt>
      <trkpt lat="45.90773" lon="4.77667">
        <ele>180</ele>
        <time>2018-04-20T12:23:13Z</time>
      </trkpt>
      <trkpt lat="45.90781" lon="4.77669">
        <ele>180</ele>
        <time>2018-04-20T12:23:17Z</time>
      </trkpt>
      <trkpt lat="45.90784" lon="4.77669">
        <ele>180</ele>
        <time>2018-04-20T12:23:18Z</time>
      </trkpt>
      <trkpt lat="45.90792" lon="4.77671">
        <ele>180</ele>
        <time>2018-04-20T12:23:21Z</time>
      </trkpt>
      <trkpt lat="45.90794" lon="4.77672">
        <ele>179</ele>
        <time>2018-04-20T12:23:22Z</time>
      </trkpt>
      <trkpt lat="45.90803" lon="4.77674">
        <ele>179</ele>
        <time>2018-04-20T12:23:23Z</time>
      </trkpt>
      <trkpt lat="45.90805" lon="4.77674">
        <ele>179</ele>
        <time>2018-04-20T12:23:24Z</time>
      </trkpt>
      <trkpt lat="45.90814" lon="4.77676">
        <ele>179</ele>
        <time>2018-04-20T12:23:26Z</time>
      </trkpt>
      <trkpt lat="45.90816" lon="4.77677">
        <ele>179</ele>
        <time>2018-04-20T12:23:27Z</time>
      </trkpt>
      <trkpt lat="45.90818" lon="4.77677">
        <ele>179</ele>
        <time>2018-04-20T12:23:28Z</time>
      </trkpt>
      <trkpt lat="45.90824" lon="4.77679">
        <ele>179</ele>
        <time>2018-04-20T12:23:29Z</time>
      </trkpt>
      <trkpt lat="45.90832" lon="4.77682">
        <ele>179</ele>
        <time>2018-04-20T12:23:31Z</time>
      </trkpt>
      <trkpt lat="45.90837" lon="4.77683">
        <ele>178</ele>
        <time>2018-04-20T12:23:32Z</time>
      </trkpt>
      <trkpt lat="45.90841" lon="4.77685">
        <ele>178</ele>
        <time>2018-04-20T12:23:33Z</time>
      </trkpt>
      <trkpt lat="45.90845" lon="4.77687">
        <ele>178</ele>
        <time>2018-04-20T12:23:34Z</time>
      </trkpt>
      <trkpt lat="45.90851" lon="4.77688">
        <ele>178</ele>
        <time>2018-04-20T12:23:35Z</time>
      </trkpt>
      <trkpt lat="45.90855" lon="4.7769">
        <ele>178</ele>
        <time>2018-04-20T12:23:36Z</time>
      </trkpt>
      <trkpt lat="45.90862" lon="4.77697">
        <ele>178</ele>
        <time>2018-04-20T12:23:40Z</time>
      </trkpt>
      <trkpt lat="45.90864" lon="4.77699">
        <ele>178</ele>
        <time>2018-04-20T12:23:41Z</time>
      </trkpt>
      <trkpt lat="45.9087" lon="4.77702">
        <ele>178</ele>
        <time>2018-04-20T12:23:43Z</time>
      </trkpt>
      <trkpt lat="45.90873" lon="4.77704">
        <ele>178</ele>
        <time>2018-04-20T12:23:44Z</time>
      </trkpt>
      <trkpt lat="45.9088" lon="4.77709">
        <ele>177</ele>
        <time>2018-04-20T12:23:45Z</time>
      </trkpt>
      <trkpt lat="45.90881" lon="4.77711">
        <ele>177</ele>
        <time>2018-04-20T12:23:46Z</time>
      </trkpt>
      <trkpt lat="45.90886" lon="4.77717">
        <ele>177</ele>
        <time>2018-04-20T12:23:49Z</time>
      </trkpt>
      <trkpt lat="45.90888" lon="4.7772">
        <ele>177</ele>
        <time>2018-04-20T12:23:50Z</time>
      </trkpt>
      <trkpt lat="45.9089" lon="4.77723">
        <ele>177</ele>
        <time>2018-04-20T12:23:51Z</time>
      </trkpt>
      <trkpt lat="45.90897" lon="4.77731">
        <ele>177</ele>
        <time>2018-04-20T12:23:52Z</time>
      </trkpt>
      <trkpt lat="45.90903" lon="4.7774">
        <ele>177</ele>
        <time>2018-04-20T12:23:54Z</time>
      </trkpt>
      <trkpt lat="45.90907" lon="4.77744">
        <ele>177</ele>
        <time>2018-04-20T12:23:55Z</time>
      </trkpt>
      <trkpt lat="45.9091" lon="4.77748">
        <ele>176</ele>
        <time>2018-04-20T12:23:56Z</time>
      </trkpt>
      <trkpt lat="45.90914" lon="4.77752">
        <ele>176</ele>
        <time>2018-04-20T12:23:57Z</time>
      </trkpt>
      <trkpt lat="45.90919" lon="4.7776">
        <ele>176</ele>
        <time>2018-04-20T12:24:00Z</time>
      </trkpt>
      <trkpt lat="45.9092" lon="4.77762">
        <ele>176</ele>
        <time>2018-04-20T12:24:01Z</time>
      </trkpt>
      <trkpt lat="45.90927" lon="4.7777">
        <ele>177</ele>
        <time>2018-04-20T12:24:44Z</time>
      </trkpt>
      <trkpt lat="45.90927" lon="4.7777">
        <ele>177</ele>
        <time>2018-04-20T12:24:45Z</time>
      </trkpt>
      <trkpt lat="45.90933" lon="4.77775">
        <ele>177</ele>
        <time>2018-04-20T12:24:50Z</time>
      </trkpt>
      <trkpt lat="45.90938" lon="4.77781">
        <ele>177</ele>
        <time>2018-04-20T12:24:51Z</time>
      </trkpt>
      <trkpt lat="45.90941" lon="4.77785">
        <ele>177</ele>
        <time>2018-04-20T12:24:52Z</time>
      </trkpt>
      <trkpt lat="45.90947" lon="4.77787">
        <ele>177</ele>
        <time>2018-04-20T12:24:53Z</time>
      </trkpt>
      <trkpt lat="45.90956" lon="4.77788">
        <ele>177</ele>
        <time>2018-04-20T12:24:55Z</time>
      </trkpt>
      <trkpt lat="45.9096" lon="4.77788">
        <ele>177</ele>
        <time>2018-04-20T12:24:56Z</time>
      </trkpt>
      <trkpt lat="45.90965" lon="4.77789">
        <ele>177</ele>
        <time>2018-04-20T12:24:57Z</time>
      </trkpt>
      <trkpt lat="45.9097" lon="4.7779">
        <ele>177</ele>
        <time>2018-04-20T12:24:58Z</time>
      </trkpt>
      <trkpt lat="45.90978" lon="4.77788">
        <ele>177</ele>
        <time>2018-04-20T12:25:00Z</time>
      </trkpt>
      <trkpt lat="45.90983" lon="4.77789">
        <ele>177</ele>
        <time>2018-04-20T12:25:01Z</time>
      </trkpt>
      <trkpt lat="45.90988" lon="4.77789">
        <ele>177</ele>
        <time>2018-04-20T12:25:02Z</time>
      </trkpt>
      <trkpt lat="45.90994" lon="4.77786">
        <ele>177</ele>
        <time>2018-04-20T12:25:03Z</time>
      </trkpt>
      <trkpt lat="45.91002" lon="4.77786">
        <ele>178</ele>
        <time>2018-04-20T12:25:05Z</time>
      </trkpt>
      <trkpt lat="45.91007" lon="4.77785">
        <ele>178</ele>
        <time>2018-04-20T12:25:06Z</time>
      </trkpt>
      <trkpt lat="45.91013" lon="4.77783">
        <ele>178</ele>
        <time>2018-04-20T12:25:07Z</time>
      </trkpt>
      <trkpt lat="45.91017" lon="4.7778">
        <ele>178</ele>
        <time>2018-04-20T12:25:08Z</time>
      </trkpt>
      <trkpt lat="45.91025" lon="4.7778">
        <ele>178</ele>
        <time>2018-04-20T12:25:09Z</time>
      </trkpt>
      <trkpt lat="45.9103" lon="4.7778">
        <ele>178</ele>
        <time>2018-04-20T12:25:10Z</time>
      </trkpt>
      <trkpt lat="45.91035" lon="4.77778">
        <ele>178</ele>
        <time>2018-04-20T12:25:11Z</time>
      </trkpt>
      <trkpt lat="45.9104" lon="4.77776">
        <ele>178</ele>
        <time>2018-04-20T12:25:12Z</time>
      </trkpt>
      <trkpt lat="45.91045" lon="4.77774">
        <ele>178</ele>
        <time>2018-04-20T12:25:13Z</time>
      </trkpt>
      <trkpt lat="45.91049" lon="4.77771">
        <ele>178</ele>
        <time>2018-04-20T12:25:14Z</time>
      </trkpt>
      <trkpt lat="45.91054" lon="4.77767">
        <ele>178</ele>
        <time>2018-04-20T12:25:15Z</time>
      </trkpt>
      <trkpt lat="45.91061" lon="4.77766">
        <ele>178</ele>
        <time>2018-04-20T12:25:16Z</time>
      </trkpt>
      <trkpt lat="45.91066" lon="4.77763">
        <ele>178</ele>
        <time>2018-04-20T12:25:17Z</time>
      </trkpt>
      <trkpt lat="45.91072" lon="4.77763">
        <ele>179</ele>
        <time>2018-04-20T12:25:18Z</time>
      </trkpt>
      <trkpt lat="45.91076" lon="4.77759">
        <ele>179</ele>
        <time>2018-04-20T12:25:19Z</time>
      </trkpt>
      <trkpt lat="45.91081" lon="4.77756">
        <ele>179</ele>
        <time>2018-04-20T12:25:20Z</time>
      </trkpt>
      <trkpt lat="45.91087" lon="4.77752">
        <ele>179</ele>
        <time>2018-04-20T12:25:21Z</time>
      </trkpt>
      <trkpt lat="45.91092" lon="4.7775">
        <ele>179</ele>
        <time>2018-04-20T12:25:22Z</time>
      </trkpt>
      <trkpt lat="45.91097" lon="4.77748">
        <ele>178</ele>
        <time>2018-04-20T12:25:23Z</time>
      </trkpt>
      <trkpt lat="45.91102" lon="4.77745">
        <ele>178</ele>
        <time>2018-04-20T12:25:24Z</time>
      </trkpt>
      <trkpt lat="45.91108" lon="4.77745">
        <ele>178</ele>
        <time>2018-04-20T12:25:25Z</time>
      </trkpt>
      <trkpt lat="45.91113" lon="4.77742">
        <ele>178</ele>
        <time>2018-04-20T12:25:26Z</time>
      </trkpt>
      <trkpt lat="45.9112" lon="4.77736">
        <ele>178</ele>
        <time>2018-04-20T12:25:28Z</time>
      </trkpt>
      <trkpt lat="45.91124" lon="4.77732">
        <ele>178</ele>
        <time>2018-04-20T12:25:29Z</time>
      </trkpt>
      <trkpt lat="45.91129" lon="4.77729">
        <ele>178</ele>
        <time>2018-04-20T12:25:30Z</time>
      </trkpt>
      <trkpt lat="45.91133" lon="4.77726">
        <ele>177</ele>
        <time>2018-04-20T12:25:31Z</time>
      </trkpt>
      <trkpt lat="45.91138" lon="4.77724">
        <ele>177</ele>
        <time>2018-04-20T12:25:32Z</time>
      </trkpt>
      <trkpt lat="45.91143" lon="4.77723">
        <ele>177</ele>
        <time>2018-04-20T12:25:33Z</time>
      </trkpt>
      <trkpt lat="45.91149" lon="4.77721">
        <ele>177</ele>
        <time>2018-04-20T12:25:34Z</time>
      </trkpt>
      <trkpt lat="45.91153" lon="4.77719">
        <ele>177</ele>
        <time>2018-04-20T12:25:35Z</time>
      </trkpt>
      <trkpt lat="45.91158" lon="4.77716">
        <ele>177</ele>
        <time>2018-04-20T12:25:36Z</time>
      </trkpt>
      <trkpt lat="45.91163" lon="4.77715">
        <ele>177</ele>
        <time>2018-04-20T12:25:37Z</time>
      </trkpt>
      <trkpt lat="45.91168" lon="4.77713">
        <ele>177</ele>
        <time>2018-04-20T12:25:38Z</time>
      </trkpt>
      <trkpt lat="45.91173" lon="4.77714">
        <ele>177</ele>
        <time>2018-04-20T12:25:39Z</time>
      </trkpt>
      <trkpt lat="45.91182" lon="4.7771">
        <ele>177</ele>
        <time>2018-04-20T12:25:41Z</time>
      </trkpt>
      <trkpt lat="45.91186" lon="4.77709">
        <ele>177</ele>
        <time>2018-04-20T12:25:42Z</time>
      </trkpt>
      <trkpt lat="45.91193" lon="4.77705">
        <ele>176</ele>
        <time>2018-04-20T12:25:43Z</time>
      </trkpt>
      <trkpt lat="45.91199" lon="4.77706">
        <ele>176</ele>
        <time>2018-04-20T12:25:44Z</time>
      </trkpt>
      <trkpt lat="45.91203" lon="4.77704">
        <ele>176</ele>
        <time>2018-04-20T12:25:45Z</time>
      </trkpt>
      <trkpt lat="45.91208" lon="4.77703">
        <ele>176</ele>
        <time>2018-04-20T12:25:46Z</time>
      </trkpt>
      <trkpt lat="45.91214" lon="4.77701">
        <ele>176</ele>
        <time>2018-04-20T12:25:47Z</time>
      </trkpt>
      <trkpt lat="45.91218" lon="4.77699">
        <ele>176</ele>
        <time>2018-04-20T12:25:48Z</time>
      </trkpt>
      <trkpt lat="45.91223" lon="4.77697">
        <ele>176</ele>
        <time>2018-04-20T12:25:49Z</time>
      </trkpt>
      <trkpt lat="45.91229" lon="4.77697">
        <ele>176</ele>
        <time>2018-04-20T12:25:50Z</time>
      </trkpt>
      <trkpt lat="45.91234" lon="4.77694">
        <ele>176</ele>
        <time>2018-04-20T12:25:51Z</time>
      </trkpt>
      <trkpt lat="45.91238" lon="4.77692">
        <ele>176</ele>
        <time>2018-04-20T12:25:52Z</time>
      </trkpt>
      <trkpt lat="45.91243" lon="4.7769">
        <ele>176</ele>
        <time>2018-04-20T12:25:53Z</time>
      </trkpt>
      <trkpt lat="45.91249" lon="4.77691">
        <ele>176</ele>
        <time>2018-04-20T12:25:54Z</time>
      </trkpt>
      <trkpt lat="45.91254" lon="4.7769">
        <ele>176</ele>
        <time>2018-04-20T12:25:55Z</time>
      </trkpt>
      <trkpt lat="45.91258" lon="4.7769">
        <ele>176</ele>
        <time>2018-04-20T12:25:56Z</time>
      </trkpt>
      <trkpt lat="45.91267" lon="4.77694">
        <ele>176</ele>
        <time>2018-04-20T12:25:58Z</time>
      </trkpt>
      <trkpt lat="45.91271" lon="4.77695">
        <ele>176</ele>
        <time>2018-04-20T12:25:59Z</time>
      </trkpt>
      <trkpt lat="45.91279" lon="4.777">
        <ele>176</ele>
        <time>2018-04-20T12:26:01Z</time>
      </trkpt>
      <trkpt lat="45.91282" lon="4.77701">
        <ele>176</ele>
        <time>2018-04-20T12:26:02Z</time>
      </trkpt>
      <trkpt lat="45.9129" lon="4.77706">
        <ele>176</ele>
        <time>2018-04-20T12:26:04Z</time>
      </trkpt>
      <trkpt lat="45.91294" lon="4.77708">
        <ele>176</ele>
        <time>2018-04-20T12:26:05Z</time>
      </trkpt>
      <trkpt lat="45.91299" lon="4.7771">
        <ele>176</ele>
        <time>2018-04-20T12:26:06Z</time>
      </trkpt>
      <trkpt lat="45.91304" lon="4.77711">
        <ele>176</ele>
        <time>2018-04-20T12:26:07Z</time>
      </trkpt>
      <trkpt lat="45.91311" lon="4.77716">
        <ele>176</ele>
        <time>2018-04-20T12:26:09Z</time>
      </trkpt>
      <trkpt lat="45.91313" lon="4.7772">
        <ele>176</ele>
        <time>2018-04-20T12:26:10Z</time>
      </trkpt>
      <trkpt lat="45.91322" lon="4.77722">
        <ele>176</ele>
        <time>2018-04-20T12:26:12Z</time>
      </trkpt>
      <trkpt lat="45.91326" lon="4.77721">
        <ele>176</ele>
        <time>2018-04-20T12:26:13Z</time>
      </trkpt>
      <trkpt lat="45.91335" lon="4.77723">
        <ele>176</ele>
        <time>2018-04-20T12:26:15Z</time>
      </trkpt>
      <trkpt lat="45.91339" lon="4.77723">
        <ele>176</ele>
        <time>2018-04-20T12:26:16Z</time>
      </trkpt>
      <trkpt lat="45.91348" lon="4.77724">
        <ele>176</ele>
        <time>2018-04-20T12:26:18Z</time>
      </trkpt>
      <trkpt lat="45.9135" lon="4.77724">
        <ele>176</ele>
        <time>2018-04-20T12:26:19Z</time>
      </trkpt>
      <trkpt lat="45.91356" lon="4.77724">
        <ele>176</ele>
        <time>2018-04-20T12:26:22Z</time>
      </trkpt>
      <trkpt lat="45.91359" lon="4.77724">
        <ele>176</ele>
        <time>2018-04-20T12:26:23Z</time>
      </trkpt>
      <trkpt lat="45.91367" lon="4.77722">
        <ele>176</ele>
        <time>2018-04-20T12:26:42Z</time>
      </trkpt>
      <trkpt lat="45.91368" lon="4.77722">
        <ele>176</ele>
        <time>2018-04-20T12:26:43Z</time>
      </trkpt>
      <trkpt lat="45.91375" lon="4.77721">
        <ele>176</ele>
        <time>2018-04-20T12:26:47Z</time>
      </trkpt>
      <trkpt lat="45.91378" lon="4.77721">
        <ele>176</ele>
        <time>2018-04-20T12:26:48Z</time>
      </trkpt>
      <trkpt lat="45.91389" lon="4.77722">
        <ele>177</ele>
        <time>2018-04-20T12:26:49Z</time>
      </trkpt>
      <trkpt lat="45.91393" lon="4.77721">
        <ele>177</ele>
        <time>2018-04-20T12:26:50Z</time>
      </trkpt>
      <trkpt lat="45.91398" lon="4.7772">
        <ele>177</ele>
        <time>2018-04-20T12:26:51Z</time>
      </trkpt>
      <trkpt lat="45.91406" lon="4.77722">
        <ele>177</ele>
        <time>2018-04-20T12:26:53Z</time>
      </trkpt>
      <trkpt lat="45.91409" lon="4.77726">
        <ele>177</ele>
        <time>2018-04-20T12:26:54Z</time>
      </trkpt>
      <trkpt lat="45.91416" lon="4.7772">
        <ele>177</ele>
        <time>2018-04-20T12:26:56Z</time>
      </trkpt>
      <trkpt lat="45.91417" lon="4.77709">
        <ele>177</ele>
        <time>2018-04-20T12:26:57Z</time>
      </trkpt>
      <trkpt lat="45.91417" lon="4.77697">
        <ele>177</ele>
        <time>2018-04-20T12:27:00Z</time>
      </trkpt>
      <trkpt lat="45.91417" lon="4.77694">
        <ele>176</ele>
        <time>2018-04-20T12:27:01Z</time>
      </trkpt>
      <trkpt lat="45.91415" lon="4.77682">
        <ele>176</ele>
        <time>2018-04-20T12:27:05Z</time>
      </trkpt>
      <trkpt lat="45.91414" lon="4.7768">
        <ele>176</ele>
        <time>2018-04-20T12:27:06Z</time>
      </trkpt>
      <trkpt lat="45.91412" lon="4.7767">
        <ele>176</ele>
        <time>2018-04-20T12:27:09Z</time>
      </trkpt>
      <trkpt lat="45.91412" lon="4.77667">
        <ele>176</ele>
        <time>2018-04-20T12:27:10Z</time>
      </trkpt>
      <trkpt lat="45.91411" lon="4.77655">
        <ele>175</ele>
        <time>2018-04-20T12:27:17Z</time>
      </trkpt>
      <trkpt lat="45.91411" lon="4.77654">
        <ele>175</ele>
        <time>2018-04-20T12:27:18Z</time>
      </trkpt>
      <trkpt lat="45.91408" lon="4.77644">
        <ele>175</ele>
        <time>2018-04-20T12:27:22Z</time>
      </trkpt>
      <trkpt lat="45.91407" lon="4.7764">
        <ele>175</ele>
        <time>2018-04-20T12:27:23Z</time>
      </trkpt>
      <trkpt lat="45.91405" lon="4.77636">
        <ele>175</ele>
        <time>2018-04-20T12:27:24Z</time>
      </trkpt>
      <trkpt lat="45.91402" lon="4.77623">
        <ele>175</ele>
        <time>2018-04-20T12:27:25Z</time>
      </trkpt>
      <trkpt lat="45.914" lon="4.77612">
        <ele>174</ele>
        <time>2018-04-20T12:27:27Z</time>
      </trkpt>
      <trkpt lat="45.91399" lon="4.77607">
        <ele>174</ele>
        <time>2018-04-20T12:27:28Z</time>
      </trkpt>
      <trkpt lat="45.91399" lon="4.776">
        <ele>174</ele>
        <time>2018-04-20T12:27:29Z</time>
      </trkpt>
      <trkpt lat="45.91398" lon="4.77593">
        <ele>174</ele>
        <time>2018-04-20T12:27:30Z</time>
      </trkpt>
      <trkpt lat="45.91397" lon="4.77586">
        <ele>174</ele>
        <time>2018-04-20T12:27:31Z</time>
      </trkpt>
      <trkpt lat="45.91397" lon="4.77579">
        <ele>174</ele>
        <time>2018-04-20T12:27:32Z</time>
      </trkpt>
      <trkpt lat="45.91397" lon="4.77566">
        <ele>174</ele>
        <time>2018-04-20T12:27:34Z</time>
      </trkpt>
      <trkpt lat="45.91395" lon="4.77559">
        <ele>174</ele>
        <time>2018-04-20T12:27:35Z</time>
      </trkpt>
      <trkpt lat="45.91393" lon="4.77548">
        <ele>174</ele>
        <time>2018-04-20T12:27:37Z</time>
      </trkpt>
      <trkpt lat="45.91395" lon="4.77542">
        <ele>174</ele>
        <time>2018-04-20T12:27:38Z</time>
      </trkpt>
      <trkpt lat="45.91393" lon="4.77535">
        <ele>174</ele>
        <time>2018-04-20T12:27:39Z</time>
      </trkpt>
      <trkpt lat="45.91394" lon="4.77528">
        <ele>174</ele>
        <time>2018-04-20T12:27:40Z</time>
      </trkpt>
      <trkpt lat="45.91394" lon="4.77517">
        <ele>174</ele>
        <time>2018-04-20T12:27:42Z</time>
      </trkpt>
      <trkpt lat="45.91393" lon="4.7751">
        <ele>174</ele>
        <time>2018-04-20T12:27:43Z</time>
      </trkpt>
      <trkpt lat="45.91393" lon="4.77504">
        <ele>174</ele>
        <time>2018-04-20T12:27:44Z</time>
      </trkpt>
      <trkpt lat="45.91393" lon="4.77497">
        <ele>174</ele>
        <time>2018-04-20T12:27:45Z</time>
      </trkpt>
      <trkpt lat="45.91392" lon="4.77491">
        <ele>174</ele>
        <time>2018-04-20T12:27:46Z</time>
      </trkpt>
      <trkpt lat="45.91391" lon="4.77484">
        <ele>174</ele>
        <time>2018-04-20T12:27:47Z</time>
      </trkpt>
      <trkpt lat="45.91391" lon="4.77475">
        <ele>174</ele>
        <time>2018-04-20T12:27:48Z</time>
      </trkpt>
      <trkpt lat="45.9139" lon="4.77469">
        <ele>174</ele>
        <time>2018-04-20T12:27:49Z</time>
      </trkpt>
      <trkpt lat="45.9139" lon="4.77462">
        <ele>174</ele>
        <time>2018-04-20T12:27:50Z</time>
      </trkpt>
      <trkpt lat="45.9139" lon="4.77454">
        <ele>174</ele>
        <time>2018-04-20T12:27:51Z</time>
      </trkpt>
      <trkpt lat="45.9139" lon="4.77447">
        <ele>174</ele>
        <time>2018-04-20T12:27:52Z</time>
      </trkpt>
      <trkpt lat="45.9139" lon="4.7744">
        <ele>174</ele>
        <time>2018-04-20T12:27:53Z</time>
      </trkpt>
      <trkpt lat="45.91389" lon="4.77427">
        <ele>174</ele>
        <time>2018-04-20T12:27:55Z</time>
      </trkpt>
      <trkpt lat="45.91389" lon="4.77421">
        <ele>174</ele>
        <time>2018-04-20T12:27:56Z</time>
      </trkpt>
      <trkpt lat="45.91391" lon="4.77408">
        <ele>174</ele>
        <time>2018-04-20T12:27:58Z</time>
      </trkpt>
      <trkpt lat="45.91392" lon="4.774">
        <ele>174</ele>
        <time>2018-04-20T12:27:59Z</time>
      </trkpt>
      <trkpt lat="45.91392" lon="4.77393">
        <ele>174</ele>
        <time>2018-04-20T12:28:00Z</time>
      </trkpt>
      <trkpt lat="45.91393" lon="4.77386">
        <ele>174</ele>
        <time>2018-04-20T12:28:01Z</time>
      </trkpt>
      <trkpt lat="45.91392" lon="4.77379">
        <ele>174</ele>
        <time>2018-04-20T12:28:02Z</time>
      </trkpt>
      <trkpt lat="45.91393" lon="4.7737">
        <ele>174</ele>
        <time>2018-04-20T12:28:03Z</time>
      </trkpt>
      <trkpt lat="45.91392" lon="4.77362">
        <ele>174</ele>
        <time>2018-04-20T12:28:04Z</time>
      </trkpt>
      <trkpt lat="45.91392" lon="4.77356">
        <ele>174</ele>
        <time>2018-04-20T12:28:05Z</time>
      </trkpt>
      <trkpt lat="45.91391" lon="4.77343">
        <ele>174</ele>
        <time>2018-04-20T12:28:07Z</time>
      </trkpt>
      <trkpt lat="45.91392" lon="4.77337">
        <ele>174</ele>
        <time>2018-04-20T12:28:08Z</time>
      </trkpt>
      <trkpt lat="45.91393" lon="4.77326">
        <ele>175</ele>
        <time>2018-04-20T12:28:10Z</time>
      </trkpt>
      <trkpt lat="45.91392" lon="4.77319">
        <ele>175</ele>
        <time>2018-04-20T12:28:11Z</time>
      </trkpt>
      <trkpt lat="45.91392" lon="4.7731">
        <ele>175</ele>
        <time>2018-04-20T12:28:12Z</time>
      </trkpt>
      <trkpt lat="45.91391" lon="4.77304">
        <ele>175</ele>
        <time>2018-04-20T12:28:13Z</time>
      </trkpt>
      <trkpt lat="45.91391" lon="4.77292">
        <ele>175</ele>
        <time>2018-04-20T12:28:15Z</time>
      </trkpt>
      <trkpt lat="45.91391" lon="4.77286">
        <ele>175</ele>
        <time>2018-04-20T12:28:16Z</time>
      </trkpt>
      <trkpt lat="45.91389" lon="4.77275">
        <ele>175</ele>
        <time>2018-04-20T12:28:18Z</time>
      </trkpt>
      <trkpt lat="45.91388" lon="4.77269">
        <ele>175</ele>
        <time>2018-04-20T12:28:19Z</time>
      </trkpt>
      <trkpt lat="45.91385" lon="4.77256">
        <ele>175</ele>
        <time>2018-04-20T12:28:21Z</time>
      </trkpt>
      <trkpt lat="45.91384" lon="4.7725">
        <ele>176</ele>
        <time>2018-04-20T12:28:22Z</time>
      </trkpt>
      <trkpt lat="45.91382" lon="4.77243">
        <ele>176</ele>
        <time>2018-04-20T12:28:23Z</time>
      </trkpt>
      <trkpt lat="45.91381" lon="4.77235">
        <ele>176</ele>
        <time>2018-04-20T12:28:24Z</time>
      </trkpt>
      <trkpt lat="45.9138" lon="4.77229">
        <ele>176</ele>
        <time>2018-04-20T12:28:25Z</time>
      </trkpt>
      <trkpt lat="45.91379" lon="4.77221">
        <ele>176</ele>
        <time>2018-04-20T12:28:26Z</time>
      </trkpt>
      <trkpt lat="45.9138" lon="4.77213">
        <ele>176</ele>
        <time>2018-04-20T12:28:27Z</time>
      </trkpt>
      <trkpt lat="45.91378" lon="4.77206">
        <ele>176</ele>
        <time>2018-04-20T12:28:28Z</time>
      </trkpt>
      <trkpt lat="45.91377" lon="4.772">
        <ele>176</ele>
        <time>2018-04-20T12:28:29Z</time>
      </trkpt>
      <trkpt lat="45.91376" lon="4.77193">
        <ele>176</ele>
        <time>2018-04-20T12:28:30Z</time>
      </trkpt>
      <trkpt lat="45.91373" lon="4.77183">
        <ele>176</ele>
        <time>2018-04-20T12:28:32Z</time>
      </trkpt>
      <trkpt lat="45.91373" lon="4.77177">
        <ele>176</ele>
        <time>2018-04-20T12:28:33Z</time>
      </trkpt>
      <trkpt lat="45.91372" lon="4.77171">
        <ele>176</ele>
        <time>2018-04-20T12:28:34Z</time>
      </trkpt>
      <trkpt lat="45.9137" lon="4.77164">
        <ele>177</ele>
        <time>2018-04-20T12:28:35Z</time>
      </trkpt>
      <trkpt lat="45.91367" lon="4.77153">
        <ele>177</ele>
        <time>2018-04-20T12:28:37Z</time>
      </trkpt>
      <trkpt lat="45.91366" lon="4.77147">
        <ele>177</ele>
        <time>2018-04-20T12:28:38Z</time>
      </trkpt>
      <trkpt lat="45.91364" lon="4.77135">
        <ele>177</ele>
        <time>2018-04-20T12:28:40Z</time>
      </trkpt>
      <trkpt lat="45.91365" lon="4.77127">
        <ele>177</ele>
        <time>2018-04-20T12:28:41Z</time>
      </trkpt>
      <trkpt lat="45.91364" lon="4.7712">
        <ele>177</ele>
        <time>2018-04-20T12:28:42Z</time>
      </trkpt>
      <trkpt lat="45.91363" lon="4.77113">
        <ele>177</ele>
        <time>2018-04-20T12:28:43Z</time>
      </trkpt>
      <trkpt lat="45.91358" lon="4.77102">
        <ele>177</ele>
        <time>2018-04-20T12:28:45Z</time>
      </trkpt>
      <trkpt lat="45.91357" lon="4.77097">
        <ele>177</ele>
        <time>2018-04-20T12:28:46Z</time>
      </trkpt>
      <trkpt lat="45.91357" lon="4.77092">
        <ele>177</ele>
        <time>2018-04-20T12:28:47Z</time>
      </trkpt>
      <trkpt lat="45.91355" lon="4.77084">
        <ele>177</ele>
        <time>2018-04-20T12:28:48Z</time>
      </trkpt>
      <trkpt lat="45.91353" lon="4.77078">
        <ele>176</ele>
        <time>2018-04-20T12:28:49Z</time>
      </trkpt>
      <trkpt lat="45.91352" lon="4.77071">
        <ele>176</ele>
        <time>2018-04-20T12:28:50Z</time>
      </trkpt>
      <trkpt lat="45.9135" lon="4.7706">
        <ele>176</ele>
        <time>2018-04-20T12:28:52Z</time>
      </trkpt>
      <trkpt lat="45.91349" lon="4.77053">
        <ele>176</ele>
        <time>2018-04-20T12:28:53Z</time>
      </trkpt>
      <trkpt lat="45.91346" lon="4.77047">
        <ele>176</ele>
        <time>2018-04-20T12:28:54Z</time>
      </trkpt>
      <trkpt lat="45.91344" lon="4.77041">
        <ele>176</ele>
        <time>2018-04-20T12:28:55Z</time>
      </trkpt>
      <trkpt lat="45.91343" lon="4.77035">
        <ele>176</ele>
        <time>2018-04-20T12:28:56Z</time>
      </trkpt>
      <trkpt lat="45.9134" lon="4.77029">
        <ele>176</ele>
        <time>2018-04-20T12:28:57Z</time>
      </trkpt>
      <trkpt lat="45.91337" lon="4.77019">
        <ele>176</ele>
        <time>2018-04-20T12:28:59Z</time>
      </trkpt>
      <trkpt lat="45.91337" lon="4.77012">
        <ele>176</ele>
        <time>2018-04-20T12:29:00Z</time>
      </trkpt>
      <trkpt lat="45.91332" lon="4.77008">
        <ele>176</ele>
        <time>2018-04-20T12:29:01Z</time>
      </trkpt>
      <trkpt lat="45.9133" lon="4.77002">
        <ele>176</ele>
        <time>2018-04-20T12:29:02Z</time>
      </trkpt>
      <trkpt lat="45.91328" lon="4.76995">
        <ele>176</ele>
        <time>2018-04-20T12:29:03Z</time>
      </trkpt>
      <trkpt lat="45.91329" lon="4.76988">
        <ele>176</ele>
        <time>2018-04-20T12:29:04Z</time>
      </trkpt>
      <trkpt lat="45.91327" lon="4.76982">
        <ele>175</ele>
        <time>2018-04-20T12:29:05Z</time>
      </trkpt>
      <trkpt lat="45.91326" lon="4.76975">
        <ele>175</ele>
        <time>2018-04-20T12:29:06Z</time>
      </trkpt>
      <trkpt lat="45.91325" lon="4.76966">
        <ele>175</ele>
        <time>2018-04-20T12:29:07Z</time>
      </trkpt>
      <trkpt lat="45.91323" lon="4.7696">
        <ele>175</ele>
        <time>2018-04-20T12:29:08Z</time>
      </trkpt>
      <trkpt lat="45.91323" lon="4.76953">
        <ele>175</ele>
        <time>2018-04-20T12:29:09Z</time>
      </trkpt>
      <trkpt lat="45.91322" lon="4.76945">
        <ele>175</ele>
        <time>2018-04-20T12:29:10Z</time>
      </trkpt>
      <trkpt lat="45.91321" lon="4.76938">
        <ele>175</ele>
        <time>2018-04-20T12:29:11Z</time>
      </trkpt>
      <trkpt lat="45.91324" lon="4.76932">
        <ele>175</ele>
        <time>2018-04-20T12:29:12Z</time>
      </trkpt>
      <trkpt lat="45.91324" lon="4.76926">
        <ele>175</ele>
        <time>2018-04-20T12:29:13Z</time>
      </trkpt>
      <trkpt lat="45.91327" lon="4.76919">
        <ele>175</ele>
        <time>2018-04-20T12:29:14Z</time>
      </trkpt>
      <trkpt lat="45.91327" lon="4.76907">
        <ele>175</ele>
        <time>2018-04-20T12:29:16Z</time>
      </trkpt>
      <trkpt lat="45.91327" lon="4.769">
        <ele>175</ele>
        <time>2018-04-20T12:29:17Z</time>
      </trkpt>
      <trkpt lat="45.91328" lon="4.76887">
        <ele>175</ele>
        <time>2018-04-20T12:29:19Z</time>
      </trkpt>
      <trkpt lat="45.91328" lon="4.76884">
        <ele>175</ele>
        <time>2018-04-20T12:29:20Z</time>
      </trkpt>
      <trkpt lat="45.91328" lon="4.76881">
        <ele>175</ele>
        <time>2018-04-20T12:29:21Z</time>
      </trkpt>
      <trkpt lat="45.91331" lon="4.76862">
        <ele>175</ele>
        <time>2018-04-20T12:29:22Z</time>
      </trkpt>
      <trkpt lat="45.91331" lon="4.76849">
        <ele>174</ele>
        <time>2018-04-20T12:29:24Z</time>
      </trkpt>
      <trkpt lat="45.91333" lon="4.76841">
        <ele>174</ele>
        <time>2018-04-20T12:29:25Z</time>
      </trkpt>
      <trkpt lat="45.91333" lon="4.76829">
        <ele>174</ele>
        <time>2018-04-20T12:29:27Z</time>
      </trkpt>
      <trkpt lat="45.91333" lon="4.76822">
        <ele>175</ele>
        <time>2018-04-20T12:29:28Z</time>
      </trkpt>
      <trkpt lat="45.91333" lon="4.76815">
        <ele>175</ele>
        <time>2018-04-20T12:29:29Z</time>
      </trkpt>
      <trkpt lat="45.91334" lon="4.76809">
        <ele>175</ele>
        <time>2018-04-20T12:29:30Z</time>
      </trkpt>
      <trkpt lat="45.91334" lon="4.76801">
        <ele>175</ele>
        <time>2018-04-20T12:29:31Z</time>
      </trkpt>
      <trkpt lat="45.91335" lon="4.76794">
        <ele>175</ele>
        <time>2018-04-20T12:29:32Z</time>
      </trkpt>
      <trkpt lat="45.91335" lon="4.76786">
        <ele>175</ele>
        <time>2018-04-20T12:29:33Z</time>
      </trkpt>
      <trkpt lat="45.91335" lon="4.76779">
        <ele>176</ele>
        <time>2018-04-20T12:29:34Z</time>
      </trkpt>
      <trkpt lat="45.91334" lon="4.76771">
        <ele>176</ele>
        <time>2018-04-20T12:29:35Z</time>
      </trkpt>
      <trkpt lat="45.91334" lon="4.76765">
        <ele>176</ele>
        <time>2018-04-20T12:29:36Z</time>
      </trkpt>
      <trkpt lat="45.91335" lon="4.76758">
        <ele>176</ele>
        <time>2018-04-20T12:29:37Z</time>
      </trkpt>
      <trkpt lat="45.91335" lon="4.7675">
        <ele>176</ele>
        <time>2018-04-20T12:29:38Z</time>
      </trkpt>
      <trkpt lat="45.91335" lon="4.7674">
        <ele>176</ele>
        <time>2018-04-20T12:29:40Z</time>
      </trkpt>
      <trkpt lat="45.91336" lon="4.76736">
        <ele>176</ele>
        <time>2018-04-20T12:29:41Z</time>
      </trkpt>
      <trkpt lat="45.91337" lon="4.76729">
        <ele>176</ele>
        <time>2018-04-20T12:29:42Z</time>
      </trkpt>
      <trkpt lat="45.91338" lon="4.76723">
        <ele>176</ele>
        <time>2018-04-20T12:29:43Z</time>
      </trkpt>
      <trkpt lat="45.91335" lon="4.76712">
        <ele>176</ele>
        <time>2018-04-20T12:29:46Z</time>
      </trkpt>
      <trkpt lat="45.91336" lon="4.76708">
        <ele>176</ele>
        <time>2018-04-20T12:29:47Z</time>
      </trkpt>
      <trkpt lat="45.91338" lon="4.76697">
        <ele>176</ele>
        <time>2018-04-20T12:29:50Z</time>
      </trkpt>
      <trkpt lat="45.91339" lon="4.76693">
        <ele>176</ele>
        <time>2018-04-20T12:29:51Z</time>
      </trkpt>
      <trkpt lat="45.91342" lon="4.76686">
        <ele>176</ele>
        <time>2018-04-20T12:29:53Z</time>
      </trkpt>
      <trkpt lat="45.91347" lon="4.76677">
        <ele>176</ele>
        <time>2018-04-20T12:29:54Z</time>
      </trkpt>
      <trkpt lat="45.91352" lon="4.76666">
        <ele>176</ele>
        <time>2018-04-20T12:29:58Z</time>
      </trkpt>
      <trkpt lat="45.91353" lon="4.76664">
        <ele>176</ele>
        <time>2018-04-20T12:29:59Z</time>
      </trkpt>
      <trkpt lat="45.91354" lon="4.76652">
        <ele>176</ele>
        <time>2018-04-20T12:30:43Z</time>
      </trkpt>
      <trkpt lat="45.91355" lon="4.7665">
        <ele>176</ele>
        <time>2018-04-20T12:30:44Z</time>
      </trkpt>
      <trkpt lat="45.91359" lon="4.76642">
        <ele>176</ele>
        <time>2018-04-20T12:30:47Z</time>
      </trkpt>
      <trkpt lat="45.9136" lon="4.76639">
        <ele>176</ele>
        <time>2018-04-20T12:30:48Z</time>
      </trkpt>
      <trkpt lat="45.91366" lon="4.76629">
        <ele>176</ele>
        <time>2018-04-20T12:30:51Z</time>
      </trkpt>
      <trkpt lat="45.91368" lon="4.76626">
        <ele>176</ele>
        <time>2018-04-20T12:30:52Z</time>
      </trkpt>
      <trkpt lat="45.91374" lon="4.76615">
        <ele>176</ele>
        <time>2018-04-20T12:30:53Z</time>
      </trkpt>
      <trkpt lat="45.91379" lon="4.76606">
        <ele>176</ele>
        <time>2018-04-20T12:30:55Z</time>
      </trkpt>
      <trkpt lat="45.91381" lon="4.76601">
        <ele>176</ele>
        <time>2018-04-20T12:30:56Z</time>
      </trkpt>
      <trkpt lat="45.91386" lon="4.76591">
        <ele>176</ele>
        <time>2018-04-20T12:30:58Z</time>
      </trkpt>
      <trkpt lat="45.91389" lon="4.76586">
        <ele>176</ele>
        <time>2018-04-20T12:30:59Z</time>
      </trkpt>
      <trkpt lat="45.91393" lon="4.76577">
        <ele>177</ele>
        <time>2018-04-20T12:31:01Z</time>
      </trkpt>
      <trkpt lat="45.91395" lon="4.76572">
        <ele>177</ele>
        <time>2018-04-20T12:31:02Z</time>
      </trkpt>
      <trkpt lat="45.91399" lon="4.76562">
        <ele>177</ele>
        <time>2018-04-20T12:31:04Z</time>
      </trkpt>
      <trkpt lat="45.91402" lon="4.76557">
        <ele>177</ele>
        <time>2018-04-20T12:31:05Z</time>
      </trkpt>
      <trkpt lat="45.91405" lon="4.76551">
        <ele>177</ele>
        <time>2018-04-20T12:31:06Z</time>
      </trkpt>
      <trkpt lat="45.91408" lon="4.76545">
        <ele>177</ele>
        <time>2018-04-20T12:31:07Z</time>
      </trkpt>
      <trkpt lat="45.91411" lon="4.7654">
        <ele>177</ele>
        <time>2018-04-20T12:31:08Z</time>
      </trkpt>
      <trkpt lat="45.91414" lon="4.76534">
        <ele>177</ele>
        <time>2018-04-20T12:31:09Z</time>
      </trkpt>
      <trkpt lat="45.9142" lon="4.76525">
        <ele>177</ele>
        <time>2018-04-20T12:31:11Z</time>
      </trkpt>
      <trkpt lat="45.91423" lon="4.7652">
        <ele>177</ele>
        <time>2018-04-20T12:31:12Z</time>
      </trkpt>
      <trkpt lat="45.91429" lon="4.76513">
        <ele>177</ele>
        <time>2018-04-20T12:31:14Z</time>
      </trkpt>
      <trkpt lat="45.91432" lon="4.76508">
        <ele>177</ele>
        <time>2018-04-20T12:31:15Z</time>
      </trkpt>
      <trkpt lat="45.91434" lon="4.76502">
        <ele>177</ele>
        <time>2018-04-20T12:31:16Z</time>
      </trkpt>
      <trkpt lat="45.91437" lon="4.76496">
        <ele>177</ele>
        <time>2018-04-20T12:31:17Z</time>
      </trkpt>
      <trkpt lat="45.91441" lon="4.7649">
        <ele>177</ele>
        <time>2018-04-20T12:31:18Z</time>
      </trkpt>
      <trkpt lat="45.91444" lon="4.76485">
        <ele>177</ele>
        <time>2018-04-20T12:31:19Z</time>
      </trkpt>
      <trkpt lat="45.91446" lon="4.76479">
        <ele>177</ele>
        <time>2018-04-20T12:31:20Z</time>
      </trkpt>
      <trkpt lat="45.91449" lon="4.76474">
        <ele>177</ele>
        <time>2018-04-20T12:31:21Z</time>
      </trkpt>
      <trkpt lat="45.91452" lon="4.7647">
        <ele>177</ele>
        <time>2018-04-20T12:31:22Z</time>
      </trkpt>
      <trkpt lat="45.91455" lon="4.76464">
        <ele>177</ele>
        <time>2018-04-20T12:31:23Z</time>
      </trkpt>
      <trkpt lat="45.91459" lon="4.76456">
        <ele>177</ele>
        <time>2018-04-20T12:31:25Z</time>
      </trkpt>
      <trkpt lat="45.91462" lon="4.7645">
        <ele>177</ele>
        <time>2018-04-20T12:31:26Z</time>
      </trkpt>
      <trkpt lat="45.91465" lon="4.76444">
        <ele>177</ele>
        <time>2018-04-20T12:31:27Z</time>
      </trkpt>
      <trkpt lat="45.9147" lon="4.7644">
        <ele>176</ele>
        <time>2018-04-20T12:31:28Z</time>
      </trkpt>
      <trkpt lat="45.91473" lon="4.76434">
        <ele>176</ele>
        <time>2018-04-20T12:31:29Z</time>
      </trkpt>
      <trkpt lat="45.91474" lon="4.76428">
        <ele>176</ele>
        <time>2018-04-20T12:31:30Z</time>
      </trkpt>
      <trkpt lat="45.91476" lon="4.76422">
        <ele>176</ele>
        <time>2018-04-20T12:31:31Z</time>
      </trkpt>
      <trkpt lat="45.91479" lon="4.76415">
        <ele>176</ele>
        <time>2018-04-20T12:31:32Z</time>
      </trkpt>
      <trkpt lat="45.91484" lon="4.76405">
        <ele>176</ele>
        <time>2018-04-20T12:31:34Z</time>
      </trkpt>
      <trkpt lat="45.91487" lon="4.76401">
        <ele>176</ele>
        <time>2018-04-20T12:31:35Z</time>
      </trkpt>
      <trkpt lat="45.91491" lon="4.76392">
        <ele>176</ele>
        <time>2018-04-20T12:31:37Z</time>
      </trkpt>
      <trkpt lat="45.91495" lon="4.76389">
        <ele>177</ele>
        <time>2018-04-20T12:31:38Z</time>
      </trkpt>
      <trkpt lat="45.91498" lon="4.76382">
        <ele>177</ele>
        <time>2018-04-20T12:31:39Z</time>
      </trkpt>
      <trkpt lat="45.91501" lon="4.76376">
        <ele>176</ele>
        <time>2018-04-20T12:31:40Z</time>
      </trkpt>
      <trkpt lat="45.91504" lon="4.76371">
        <ele>176</ele>
        <time>2018-04-20T12:31:41Z</time>
      </trkpt>
      <trkpt lat="45.91506" lon="4.76366">
        <ele>176</ele>
        <time>2018-04-20T12:31:42Z</time>
      </trkpt>
      <trkpt lat="45.91511" lon="4.76357">
        <ele>176</ele>
        <time>2018-04-20T12:31:44Z</time>
      </trkpt>
      <trkpt lat="45.91514" lon="4.76351">
        <ele>176</ele>
        <time>2018-04-20T12:31:45Z</time>
      </trkpt>
      <trkpt lat="45.91517" lon="4.76346">
        <ele>176</ele>
        <time>2018-04-20T12:31:46Z</time>
      </trkpt>
      <trkpt lat="45.91521" lon="4.76341">
        <ele>176</ele>
        <time>2018-04-20T12:31:47Z</time>
      </trkpt>
      <trkpt lat="45.91525" lon="4.76331">
        <ele>177</ele>
        <time>2018-04-20T12:31:49Z</time>
      </trkpt>
      <trkpt lat="45.91528" lon="4.76326">
        <ele>177</ele>
        <time>2018-04-20T12:31:50Z</time>
      </trkpt>
      <trkpt lat="45.91532" lon="4.76317">
        <ele>177</ele>
        <time>2018-04-20T12:31:52Z</time>
      </trkpt>
      <trkpt lat="45.91534" lon="4.76315">
        <ele>177</ele>
        <time>2018-04-20T12:31:53Z</time>
      </trkpt>
      <trkpt lat="45.91542" lon="4.7631">
        <ele>177</ele>
        <time>2018-04-20T12:31:57Z</time>
      </trkpt>
      <trkpt lat="45.91544" lon="4.7631">
        <ele>177</ele>
        <time>2018-04-20T12:31:58Z</time>
      </trkpt>
      <trkpt lat="45.91553" lon="4.76311">
        <ele>177</ele>
        <time>2018-04-20T12:32:01Z</time>
      </trkpt>
      <trkpt lat="45.91556" lon="4.76312">
        <ele>177</ele>
        <time>2018-04-20T12:32:02Z</time>
      </trkpt>
      <trkpt lat="45.91562" lon="4.76313">
        <ele>176</ele>
        <time>2018-04-20T12:32:04Z</time>
      </trkpt>
      <trkpt lat="45.91565" lon="4.76314">
        <ele>176</ele>
        <time>2018-04-20T12:32:05Z</time>
      </trkpt>
      <trkpt lat="45.91573" lon="4.76316">
        <ele>176</ele>
        <time>2018-04-20T12:32:08Z</time>
      </trkpt>
      <trkpt lat="45.91576" lon="4.76317">
        <ele>176</ele>
        <time>2018-04-20T12:32:09Z</time>
      </trkpt>
      <trkpt lat="45.91583" lon="4.76321">
        <ele>176</ele>
        <time>2018-04-20T12:32:12Z</time>
      </trkpt>
      <trkpt lat="45.91586" lon="4.76322">
        <ele>176</ele>
        <time>2018-04-20T12:32:13Z</time>
      </trkpt>
      <trkpt lat="45.91593" lon="4.76325">
        <ele>176</ele>
        <time>2018-04-20T12:32:16Z</time>
      </trkpt>
      <trkpt lat="45.91595" lon="4.76326">
        <ele>176</ele>
        <time>2018-04-20T12:32:17Z</time>
      </trkpt>
      <trkpt lat="45.91602" lon="4.76327">
        <ele>176</ele>
        <time>2018-04-20T12:32:20Z</time>
      </trkpt>
      <trkpt lat="45.91604" lon="4.76328">
        <ele>176</ele>
        <time>2018-04-20T12:32:21Z</time>
      </trkpt>
      <trkpt lat="45.91612" lon="4.76329">
        <ele>176</ele>
        <time>2018-04-20T12:32:24Z</time>
      </trkpt>
      <trkpt lat="45.91614" lon="4.7633">
        <ele>177</ele>
        <time>2018-04-20T12:32:25Z</time>
      </trkpt>
      <trkpt lat="45.91622" lon="4.76332">
        <ele>177</ele>
        <time>2018-04-20T12:32:28Z</time>
      </trkpt>
      <trkpt lat="45.91624" lon="4.76332">
        <ele>177</ele>
        <time>2018-04-20T12:32:29Z</time>
      </trkpt>
      <trkpt lat="45.91632" lon="4.76335">
        <ele>176</ele>
        <time>2018-04-20T12:32:32Z</time>
      </trkpt>
      <trkpt lat="45.91635" lon="4.76336">
        <ele>176</ele>
        <time>2018-04-20T12:32:33Z</time>
      </trkpt>
      <trkpt lat="45.91643" lon="4.76337">
        <ele>177</ele>
        <time>2018-04-20T12:32:36Z</time>
      </trkpt>
      <trkpt lat="45.91646" lon="4.76337">
        <ele>177</ele>
        <time>2018-04-20T12:32:37Z</time>
      </trkpt>
      <trkpt lat="45.91653" lon="4.76339">
        <ele>177</ele>
        <time>2018-04-20T12:32:40Z</time>
      </trkpt>
      <trkpt lat="45.91656" lon="4.7634">
        <ele>177</ele>
        <time>2018-04-20T12:32:41Z</time>
      </trkpt>
      <trkpt lat="45.91663" lon="4.76343">
        <ele>177</ele>
        <time>2018-04-20T12:32:44Z</time>
      </trkpt>
      <trkpt lat="45.91665" lon="4.76344">
        <ele>177</ele>
        <time>2018-04-20T12:32:45Z</time>
      </trkpt>
      <trkpt lat="45.91673" lon="4.76347">
        <ele>177</ele>
        <time>2018-04-20T12:32:49Z</time>
      </trkpt>
      <trkpt lat="45.91675" lon="4.76348">
        <ele>177</ele>
        <time>2018-04-20T12:32:50Z</time>
      </trkpt>
      <trkpt lat="45.91683" lon="4.76351">
        <ele>177</ele>
        <time>2018-04-20T12:32:54Z</time>
      </trkpt>
      <trkpt lat="45.91685" lon="4.76351">
        <ele>177</ele>
        <time>2018-04-20T12:32:55Z</time>
      </trkpt>
      <trkpt lat="45.91692" lon="4.76349">
        <ele>177</ele>
        <time>2018-04-20T12:32:58Z</time>
      </trkpt>
      <trkpt lat="45.91694" lon="4.76348">
        <ele>177</ele>
        <time>2018-04-20T12:32:59Z</time>
      </trkpt>
      <trkpt lat="45.91703" lon="4.76342">
        <ele>177</ele>
        <time>2018-04-20T12:33:00Z</time>
      </trkpt>
      <trkpt lat="45.9171" lon="4.76338">
        <ele>176</ele>
        <time>2018-04-20T12:33:04Z</time>
      </trkpt>
      <trkpt lat="45.91712" lon="4.76337">
        <ele>176</ele>
        <time>2018-04-20T12:33:05Z</time>
      </trkpt>
      <trkpt lat="45.91718" lon="4.76334">
        <ele>176</ele>
        <time>2018-04-20T12:33:08Z</time>
      </trkpt>
      <trkpt lat="45.91721" lon="4.76333">
        <ele>177</ele>
        <time>2018-04-20T12:33:09Z</time>
      </trkpt>
      <trkpt lat="45.91728" lon="4.7633">
        <ele>177</ele>
        <time>2018-04-20T12:33:12Z</time>
      </trkpt>
      <trkpt lat="45.9173" lon="4.76329">
        <ele>177</ele>
        <time>2018-04-20T12:33:13Z</time>
      </trkpt>
      <trkpt lat="45.91737" lon="4.76326">
        <ele>177</ele>
        <time>2018-04-20T12:33:16Z</time>
      </trkpt>
      <trkpt lat="45.9174" lon="4.76325">
        <ele>177</ele>
        <time>2018-04-20T12:33:17Z</time>
      </trkpt>
      <trkpt lat="45.91747" lon="4.76322">
        <ele>176</ele>
        <time>2018-04-20T12:33:20Z</time>
      </trkpt>
      <trkpt lat="45.91749" lon="4.76321">
        <ele>176</ele>
        <time>2018-04-20T12:33:21Z</time>
      </trkpt>
      <trkpt lat="45.91756" lon="4.7632">
        <ele>175</ele>
        <time>2018-04-20T12:33:24Z</time>
      </trkpt>
      <trkpt lat="45.91759" lon="4.7632">
        <ele>175</ele>
        <time>2018-04-20T12:33:25Z</time>
      </trkpt>
      <trkpt lat="45.91766" lon="4.76322">
        <ele>175</ele>
        <time>2018-04-20T12:33:28Z</time>
      </trkpt>
      <trkpt lat="45.91768" lon="4.76323">
        <ele>175</ele>
        <time>2018-04-20T12:33:29Z</time>
      </trkpt>
      <trkpt lat="45.91776" lon="4.76327">
        <ele>175</ele>
        <time>2018-04-20T12:33:32Z</time>
      </trkpt>
      <trkpt lat="45.91778" lon="4.76328">
        <ele>175</ele>
        <time>2018-04-20T12:33:33Z</time>
      </trkpt>
      <trkpt lat="45.91785" lon="4.7633">
        <ele>175</ele>
        <time>2018-04-20T12:33:36Z</time>
      </trkpt>
      <trkpt lat="45.91788" lon="4.76331">
        <ele>175</ele>
        <time>2018-04-20T12:33:37Z</time>
      </trkpt>
      <trkpt lat="45.91795" lon="4.76332">
        <ele>175</ele>
        <time>2018-04-20T12:33:40Z</time>
      </trkpt>
      <trkpt lat="45.91797" lon="4.76333">
        <ele>175</ele>
        <time>2018-04-20T12:33:41Z</time>
      </trkpt>
      <trkpt lat="45.91805" lon="4.76333">
        <ele>174</ele>
        <time>2018-04-20T12:33:45Z</time>
      </trkpt>
      <trkpt lat="45.91807" lon="4.76332">
        <ele>174</ele>
        <time>2018-04-20T12:33:46Z</time>
      </trkpt>
      <trkpt lat="45.91812" lon="4.76324">
        <ele>174</ele>
        <time>2018-04-20T12:33:49Z</time>
      </trkpt>
      <trkpt lat="45.91812" lon="4.76321">
        <ele>174</ele>
        <time>2018-04-20T12:33:50Z</time>
      </trkpt>
      <trkpt lat="45.91814" lon="4.76309">
        <ele>174</ele>
        <time>2018-04-20T12:33:54Z</time>
      </trkpt>
      <trkpt lat="45.91815" lon="4.76308">
        <ele>174</ele>
        <time>2018-04-20T12:33:55Z</time>
      </trkpt>
      <trkpt lat="45.9182" lon="4.763">
        <ele>174</ele>
        <time>2018-04-20T12:35:51Z</time>
      </trkpt>
      <trkpt lat="45.91822" lon="4.76298">
        <ele>174</ele>
        <time>2018-04-20T12:35:52Z</time>
      </trkpt>
      <trkpt lat="45.91827" lon="4.76291">
        <ele>174</ele>
        <time>2018-04-20T12:35:53Z</time>
      </trkpt>
      <trkpt lat="45.91829" lon="4.76285">
        <ele>174</ele>
        <time>2018-04-20T12:35:54Z</time>
      </trkpt>
      <trkpt lat="45.91831" lon="4.76277">
        <ele>174</ele>
        <time>2018-04-20T12:35:56Z</time>
      </trkpt>
      <trkpt lat="45.91833" lon="4.76269">
        <ele>174</ele>
        <time>2018-04-20T12:35:57Z</time>
      </trkpt>
      <trkpt lat="45.91835" lon="4.76257">
        <ele>173</ele>
        <time>2018-04-20T12:35:59Z</time>
      </trkpt>
      <trkpt lat="45.91837" lon="4.76252">
        <ele>173</ele>
        <time>2018-04-20T12:36:00Z</time>
      </trkpt>
      <trkpt lat="45.9184" lon="4.7624">
        <ele>173</ele>
        <time>2018-04-20T12:36:02Z</time>
      </trkpt>
      <trkpt lat="45.91842" lon="4.76234">
        <ele>173</ele>
        <time>2018-04-20T12:36:03Z</time>
      </trkpt>
      <trkpt lat="45.91844" lon="4.76222">
        <ele>172</ele>
        <time>2018-04-20T12:36:05Z</time>
      </trkpt>
      <trkpt lat="45.91846" lon="4.76217">
        <ele>172</ele>
        <time>2018-04-20T12:36:06Z</time>
      </trkpt>
      <trkpt lat="45.91848" lon="4.76211">
        <ele>172</ele>
        <time>2018-04-20T12:36:07Z</time>
      </trkpt>
      <trkpt lat="45.91849" lon="4.76205">
        <ele>172</ele>
        <time>2018-04-20T12:36:08Z</time>
      </trkpt>
      <trkpt lat="45.91851" lon="4.76195">
        <ele>172</ele>
        <time>2018-04-20T12:36:10Z</time>
      </trkpt>
      <trkpt lat="45.91852" lon="4.76192">
        <ele>172</ele>
        <time>2018-04-20T12:36:11Z</time>
      </trkpt>
      <trkpt lat="45.91855" lon="4.76183">
        <ele>172</ele>
        <time>2018-04-20T12:36:14Z</time>
      </trkpt>
      <trkpt lat="45.91856" lon="4.7618">
        <ele>172</ele>
        <time>2018-04-20T12:36:15Z</time>
      </trkpt>
      <trkpt lat="45.91862" lon="4.76172">
        <ele>172</ele>
        <time>2018-04-20T12:36:18Z</time>
      </trkpt>
      <trkpt lat="45.91869" lon="4.76168">
        <ele>172</ele>
        <time>2018-04-20T12:36:19Z</time>
      </trkpt>
      <trkpt lat="45.91877" lon="4.76171">
        <ele>172</ele>
        <time>2018-04-20T12:36:21Z</time>
      </trkpt>
      <trkpt lat="45.91881" lon="4.76173">
        <ele>172</ele>
        <time>2018-04-20T12:36:22Z</time>
      </trkpt>
      <trkpt lat="45.91885" lon="4.76176">
        <ele>172</ele>
        <time>2018-04-20T12:36:23Z</time>
      </trkpt>
      <trkpt lat="45.91889" lon="4.76179">
        <ele>172</ele>
        <time>2018-04-20T12:36:24Z</time>
      </trkpt>
      <trkpt lat="45.91893" lon="4.76182">
        <ele>172</ele>
        <time>2018-04-20T12:36:25Z</time>
      </trkpt>
      <trkpt lat="45.91897" lon="4.76185">
        <ele>172</ele>
        <time>2018-04-20T12:36:26Z</time>
      </trkpt>
      <trkpt lat="45.91902" lon="4.7619">
        <ele>172</ele>
        <time>2018-04-20T12:36:27Z</time>
      </trkpt>
      <trkpt lat="45.91906" lon="4.76192">
        <ele>172</ele>
        <time>2018-04-20T12:36:28Z</time>
      </trkpt>
      <trkpt lat="45.91911" lon="4.76195">
        <ele>172</ele>
        <time>2018-04-20T12:36:29Z</time>
      </trkpt>
      <trkpt lat="45.91915" lon="4.76196">
        <ele>172</ele>
        <time>2018-04-20T12:36:30Z</time>
      </trkpt>
      <trkpt lat="45.91919" lon="4.76199">
        <ele>171</ele>
        <time>2018-04-20T12:36:31Z</time>
      </trkpt>
      <trkpt lat="45.91923" lon="4.76201">
        <ele>171</ele>
        <time>2018-04-20T12:36:32Z</time>
      </trkpt>
      <trkpt lat="45.91928" lon="4.76204">
        <ele>171</ele>
        <time>2018-04-20T12:36:33Z</time>
      </trkpt>
      <trkpt lat="45.91932" lon="4.76207">
        <ele>171</ele>
        <time>2018-04-20T12:36:34Z</time>
      </trkpt>
      <trkpt lat="45.91937" lon="4.7621">
        <ele>171</ele>
        <time>2018-04-20T12:36:35Z</time>
      </trkpt>
      <trkpt lat="45.91941" lon="4.76213">
        <ele>171</ele>
        <time>2018-04-20T12:36:36Z</time>
      </trkpt>
      <trkpt lat="45.91945" lon="4.76216">
        <ele>171</ele>
        <time>2018-04-20T12:36:37Z</time>
      </trkpt>
      <trkpt lat="45.9195" lon="4.76218">
        <ele>171</ele>
        <time>2018-04-20T12:36:38Z</time>
      </trkpt>
      <trkpt lat="45.91954" lon="4.7622">
        <ele>171</ele>
        <time>2018-04-20T12:36:39Z</time>
      </trkpt>
      <trkpt lat="45.9196" lon="4.76223">
        <ele>171</ele>
        <time>2018-04-20T12:36:40Z</time>
      </trkpt>
      <trkpt lat="45.91964" lon="4.76225">
        <ele>171</ele>
        <time>2018-04-20T12:36:41Z</time>
      </trkpt>
      <trkpt lat="45.9197" lon="4.76227">
        <ele>171</ele>
        <time>2018-04-20T12:36:42Z</time>
      </trkpt>
      <trkpt lat="45.91975" lon="4.7623">
        <ele>171</ele>
        <time>2018-04-20T12:36:43Z</time>
      </trkpt>
      <trkpt lat="45.91979" lon="4.76233">
        <ele>171</ele>
        <time>2018-04-20T12:36:44Z</time>
      </trkpt>
      <trkpt lat="45.91985" lon="4.7624">
        <ele>170</ele>
        <time>2018-04-20T12:36:46Z</time>
      </trkpt>
      <trkpt lat="45.91991" lon="4.76243">
        <ele>170</ele>
        <time>2018-04-20T12:36:47Z</time>
      </trkpt>
      <trkpt lat="45.91996" lon="4.76246">
        <ele>170</ele>
        <time>2018-04-20T12:36:48Z</time>
      </trkpt>
      <trkpt lat="45.92002" lon="4.76248">
        <ele>170</ele>
        <time>2018-04-20T12:36:49Z</time>
      </trkpt>
      <trkpt lat="45.92008" lon="4.7625">
        <ele>170</ele>
        <time>2018-04-20T12:36:50Z</time>
      </trkpt>
      <trkpt lat="45.92013" lon="4.76252">
        <ele>169</ele>
        <time>2018-04-20T12:36:51Z</time>
      </trkpt>
      <trkpt lat="45.9202" lon="4.76253">
        <ele>169</ele>
        <time>2018-04-20T12:36:52Z</time>
      </trkpt>
      <trkpt lat="45.92025" lon="4.76255">
        <ele>169</ele>
        <time>2018-04-20T12:36:53Z</time>
      </trkpt>
      <trkpt lat="45.92031" lon="4.76258">
        <ele>169</ele>
        <time>2018-04-20T12:36:54Z</time>
      </trkpt>
      <trkpt lat="45.92036" lon="4.76261">
        <ele>169</ele>
        <time>2018-04-20T12:36:55Z</time>
      </trkpt>
      <trkpt lat="45.9204" lon="4.76263">
        <ele>169</ele>
        <time>2018-04-20T12:36:56Z</time>
      </trkpt>
      <trkpt lat="45.92045" lon="4.76265">
        <ele>169</ele>
        <time>2018-04-20T12:36:57Z</time>
      </trkpt>
      <trkpt lat="45.92051" lon="4.76269">
        <ele>169</ele>
        <time>2018-04-20T12:36:58Z</time>
      </trkpt>
      <trkpt lat="45.92053" lon="4.76272">
        <ele>169</ele>
        <time>2018-04-20T12:36:59Z</time>
      </trkpt>
      <trkpt lat="45.92057" lon="4.76276">
        <ele>169</ele>
        <time>2018-04-20T12:37:00Z</time>
      </trkpt>
      <trkpt lat="45.92061" lon="4.7628">
        <ele>169</ele>
        <time>2018-04-20T12:37:01Z</time>
      </trkpt>
      <trkpt lat="45.92068" lon="4.76287">
        <ele>169</ele>
        <time>2018-04-20T12:37:03Z</time>
      </trkpt>
      <trkpt lat="45.92071" lon="4.76291">
        <ele>169</ele>
        <time>2018-04-20T12:37:04Z</time>
      </trkpt>
      <trkpt lat="45.92075" lon="4.76293">
        <ele>169</ele>
        <time>2018-04-20T12:37:05Z</time>
      </trkpt>
      <trkpt lat="45.9208" lon="4.76295">
        <ele>169</ele>
        <time>2018-04-20T12:37:06Z</time>
      </trkpt>
      <trkpt lat="45.92088" lon="4.763">
        <ele>169</ele>
        <time>2018-04-20T12:37:08Z</time>
      </trkpt>
      <trkpt lat="45.92093" lon="4.76303">
        <ele>169</ele>
        <time>2018-04-20T12:37:09Z</time>
      </trkpt>
      <trkpt lat="45.92098" lon="4.76307">
        <ele>169</ele>
        <time>2018-04-20T12:37:10Z</time>
      </trkpt>
      <trkpt lat="45.92103" lon="4.76309">
        <ele>169</ele>
        <time>2018-04-20T12:37:11Z</time>
      </trkpt>
      <trkpt lat="45.92108" lon="4.76312">
        <ele>169</ele>
        <time>2018-04-20T12:37:12Z</time>
      </trkpt>
      <trkpt lat="45.92113" lon="4.76315">
        <ele>169</ele>
        <time>2018-04-20T12:37:13Z</time>
      </trkpt>
      <trkpt lat="45.92117" lon="4.76318">
        <ele>169</ele>
        <time>2018-04-20T12:37:14Z</time>
      </trkpt>
      <trkpt lat="45.92122" lon="4.7632">
        <ele>169</ele>
        <time>2018-04-20T12:37:15Z</time>
      </trkpt>
      <trkpt lat="45.92127" lon="4.76323">
        <ele>169</ele>
        <time>2018-04-20T12:37:16Z</time>
      </trkpt>
      <trkpt lat="45.92131" lon="4.76326">
        <ele>169</ele>
        <time>2018-04-20T12:37:17Z</time>
      </trkpt>
      <trkpt lat="45.92136" lon="4.7633">
        <ele>169</ele>
        <time>2018-04-20T12:37:18Z</time>
      </trkpt>
      <trkpt lat="45.92139" lon="4.76331">
        <ele>169</ele>
        <time>2018-04-20T12:37:19Z</time>
      </trkpt>
      <trkpt lat="45.92144" lon="4.76334">
        <ele>169</ele>
        <time>2018-04-20T12:37:20Z</time>
      </trkpt>
      <trkpt lat="45.92149" lon="4.76337">
        <ele>169</ele>
        <time>2018-04-20T12:37:21Z</time>
      </trkpt>
      <trkpt lat="45.92157" lon="4.76341">
        <ele>169</ele>
        <time>2018-04-20T12:37:23Z</time>
      </trkpt>
      <trkpt lat="45.92162" lon="4.76347">
        <ele>169</ele>
        <time>2018-04-20T12:37:24Z</time>
      </trkpt>
      <trkpt lat="45.92169" lon="4.76354">
        <ele>168</ele>
        <time>2018-04-20T12:37:26Z</time>
      </trkpt>
      <trkpt lat="45.92174" lon="4.76356">
        <ele>168</ele>
        <time>2018-04-20T12:37:27Z</time>
      </trkpt>
      <trkpt lat="45.92179" lon="4.76359">
        <ele>168</ele>
        <time>2018-04-20T12:37:28Z</time>
      </trkpt>
      <trkpt lat="45.92185" lon="4.76362">
        <ele>168</ele>
        <time>2018-04-20T12:37:29Z</time>
      </trkpt>
      <trkpt lat="45.92189" lon="4.76364">
        <ele>168</ele>
        <time>2018-04-20T12:37:30Z</time>
      </trkpt>
      <trkpt lat="45.92194" lon="4.76366">
        <ele>168</ele>
        <time>2018-04-20T12:37:31Z</time>
      </trkpt>
      <trkpt lat="45.92199" lon="4.7637">
        <ele>168</ele>
        <time>2018-04-20T12:37:32Z</time>
      </trkpt>
      <trkpt lat="45.92204" lon="4.76372">
        <ele>168</ele>
        <time>2018-04-20T12:37:33Z</time>
      </trkpt>
      <trkpt lat="45.92211" lon="4.76377">
        <ele>168</ele>
        <time>2018-04-20T12:37:35Z</time>
      </trkpt>
      <trkpt lat="45.92215" lon="4.76382">
        <ele>168</ele>
        <time>2018-04-20T12:37:36Z</time>
      </trkpt>
      <trkpt lat="45.92219" lon="4.76385">
        <ele>168</ele>
        <time>2018-04-20T12:37:37Z</time>
      </trkpt>
      <trkpt lat="45.92223" lon="4.76387">
        <ele>168</ele>
        <time>2018-04-20T12:37:38Z</time>
      </trkpt>
      <trkpt lat="45.92231" lon="4.76391">
        <ele>168</ele>
        <time>2018-04-20T12:37:40Z</time>
      </trkpt>
      <trkpt lat="45.92236" lon="4.76391">
        <ele>168</ele>
        <time>2018-04-20T12:37:41Z</time>
      </trkpt>
      <trkpt lat="45.92241" lon="4.76392">
        <ele>168</ele>
        <time>2018-04-20T12:37:42Z</time>
      </trkpt>
      <trkpt lat="45.92246" lon="4.76391">
        <ele>168</ele>
        <time>2018-04-20T12:37:43Z</time>
      </trkpt>
      <trkpt lat="45.92251" lon="4.76391">
        <ele>167</ele>
        <time>2018-04-20T12:37:44Z</time>
      </trkpt>
      <trkpt lat="45.92256" lon="4.7639">
        <ele>167</ele>
        <time>2018-04-20T12:37:45Z</time>
      </trkpt>
      <trkpt lat="45.92261" lon="4.76388">
        <ele>167</ele>
        <time>2018-04-20T12:37:46Z</time>
      </trkpt>
      <trkpt lat="45.92265" lon="4.76386">
        <ele>167</ele>
        <time>2018-04-20T12:37:47Z</time>
      </trkpt>
      <trkpt lat="45.92269" lon="4.76385">
        <ele>167</ele>
        <time>2018-04-20T12:37:48Z</time>
      </trkpt>
      <trkpt lat="45.92274" lon="4.76383">
        <ele>167</ele>
        <time>2018-04-20T12:37:49Z</time>
      </trkpt>
      <trkpt lat="45.92281" lon="4.7638">
        <ele>167</ele>
        <time>2018-04-20T12:37:51Z</time>
      </trkpt>
      <trkpt lat="45.92286" lon="4.76378">
        <ele>167</ele>
        <time>2018-04-20T12:37:52Z</time>
      </trkpt>
      <trkpt lat="45.92294" lon="4.76375">
        <ele>167</ele>
        <time>2018-04-20T12:37:54Z</time>
      </trkpt>
      <trkpt lat="45.92299" lon="4.76373">
        <ele>167</ele>
        <time>2018-04-20T12:37:55Z</time>
      </trkpt>
      <trkpt lat="45.92304" lon="4.7637">
        <ele>167</ele>
        <time>2018-04-20T12:37:56Z</time>
      </trkpt>
      <trkpt lat="45.92309" lon="4.76368">
        <ele>167</ele>
        <time>2018-04-20T12:37:57Z</time>
      </trkpt>
      <trkpt lat="45.92313" lon="4.76366">
        <ele>167</ele>
        <time>2018-04-20T12:37:58Z</time>
      </trkpt>
      <trkpt lat="45.92318" lon="4.76365">
        <ele>167</ele>
        <time>2018-04-20T12:37:59Z</time>
      </trkpt>
      <trkpt lat="45.92326" lon="4.76362">
        <ele>167</ele>
        <time>2018-04-20T12:38:01Z</time>
      </trkpt>
      <trkpt lat="45.9233" lon="4.7636">
        <ele>167</ele>
        <time>2018-04-20T12:38:02Z</time>
      </trkpt>
      <trkpt lat="45.92338" lon="4.76355">
        <ele>168</ele>
        <time>2018-04-20T12:38:04Z</time>
      </trkpt>
      <trkpt lat="45.92341" lon="4.76353">
        <ele>168</ele>
        <time>2018-04-20T12:38:05Z</time>
      </trkpt>
      <trkpt lat="45.92348" lon="4.76348">
        <ele>168</ele>
        <time>2018-04-20T12:38:08Z</time>
      </trkpt>
      <trkpt lat="45.92351" lon="4.76347">
        <ele>168</ele>
        <time>2018-04-20T12:38:09Z</time>
      </trkpt>
      <trkpt lat="45.92358" lon="4.76348">
        <ele>168</ele>
        <time>2018-04-20T12:38:12Z</time>
      </trkpt>
      <trkpt lat="45.92361" lon="4.76349">
        <ele>168</ele>
        <time>2018-04-20T12:38:13Z</time>
      </trkpt>
      <trkpt lat="45.92366" lon="4.76353">
        <ele>168</ele>
        <time>2018-04-20T12:38:17Z</time>
      </trkpt>
      <trkpt lat="45.92375" lon="4.76359">
        <ele>168</ele>
        <time>2018-04-20T12:38:28Z</time>
      </trkpt>
      <trkpt lat="45.92391" lon="4.76371">
        <ele>169</ele>
        <time>2018-04-20T12:38:29Z</time>
      </trkpt>
      <trkpt lat="45.92401" lon="4.76378">
        <ele>169</ele>
        <time>2018-04-20T12:38:30Z</time>
      </trkpt>
      <trkpt lat="45.92408" lon="4.76382">
        <ele>169</ele>
        <time>2018-04-20T12:38:32Z</time>
      </trkpt>
      <trkpt lat="45.9241" lon="4.76383">
        <ele>169</ele>
        <time>2018-04-20T12:38:33Z</time>
      </trkpt>
      <trkpt lat="45.92416" lon="4.76378">
        <ele>169</ele>
        <time>2018-04-20T12:38:37Z</time>
      </trkpt>
      <trkpt lat="45.92418" lon="4.76376">
        <ele>169</ele>
        <time>2018-04-20T12:38:38Z</time>
      </trkpt>
      <trkpt lat="45.92419" lon="4.76373">
        <ele>170</ele>
        <time>2018-04-20T12:38:39Z</time>
      </trkpt>
      <trkpt lat="45.92424" lon="4.76362">
        <ele>170</ele>
        <time>2018-04-20T12:38:40Z</time>
      </trkpt>
      <trkpt lat="45.92428" lon="4.76351">
        <ele>170</ele>
        <time>2018-04-20T12:38:43Z</time>
      </trkpt>
      <trkpt lat="45.92429" lon="4.76349">
        <ele>170</ele>
        <time>2018-04-20T12:38:44Z</time>
      </trkpt>
      <trkpt lat="45.92434" lon="4.76339">
        <ele>170</ele>
        <time>2018-04-20T12:38:48Z</time>
      </trkpt>
      <trkpt lat="45.92439" lon="4.7633">
        <ele>170</ele>
        <time>2018-04-20T12:38:49Z</time>
      </trkpt>
      <trkpt lat="45.92444" lon="4.76321">
        <ele>170</ele>
        <time>2018-04-20T12:38:53Z</time>
      </trkpt>
      <trkpt lat="45.92445" lon="4.76318">
        <ele>170</ele>
        <time>2018-04-20T12:38:54Z</time>
      </trkpt>
      <trkpt lat="45.92447" lon="4.76315">
        <ele>169</ele>
        <time>2018-04-20T12:38:55Z</time>
      </trkpt>
      <trkpt lat="45.92453" lon="4.76305">
        <ele>169</ele>
        <time>2018-04-20T12:38:56Z</time>
      </trkpt>
      <trkpt lat="45.92458" lon="4.76298">
        <ele>169</ele>
        <time>2018-04-20T12:38:59Z</time>
      </trkpt>
      <trkpt lat="45.9246" lon="4.76295">
        <ele>169</ele>
        <time>2018-04-20T12:39:00Z</time>
      </trkpt>
      <trkpt lat="45.92466" lon="4.76288">
        <ele>169</ele>
        <time>2018-04-20T12:39:03Z</time>
      </trkpt>
      <trkpt lat="45.92474" lon="4.76282">
        <ele>169</ele>
        <time>2018-04-20T12:39:04Z</time>
      </trkpt>
      <trkpt lat="45.92482" lon="4.76276">
        <ele>169</ele>
        <time>2018-04-20T12:39:06Z</time>
      </trkpt>
      <trkpt lat="45.92486" lon="4.76273">
        <ele>169</ele>
        <time>2018-04-20T12:39:07Z</time>
      </trkpt>
      <trkpt lat="45.9249" lon="4.7627">
        <ele>169</ele>
        <time>2018-04-20T12:39:08Z</time>
      </trkpt>
      <trkpt lat="45.92494" lon="4.76267">
        <ele>169</ele>
        <time>2018-04-20T12:39:09Z</time>
      </trkpt>
      <trkpt lat="45.92502" lon="4.76262">
        <ele>168</ele>
        <time>2018-04-20T12:39:11Z</time>
      </trkpt>
      <trkpt lat="45.92506" lon="4.7626">
        <ele>168</ele>
        <time>2018-04-20T12:39:12Z</time>
      </trkpt>
      <trkpt lat="45.92513" lon="4.76257">
        <ele>168</ele>
        <time>2018-04-20T12:39:14Z</time>
      </trkpt>
      <trkpt lat="45.92517" lon="4.76258">
        <ele>168</ele>
        <time>2018-04-20T12:39:15Z</time>
      </trkpt>
      <trkpt lat="45.92524" lon="4.76259">
        <ele>168</ele>
        <time>2018-04-20T12:39:17Z</time>
      </trkpt>
      <trkpt lat="45.92528" lon="4.76263">
        <ele>168</ele>
        <time>2018-04-20T12:39:18Z</time>
      </trkpt>
      <trkpt lat="45.92536" lon="4.76266">
        <ele>168</ele>
        <time>2018-04-20T12:39:20Z</time>
      </trkpt>
      <trkpt lat="45.9254" lon="4.76268">
        <ele>168</ele>
        <time>2018-04-20T12:39:21Z</time>
      </trkpt>
      <trkpt lat="45.92548" lon="4.76274">
        <ele>168</ele>
        <time>2018-04-20T12:39:23Z</time>
      </trkpt>
      <trkpt lat="45.92551" lon="4.76277">
        <ele>168</ele>
        <time>2018-04-20T12:39:24Z</time>
      </trkpt>
      <trkpt lat="45.92555" lon="4.76279">
        <ele>168</ele>
        <time>2018-04-20T12:39:25Z</time>
      </trkpt>
      <trkpt lat="45.9256" lon="4.76281">
        <ele>168</ele>
        <time>2018-04-20T12:39:26Z</time>
      </trkpt>
      <trkpt lat="45.92564" lon="4.76283">
        <ele>168</ele>
        <time>2018-04-20T12:39:27Z</time>
      </trkpt>
      <trkpt lat="45.92569" lon="4.76286">
        <ele>168</ele>
        <time>2018-04-20T12:39:28Z</time>
      </trkpt>
      <trkpt lat="45.92573" lon="4.76289">
        <ele>168</ele>
        <time>2018-04-20T12:39:29Z</time>
      </trkpt>
      <trkpt lat="45.92578" lon="4.76291">
        <ele>168</ele>
        <time>2018-04-20T12:39:30Z</time>
      </trkpt>
      <trkpt lat="45.92582" lon="4.76294">
        <ele>168</ele>
        <time>2018-04-20T12:39:31Z</time>
      </trkpt>
      <trkpt lat="45.92587" lon="4.76298">
        <ele>167</ele>
        <time>2018-04-20T12:39:32Z</time>
      </trkpt>
      <trkpt lat="45.92593" lon="4.76299">
        <ele>167</ele>
        <time>2018-04-20T12:39:33Z</time>
      </trkpt>
      <trkpt lat="45.92597" lon="4.76302">
        <ele>167</ele>
        <time>2018-04-20T12:39:34Z</time>
      </trkpt>
      <trkpt lat="45.92602" lon="4.76304">
        <ele>167</ele>
        <time>2018-04-20T12:39:35Z</time>
      </trkpt>
      <trkpt lat="45.92608" lon="4.76307">
        <ele>167</ele>
        <time>2018-04-20T12:39:36Z</time>
      </trkpt>
      <trkpt lat="45.92612" lon="4.7631">
        <ele>167</ele>
        <time>2018-04-20T12:39:37Z</time>
      </trkpt>
      <trkpt lat="45.92616" lon="4.76313">
        <ele>167</ele>
        <time>2018-04-20T12:39:38Z</time>
      </trkpt>
      <trkpt lat="45.92621" lon="4.76315">
        <ele>167</ele>
        <time>2018-04-20T12:39:39Z</time>
      </trkpt>
      <trkpt lat="45.92625" lon="4.76318">
        <ele>167</ele>
        <time>2018-04-20T12:39:40Z</time>
      </trkpt>
      <trkpt lat="45.92632" lon="4.76324">
        <ele>168</ele>
        <time>2018-04-20T12:39:42Z</time>
      </trkpt>
      <trkpt lat="45.92636" lon="4.76326">
        <ele>168</ele>
        <time>2018-04-20T12:39:43Z</time>
      </trkpt>
      <trkpt lat="45.9264" lon="4.76329">
        <ele>168</ele>
        <time>2018-04-20T12:39:44Z</time>
      </trkpt>
      <trkpt lat="45.92645" lon="4.7633">
        <ele>168</ele>
        <time>2018-04-20T12:39:45Z</time>
      </trkpt>
      <trkpt lat="45.92653" lon="4.76335">
        <ele>168</ele>
        <time>2018-04-20T12:39:47Z</time>
      </trkpt>
      <trkpt lat="45.92657" lon="4.76337">
        <ele>168</ele>
        <time>2018-04-20T12:39:48Z</time>
      </trkpt>
      <trkpt lat="45.92664" lon="4.7634">
        <ele>168</ele>
        <time>2018-04-20T12:39:50Z</time>
      </trkpt>
      <trkpt lat="45.92669" lon="4.76342">
        <ele>168</ele>
        <time>2018-04-20T12:39:51Z</time>
      </trkpt>
      <trkpt lat="45.92676" lon="4.76346">
        <ele>168</ele>
        <time>2018-04-20T12:39:53Z</time>
      </trkpt>
      <trkpt lat="45.92681" lon="4.76347">
        <ele>168</ele>
        <time>2018-04-20T12:39:54Z</time>
      </trkpt>
      <trkpt lat="45.92689" lon="4.7635">
        <ele>168</ele>
        <time>2018-04-20T12:39:56Z</time>
      </trkpt>
      <trkpt lat="45.92693" lon="4.76352">
        <ele>168</ele>
        <time>2018-04-20T12:39:57Z</time>
      </trkpt>
      <trkpt lat="45.92701" lon="4.76356">
        <ele>168</ele>
        <time>2018-04-20T12:39:59Z</time>
      </trkpt>
      <trkpt lat="45.92705" lon="4.76357">
        <ele>168</ele>
        <time>2018-04-20T12:40:00Z</time>
      </trkpt>
      <trkpt lat="45.92712" lon="4.76359">
        <ele>169</ele>
        <time>2018-04-20T12:40:02Z</time>
      </trkpt>
      <trkpt lat="45.92716" lon="4.7636">
        <ele>169</ele>
        <time>2018-04-20T12:40:03Z</time>
      </trkpt>
      <trkpt lat="45.92723" lon="4.76364">
        <ele>169</ele>
        <time>2018-04-20T12:40:05Z</time>
      </trkpt>
      <trkpt lat="45.92728" lon="4.76365">
        <ele>169</ele>
        <time>2018-04-20T12:40:06Z</time>
      </trkpt>
      <trkpt lat="45.92732" lon="4.76366">
        <ele>169</ele>
        <time>2018-04-20T12:40:07Z</time>
      </trkpt>
      <trkpt lat="45.92736" lon="4.76369">
        <ele>169</ele>
        <time>2018-04-20T12:40:08Z</time>
      </trkpt>
      <trkpt lat="45.92745" lon="4.76373">
        <ele>169</ele>
        <time>2018-04-20T12:40:10Z</time>
      </trkpt>
      <trkpt lat="45.92749" lon="4.76374">
        <ele>169</ele>
        <time>2018-04-20T12:40:11Z</time>
      </trkpt>
      <trkpt lat="45.92757" lon="4.76376">
        <ele>169</ele>
        <time>2018-04-20T12:40:13Z</time>
      </trkpt>
      <trkpt lat="45.92762" lon="4.76377">
        <ele>169</ele>
        <time>2018-04-20T12:40:14Z</time>
      </trkpt>
      <trkpt lat="45.92768" lon="4.76379">
        <ele>169</ele>
        <time>2018-04-20T12:40:16Z</time>
      </trkpt>
      <trkpt lat="45.92771" lon="4.76379">
        <ele>169</ele>
        <time>2018-04-20T12:40:17Z</time>
      </trkpt>
      <trkpt lat="45.92774" lon="4.76379">
        <ele>169</ele>
        <time>2018-04-20T12:40:18Z</time>
      </trkpt>
      <trkpt lat="45.92781" lon="4.76381">
        <ele>169</ele>
        <time>2018-04-20T12:40:19Z</time>
      </trkpt>
      <trkpt lat="45.92789" lon="4.76385">
        <ele>169</ele>
        <time>2018-04-20T12:40:21Z</time>
      </trkpt>
      <trkpt lat="45.9279" lon="4.76386">
        <ele>169</ele>
        <time>2018-04-20T12:40:22Z</time>
      </trkpt>
      <trkpt lat="45.92799" lon="4.76389">
        <ele>169</ele>
        <time>2018-04-20T12:40:24Z</time>
      </trkpt>
      <trkpt lat="45.92802" lon="4.7639">
        <ele>169</ele>
        <time>2018-04-20T12:40:25Z</time>
      </trkpt>
      <trkpt lat="45.9281" lon="4.76388">
        <ele>169</ele>
        <time>2018-04-20T12:40:27Z</time>
      </trkpt>
      <trkpt lat="45.92814" lon="4.76386">
        <ele>169</ele>
        <time>2018-04-20T12:40:28Z</time>
      </trkpt>
      <trkpt lat="45.9282" lon="4.76378">
        <ele>169</ele>
        <time>2018-04-20T12:40:30Z</time>
      </trkpt>
      <trkpt lat="45.92823" lon="4.76374">
        <ele>169</ele>
        <time>2018-04-20T12:40:31Z</time>
      </trkpt>
      <trkpt lat="45.92828" lon="4.76365">
        <ele>169</ele>
        <time>2018-04-20T12:40:33Z</time>
      </trkpt>
      <trkpt lat="45.92829" lon="4.76363">
        <ele>169</ele>
        <time>2018-04-20T12:40:34Z</time>
      </trkpt>
      <trkpt lat="45.92832" lon="4.76359">
        <ele>170</ele>
        <time>2018-04-20T12:40:36Z</time>
      </trkpt>
      <trkpt lat="45.92837" lon="4.76351">
        <ele>170</ele>
        <time>2018-04-20T12:40:37Z</time>
      </trkpt>
      <trkpt lat="45.92842" lon="4.76343">
        <ele>170</ele>
        <time>2018-04-20T12:40:39Z</time>
      </trkpt>
      <trkpt lat="45.92845" lon="4.76338">
        <ele>170</ele>
        <time>2018-04-20T12:40:40Z</time>
      </trkpt>
      <trkpt lat="45.92851" lon="4.7633">
        <ele>169</ele>
        <time>2018-04-20T12:40:43Z</time>
      </trkpt>
      <trkpt lat="45.92853" lon="4.76328">
        <ele>169</ele>
        <time>2018-04-20T12:40:44Z</time>
      </trkpt>
      <trkpt lat="45.92858" lon="4.76321">
        <ele>169</ele>
        <time>2018-04-20T12:40:45Z</time>
      </trkpt>
      <trkpt lat="45.92861" lon="4.76317">
        <ele>169</ele>
        <time>2018-04-20T12:40:46Z</time>
      </trkpt>
      <trkpt lat="45.92867" lon="4.7631">
        <ele>169</ele>
        <time>2018-04-20T12:40:49Z</time>
      </trkpt>
      <trkpt lat="45.92868" lon="4.76308">
        <ele>169</ele>
        <time>2018-04-20T12:40:50Z</time>
      </trkpt>
      <trkpt lat="45.92875" lon="4.76301">
        <ele>169</ele>
        <time>2018-04-20T12:40:55Z</time>
      </trkpt>
      <trkpt lat="45.92876" lon="4.76299">
        <ele>169</ele>
        <time>2018-04-20T12:40:56Z</time>
      </trkpt>
      <trkpt lat="45.92884" lon="4.76299">
        <ele>169</ele>
        <time>2018-04-20T12:42:29Z</time>
      </trkpt>
      <trkpt lat="45.9289" lon="4.76304">
        <ele>169</ele>
        <time>2018-04-20T12:42:30Z</time>
      </trkpt>
      <trkpt lat="45.92895" lon="4.7631">
        <ele>169</ele>
        <time>2018-04-20T12:42:32Z</time>
      </trkpt>
      <trkpt lat="45.92898" lon="4.76313">
        <ele>169</ele>
        <time>2018-04-20T12:42:33Z</time>
      </trkpt>
      <trkpt lat="45.92905" lon="4.7632">
        <ele>169</ele>
        <time>2018-04-20T12:42:36Z</time>
      </trkpt>
      <trkpt lat="45.92909" lon="4.76325">
        <ele>169</ele>
        <time>2018-04-20T12:42:37Z</time>
      </trkpt>
      <trkpt lat="45.92912" lon="4.76329">
        <ele>169</ele>
        <time>2018-04-20T12:42:38Z</time>
      </trkpt>
      <trkpt lat="45.92915" lon="4.76334">
        <ele>169</ele>
        <time>2018-04-20T12:42:39Z</time>
      </trkpt>
      <trkpt lat="45.92921" lon="4.76339">
        <ele>169</ele>
        <time>2018-04-20T12:42:41Z</time>
      </trkpt>
      <trkpt lat="45.92926" lon="4.76344">
        <ele>169</ele>
        <time>2018-04-20T12:42:42Z</time>
      </trkpt>
      <trkpt lat="45.92931" lon="4.76348">
        <ele>169</ele>
        <time>2018-04-20T12:42:44Z</time>
      </trkpt>
      <trkpt lat="45.92936" lon="4.76353">
        <ele>169</ele>
        <time>2018-04-20T12:42:45Z</time>
      </trkpt>
      <trkpt lat="45.92943" lon="4.76359">
        <ele>169</ele>
        <time>2018-04-20T12:42:47Z</time>
      </trkpt>
      <trkpt lat="45.92948" lon="4.76363">
        <ele>169</ele>
        <time>2018-04-20T12:42:48Z</time>
      </trkpt>
      <trkpt lat="45.92953" lon="4.76368">
        <ele>169</ele>
        <time>2018-04-20T12:42:49Z</time>
      </trkpt>
      <trkpt lat="45.92957" lon="4.76372">
        <ele>169</ele>
        <time>2018-04-20T12:42:50Z</time>
      </trkpt>
      <trkpt lat="45.92961" lon="4.76375">
        <ele>169</ele>
        <time>2018-04-20T12:42:51Z</time>
      </trkpt>
      <trkpt lat="45.92967" lon="4.76381">
        <ele>169</ele>
        <time>2018-04-20T12:42:52Z</time>
      </trkpt>
      <trkpt lat="45.92972" lon="4.76386">
        <ele>169</ele>
        <time>2018-04-20T12:42:53Z</time>
      </trkpt>
      <trkpt lat="45.92976" lon="4.7639">
        <ele>169</ele>
        <time>2018-04-20T12:42:54Z</time>
      </trkpt>
      <trkpt lat="45.9298" lon="4.76394">
        <ele>169</ele>
        <time>2018-04-20T12:42:55Z</time>
      </trkpt>
      <trkpt lat="45.92985" lon="4.76398">
        <ele>169</ele>
        <time>2018-04-20T12:42:56Z</time>
      </trkpt>
      <trkpt lat="45.92988" lon="4.76402">
        <ele>169</ele>
        <time>2018-04-20T12:42:57Z</time>
      </trkpt>
      <trkpt lat="45.92993" lon="4.76408">
        <ele>169</ele>
        <time>2018-04-20T12:42:58Z</time>
      </trkpt>
      <trkpt lat="45.92997" lon="4.76411">
        <ele>169</ele>
        <time>2018-04-20T12:42:59Z</time>
      </trkpt>
      <trkpt lat="45.93002" lon="4.76414">
        <ele>169</ele>
        <time>2018-04-20T12:43:00Z</time>
      </trkpt>
      <trkpt lat="45.93006" lon="4.76417">
        <ele>169</ele>
        <time>2018-04-20T12:43:01Z</time>
      </trkpt>
      <trkpt lat="45.93009" lon="4.76421">
        <ele>169</ele>
        <time>2018-04-20T12:43:02Z</time>
      </trkpt>
      <trkpt lat="45.93013" lon="4.76426">
        <ele>169</ele>
        <time>2018-04-20T12:43:03Z</time>
      </trkpt>
      <trkpt lat="45.93018" lon="4.7643">
        <ele>169</ele>
        <time>2018-04-20T12:43:04Z</time>
      </trkpt>
      <trkpt lat="45.93022" lon="4.76435">
        <ele>169</ele>
        <time>2018-04-20T12:43:05Z</time>
      </trkpt>
      <trkpt lat="45.93026" lon="4.76439">
        <ele>169</ele>
        <time>2018-04-20T12:43:06Z</time>
      </trkpt>
      <trkpt lat="45.93031" lon="4.76445">
        <ele>169</ele>
        <time>2018-04-20T12:43:07Z</time>
      </trkpt>
      <trkpt lat="45.93035" lon="4.76449">
        <ele>169</ele>
        <time>2018-04-20T12:43:08Z</time>
      </trkpt>
      <trkpt lat="45.93039" lon="4.76454">
        <ele>169</ele>
        <time>2018-04-20T12:43:09Z</time>
      </trkpt>
      <trkpt lat="45.93043" lon="4.76459">
        <ele>169</ele>
        <time>2018-04-20T12:43:10Z</time>
      </trkpt>
      <trkpt lat="45.93047" lon="4.76462">
        <ele>169</ele>
        <time>2018-04-20T12:43:11Z</time>
      </trkpt>
      <trkpt lat="45.93052" lon="4.76465">
        <ele>169</ele>
        <time>2018-04-20T12:43:12Z</time>
      </trkpt>
      <trkpt lat="45.93058" lon="4.76471">
        <ele>169</ele>
        <time>2018-04-20T12:43:15Z</time>
      </trkpt>
      <trkpt lat="45.93065" lon="4.76478">
        <ele>169</ele>
        <time>2018-04-20T12:43:16Z</time>
      </trkpt>
      <trkpt lat="45.9307" lon="4.76483">
        <ele>169</ele>
        <time>2018-04-20T12:43:17Z</time>
      </trkpt>
      <trkpt lat="45.93074" lon="4.76488">
        <ele>170</ele>
        <time>2018-04-20T12:43:18Z</time>
      </trkpt>
      <trkpt lat="45.93079" lon="4.76492">
        <ele>170</ele>
        <time>2018-04-20T12:43:19Z</time>
      </trkpt>
      <trkpt lat="45.93083" lon="4.76497">
        <ele>170</ele>
        <time>2018-04-20T12:43:20Z</time>
      </trkpt>
      <trkpt lat="45.93086" lon="4.765">
        <ele>170</ele>
        <time>2018-04-20T12:43:21Z</time>
      </trkpt>
      <trkpt lat="45.93091" lon="4.76503">
        <ele>170</ele>
        <time>2018-04-20T12:43:22Z</time>
      </trkpt>
      <trkpt lat="45.93096" lon="4.76508">
        <ele>170</ele>
        <time>2018-04-20T12:43:23Z</time>
      </trkpt>
      <trkpt lat="45.93099" lon="4.76512">
        <ele>170</ele>
        <time>2018-04-20T12:43:24Z</time>
      </trkpt>
      <trkpt lat="45.93104" lon="4.76516">
        <ele>170</ele>
        <time>2018-04-20T12:43:25Z</time>
      </trkpt>
      <trkpt lat="45.93108" lon="4.76519">
        <ele>170</ele>
        <time>2018-04-20T12:43:26Z</time>
      </trkpt>
      <trkpt lat="45.93112" lon="4.76524">
        <ele>170</ele>
        <time>2018-04-20T12:43:27Z</time>
      </trkpt>
      <trkpt lat="45.93117" lon="4.7653">
        <ele>170</ele>
        <time>2018-04-20T12:43:28Z</time>
      </trkpt>
      <trkpt lat="45.9312" lon="4.76535">
        <ele>170</ele>
        <time>2018-04-20T12:43:29Z</time>
      </trkpt>
      <trkpt lat="45.93127" lon="4.76539">
        <ele>170</ele>
        <time>2018-04-20T12:43:30Z</time>
      </trkpt>
      <trkpt lat="45.93134" lon="4.76546">
        <ele>170</ele>
        <time>2018-04-20T12:43:32Z</time>
      </trkpt>
      <trkpt lat="45.93138" lon="4.76551">
        <ele>170</ele>
        <time>2018-04-20T12:43:33Z</time>
      </trkpt>
      <trkpt lat="45.93144" lon="4.76558">
        <ele>170</ele>
        <time>2018-04-20T12:43:35Z</time>
      </trkpt>
      <trkpt lat="45.93147" lon="4.76562">
        <ele>170</ele>
        <time>2018-04-20T12:43:36Z</time>
      </trkpt>
      <trkpt lat="45.93152" lon="4.76565">
        <ele>170</ele>
        <time>2018-04-20T12:43:37Z</time>
      </trkpt>
      <trkpt lat="45.93156" lon="4.76569">
        <ele>170</ele>
        <time>2018-04-20T12:43:38Z</time>
      </trkpt>
      <trkpt lat="45.93164" lon="4.76575">
        <ele>171</ele>
        <time>2018-04-20T12:43:42Z</time>
      </trkpt>
      <trkpt lat="45.93166" lon="4.76577">
        <ele>171</ele>
        <time>2018-04-20T12:43:43Z</time>
      </trkpt>
      <trkpt lat="45.93174" lon="4.76584">
        <ele>171</ele>
        <time>2018-04-20T12:43:44Z</time>
      </trkpt>
      <trkpt lat="45.93175" lon="4.76585">
        <ele>171</ele>
        <time>2018-04-20T12:43:45Z</time>
      </trkpt>
      <trkpt lat="45.93182" lon="4.76592">
        <ele>171</ele>
        <time>2018-04-20T12:43:49Z</time>
      </trkpt>
      <trkpt lat="45.93184" lon="4.76593">
        <ele>171</ele>
        <time>2018-04-20T12:43:50Z</time>
      </trkpt>
      <trkpt lat="45.93191" lon="4.76592">
        <ele>170</ele>
        <time>2018-04-20T12:43:51Z</time>
      </trkpt>
      <trkpt lat="45.93194" lon="4.76589">
        <ele>170</ele>
        <time>2018-04-20T12:43:52Z</time>
      </trkpt>
      <trkpt lat="45.93196" lon="4.76579">
        <ele>169</ele>
        <time>2018-04-20T12:43:54Z</time>
      </trkpt>
      <trkpt lat="45.932" lon="4.76573">
        <ele>169</ele>
        <time>2018-04-20T12:43:55Z</time>
      </trkpt>
      <trkpt lat="45.93203" lon="4.76567">
        <ele>169</ele>
        <time>2018-04-20T12:43:56Z</time>
      </trkpt>
      <trkpt lat="45.93204" lon="4.76558">
        <ele>169</ele>
        <time>2018-04-20T12:43:57Z</time>
      </trkpt>
      <trkpt lat="45.93208" lon="4.7655">
        <ele>169</ele>
        <time>2018-04-20T12:43:59Z</time>
      </trkpt>
      <trkpt lat="45.93209" lon="4.76545">
        <ele>169</ele>
        <time>2018-04-20T12:44:00Z</time>
      </trkpt>
      <trkpt lat="45.93211" lon="4.76534">
        <ele>169</ele>
        <time>2018-04-20T12:44:09Z</time>
      </trkpt>
      <trkpt lat="45.93212" lon="4.76532">
        <ele>169</ele>
        <time>2018-04-20T12:44:10Z</time>
      </trkpt>
      <trkpt lat="45.93212" lon="4.76524">
        <ele>169</ele>
        <time>2018-04-20T12:44:13Z</time>
      </trkpt>
      <trkpt lat="45.93213" lon="4.76513">
        <ele>169</ele>
        <time>2018-04-20T12:44:14Z</time>
      </trkpt>
      <trkpt lat="45.93215" lon="4.76501">
        <ele>169</ele>
        <time>2018-04-20T12:44:16Z</time>
      </trkpt>
      <trkpt lat="45.93216" lon="4.76496">
        <ele>169</ele>
        <time>2018-04-20T12:44:17Z</time>
      </trkpt>
      <trkpt lat="45.93218" lon="4.76483">
        <ele>169</ele>
        <time>2018-04-20T12:44:19Z</time>
      </trkpt>
      <trkpt lat="45.93219" lon="4.76477">
        <ele>169</ele>
        <time>2018-04-20T12:44:20Z</time>
      </trkpt>
      <trkpt lat="45.9322" lon="4.76471">
        <ele>169</ele>
        <time>2018-04-20T12:44:21Z</time>
      </trkpt>
      <trkpt lat="45.9322" lon="4.76464">
        <ele>169</ele>
        <time>2018-04-20T12:44:22Z</time>
      </trkpt>
      <trkpt lat="45.9322" lon="4.76452">
        <ele>168</ele>
        <time>2018-04-20T12:44:24Z</time>
      </trkpt>
      <trkpt lat="45.93219" lon="4.76445">
        <ele>168</ele>
        <time>2018-04-20T12:44:25Z</time>
      </trkpt>
      <trkpt lat="45.93219" lon="4.76432">
        <ele>168</ele>
        <time>2018-04-20T12:44:27Z</time>
      </trkpt>
      <trkpt lat="45.93219" lon="4.76426">
        <ele>168</ele>
        <time>2018-04-20T12:44:28Z</time>
      </trkpt>
      <trkpt lat="45.9322" lon="4.76419">
        <ele>168</ele>
        <time>2018-04-20T12:44:29Z</time>
      </trkpt>
      <trkpt lat="45.93219" lon="4.76412">
        <ele>168</ele>
        <time>2018-04-20T12:44:30Z</time>
      </trkpt>
      <trkpt lat="45.93219" lon="4.76406">
        <ele>168</ele>
        <time>2018-04-20T12:44:31Z</time>
      </trkpt>
      <trkpt lat="45.93219" lon="4.76399">
        <ele>168</ele>
        <time>2018-04-20T12:44:32Z</time>
      </trkpt>
      <trkpt lat="45.93219" lon="4.76392">
        <ele>168</ele>
        <time>2018-04-20T12:44:33Z</time>
      </trkpt>
      <trkpt lat="45.9322" lon="4.76385">
        <ele>168</ele>
        <time>2018-04-20T12:44:34Z</time>
      </trkpt>
      <trkpt lat="45.93221" lon="4.76373">
        <ele>168</ele>
        <time>2018-04-20T12:44:36Z</time>
      </trkpt>
      <trkpt lat="45.93222" lon="4.76364">
        <ele>168</ele>
        <time>2018-04-20T12:44:37Z</time>
      </trkpt>
      <trkpt lat="45.93222" lon="4.76353">
        <ele>168</ele>
        <time>2018-04-20T12:44:39Z</time>
      </trkpt>
      <trkpt lat="45.93223" lon="4.76347">
        <ele>168</ele>
        <time>2018-04-20T12:44:40Z</time>
      </trkpt>
      <trkpt lat="45.93222" lon="4.7634">
        <ele>168</ele>
        <time>2018-04-20T12:44:41Z</time>
      </trkpt>
      <trkpt lat="45.93222" lon="4.76334">
        <ele>168</ele>
        <time>2018-04-20T12:44:42Z</time>
      </trkpt>
      <trkpt lat="45.93223" lon="4.76323">
        <ele>169</ele>
        <time>2018-04-20T12:44:44Z</time>
      </trkpt>
      <trkpt lat="45.93223" lon="4.76317">
        <ele>169</ele>
        <time>2018-04-20T12:44:45Z</time>
      </trkpt>
      <trkpt lat="45.93224" lon="4.7631">
        <ele>169</ele>
        <time>2018-04-20T12:44:46Z</time>
      </trkpt>
      <trkpt lat="45.93224" lon="4.76304">
        <ele>169</ele>
        <time>2018-04-20T12:44:47Z</time>
      </trkpt>
      <trkpt lat="45.93227" lon="4.76293">
        <ele>169</ele>
        <time>2018-04-20T12:44:49Z</time>
      </trkpt>
      <trkpt lat="45.9323" lon="4.76288">
        <ele>169</ele>
        <time>2018-04-20T12:44:50Z</time>
      </trkpt>
      <trkpt lat="45.93235" lon="4.76289">
        <ele>169</ele>
        <time>2018-04-20T12:44:51Z</time>
      </trkpt>
      <trkpt lat="45.9324" lon="4.76289">
        <ele>169</ele>
        <time>2018-04-20T12:44:52Z</time>
      </trkpt>
      <trkpt lat="45.93248" lon="4.76287">
        <ele>169</ele>
        <time>2018-04-20T12:44:54Z</time>
      </trkpt>
      <trkpt lat="45.9325" lon="4.76287">
        <ele>169</ele>
        <time>2018-04-20T12:44:55Z</time>
      </trkpt>
      <trkpt lat="45.93255" lon="4.76287">
        <ele>169</ele>
        <time>2018-04-20T12:44:57Z</time>
      </trkpt>
      <trkpt lat="45.93262" lon="4.76286">
        <ele>169</ele>
        <time>2018-04-20T12:44:58Z</time>
      </trkpt>
      <trkpt lat="45.93267" lon="4.76288">
        <ele>168</ele>
        <time>2018-04-20T12:45:00Z</time>
      </trkpt>
      <trkpt lat="45.93272" lon="4.76288">
        <ele>168</ele>
        <time>2018-04-20T12:45:01Z</time>
      </trkpt>
      <trkpt lat="45.93279" lon="4.76287">
        <ele>168</ele>
        <time>2018-04-20T12:45:03Z</time>
      </trkpt>
      <trkpt lat="45.93283" lon="4.76287">
        <ele>168</ele>
        <time>2018-04-20T12:45:04Z</time>
      </trkpt>
      <trkpt lat="45.93292" lon="4.76289">
        <ele>168</ele>
        <time>2018-04-20T12:45:06Z</time>
      </trkpt>
      <trkpt lat="45.93296" lon="4.76291">
        <ele>168</ele>
        <time>2018-04-20T12:45:07Z</time>
      </trkpt>
      <trkpt lat="45.933" lon="4.76293">
        <ele>168</ele>
        <time>2018-04-20T12:45:08Z</time>
      </trkpt>
      <trkpt lat="45.93304" lon="4.76295">
        <ele>168</ele>
        <time>2018-04-20T12:45:09Z</time>
      </trkpt>
      <trkpt lat="45.93309" lon="4.76298">
        <ele>168</ele>
        <time>2018-04-20T12:45:10Z</time>
      </trkpt>
      <trkpt lat="45.93313" lon="4.76302">
        <ele>168</ele>
        <time>2018-04-20T12:45:11Z</time>
      </trkpt>
      <trkpt lat="45.93318" lon="4.7631">
        <ele>168</ele>
        <time>2018-04-20T12:45:12Z</time>
      </trkpt>
      <trkpt lat="45.93322" lon="4.76315">
        <ele>168</ele>
        <time>2018-04-20T12:45:13Z</time>
      </trkpt>
      <trkpt lat="45.93325" lon="4.7632">
        <ele>169</ele>
        <time>2018-04-20T12:45:14Z</time>
      </trkpt>
      <trkpt lat="45.93329" lon="4.76323">
        <ele>169</ele>
        <time>2018-04-20T12:45:15Z</time>
      </trkpt>
      <trkpt lat="45.93336" lon="4.7633">
        <ele>169</ele>
        <time>2018-04-20T12:45:17Z</time>
      </trkpt>
      <trkpt lat="45.93339" lon="4.76333">
        <ele>169</ele>
        <time>2018-04-20T12:45:18Z</time>
      </trkpt>
      <trkpt lat="45.93343" lon="4.76339">
        <ele>169</ele>
        <time>2018-04-20T12:45:19Z</time>
      </trkpt>
      <trkpt lat="45.93347" lon="4.76346">
        <ele>168</ele>
        <time>2018-04-20T12:45:20Z</time>
      </trkpt>
      <trkpt lat="45.9335" lon="4.76352">
        <ele>168</ele>
        <time>2018-04-20T12:45:21Z</time>
      </trkpt>
      <trkpt lat="45.93352" lon="4.76358">
        <ele>168</ele>
        <time>2018-04-20T12:45:22Z</time>
      </trkpt>
      <trkpt lat="45.93355" lon="4.76363">
        <ele>168</ele>
        <time>2018-04-20T12:45:23Z</time>
      </trkpt>
      <trkpt lat="45.93359" lon="4.76366">
        <ele>168</ele>
        <time>2018-04-20T12:45:24Z</time>
      </trkpt>
      <trkpt lat="45.93363" lon="4.76371">
        <ele>168</ele>
        <time>2018-04-20T12:45:25Z</time>
      </trkpt>
      <trkpt lat="45.93367" lon="4.76374">
        <ele>168</ele>
        <time>2018-04-20T12:45:26Z</time>
      </trkpt>
      <trkpt lat="45.93374" lon="4.76382">
        <ele>168</ele>
        <time>2018-04-20T12:45:28Z</time>
      </trkpt>
      <trkpt lat="45.93376" lon="4.76386">
        <ele>168</ele>
        <time>2018-04-20T12:45:29Z</time>
      </trkpt>
      <trkpt lat="45.93382" lon="4.76393">
        <ele>168</ele>
        <time>2018-04-20T12:45:31Z</time>
      </trkpt>
      <trkpt lat="45.93383" lon="4.76395">
        <ele>168</ele>
        <time>2018-04-20T12:45:32Z</time>
      </trkpt>
      <trkpt lat="45.93389" lon="4.76403">
        <ele>167</ele>
        <time>2018-04-20T12:45:35Z</time>
      </trkpt>
      <trkpt lat="45.93391" lon="4.76405">
        <ele>167</ele>
        <time>2018-04-20T12:45:36Z</time>
      </trkpt>
      <trkpt lat="45.93398" lon="4.76413">
        <ele>167</ele>
        <time>2018-04-20T12:45:39Z</time>
      </trkpt>
      <trkpt lat="45.93401" lon="4.76416">
        <ele>167</ele>
        <time>2018-04-20T12:45:40Z</time>
      </trkpt>
      <trkpt lat="45.93403" lon="4.76419">
        <ele>167</ele>
        <time>2018-04-20T12:45:41Z</time>
      </trkpt>
      <trkpt lat="45.93411" lon="4.7643">
        <ele>167</ele>
        <time>2018-04-20T12:45:42Z</time>
      </trkpt>
      <trkpt lat="45.93416" lon="4.76437">
        <ele>167</ele>
        <time>2018-04-20T12:45:45Z</time>
      </trkpt>
      <trkpt lat="45.93422" lon="4.76444">
        <ele>167</ele>
        <time>2018-04-20T12:45:46Z</time>
      </trkpt>
      <trkpt lat="45.93427" lon="4.76453">
        <ele>167</ele>
        <time>2018-04-20T12:45:48Z</time>
      </trkpt>
      <trkpt lat="45.93431" lon="4.76458">
        <ele>167</ele>
        <time>2018-04-20T12:45:49Z</time>
      </trkpt>
      <trkpt lat="45.93435" lon="4.76463">
        <ele>167</ele>
        <time>2018-04-20T12:45:50Z</time>
      </trkpt>
      <trkpt lat="45.93438" lon="4.76468">
        <ele>167</ele>
        <time>2018-04-20T12:45:51Z</time>
      </trkpt>
      <trkpt lat="45.93444" lon="4.76477">
        <ele>167</ele>
        <time>2018-04-20T12:45:53Z</time>
      </trkpt>
      <trkpt lat="45.93447" lon="4.76481">
        <ele>167</ele>
        <time>2018-04-20T12:45:54Z</time>
      </trkpt>
      <trkpt lat="45.9345" lon="4.76485">
        <ele>167</ele>
        <time>2018-04-20T12:45:55Z</time>
      </trkpt>
      <trkpt lat="45.93453" lon="4.7649">
        <ele>167</ele>
        <time>2018-04-20T12:45:56Z</time>
      </trkpt>
      <trkpt lat="45.93459" lon="4.76498">
        <ele>167</ele>
        <time>2018-04-20T12:45:58Z</time>
      </trkpt>
      <trkpt lat="45.93462" lon="4.76503">
        <ele>168</ele>
        <time>2018-04-20T12:45:59Z</time>
      </trkpt>
      <trkpt lat="45.93469" lon="4.76511">
        <ele>168</ele>
        <time>2018-04-20T12:46:03Z</time>
      </trkpt>
      <trkpt lat="45.93471" lon="4.76513">
        <ele>168</ele>
        <time>2018-04-20T12:46:04Z</time>
      </trkpt>
      <trkpt lat="45.93476" lon="4.76518">
        <ele>168</ele>
        <time>2018-04-20T12:46:06Z</time>
      </trkpt>
      <trkpt lat="45.93478" lon="4.76521">
        <ele>168</ele>
        <time>2018-04-20T12:46:07Z</time>
      </trkpt>
      <trkpt lat="45.93485" lon="4.76531">
        <ele>168</ele>
        <time>2018-04-20T12:46:08Z</time>
      </trkpt>
      <trkpt lat="45.93492" lon="4.7654">
        <ele>168</ele>
        <time>2018-04-20T12:46:10Z</time>
      </trkpt>
      <trkpt lat="45.93495" lon="4.76544">
        <ele>168</ele>
        <time>2018-04-20T12:46:11Z</time>
      </trkpt>
      <trkpt lat="45.93501" lon="4.76553">
        <ele>168</ele>
        <time>2018-04-20T12:46:13Z</time>
      </trkpt>
      <trkpt lat="45.93504" lon="4.76559">
        <ele>168</ele>
        <time>2018-04-20T12:46:14Z</time>
      </trkpt>
      <trkpt lat="45.93509" lon="4.76564">
        <ele>168</ele>
        <time>2018-04-20T12:46:16Z</time>
      </trkpt>
      <trkpt lat="45.93516" lon="4.76567">
        <ele>168</ele>
        <time>2018-04-20T12:46:17Z</time>
      </trkpt>
      <trkpt lat="45.9352" lon="4.76571">
        <ele>168</ele>
        <time>2018-04-20T12:46:18Z</time>
      </trkpt>
      <trkpt lat="45.93523" lon="4.76576">
        <ele>168</ele>
        <time>2018-04-20T12:46:19Z</time>
      </trkpt>
      <trkpt lat="45.93526" lon="4.76581">
        <ele>168</ele>
        <time>2018-04-20T12:46:20Z</time>
      </trkpt>
      <trkpt lat="45.93529" lon="4.76587">
        <ele>169</ele>
        <time>2018-04-20T12:46:21Z</time>
      </trkpt>
      <trkpt lat="45.93534" lon="4.76595">
        <ele>169</ele>
        <time>2018-04-20T12:46:24Z</time>
      </trkpt>
      <trkpt lat="45.93539" lon="4.76602">
        <ele>169</ele>
        <time>2018-04-20T12:46:25Z</time>
      </trkpt>
      <trkpt lat="45.93545" lon="4.76611">
        <ele>169</ele>
        <time>2018-04-20T12:46:27Z</time>
      </trkpt>
      <trkpt lat="45.93546" lon="4.76613">
        <ele>169</ele>
        <time>2018-04-20T12:46:28Z</time>
      </trkpt>
      <trkpt lat="45.93551" lon="4.76619">
        <ele>169</ele>
        <time>2018-04-20T12:46:29Z</time>
      </trkpt>
      <trkpt lat="45.93553" lon="4.76622">
        <ele>169</ele>
        <time>2018-04-20T12:46:30Z</time>
      </trkpt>
      <trkpt lat="45.93559" lon="4.7663">
        <ele>169</ele>
        <time>2018-04-20T12:46:33Z</time>
      </trkpt>
      <trkpt lat="45.93561" lon="4.76633">
        <ele>170</ele>
        <time>2018-04-20T12:46:34Z</time>
      </trkpt>
      <trkpt lat="45.93567" lon="4.76642">
        <ele>170</ele>
        <time>2018-04-20T12:46:35Z</time>
      </trkpt>
      <trkpt lat="45.93568" lon="4.76644">
        <ele>170</ele>
        <time>2018-04-20T12:46:36Z</time>
      </trkpt>
      <trkpt lat="45.93571" lon="4.76651">
        <ele>170</ele>
        <time>2018-04-20T12:46:37Z</time>
      </trkpt>
      <trkpt lat="45.93573" lon="4.76656">
        <ele>170</ele>
        <time>2018-04-20T12:46:38Z</time>
      </trkpt>
      <trkpt lat="45.93577" lon="4.76664">
        <ele>171</ele>
        <time>2018-04-20T12:46:40Z</time>
      </trkpt>
      <trkpt lat="45.9358" lon="4.76669">
        <ele>171</ele>
        <time>2018-04-20T12:46:41Z</time>
      </trkpt>
      <trkpt lat="45.93585" lon="4.76677">
        <ele>170</ele>
        <time>2018-04-20T12:46:44Z</time>
      </trkpt>
      <trkpt lat="45.93587" lon="4.7668">
        <ele>170</ele>
        <time>2018-04-20T12:46:45Z</time>
      </trkpt>
      <trkpt lat="45.93591" lon="4.76687">
        <ele>170</ele>
        <time>2018-04-20T12:46:47Z</time>
      </trkpt>
      <trkpt lat="45.93593" lon="4.76691">
        <ele>169</ele>
        <time>2018-04-20T12:46:48Z</time>
      </trkpt>
      <trkpt lat="45.936" lon="4.76703">
        <ele>169</ele>
        <time>2018-04-20T12:46:49Z</time>
      </trkpt>
      <trkpt lat="45.93606" lon="4.76711">
        <ele>169</ele>
        <time>2018-04-20T12:46:51Z</time>
      </trkpt>
      <trkpt lat="45.93609" lon="4.76716">
        <ele>169</ele>
        <time>2018-04-20T12:46:52Z</time>
      </trkpt>
      <trkpt lat="45.93612" lon="4.7672">
        <ele>169</ele>
        <time>2018-04-20T12:46:53Z</time>
      </trkpt>
      <trkpt lat="45.93616" lon="4.76728">
        <ele>169</ele>
        <time>2018-04-20T12:46:54Z</time>
      </trkpt>
      <trkpt lat="45.9362" lon="4.76733">
        <ele>169</ele>
        <time>2018-04-20T12:46:55Z</time>
      </trkpt>
      <trkpt lat="45.93623" lon="4.76737">
        <ele>169</ele>
        <time>2018-04-20T12:46:56Z</time>
      </trkpt>
      <trkpt lat="45.93626" lon="4.76744">
        <ele>168</ele>
        <time>2018-04-20T12:46:57Z</time>
      </trkpt>
      <trkpt lat="45.93631" lon="4.76748">
        <ele>168</ele>
        <time>2018-04-20T12:46:58Z</time>
      </trkpt>
      <trkpt lat="45.93636" lon="4.76753">
        <ele>168</ele>
        <time>2018-04-20T12:46:59Z</time>
      </trkpt>
      <trkpt lat="45.93639" lon="4.76758">
        <ele>168</ele>
        <time>2018-04-20T12:47:00Z</time>
      </trkpt>
      <trkpt lat="45.93643" lon="4.76763">
        <ele>167</ele>
        <time>2018-04-20T12:47:01Z</time>
      </trkpt>
      <trkpt lat="45.93646" lon="4.76768">
        <ele>167</ele>
        <time>2018-04-20T12:47:02Z</time>
      </trkpt>
      <trkpt lat="45.93651" lon="4.76776">
        <ele>167</ele>
        <time>2018-04-20T12:47:04Z</time>
      </trkpt>
      <trkpt lat="45.93654" lon="4.7678">
        <ele>167</ele>
        <time>2018-04-20T12:47:05Z</time>
      </trkpt>
      <trkpt lat="45.93661" lon="4.76787">
        <ele>167</ele>
        <time>2018-04-20T12:47:07Z</time>
      </trkpt>
      <trkpt lat="45.93664" lon="4.7679">
        <ele>167</ele>
        <time>2018-04-20T12:47:08Z</time>
      </trkpt>
      <trkpt lat="45.93669" lon="4.768">
        <ele>166</ele>
        <time>2018-04-20T12:47:11Z</time>
      </trkpt>
      <trkpt lat="45.93671" lon="4.76802">
        <ele>166</ele>
        <time>2018-04-20T12:47:12Z</time>
      </trkpt>
      <trkpt lat="45.93673" lon="4.76805">
        <ele>166</ele>
        <time>2018-04-20T12:47:13Z</time>
      </trkpt>
      <trkpt lat="45.93677" lon="4.76814">
        <ele>166</ele>
        <time>2018-04-20T12:47:14Z</time>
      </trkpt>
      <trkpt lat="45.93681" lon="4.76823">
        <ele>166</ele>
        <time>2018-04-20T12:47:16Z</time>
      </trkpt>
      <trkpt lat="45.93684" lon="4.76827">
        <ele>166</ele>
        <time>2018-04-20T12:47:17Z</time>
      </trkpt>
      <trkpt lat="45.93689" lon="4.76836">
        <ele>167</ele>
        <time>2018-04-20T12:47:19Z</time>
      </trkpt>
      <trkpt lat="45.9369" lon="4.76838">
        <ele>167</ele>
        <time>2018-04-20T12:47:20Z</time>
      </trkpt>
      <trkpt lat="45.93694" lon="4.76844">
        <ele>167</ele>
        <time>2018-04-20T12:47:21Z</time>
      </trkpt>
      <trkpt lat="45.93697" lon="4.76849">
        <ele>167</ele>
        <time>2018-04-20T12:47:22Z</time>
      </trkpt>
      <trkpt lat="45.93703" lon="4.76857">
        <ele>167</ele>
        <time>2018-04-20T12:47:24Z</time>
      </trkpt>
      <trkpt lat="45.93706" lon="4.76861">
        <ele>167</ele>
        <time>2018-04-20T12:47:25Z</time>
      </trkpt>
      <trkpt lat="45.9371" lon="4.7687">
        <ele>167</ele>
        <time>2018-04-20T12:47:27Z</time>
      </trkpt>
      <trkpt lat="45.93712" lon="4.76874">
        <ele>167</ele>
        <time>2018-04-20T12:47:28Z</time>
      </trkpt>
      <trkpt lat="45.93715" lon="4.76883">
        <ele>167</ele>
        <time>2018-04-20T12:47:31Z</time>
      </trkpt>
      <trkpt lat="45.93716" lon="4.76886">
        <ele>167</ele>
        <time>2018-04-20T12:47:32Z</time>
      </trkpt>
      <trkpt lat="45.93721" lon="4.76896">
        <ele>168</ele>
        <time>2018-04-20T12:47:33Z</time>
      </trkpt>
      <trkpt lat="45.93722" lon="4.76898">
        <ele>168</ele>
        <time>2018-04-20T12:47:34Z</time>
      </trkpt>
      <trkpt lat="45.93726" lon="4.76907">
        <ele>168</ele>
        <time>2018-04-20T12:47:37Z</time>
      </trkpt>
      <trkpt lat="45.93731" lon="4.76916">
        <ele>168</ele>
        <time>2018-04-20T12:47:38Z</time>
      </trkpt>
      <trkpt lat="45.93737" lon="4.76923">
        <ele>169</ele>
        <time>2018-04-20T12:47:42Z</time>
      </trkpt>
      <trkpt lat="45.93738" lon="4.76927">
        <ele>169</ele>
        <time>2018-04-20T12:47:43Z</time>
      </trkpt>
      <trkpt lat="45.93741" lon="4.76935">
        <ele>169</ele>
        <time>2018-04-20T12:47:45Z</time>
      </trkpt>
      <trkpt lat="45.93743" lon="4.7694">
        <ele>169</ele>
        <time>2018-04-20T12:47:46Z</time>
      </trkpt>
      <trkpt lat="45.93746" lon="4.76947">
        <ele>169</ele>
        <time>2018-04-20T12:47:48Z</time>
      </trkpt>
      <trkpt lat="45.93747" lon="4.76951">
        <ele>169</ele>
        <time>2018-04-20T12:47:49Z</time>
      </trkpt>
      <trkpt lat="45.93749" lon="4.76955">
        <ele>169</ele>
        <time>2018-04-20T12:47:50Z</time>
      </trkpt>
      <trkpt lat="45.93754" lon="4.76967">
        <ele>168</ele>
        <time>2018-04-20T12:47:51Z</time>
      </trkpt>
      <trkpt lat="45.93757" lon="4.76979">
        <ele>168</ele>
        <time>2018-04-20T12:47:55Z</time>
      </trkpt>
      <trkpt lat="45.93758" lon="4.76982">
        <ele>168</ele>
        <time>2018-04-20T12:47:56Z</time>
      </trkpt>
      <trkpt lat="45.93762" lon="4.76992">
        <ele>168</ele>
        <time>2018-04-20T12:47:57Z</time>
      </trkpt>
      <trkpt lat="45.93763" lon="4.76994">
        <ele>168</ele>
        <time>2018-04-20T12:47:58Z</time>
      </trkpt>
      <trkpt lat="45.93765" lon="4.77">
        <ele>169</ele>
        <time>2018-04-20T12:48:00Z</time>
      </trkpt>
      <trkpt lat="45.93769" lon="4.7701">
        <ele>169</ele>
        <time>2018-04-20T12:48:01Z</time>
      </trkpt>
      <trkpt lat="45.93772" lon="4.77017">
        <ele>169</ele>
        <time>2018-04-20T12:48:03Z</time>
      </trkpt>
      <trkpt lat="45.93775" lon="4.77024">
        <ele>168</ele>
        <time>2018-04-20T12:48:04Z</time>
      </trkpt>
      <trkpt lat="45.93777" lon="4.77034">
        <ele>169</ele>
        <time>2018-04-20T12:48:06Z</time>
      </trkpt>
      <trkpt lat="45.93779" lon="4.77039">
        <ele>169</ele>
        <time>2018-04-20T12:48:07Z</time>
      </trkpt>
      <trkpt lat="45.93782" lon="4.77046">
        <ele>169</ele>
        <time>2018-04-20T12:48:08Z</time>
      </trkpt>
      <trkpt lat="45.93785" lon="4.77053">
        <ele>169</ele>
        <time>2018-04-20T12:48:09Z</time>
      </trkpt>
      <trkpt lat="45.93788" lon="4.77064">
        <ele>169</ele>
        <time>2018-04-20T12:48:11Z</time>
      </trkpt>
      <trkpt lat="45.9379" lon="4.77069">
        <ele>169</ele>
        <time>2018-04-20T12:48:12Z</time>
      </trkpt>
      <trkpt lat="45.93796" lon="4.77079">
        <ele>168</ele>
        <time>2018-04-20T12:48:14Z</time>
      </trkpt>
      <trkpt lat="45.93797" lon="4.77085">
        <ele>169</ele>
        <time>2018-04-20T12:48:15Z</time>
      </trkpt>
      <trkpt lat="45.93798" lon="4.77094">
        <ele>169</ele>
        <time>2018-04-20T12:48:18Z</time>
      </trkpt>
      <trkpt lat="45.93798" lon="4.77098">
        <ele>169</ele>
        <time>2018-04-20T12:48:19Z</time>
      </trkpt>
      <trkpt lat="45.938" lon="4.77109">
        <ele>169</ele>
        <time>2018-04-20T12:48:23Z</time>
      </trkpt>
      <trkpt lat="45.93801" lon="4.77121">
        <ele>169</ele>
        <time>2018-04-20T12:48:24Z</time>
      </trkpt>
      <trkpt lat="45.93803" lon="4.7713">
        <ele>169</ele>
        <time>2018-04-20T12:48:27Z</time>
      </trkpt>
      <trkpt lat="45.93804" lon="4.77134">
        <ele>169</ele>
        <time>2018-04-20T12:48:28Z</time>
      </trkpt>
      <trkpt lat="45.93805" lon="4.77143">
        <ele>168</ele>
        <time>2018-04-20T12:48:30Z</time>
      </trkpt>
      <trkpt lat="45.93806" lon="4.77148">
        <ele>168</ele>
        <time>2018-04-20T12:48:31Z</time>
      </trkpt>
      <trkpt lat="45.93807" lon="4.77157">
        <ele>168</ele>
        <time>2018-04-20T12:48:33Z</time>
      </trkpt>
      <trkpt lat="45.93808" lon="4.77162">
        <ele>168</ele>
        <time>2018-04-20T12:48:34Z</time>
      </trkpt>
      <trkpt lat="45.93808" lon="4.77171">
        <ele>169</ele>
        <time>2018-04-20T12:48:36Z</time>
      </trkpt>
      <trkpt lat="45.93808" lon="4.77175">
        <ele>169</ele>
        <time>2018-04-20T12:48:37Z</time>
      </trkpt>
      <trkpt lat="45.93807" lon="4.77184">
        <ele>169</ele>
        <time>2018-04-20T12:48:39Z</time>
      </trkpt>
      <trkpt lat="45.93807" lon="4.77189">
        <ele>169</ele>
        <time>2018-04-20T12:48:40Z</time>
      </trkpt>
      <trkpt lat="45.93809" lon="4.77201">
        <ele>170</ele>
        <time>2018-04-20T12:48:43Z</time>
      </trkpt>
      <trkpt lat="45.93811" lon="4.77204">
        <ele>170</ele>
        <time>2018-04-20T12:48:44Z</time>
      </trkpt>
      <trkpt lat="45.93818" lon="4.7721">
        <ele>170</ele>
        <time>2018-04-20T12:48:48Z</time>
      </trkpt>
      <trkpt lat="45.9382" lon="4.77211">
        <ele>170</ele>
        <time>2018-04-20T12:48:49Z</time>
      </trkpt>
      <trkpt lat="45.93828" lon="4.77212">
        <ele>170</ele>
        <time>2018-04-20T12:48:50Z</time>
      </trkpt>
      <trkpt lat="45.9383" lon="4.77213">
        <ele>170</ele>
        <time>2018-04-20T12:48:51Z</time>
      </trkpt>
      <trkpt lat="45.93838" lon="4.77218">
        <ele>169</ele>
        <time>2018-04-20T12:48:57Z</time>
      </trkpt>
      <trkpt lat="45.9384" lon="4.77219">
        <ele>169</ele>
        <time>2018-04-20T12:48:58Z</time>
      </trkpt>
      <trkpt lat="45.93846" lon="4.77221">
        <ele>169</ele>
        <time>2018-04-20T12:49:01Z</time>
      </trkpt>
      <trkpt lat="45.93848" lon="4.77221">
        <ele>169</ele>
        <time>2018-04-20T12:49:02Z</time>
      </trkpt>
      <trkpt lat="45.93856" lon="4.77223">
        <ele>168</ele>
        <time>2018-04-20T12:49:05Z</time>
      </trkpt>
      <trkpt lat="45.93858" lon="4.77223">
        <ele>168</ele>
        <time>2018-04-20T12:49:06Z</time>
      </trkpt>
      <trkpt lat="45.93866" lon="4.77224">
        <ele>168</ele>
        <time>2018-04-20T12:49:09Z</time>
      </trkpt>
      <trkpt lat="45.93869" lon="4.77225">
        <ele>168</ele>
        <time>2018-04-20T12:49:10Z</time>
      </trkpt>
      <trkpt lat="45.93877" lon="4.77226">
        <ele>168</ele>
        <time>2018-04-20T12:49:13Z</time>
      </trkpt>
      <trkpt lat="45.9388" lon="4.77226">
        <ele>168</ele>
        <time>2018-04-20T12:49:14Z</time>
      </trkpt>
      <trkpt lat="45.93888" lon="4.77229">
        <ele>167</ele>
        <time>2018-04-20T12:49:17Z</time>
      </trkpt>
      <trkpt lat="45.93891" lon="4.77229">
        <ele>167</ele>
        <time>2018-04-20T12:49:18Z</time>
      </trkpt>
      <trkpt lat="45.93899" lon="4.77232">
        <ele>167</ele>
        <time>2018-04-20T12:49:21Z</time>
      </trkpt>
      <trkpt lat="45.93902" lon="4.77233">
        <ele>167</ele>
        <time>2018-04-20T12:49:22Z</time>
      </trkpt>
      <trkpt lat="45.9391" lon="4.77236">
        <ele>167</ele>
        <time>2018-04-20T12:49:25Z</time>
      </trkpt>
      <trkpt lat="45.93913" lon="4.77237">
        <ele>167</ele>
        <time>2018-04-20T12:49:26Z</time>
      </trkpt>
      <trkpt lat="45.93921" lon="4.77239">
        <ele>167</ele>
        <time>2018-04-20T12:49:29Z</time>
      </trkpt>
      <trkpt lat="45.93925" lon="4.77239">
        <ele>167</ele>
        <time>2018-04-20T12:49:30Z</time>
      </trkpt>
      <trkpt lat="45.93931" lon="4.77241">
        <ele>167</ele>
        <time>2018-04-20T12:49:32Z</time>
      </trkpt>
      <trkpt lat="45.93934" lon="4.77241">
        <ele>167</ele>
        <time>2018-04-20T12:49:33Z</time>
      </trkpt>
      <trkpt lat="45.93941" lon="4.77243">
        <ele>168</ele>
        <time>2018-04-20T12:49:35Z</time>
      </trkpt>
      <trkpt lat="45.93944" lon="4.77244">
        <ele>168</ele>
        <time>2018-04-20T12:49:36Z</time>
      </trkpt>
      <trkpt lat="45.93953" lon="4.77246">
        <ele>168</ele>
        <time>2018-04-20T12:49:37Z</time>
      </trkpt>
      <trkpt lat="45.93961" lon="4.77247">
        <ele>168</ele>
        <time>2018-04-20T12:49:39Z</time>
      </trkpt>
      <trkpt lat="45.93965" lon="4.77248">
        <ele>169</ele>
        <time>2018-04-20T12:49:40Z</time>
      </trkpt>
      <trkpt lat="45.93973" lon="4.7725">
        <ele>169</ele>
        <time>2018-04-20T12:49:42Z</time>
      </trkpt>
      <trkpt lat="45.93977" lon="4.77251">
        <ele>169</ele>
        <time>2018-04-20T12:49:43Z</time>
      </trkpt>
      <trkpt lat="45.93985" lon="4.77253">
        <ele>169</ele>
        <time>2018-04-20T12:49:45Z</time>
      </trkpt>
      <trkpt lat="45.93989" lon="4.77253">
        <ele>169</ele>
        <time>2018-04-20T12:49:46Z</time>
      </trkpt>
      <trkpt lat="45.93996" lon="4.77255">
        <ele>170</ele>
        <time>2018-04-20T12:49:48Z</time>
      </trkpt>
      <trkpt lat="45.93998" lon="4.77256">
        <ele>170</ele>
        <time>2018-04-20T12:49:49Z</time>
      </trkpt>
      <trkpt lat="45.94007" lon="4.77257">
        <ele>172</ele>
        <time>2018-04-20T12:49:53Z</time>
      </trkpt>
      <trkpt lat="45.94009" lon="4.77258">
        <ele>173</ele>
        <time>2018-04-20T12:49:54Z</time>
      </trkpt>
      <trkpt lat="45.94015" lon="4.7725">
        <ele>173</ele>
        <time>2018-04-20T12:53:05Z</time>
      </trkpt>
      <trkpt lat="45.94015" lon="4.77247">
        <ele>173</ele>
        <time>2018-04-20T12:53:06Z</time>
      </trkpt>
      <trkpt lat="45.94017" lon="4.77234">
        <ele>173</ele>
        <time>2018-04-20T12:53:10Z</time>
      </trkpt>
      <trkpt lat="45.94017" lon="4.77232">
        <ele>173</ele>
        <time>2018-04-20T12:53:11Z</time>
      </trkpt>
      <trkpt lat="45.94016" lon="4.77221">
        <ele>174</ele>
        <time>2018-04-20T12:53:16Z</time>
      </trkpt>
      <trkpt lat="45.94016" lon="4.77218">
        <ele>174</ele>
        <time>2018-04-20T12:53:17Z</time>
      </trkpt>
      <trkpt lat="45.9401" lon="4.77228">
        <ele>173</ele>
        <time>2018-04-20T12:53:26Z</time>
      </trkpt>
      <trkpt lat="45.9401" lon="4.77229">
        <ele>173</ele>
        <time>2018-04-20T12:53:27Z</time>
      </trkpt>
      <trkpt lat="45.94002" lon="4.77225">
        <ele>173</ele>
        <time>2018-04-20T12:53:33Z</time>
      </trkpt>
      <trkpt lat="45.94001" lon="4.77222">
        <ele>173</ele>
        <time>2018-04-20T12:53:34Z</time>
      </trkpt>
      <trkpt lat="45.94001" lon="4.77216">
        <ele>173</ele>
        <time>2018-04-20T12:53:36Z</time>
      </trkpt>
      <trkpt lat="45.94001" lon="4.77205">
        <ele>174</ele>
        <time>2018-04-20T12:53:37Z</time>
      </trkpt>
      <trkpt lat="45.94002" lon="4.77194">
        <ele>174</ele>
        <time>2018-04-20T12:53:39Z</time>
      </trkpt>
      <trkpt lat="45.94002" lon="4.77189">
        <ele>174</ele>
        <time>2018-04-20T12:53:40Z</time>
      </trkpt>
      <trkpt lat="45.94003" lon="4.7718">
        <ele>173</ele>
        <time>2018-04-20T12:53:43Z</time>
      </trkpt>
      <trkpt lat="45.94003" lon="4.77176">
        <ele>173</ele>
        <time>2018-04-20T12:53:44Z</time>
      </trkpt>
      <trkpt lat="45.94003" lon="4.77172">
        <ele>173</ele>
        <time>2018-04-20T12:53:45Z</time>
      </trkpt>
      <trkpt lat="45.94003" lon="4.77159">
        <ele>173</ele>
        <time>2018-04-20T12:53:46Z</time>
      </trkpt>
      <trkpt lat="45.94002" lon="4.77148">
        <ele>173</ele>
        <time>2018-04-20T12:53:48Z</time>
      </trkpt>
      <trkpt lat="45.94002" lon="4.77143">
        <ele>173</ele>
        <time>2018-04-20T12:53:49Z</time>
      </trkpt>
      <trkpt lat="45.93999" lon="4.77131">
        <ele>170</ele>
        <time>2018-04-20T12:53:51Z</time>
      </trkpt>
      <trkpt lat="45.93998" lon="4.77126">
        <ele>170</ele>
        <time>2018-04-20T12:53:52Z</time>
      </trkpt>
      <trkpt lat="45.93996" lon="4.77115">
        <ele>170</ele>
        <time>2018-04-20T12:53:54Z</time>
      </trkpt>
      <trkpt lat="45.93994" lon="4.7711">
        <ele>170</ele>
        <time>2018-04-20T12:53:55Z</time>
      </trkpt>
      <trkpt lat="45.93991" lon="4.77099">
        <ele>171</ele>
        <time>2018-04-20T12:53:57Z</time>
      </trkpt>
      <trkpt lat="45.9399" lon="4.77094">
        <ele>171</ele>
        <time>2018-04-20T12:53:58Z</time>
      </trkpt>
      <trkpt lat="45.93987" lon="4.77083">
        <ele>171</ele>
        <time>2018-04-20T12:54:00Z</time>
      </trkpt>
      <trkpt lat="45.93985" lon="4.77078">
        <ele>170</ele>
        <time>2018-04-20T12:54:01Z</time>
      </trkpt>
      <trkpt lat="45.93984" lon="4.77073">
        <ele>170</ele>
        <time>2018-04-20T12:54:03Z</time>
      </trkpt>
      <trkpt lat="45.9398" lon="4.77064">
        <ele>170</ele>
        <time>2018-04-20T12:54:04Z</time>
      </trkpt>
      <trkpt lat="45.93977" lon="4.77054">
        <ele>169</ele>
        <time>2018-04-20T12:54:06Z</time>
      </trkpt>
      <trkpt lat="45.93975" lon="4.77048">
        <ele>169</ele>
        <time>2018-04-20T12:54:07Z</time>
      </trkpt>
      <trkpt lat="45.93973" lon="4.77038">
        <ele>169</ele>
        <time>2018-04-20T12:54:09Z</time>
      </trkpt>
      <trkpt lat="45.93972" lon="4.77033">
        <ele>169</ele>
        <time>2018-04-20T12:54:10Z</time>
      </trkpt>
      <trkpt lat="45.9397" lon="4.77024">
        <ele>169</ele>
        <time>2018-04-20T12:54:13Z</time>
      </trkpt>
      <trkpt lat="45.93969" lon="4.77021">
        <ele>169</ele>
        <time>2018-04-20T12:54:14Z</time>
      </trkpt>
      <trkpt lat="45.93965" lon="4.77009">
        <ele>169</ele>
        <time>2018-04-20T12:54:17Z</time>
      </trkpt>
      <trkpt lat="45.93964" lon="4.77005">
        <ele>169</ele>
        <time>2018-04-20T12:54:18Z</time>
      </trkpt>
      <trkpt lat="45.93959" lon="4.76991">
        <ele>170</ele>
        <time>2018-04-20T12:54:19Z</time>
      </trkpt>
      <trkpt lat="45.93956" lon="4.76982">
        <ele>170</ele>
        <time>2018-04-20T12:54:21Z</time>
      </trkpt>
      <trkpt lat="45.93955" lon="4.76979">
        <ele>170</ele>
        <time>2018-04-20T12:54:22Z</time>
      </trkpt>
      <trkpt lat="45.93952" lon="4.7697">
        <ele>170</ele>
        <time>2018-04-20T12:54:25Z</time>
      </trkpt>
      <trkpt lat="45.93952" lon="4.76966">
        <ele>170</ele>
        <time>2018-04-20T12:54:26Z</time>
      </trkpt>
      <trkpt lat="45.93951" lon="4.76954">
        <ele>170</ele>
        <time>2018-04-20T12:54:29Z</time>
      </trkpt>
      <trkpt lat="45.93951" lon="4.76949">
        <ele>170</ele>
        <time>2018-04-20T12:54:30Z</time>
      </trkpt>
      <trkpt lat="45.9395" lon="4.7694">
        <ele>171</ele>
        <time>2018-04-20T12:54:32Z</time>
      </trkpt>
      <trkpt lat="45.93948" lon="4.76926">
        <ele>171</ele>
        <time>2018-04-20T12:54:33Z</time>
      </trkpt>
      <trkpt lat="45.93946" lon="4.76915">
        <ele>172</ele>
        <time>2018-04-20T12:54:36Z</time>
      </trkpt>
      <trkpt lat="45.93945" lon="4.76912">
        <ele>172</ele>
        <time>2018-04-20T12:54:37Z</time>
      </trkpt>
      <trkpt lat="45.93942" lon="4.76901">
        <ele>172</ele>
        <time>2018-04-20T12:54:40Z</time>
      </trkpt>
      <trkpt lat="45.93941" lon="4.76897">
        <ele>172</ele>
        <time>2018-04-20T12:54:41Z</time>
      </trkpt>
      <trkpt lat="45.93937" lon="4.76889">
        <ele>172</ele>
        <time>2018-04-20T12:54:43Z</time>
      </trkpt>
      <trkpt lat="45.93932" lon="4.76876">
        <ele>172</ele>
        <time>2018-04-20T12:54:44Z</time>
      </trkpt>
      <trkpt lat="45.93927" lon="4.76867">
        <ele>172</ele>
        <time>2018-04-20T12:54:46Z</time>
      </trkpt>
      <trkpt lat="45.93926" lon="4.76865">
        <ele>172</ele>
        <time>2018-04-20T12:54:47Z</time>
      </trkpt>
      <trkpt lat="45.93921" lon="4.76857">
        <ele>172</ele>
        <time>2018-04-20T12:54:50Z</time>
      </trkpt>
      <trkpt lat="45.93918" lon="4.76854">
        <ele>172</ele>
        <time>2018-04-20T12:54:51Z</time>
      </trkpt>
      <trkpt lat="45.93913" lon="4.76844">
        <ele>172</ele>
        <time>2018-04-20T12:54:52Z</time>
      </trkpt>
      <trkpt lat="45.9391" lon="4.7684">
        <ele>172</ele>
        <time>2018-04-20T12:54:53Z</time>
      </trkpt>
      <trkpt lat="45.93905" lon="4.7683">
        <ele>172</ele>
        <time>2018-04-20T12:54:55Z</time>
      </trkpt>
      <trkpt lat="45.93903" lon="4.76826">
        <ele>172</ele>
        <time>2018-04-20T12:54:56Z</time>
      </trkpt>
      <trkpt lat="45.93898" lon="4.76816">
        <ele>172</ele>
        <time>2018-04-20T12:54:58Z</time>
      </trkpt>
      <trkpt lat="45.93896" lon="4.76811">
        <ele>171</ele>
        <time>2018-04-20T12:54:59Z</time>
      </trkpt>
      <trkpt lat="45.93892" lon="4.76801">
        <ele>171</ele>
        <time>2018-04-20T12:55:01Z</time>
      </trkpt>
      <trkpt lat="45.9389" lon="4.76797">
        <ele>171</ele>
        <time>2018-04-20T12:55:02Z</time>
      </trkpt>
      <trkpt lat="45.93885" lon="4.7679">
        <ele>171</ele>
        <time>2018-04-20T12:55:04Z</time>
      </trkpt>
      <trkpt lat="45.93882" lon="4.76786">
        <ele>171</ele>
        <time>2018-04-20T12:55:05Z</time>
      </trkpt>
      <trkpt lat="45.93876" lon="4.76777">
        <ele>171</ele>
        <time>2018-04-20T12:55:09Z</time>
      </trkpt>
      <trkpt lat="45.93874" lon="4.76775">
        <ele>171</ele>
        <time>2018-04-20T12:55:10Z</time>
      </trkpt>
      <trkpt lat="45.9387" lon="4.76768">
        <ele>171</ele>
        <time>2018-04-20T12:55:13Z</time>
      </trkpt>
      <trkpt lat="45.93868" lon="4.76766">
        <ele>171</ele>
        <time>2018-04-20T12:55:14Z</time>
      </trkpt>
      <trkpt lat="45.93862" lon="4.76757">
        <ele>172</ele>
        <time>2018-04-20T12:55:17Z</time>
      </trkpt>
      <trkpt lat="45.9386" lon="4.76754">
        <ele>172</ele>
        <time>2018-04-20T12:55:18Z</time>
      </trkpt>
      <trkpt lat="45.93854" lon="4.76745">
        <ele>173</ele>
        <time>2018-04-20T12:55:21Z</time>
      </trkpt>
      <trkpt lat="45.93852" lon="4.76742">
        <ele>173</ele>
        <time>2018-04-20T12:55:22Z</time>
      </trkpt>
      <trkpt lat="45.93848" lon="4.76736">
        <ele>173</ele>
        <time>2018-04-20T12:55:24Z</time>
      </trkpt>
      <trkpt lat="45.93841" lon="4.76726">
        <ele>172</ele>
        <time>2018-04-20T12:55:25Z</time>
      </trkpt>
      <trkpt lat="45.93836" lon="4.76717">
        <ele>172</ele>
        <time>2018-04-20T12:55:27Z</time>
      </trkpt>
      <trkpt lat="45.93833" lon="4.76713">
        <ele>170</ele>
        <time>2018-04-20T12:55:28Z</time>
      </trkpt>
      <trkpt lat="45.93828" lon="4.76705">
        <ele>170</ele>
        <time>2018-04-20T12:55:31Z</time>
      </trkpt>
      <trkpt lat="45.93826" lon="4.76702">
        <ele>170</ele>
        <time>2018-04-20T12:55:32Z</time>
      </trkpt>
      <trkpt lat="45.93821" lon="4.76694">
        <ele>170</ele>
        <time>2018-04-20T12:55:35Z</time>
      </trkpt>
      <trkpt lat="45.93819" lon="4.76691">
        <ele>170</ele>
        <time>2018-04-20T12:55:36Z</time>
      </trkpt>
      <trkpt lat="45.93814" lon="4.76681">
        <ele>170</ele>
        <time>2018-04-20T12:55:50Z</time>
      </trkpt>
      <trkpt lat="45.93813" lon="4.76681">
        <ele>170</ele>
        <time>2018-04-20T12:55:51Z</time>
      </trkpt>
      <trkpt lat="45.93809" lon="4.76672">
        <ele>170</ele>
        <time>2018-04-20T12:55:55Z</time>
      </trkpt>
      <trkpt lat="45.93808" lon="4.76668">
        <ele>170</ele>
        <time>2018-04-20T12:55:56Z</time>
      </trkpt>
      <trkpt lat="45.93803" lon="4.76658">
        <ele>169</ele>
        <time>2018-04-20T12:55:57Z</time>
      </trkpt>
      <trkpt lat="45.93802" lon="4.76656">
        <ele>169</ele>
        <time>2018-04-20T12:55:58Z</time>
      </trkpt>
      <trkpt lat="45.938" lon="4.76651">
        <ele>169</ele>
        <time>2018-04-20T12:56:00Z</time>
      </trkpt>
      <trkpt lat="45.93796" lon="4.76644">
        <ele>169</ele>
        <time>2018-04-20T12:56:01Z</time>
      </trkpt>
      <trkpt lat="45.93792" lon="4.76634">
        <ele>169</ele>
        <time>2018-04-20T12:56:03Z</time>
      </trkpt>
      <trkpt lat="45.9379" lon="4.76629">
        <ele>169</ele>
        <time>2018-04-20T12:56:04Z</time>
      </trkpt>
      <trkpt lat="45.93786" lon="4.76619">
        <ele>169</ele>
        <time>2018-04-20T12:56:06Z</time>
      </trkpt>
      <trkpt lat="45.93784" lon="4.76613">
        <ele>169</ele>
        <time>2018-04-20T12:56:07Z</time>
      </trkpt>
      <trkpt lat="45.93781" lon="4.76601">
        <ele>169</ele>
        <time>2018-04-20T12:56:09Z</time>
      </trkpt>
      <trkpt lat="45.93779" lon="4.76597">
        <ele>169</ele>
        <time>2018-04-20T12:56:10Z</time>
      </trkpt>
      <trkpt lat="45.93776" lon="4.76588">
        <ele>169</ele>
        <time>2018-04-20T12:56:12Z</time>
      </trkpt>
      <trkpt lat="45.93775" lon="4.76582">
        <ele>170</ele>
        <time>2018-04-20T12:56:13Z</time>
      </trkpt>
      <trkpt lat="45.9377" lon="4.76572">
        <ele>170</ele>
        <time>2018-04-20T12:56:15Z</time>
      </trkpt>
      <trkpt lat="45.93768" lon="4.76566">
        <ele>170</ele>
        <time>2018-04-20T12:56:16Z</time>
      </trkpt>
      <trkpt lat="45.93764" lon="4.76556">
        <ele>170</ele>
        <time>2018-04-20T12:56:18Z</time>
      </trkpt>
      <trkpt lat="45.93763" lon="4.76551">
        <ele>170</ele>
        <time>2018-04-20T12:56:19Z</time>
      </trkpt>
      <trkpt lat="45.93758" lon="4.7654">
        <ele>170</ele>
        <time>2018-04-20T12:56:21Z</time>
      </trkpt>
      <trkpt lat="45.93756" lon="4.76535">
        <ele>170</ele>
        <time>2018-04-20T12:56:22Z</time>
      </trkpt>
      <trkpt lat="45.93754" lon="4.76526">
        <ele>170</ele>
        <time>2018-04-20T12:56:24Z</time>
      </trkpt>
      <trkpt lat="45.93753" lon="4.76521">
        <ele>170</ele>
        <time>2018-04-20T12:56:25Z</time>
      </trkpt>
      <trkpt lat="45.93751" lon="4.76509">
        <ele>170</ele>
        <time>2018-04-20T12:56:27Z</time>
      </trkpt>
      <trkpt lat="45.9375" lon="4.76504">
        <ele>170</ele>
        <time>2018-04-20T12:56:28Z</time>
      </trkpt>
      <trkpt lat="45.93748" lon="4.76492">
        <ele>170</ele>
        <time>2018-04-20T12:56:30Z</time>
      </trkpt>
      <trkpt lat="45.93746" lon="4.76486">
        <ele>169</ele>
        <time>2018-04-20T12:56:31Z</time>
      </trkpt>
      <trkpt lat="45.93743" lon="4.76474">
        <ele>169</ele>
        <time>2018-04-20T12:56:33Z</time>
      </trkpt>
      <trkpt lat="45.93741" lon="4.76468">
        <ele>169</ele>
        <time>2018-04-20T12:56:34Z</time>
      </trkpt>
      <trkpt lat="45.93737" lon="4.76457">
        <ele>169</ele>
        <time>2018-04-20T12:56:36Z</time>
      </trkpt>
      <trkpt lat="45.93735" lon="4.76451">
        <ele>169</ele>
        <time>2018-04-20T12:56:37Z</time>
      </trkpt>
      <trkpt lat="45.93732" lon="4.76439">
        <ele>169</ele>
        <time>2018-04-20T12:56:39Z</time>
      </trkpt>
      <trkpt lat="45.9373" lon="4.76434">
        <ele>169</ele>
        <time>2018-04-20T12:56:40Z</time>
      </trkpt>
      <trkpt lat="45.93726" lon="4.76424">
        <ele>169</ele>
        <time>2018-04-20T12:56:42Z</time>
      </trkpt>
      <trkpt lat="45.93723" lon="4.76419">
        <ele>169</ele>
        <time>2018-04-20T12:56:43Z</time>
      </trkpt>
      <trkpt lat="45.9372" lon="4.76409">
        <ele>169</ele>
        <time>2018-04-20T12:56:45Z</time>
      </trkpt>
      <trkpt lat="45.93719" lon="4.76404">
        <ele>169</ele>
        <time>2018-04-20T12:56:46Z</time>
      </trkpt>
      <trkpt lat="45.93715" lon="4.76393">
        <ele>169</ele>
        <time>2018-04-20T12:56:48Z</time>
      </trkpt>
      <trkpt lat="45.93713" lon="4.76388">
        <ele>169</ele>
        <time>2018-04-20T12:56:49Z</time>
      </trkpt>
      <trkpt lat="45.9371" lon="4.76378">
        <ele>169</ele>
        <time>2018-04-20T12:56:51Z</time>
      </trkpt>
      <trkpt lat="45.93709" lon="4.76375">
        <ele>169</ele>
        <time>2018-04-20T12:56:52Z</time>
      </trkpt>
      <trkpt lat="45.93706" lon="4.76365">
        <ele>169</ele>
        <time>2018-04-20T12:56:55Z</time>
      </trkpt>
      <trkpt lat="45.93704" lon="4.76362">
        <ele>169</ele>
        <time>2018-04-20T12:56:56Z</time>
      </trkpt>
      <trkpt lat="45.93703" lon="4.76358">
        <ele>169</ele>
        <time>2018-04-20T12:56:57Z</time>
      </trkpt>
      <trkpt lat="45.93699" lon="4.76346">
        <ele>169</ele>
        <time>2018-04-20T12:56:58Z</time>
      </trkpt>
      <trkpt lat="45.93696" lon="4.76336">
        <ele>169</ele>
        <time>2018-04-20T12:57:00Z</time>
      </trkpt>
      <trkpt lat="45.93694" lon="4.76331">
        <ele>170</ele>
        <time>2018-04-20T12:57:01Z</time>
      </trkpt>
      <trkpt lat="45.9369" lon="4.7632">
        <ele>170</ele>
        <time>2018-04-20T12:57:05Z</time>
      </trkpt>
      <trkpt lat="45.93689" lon="4.76317">
        <ele>170</ele>
        <time>2018-04-20T12:57:06Z</time>
      </trkpt>
      <trkpt lat="45.93684" lon="4.76307">
        <ele>170</ele>
        <time>2018-04-20T12:57:10Z</time>
      </trkpt>
      <trkpt lat="45.93679" lon="4.76297">
        <ele>170</ele>
        <time>2018-04-20T12:57:11Z</time>
      </trkpt>
      <trkpt lat="45.93676" lon="4.76286">
        <ele>170</ele>
        <time>2018-04-20T12:57:13Z</time>
      </trkpt>
      <trkpt lat="45.93675" lon="4.76279">
        <ele>170</ele>
        <time>2018-04-20T12:57:14Z</time>
      </trkpt>
      <trkpt lat="45.93673" lon="4.76271">
        <ele>170</ele>
        <time>2018-04-20T12:57:16Z</time>
      </trkpt>
      <trkpt lat="45.93671" lon="4.76263">
        <ele>170</ele>
        <time>2018-04-20T12:57:17Z</time>
      </trkpt>
      <trkpt lat="45.93668" lon="4.76255">
        <ele>170</ele>
        <time>2018-04-20T12:57:20Z</time>
      </trkpt>
      <trkpt lat="45.93665" lon="4.76244">
        <ele>170</ele>
        <time>2018-04-20T12:57:21Z</time>
      </trkpt>
      <trkpt lat="45.93662" lon="4.76237">
        <ele>169</ele>
        <time>2018-04-20T12:57:23Z</time>
      </trkpt>
      <trkpt lat="45.93661" lon="4.76229">
        <ele>169</ele>
        <time>2018-04-20T12:57:24Z</time>
      </trkpt>
      <trkpt lat="45.93656" lon="4.76221">
        <ele>169</ele>
        <time>2018-04-20T12:57:27Z</time>
      </trkpt>
      <trkpt lat="45.93655" lon="4.76218">
        <ele>169</ele>
        <time>2018-04-20T12:57:28Z</time>
      </trkpt>
      <trkpt lat="45.93651" lon="4.76208">
        <ele>169</ele>
        <time>2018-04-20T12:57:29Z</time>
      </trkpt>
      <trkpt lat="45.9365" lon="4.76203">
        <ele>169</ele>
        <time>2018-04-20T12:57:30Z</time>
      </trkpt>
      <trkpt lat="45.93647" lon="4.76191">
        <ele>169</ele>
        <time>2018-04-20T12:57:32Z</time>
      </trkpt>
      <trkpt lat="45.93647" lon="4.76189">
        <ele>170</ele>
        <time>2018-04-20T12:57:33Z</time>
      </trkpt>
      <trkpt lat="45.93644" lon="4.76179">
        <ele>170</ele>
        <time>2018-04-20T12:57:35Z</time>
      </trkpt>
      <trkpt lat="45.93643" lon="4.76176">
        <ele>170</ele>
        <time>2018-04-20T12:57:36Z</time>
      </trkpt>
      <trkpt lat="45.93638" lon="4.76167">
        <ele>169</ele>
        <time>2018-04-20T12:57:39Z</time>
      </trkpt>
      <trkpt lat="45.9363" lon="4.76153">
        <ele>170</ele>
        <time>2018-04-20T12:57:40Z</time>
      </trkpt>
      <trkpt lat="45.93627" lon="4.76142">
        <ele>169</ele>
        <time>2018-04-20T12:57:42Z</time>
      </trkpt>
      <trkpt lat="45.93626" lon="4.76135">
        <ele>169</ele>
        <time>2018-04-20T12:57:43Z</time>
      </trkpt>
      <trkpt lat="45.93623" lon="4.76125">
        <ele>169</ele>
        <time>2018-04-20T12:57:47Z</time>
      </trkpt>
      <trkpt lat="45.93619" lon="4.76115">
        <ele>169</ele>
        <time>2018-04-20T12:57:48Z</time>
      </trkpt>
      <trkpt lat="45.93615" lon="4.76108">
        <ele>170</ele>
        <time>2018-04-20T12:57:50Z</time>
      </trkpt>
      <trkpt lat="45.93612" lon="4.761">
        <ele>170</ele>
        <time>2018-04-20T12:57:51Z</time>
      </trkpt>
      <trkpt lat="45.9361" lon="4.76089">
        <ele>170</ele>
        <time>2018-04-20T12:57:53Z</time>
      </trkpt>
      <trkpt lat="45.93609" lon="4.76087">
        <ele>170</ele>
        <time>2018-04-20T12:57:54Z</time>
      </trkpt>
      <trkpt lat="45.93608" lon="4.76077">
        <ele>170</ele>
        <time>2018-04-20T12:57:56Z</time>
      </trkpt>
      <trkpt lat="45.93606" lon="4.76068">
        <ele>170</ele>
        <time>2018-04-20T12:57:57Z</time>
      </trkpt>
      <trkpt lat="45.93603" lon="4.7606">
        <ele>170</ele>
        <time>2018-04-20T12:57:59Z</time>
      </trkpt>
      <trkpt lat="45.936" lon="4.76053">
        <ele>170</ele>
        <time>2018-04-20T12:58:00Z</time>
      </trkpt>
      <trkpt lat="45.93597" lon="4.76042">
        <ele>170</ele>
        <time>2018-04-20T12:58:02Z</time>
      </trkpt>
      <trkpt lat="45.93596" lon="4.7604">
        <ele>170</ele>
        <time>2018-04-20T12:58:03Z</time>
      </trkpt>
      <trkpt lat="45.93592" lon="4.76033">
        <ele>170</ele>
        <time>2018-04-20T12:58:06Z</time>
      </trkpt>
      <trkpt lat="45.9359" lon="4.7603">
        <ele>170</ele>
        <time>2018-04-20T12:58:07Z</time>
      </trkpt>
      <trkpt lat="45.93589" lon="4.76026">
        <ele>171</ele>
        <time>2018-04-20T12:58:08Z</time>
      </trkpt>
      <trkpt lat="45.93585" lon="4.76013">
        <ele>171</ele>
        <time>2018-04-20T12:58:09Z</time>
      </trkpt>
      <trkpt lat="45.93583" lon="4.76007">
        <ele>171</ele>
        <time>2018-04-20T12:58:10Z</time>
      </trkpt>
      <trkpt lat="45.93582" lon="4.76001">
        <ele>172</ele>
        <time>2018-04-20T12:58:11Z</time>
      </trkpt>
      <trkpt lat="45.93579" lon="4.75991">
        <ele>171</ele>
        <time>2018-04-20T12:58:14Z</time>
      </trkpt>
      <trkpt lat="45.93577" lon="4.75986">
        <ele>170</ele>
        <time>2018-04-20T12:58:15Z</time>
      </trkpt>
      <trkpt lat="45.93575" lon="4.75978">
        <ele>170</ele>
        <time>2018-04-20T12:58:17Z</time>
      </trkpt>
      <trkpt lat="45.93574" lon="4.75973">
        <ele>170</ele>
        <time>2018-04-20T12:58:18Z</time>
      </trkpt>
      <trkpt lat="45.93572" lon="4.75964">
        <ele>169</ele>
        <time>2018-04-20T12:58:20Z</time>
      </trkpt>
      <trkpt lat="45.93571" lon="4.75959">
        <ele>169</ele>
        <time>2018-04-20T12:58:21Z</time>
      </trkpt>
      <trkpt lat="45.9357" lon="4.7595">
        <ele>169</ele>
        <time>2018-04-20T12:58:23Z</time>
      </trkpt>
      <trkpt lat="45.93567" lon="4.75936">
        <ele>169</ele>
        <time>2018-04-20T12:58:24Z</time>
      </trkpt>
      <trkpt lat="45.93563" lon="4.75925">
        <ele>169</ele>
        <time>2018-04-20T12:58:26Z</time>
      </trkpt>
      <trkpt lat="45.93561" lon="4.75919">
        <ele>169</ele>
        <time>2018-04-20T12:58:27Z</time>
      </trkpt>
      <trkpt lat="45.93559" lon="4.75909">
        <ele>169</ele>
        <time>2018-04-20T12:58:30Z</time>
      </trkpt>
      <trkpt lat="45.93558" lon="4.75905">
        <ele>169</ele>
        <time>2018-04-20T12:58:31Z</time>
      </trkpt>
      <trkpt lat="45.93556" lon="4.75894">
        <ele>169</ele>
        <time>2018-04-20T12:58:34Z</time>
      </trkpt>
      <trkpt lat="45.93555" lon="4.75889">
        <ele>169</ele>
        <time>2018-04-20T12:58:35Z</time>
      </trkpt>
      <trkpt lat="45.93554" lon="4.7588">
        <ele>169</ele>
        <time>2018-04-20T12:58:37Z</time>
      </trkpt>
      <trkpt lat="45.93553" lon="4.75875">
        <ele>169</ele>
        <time>2018-04-20T12:58:38Z</time>
      </trkpt>
      <trkpt lat="45.93551" lon="4.75859">
        <ele>169</ele>
        <time>2018-04-20T12:58:39Z</time>
      </trkpt>
      <trkpt lat="45.9355" lon="4.7585">
        <ele>169</ele>
        <time>2018-04-20T12:58:42Z</time>
      </trkpt>
      <trkpt lat="45.93549" lon="4.75839">
        <ele>169</ele>
        <time>2018-04-20T12:58:43Z</time>
      </trkpt>
      <trkpt lat="45.93548" lon="4.75828">
        <ele>170</ele>
        <time>2018-04-20T12:58:46Z</time>
      </trkpt>
      <trkpt lat="45.93548" lon="4.75824">
        <ele>170</ele>
        <time>2018-04-20T12:58:47Z</time>
      </trkpt>
      <trkpt lat="45.93546" lon="4.75814">
        <ele>170</ele>
        <time>2018-04-20T12:58:49Z</time>
      </trkpt>
      <trkpt lat="45.93546" lon="4.75809">
        <ele>170</ele>
        <time>2018-04-20T12:58:50Z</time>
      </trkpt>
      <trkpt lat="45.93546" lon="4.75798">
        <ele>170</ele>
        <time>2018-04-20T12:58:52Z</time>
      </trkpt>
      <trkpt lat="45.93546" lon="4.75793">
        <ele>170</ele>
        <time>2018-04-20T12:58:53Z</time>
      </trkpt>
      <trkpt lat="45.93547" lon="4.75783">
        <ele>170</ele>
        <time>2018-04-20T12:58:55Z</time>
      </trkpt>
      <trkpt lat="45.93547" lon="4.75777">
        <ele>170</ele>
        <time>2018-04-20T12:58:56Z</time>
      </trkpt>
      <trkpt lat="45.93548" lon="4.75768">
        <ele>170</ele>
        <time>2018-04-20T12:58:58Z</time>
      </trkpt>
      <trkpt lat="45.93548" lon="4.75762">
        <ele>170</ele>
        <time>2018-04-20T12:58:59Z</time>
      </trkpt>
      <trkpt lat="45.93549" lon="4.75752">
        <ele>170</ele>
        <time>2018-04-20T12:59:01Z</time>
      </trkpt>
      <trkpt lat="45.9355" lon="4.75746">
        <ele>171</ele>
        <time>2018-04-20T12:59:02Z</time>
      </trkpt>
      <trkpt lat="45.93553" lon="4.75728">
        <ele>171</ele>
        <time>2018-04-20T12:59:03Z</time>
      </trkpt>
      <trkpt lat="45.93554" lon="4.75721">
        <ele>171</ele>
        <time>2018-04-20T12:59:04Z</time>
      </trkpt>
      <trkpt lat="45.93554" lon="4.75698">
        <ele>171</ele>
        <time>2018-04-20T12:59:05Z</time>
      </trkpt>
      <trkpt lat="45.93554" lon="4.75694">
        <ele>171</ele>
        <time>2018-04-20T12:59:06Z</time>
      </trkpt>
      <trkpt lat="45.93555" lon="4.75684">
        <ele>171</ele>
        <time>2018-04-20T12:59:07Z</time>
      </trkpt>
      <trkpt lat="45.93556" lon="4.75677">
        <ele>171</ele>
        <time>2018-04-20T12:59:08Z</time>
      </trkpt>
      <trkpt lat="45.93558" lon="4.7567">
        <ele>171</ele>
        <time>2018-04-20T12:59:09Z</time>
      </trkpt>
      <trkpt lat="45.93557" lon="4.75663">
        <ele>171</ele>
        <time>2018-04-20T12:59:11Z</time>
      </trkpt>
      <trkpt lat="45.93557" lon="4.75652">
        <ele>171</ele>
        <time>2018-04-20T12:59:12Z</time>
      </trkpt>
      <trkpt lat="45.93558" lon="4.75639">
        <ele>170</ele>
        <time>2018-04-20T12:59:15Z</time>
      </trkpt>
      <trkpt lat="45.93558" lon="4.75636">
        <ele>170</ele>
        <time>2018-04-20T12:59:16Z</time>
      </trkpt>
      <trkpt lat="45.93559" lon="4.75627">
        <ele>170</ele>
        <time>2018-04-20T12:59:19Z</time>
      </trkpt>
      <trkpt lat="45.93559" lon="4.75623">
        <ele>170</ele>
        <time>2018-04-20T12:59:20Z</time>
      </trkpt>
      <trkpt lat="45.9356" lon="4.75618">
        <ele>170</ele>
        <time>2018-04-20T12:59:21Z</time>
      </trkpt>
      <trkpt lat="45.93562" lon="4.75604">
        <ele>170</ele>
        <time>2018-04-20T12:59:22Z</time>
      </trkpt>
      <trkpt lat="45.93563" lon="4.75592">
        <ele>170</ele>
        <time>2018-04-20T12:59:24Z</time>
      </trkpt>
      <trkpt lat="45.93563" lon="4.75589">
        <ele>170</ele>
        <time>2018-04-20T12:59:25Z</time>
      </trkpt>
      <trkpt lat="45.93565" lon="4.75578">
        <ele>170</ele>
        <time>2018-04-20T12:59:28Z</time>
      </trkpt>
      <trkpt lat="45.93566" lon="4.75575">
        <ele>170</ele>
        <time>2018-04-20T12:59:29Z</time>
      </trkpt>
      <trkpt lat="45.93568" lon="4.75562">
        <ele>170</ele>
        <time>2018-04-20T12:59:37Z</time>
      </trkpt>
      <trkpt lat="45.93568" lon="4.75562">
        <ele>170</ele>
        <time>2018-04-20T12:59:38Z</time>
      </trkpt>
      <trkpt lat="45.93568" lon="4.7555">
        <ele>169</ele>
        <time>2018-04-20T13:01:11Z</time>
      </trkpt>
      <trkpt lat="45.93568" lon="4.75548">
        <ele>169</ele>
        <time>2018-04-20T13:01:12Z</time>
      </trkpt>
      <trkpt lat="45.93568" lon="4.75535">
        <ele>169</ele>
        <time>2018-04-20T13:02:38Z</time>
      </trkpt>
      <trkpt lat="45.93568" lon="4.75535">
        <ele>169</ele>
        <time>2018-04-20T13:02:39Z</time>
      </trkpt>
      <trkpt lat="45.93571" lon="4.75523">
        <ele>169</ele>
        <time>2018-04-20T13:06:41Z</time>
      </trkpt>
      <trkpt lat="45.93572" lon="4.7552">
        <ele>169</ele>
        <time>2018-04-20T13:06:42Z</time>
      </trkpt>
      <trkpt lat="45.93574" lon="4.75511">
        <ele>169</ele>
        <time>2018-04-20T13:06:45Z</time>
      </trkpt>
      <trkpt lat="45.93575" lon="4.75508">
        <ele>169</ele>
        <time>2018-04-20T13:06:46Z</time>
      </trkpt>
      <trkpt lat="45.93577" lon="4.75496">
        <ele>169</ele>
        <time>2018-04-20T13:06:49Z</time>
      </trkpt>
      <trkpt lat="45.93577" lon="4.75492">
        <ele>169</ele>
        <time>2018-04-20T13:06:50Z</time>
      </trkpt>
      <trkpt lat="45.93579" lon="4.75479">
        <ele>169</ele>
        <time>2018-04-20T13:06:51Z</time>
      </trkpt>
      <trkpt lat="45.93581" lon="4.75468">
        <ele>168</ele>
        <time>2018-04-20T13:06:53Z</time>
      </trkpt>
      <trkpt lat="45.93582" lon="4.75462">
        <ele>168</ele>
        <time>2018-04-20T13:06:54Z</time>
      </trkpt>
      <trkpt lat="45.93584" lon="4.7545">
        <ele>169</ele>
        <time>2018-04-20T13:06:56Z</time>
      </trkpt>
      <trkpt lat="45.93584" lon="4.75447">
        <ele>169</ele>
        <time>2018-04-20T13:06:57Z</time>
      </trkpt>
      <trkpt lat="45.93586" lon="4.75436">
        <ele>169</ele>
        <time>2018-04-20T13:06:59Z</time>
      </trkpt>
      <trkpt lat="45.93587" lon="4.75433">
        <ele>169</ele>
        <time>2018-04-20T13:07:00Z</time>
      </trkpt>
      <trkpt lat="45.93589" lon="4.75422">
        <ele>168</ele>
        <time>2018-04-20T13:07:03Z</time>
      </trkpt>
      <trkpt lat="45.9359" lon="4.75417">
        <ele>168</ele>
        <time>2018-04-20T13:07:04Z</time>
      </trkpt>
      <trkpt lat="45.93593" lon="4.75405">
        <ele>168</ele>
        <time>2018-04-20T13:07:07Z</time>
      </trkpt>
      <trkpt lat="45.93593" lon="4.75401">
        <ele>169</ele>
        <time>2018-04-20T13:07:08Z</time>
      </trkpt>
      <trkpt lat="45.93594" lon="4.75392">
        <ele>169</ele>
        <time>2018-04-20T13:07:10Z</time>
      </trkpt>
      <trkpt lat="45.93594" lon="4.75388">
        <ele>169</ele>
        <time>2018-04-20T13:07:11Z</time>
      </trkpt>
      <trkpt lat="45.93596" lon="4.75378">
        <ele>169</ele>
        <time>2018-04-20T13:07:13Z</time>
      </trkpt>
      <trkpt lat="45.93596" lon="4.75373">
        <ele>169</ele>
        <time>2018-04-20T13:07:14Z</time>
      </trkpt>
      <trkpt lat="45.936" lon="4.75358">
        <ele>169</ele>
        <time>2018-04-20T13:07:15Z</time>
      </trkpt>
      <trkpt lat="45.93602" lon="4.75345">
        <ele>169</ele>
        <time>2018-04-20T13:07:16Z</time>
      </trkpt>
      <trkpt lat="45.93604" lon="4.75332">
        <ele>169</ele>
        <time>2018-04-20T13:07:20Z</time>
      </trkpt>
      <trkpt lat="45.93604" lon="4.75328">
        <ele>169</ele>
        <time>2018-04-20T13:07:21Z</time>
      </trkpt>
      <trkpt lat="45.93605" lon="4.75318">
        <ele>169</ele>
        <time>2018-04-20T13:07:23Z</time>
      </trkpt>
      <trkpt lat="45.93605" lon="4.75312">
        <ele>169</ele>
        <time>2018-04-20T13:07:24Z</time>
      </trkpt>
      <trkpt lat="45.93607" lon="4.75296">
        <ele>168</ele>
        <time>2018-04-20T13:07:25Z</time>
      </trkpt>
      <trkpt lat="45.93609" lon="4.75286">
        <ele>168</ele>
        <time>2018-04-20T13:07:28Z</time>
      </trkpt>
      <trkpt lat="45.9361" lon="4.75283">
        <ele>168</ele>
        <time>2018-04-20T13:07:29Z</time>
      </trkpt>
      <trkpt lat="45.93613" lon="4.75273">
        <ele>168</ele>
        <time>2018-04-20T13:07:32Z</time>
      </trkpt>
      <trkpt lat="45.93614" lon="4.75269">
        <ele>168</ele>
        <time>2018-04-20T13:07:33Z</time>
      </trkpt>
      <trkpt lat="45.93615" lon="4.75265">
        <ele>168</ele>
        <time>2018-04-20T13:07:34Z</time>
      </trkpt>
      <trkpt lat="45.93619" lon="4.75252">
        <ele>168</ele>
        <time>2018-04-20T13:07:35Z</time>
      </trkpt>
      <trkpt lat="45.9362" lon="4.75245">
        <ele>167</ele>
        <time>2018-04-20T13:07:36Z</time>
      </trkpt>
      <trkpt lat="45.93622" lon="4.75239">
        <ele>167</ele>
        <time>2018-04-20T13:07:37Z</time>
      </trkpt>
      <trkpt lat="45.93626" lon="4.75227">
        <ele>167</ele>
        <time>2018-04-20T13:07:38Z</time>
      </trkpt>
      <trkpt lat="45.93628" lon="4.75218">
        <ele>167</ele>
        <time>2018-04-20T13:07:39Z</time>
      </trkpt>
      <trkpt lat="45.93629" lon="4.75212">
        <ele>168</ele>
        <time>2018-04-20T13:07:40Z</time>
      </trkpt>
      <trkpt lat="45.93631" lon="4.75204">
        <ele>168</ele>
        <time>2018-04-20T13:07:41Z</time>
      </trkpt>
      <trkpt lat="45.93632" lon="4.75199">
        <ele>168</ele>
        <time>2018-04-20T13:07:42Z</time>
      </trkpt>
      <trkpt lat="45.93636" lon="4.75187">
        <ele>168</ele>
        <time>2018-04-20T13:07:44Z</time>
      </trkpt>
      <trkpt lat="45.93638" lon="4.75183">
        <ele>168</ele>
        <time>2018-04-20T13:07:45Z</time>
      </trkpt>
      <trkpt lat="45.93641" lon="4.75176">
        <ele>168</ele>
        <time>2018-04-20T13:07:47Z</time>
      </trkpt>
      <trkpt lat="45.93644" lon="4.75169">
        <ele>168</ele>
        <time>2018-04-20T13:07:48Z</time>
      </trkpt>
      <trkpt lat="45.93648" lon="4.75159">
        <ele>168</ele>
        <time>2018-04-20T13:07:50Z</time>
      </trkpt>
      <trkpt lat="45.93649" lon="4.75157">
        <ele>168</ele>
        <time>2018-04-20T13:07:51Z</time>
      </trkpt>
      <trkpt lat="45.93652" lon="4.7515">
        <ele>168</ele>
        <time>2018-04-20T13:07:52Z</time>
      </trkpt>
      <trkpt lat="45.93655" lon="4.75146">
        <ele>168</ele>
        <time>2018-04-20T13:07:53Z</time>
      </trkpt>
      <trkpt lat="45.93657" lon="4.7514">
        <ele>168</ele>
        <time>2018-04-20T13:07:54Z</time>
      </trkpt>
      <trkpt lat="45.9366" lon="4.75135">
        <ele>168</ele>
        <time>2018-04-20T13:07:55Z</time>
      </trkpt>
      <trkpt lat="45.93664" lon="4.75126">
        <ele>168</ele>
        <time>2018-04-20T13:07:57Z</time>
      </trkpt>
      <trkpt lat="45.93665" lon="4.75123">
        <ele>168</ele>
        <time>2018-04-20T13:07:58Z</time>
      </trkpt>
      <trkpt lat="45.93669" lon="4.75112">
        <ele>168</ele>
        <time>2018-04-20T13:08:00Z</time>
      </trkpt>
      <trkpt lat="45.93672" lon="4.75105">
        <ele>168</ele>
        <time>2018-04-20T13:08:01Z</time>
      </trkpt>
      <trkpt lat="45.93673" lon="4.75103">
        <ele>168</ele>
        <time>2018-04-20T13:08:02Z</time>
      </trkpt>
      <trkpt lat="45.93678" lon="4.7509">
        <ele>168</ele>
        <time>2018-04-20T13:08:03Z</time>
      </trkpt>
      <trkpt lat="45.93681" lon="4.75084">
        <ele>168</ele>
        <time>2018-04-20T13:08:04Z</time>
      </trkpt>
      <trkpt lat="45.93684" lon="4.75076">
        <ele>167</ele>
        <time>2018-04-20T13:08:05Z</time>
      </trkpt>
      <trkpt lat="45.93687" lon="4.7507">
        <ele>167</ele>
        <time>2018-04-20T13:08:06Z</time>
      </trkpt>
      <trkpt lat="45.9369" lon="4.75064">
        <ele>167</ele>
        <time>2018-04-20T13:08:07Z</time>
      </trkpt>
      <trkpt lat="45.9369" lon="4.75052">
        <ele>167</ele>
        <time>2018-04-20T13:08:09Z</time>
      </trkpt>
      <trkpt lat="45.93695" lon="4.75044">
        <ele>167</ele>
        <time>2018-04-20T13:08:10Z</time>
      </trkpt>
      <trkpt lat="45.937" lon="4.75035">
        <ele>167</ele>
        <time>2018-04-20T13:08:12Z</time>
      </trkpt>
      <trkpt lat="45.93704" lon="4.75031">
        <ele>167</ele>
        <time>2018-04-20T13:08:13Z</time>
      </trkpt>
      <trkpt lat="45.93708" lon="4.75027">
        <ele>167</ele>
        <time>2018-04-20T13:08:14Z</time>
      </trkpt>
      <trkpt lat="45.93708" lon="4.75019">
        <ele>167</ele>
        <time>2018-04-20T13:08:15Z</time>
      </trkpt>
      <trkpt lat="45.93712" lon="4.75014">
        <ele>167</ele>
        <time>2018-04-20T13:08:16Z</time>
      </trkpt>
      <trkpt lat="45.93715" lon="4.75008">
        <ele>167</ele>
        <time>2018-04-20T13:08:17Z</time>
      </trkpt>
      <trkpt lat="45.93717" lon="4.75004">
        <ele>168</ele>
        <time>2018-04-20T13:08:19Z</time>
      </trkpt>
      <trkpt lat="45.93722" lon="4.74995">
        <ele>168</ele>
        <time>2018-04-20T13:08:20Z</time>
      </trkpt>
      <trkpt lat="45.93724" lon="4.74989">
        <ele>168</ele>
        <time>2018-04-20T13:08:21Z</time>
      </trkpt>
      <trkpt lat="45.93726" lon="4.74982">
        <ele>168</ele>
        <time>2018-04-20T13:08:22Z</time>
      </trkpt>
      <trkpt lat="45.9373" lon="4.74974">
        <ele>168</ele>
        <time>2018-04-20T13:08:24Z</time>
      </trkpt>
      <trkpt lat="45.93732" lon="4.74972">
        <ele>168</ele>
        <time>2018-04-20T13:08:25Z</time>
      </trkpt>
      <trkpt lat="45.93735" lon="4.74962">
        <ele>169</ele>
        <time>2018-04-20T13:08:26Z</time>
      </trkpt>
      <trkpt lat="45.93738" lon="4.74958">
        <ele>169</ele>
        <time>2018-04-20T13:08:27Z</time>
      </trkpt>
      <trkpt lat="45.93742" lon="4.74948">
        <ele>169</ele>
        <time>2018-04-20T13:08:29Z</time>
      </trkpt>
      <trkpt lat="45.93744" lon="4.74943">
        <ele>169</ele>
        <time>2018-04-20T13:08:30Z</time>
      </trkpt>
      <trkpt lat="45.93747" lon="4.74935">
        <ele>169</ele>
        <time>2018-04-20T13:08:32Z</time>
      </trkpt>
      <trkpt lat="45.9375" lon="4.74928">
        <ele>170</ele>
        <time>2018-04-20T13:08:33Z</time>
      </trkpt>
      <trkpt lat="45.93753" lon="4.74916">
        <ele>171</ele>
        <time>2018-04-20T13:08:35Z</time>
      </trkpt>
      <trkpt lat="45.93756" lon="4.7491">
        <ele>170</ele>
        <time>2018-04-20T13:08:36Z</time>
      </trkpt>
      <trkpt lat="45.93762" lon="4.74901">
        <ele>170</ele>
        <time>2018-04-20T13:08:38Z</time>
      </trkpt>
      <trkpt lat="45.93764" lon="4.74896">
        <ele>169</ele>
        <time>2018-04-20T13:08:39Z</time>
      </trkpt>
      <trkpt lat="45.93768" lon="4.74889">
        <ele>169</ele>
        <time>2018-04-20T13:08:40Z</time>
      </trkpt>
      <trkpt lat="45.93771" lon="4.74884">
        <ele>169</ele>
        <time>2018-04-20T13:08:41Z</time>
      </trkpt>
      <trkpt lat="45.93777" lon="4.74876">
        <ele>169</ele>
        <time>2018-04-20T13:08:43Z</time>
      </trkpt>
      <trkpt lat="45.93779" lon="4.74872">
        <ele>168</ele>
        <time>2018-04-20T13:08:44Z</time>
      </trkpt>
      <trkpt lat="45.93785" lon="4.74864">
        <ele>168</ele>
        <time>2018-04-20T13:08:46Z</time>
      </trkpt>
      <trkpt lat="45.93788" lon="4.7486">
        <ele>168</ele>
        <time>2018-04-20T13:08:47Z</time>
      </trkpt>
      <trkpt lat="45.93794" lon="4.74853">
        <ele>168</ele>
        <time>2018-04-20T13:08:49Z</time>
      </trkpt>
      <trkpt lat="45.93796" lon="4.74851">
        <ele>168</ele>
        <time>2018-04-20T13:08:50Z</time>
      </trkpt>
      <trkpt lat="45.93801" lon="4.74845">
        <ele>168</ele>
        <time>2018-04-20T13:08:53Z</time>
      </trkpt>
      <trkpt lat="45.93802" lon="4.74842">
        <ele>168</ele>
        <time>2018-04-20T13:08:54Z</time>
      </trkpt>
      <trkpt lat="45.93808" lon="4.74834">
        <ele>168</ele>
        <time>2018-04-20T13:08:57Z</time>
      </trkpt>
      <trkpt lat="45.93814" lon="4.74823">
        <ele>167</ele>
        <time>2018-04-20T13:08:58Z</time>
      </trkpt>
      <trkpt lat="45.93818" lon="4.74814">
        <ele>167</ele>
        <time>2018-04-20T13:09:00Z</time>
      </trkpt>
      <trkpt lat="45.93821" lon="4.74808">
        <ele>167</ele>
        <time>2018-04-20T13:09:01Z</time>
      </trkpt>
      <trkpt lat="45.93823" lon="4.74802">
        <ele>167</ele>
        <time>2018-04-20T13:09:02Z</time>
      </trkpt>
      <trkpt lat="45.93826" lon="4.74797">
        <ele>167</ele>
        <time>2018-04-20T13:09:03Z</time>
      </trkpt>
      <trkpt lat="45.9383" lon="4.74788">
        <ele>167</ele>
        <time>2018-04-20T13:09:06Z</time>
      </trkpt>
      <trkpt lat="45.93832" lon="4.74785">
        <ele>167</ele>
        <time>2018-04-20T13:09:07Z</time>
      </trkpt>
      <trkpt lat="45.93837" lon="4.74776">
        <ele>168</ele>
        <time>2018-04-20T13:09:09Z</time>
      </trkpt>
      <trkpt lat="45.93842" lon="4.74763">
        <ele>168</ele>
        <time>2018-04-20T13:09:10Z</time>
      </trkpt>
      <trkpt lat="45.93845" lon="4.74757">
        <ele>168</ele>
        <time>2018-04-20T13:09:11Z</time>
      </trkpt>
      <trkpt lat="45.93847" lon="4.74751">
        <ele>168</ele>
        <time>2018-04-20T13:09:12Z</time>
      </trkpt>
      <trkpt lat="45.9385" lon="4.74743">
        <ele>169</ele>
        <time>2018-04-20T13:09:14Z</time>
      </trkpt>
      <trkpt lat="45.93851" lon="4.74739">
        <ele>169</ele>
        <time>2018-04-20T13:09:15Z</time>
      </trkpt>
      <trkpt lat="45.93855" lon="4.7473">
        <ele>169</ele>
        <time>2018-04-20T13:09:16Z</time>
      </trkpt>
      <trkpt lat="45.93858" lon="4.74725">
        <ele>169</ele>
        <time>2018-04-20T13:09:17Z</time>
      </trkpt>
      <trkpt lat="45.93863" lon="4.74716">
        <ele>169</ele>
        <time>2018-04-20T13:09:19Z</time>
      </trkpt>
      <trkpt lat="45.93865" lon="4.74711">
        <ele>169</ele>
        <time>2018-04-20T13:09:20Z</time>
      </trkpt>
      <trkpt lat="45.93869" lon="4.74701">
        <ele>169</ele>
        <time>2018-04-20T13:09:22Z</time>
      </trkpt>
      <trkpt lat="45.9387" lon="4.74699">
        <ele>169</ele>
        <time>2018-04-20T13:09:23Z</time>
      </trkpt>
      <trkpt lat="45.93872" lon="4.74692">
        <ele>170</ele>
        <time>2018-04-20T13:09:25Z</time>
      </trkpt>
      <trkpt lat="45.93876" lon="4.74681">
        <ele>170</ele>
        <time>2018-04-20T13:09:26Z</time>
      </trkpt>
      <trkpt lat="45.9388" lon="4.7467">
        <ele>170</ele>
        <time>2018-04-20T13:09:28Z</time>
      </trkpt>
      <trkpt lat="45.93882" lon="4.74664">
        <ele>170</ele>
        <time>2018-04-20T13:09:29Z</time>
      </trkpt>
      <trkpt lat="45.93883" lon="4.74658">
        <ele>170</ele>
        <time>2018-04-20T13:09:30Z</time>
      </trkpt>
      <trkpt lat="45.93885" lon="4.7465">
        <ele>170</ele>
        <time>2018-04-20T13:09:31Z</time>
      </trkpt>
      <trkpt lat="45.93886" lon="4.74644">
        <ele>170</ele>
        <time>2018-04-20T13:09:32Z</time>
      </trkpt>
      <trkpt lat="45.93888" lon="4.74637">
        <ele>170</ele>
        <time>2018-04-20T13:09:33Z</time>
      </trkpt>
      <trkpt lat="45.9389" lon="4.74631">
        <ele>170</ele>
        <time>2018-04-20T13:09:34Z</time>
      </trkpt>
      <trkpt lat="45.93891" lon="4.74625">
        <ele>170</ele>
        <time>2018-04-20T13:09:35Z</time>
      </trkpt>
      <trkpt lat="45.93894" lon="4.74613">
        <ele>170</ele>
        <time>2018-04-20T13:09:37Z</time>
      </trkpt>
      <trkpt lat="45.93894" lon="4.7461">
        <ele>170</ele>
        <time>2018-04-20T13:09:38Z</time>
      </trkpt>
      <trkpt lat="45.93896" lon="4.74603">
        <ele>170</ele>
        <time>2018-04-20T13:09:39Z</time>
      </trkpt>
      <trkpt lat="45.93897" lon="4.74598">
        <ele>170</ele>
        <time>2018-04-20T13:09:40Z</time>
      </trkpt>
      <trkpt lat="45.93899" lon="4.74586">
        <ele>170</ele>
        <time>2018-04-20T13:09:42Z</time>
      </trkpt>
      <trkpt lat="45.939" lon="4.7458">
        <ele>170</ele>
        <time>2018-04-20T13:09:43Z</time>
      </trkpt>
      <trkpt lat="45.939" lon="4.74574">
        <ele>170</ele>
        <time>2018-04-20T13:09:44Z</time>
      </trkpt>
      <trkpt lat="45.93901" lon="4.74567">
        <ele>170</ele>
        <time>2018-04-20T13:09:45Z</time>
      </trkpt>
      <trkpt lat="45.93901" lon="4.74559">
        <ele>170</ele>
        <time>2018-04-20T13:09:46Z</time>
      </trkpt>
      <trkpt lat="45.93901" lon="4.74553">
        <ele>170</ele>
        <time>2018-04-20T13:09:47Z</time>
      </trkpt>
      <trkpt lat="45.93902" lon="4.74542">
        <ele>170</ele>
        <time>2018-04-20T13:09:49Z</time>
      </trkpt>
      <trkpt lat="45.93902" lon="4.74537">
        <ele>170</ele>
        <time>2018-04-20T13:09:50Z</time>
      </trkpt>
      <trkpt lat="45.93902" lon="4.74525">
        <ele>170</ele>
        <time>2018-04-20T13:09:52Z</time>
      </trkpt>
      <trkpt lat="45.93903" lon="4.74523">
        <ele>170</ele>
        <time>2018-04-20T13:09:53Z</time>
      </trkpt>
      <trkpt lat="45.93903" lon="4.74513">
        <ele>170</ele>
        <time>2018-04-20T13:09:54Z</time>
      </trkpt>
      <trkpt lat="45.93904" lon="4.74507">
        <ele>170</ele>
        <time>2018-04-20T13:09:55Z</time>
      </trkpt>
      <trkpt lat="45.93904" lon="4.74497">
        <ele>170</ele>
        <time>2018-04-20T13:09:57Z</time>
      </trkpt>
      <trkpt lat="45.93904" lon="4.74491">
        <ele>171</ele>
        <time>2018-04-20T13:09:58Z</time>
      </trkpt>
      <trkpt lat="45.93904" lon="4.7448">
        <ele>171</ele>
        <time>2018-04-20T13:10:00Z</time>
      </trkpt>
      <trkpt lat="45.93904" lon="4.74478">
        <ele>171</ele>
        <time>2018-04-20T13:10:01Z</time>
      </trkpt>
      <trkpt lat="45.93905" lon="4.74465">
        <ele>171</ele>
        <time>2018-04-20T13:10:03Z</time>
      </trkpt>
      <trkpt lat="45.93905" lon="4.74459">
        <ele>171</ele>
        <time>2018-04-20T13:10:04Z</time>
      </trkpt>
      <trkpt lat="45.93905" lon="4.74449">
        <ele>171</ele>
        <time>2018-04-20T13:10:06Z</time>
      </trkpt>
      <trkpt lat="45.93905" lon="4.74446">
        <ele>171</ele>
        <time>2018-04-20T13:10:07Z</time>
      </trkpt>
      <trkpt lat="45.93905" lon="4.74438">
        <ele>171</ele>
        <time>2018-04-20T13:10:08Z</time>
      </trkpt>
      <trkpt lat="45.93905" lon="4.74432">
        <ele>171</ele>
        <time>2018-04-20T13:10:09Z</time>
      </trkpt>
      <trkpt lat="45.93905" lon="4.74421">
        <ele>171</ele>
        <time>2018-04-20T13:10:11Z</time>
      </trkpt>
      <trkpt lat="45.93905" lon="4.74416">
        <ele>171</ele>
        <time>2018-04-20T13:10:12Z</time>
      </trkpt>
      <trkpt lat="45.93904" lon="4.74406">
        <ele>171</ele>
        <time>2018-04-20T13:10:15Z</time>
      </trkpt>
      <trkpt lat="45.93904" lon="4.74396">
        <ele>171</ele>
        <time>2018-04-20T13:10:16Z</time>
      </trkpt>
      <trkpt lat="45.93904" lon="4.74385">
        <ele>171</ele>
        <time>2018-04-20T13:10:18Z</time>
      </trkpt>
      <trkpt lat="45.93905" lon="4.74379">
        <ele>171</ele>
        <time>2018-04-20T13:10:19Z</time>
      </trkpt>
      <trkpt lat="45.93906" lon="4.74368">
        <ele>171</ele>
        <time>2018-04-20T13:10:21Z</time>
      </trkpt>
      <trkpt lat="45.93906" lon="4.74365">
        <ele>171</ele>
        <time>2018-04-20T13:10:22Z</time>
      </trkpt>
      <trkpt lat="45.93906" lon="4.74357">
        <ele>171</ele>
        <time>2018-04-20T13:10:23Z</time>
      </trkpt>
      <trkpt lat="45.93906" lon="4.74351">
        <ele>171</ele>
        <time>2018-04-20T13:10:24Z</time>
      </trkpt>
      <trkpt lat="45.93906" lon="4.7434">
        <ele>170</ele>
        <time>2018-04-20T13:10:26Z</time>
      </trkpt>
      <trkpt lat="45.93906" lon="4.74334">
        <ele>170</ele>
        <time>2018-04-20T13:10:27Z</time>
      </trkpt>
      <trkpt lat="45.93906" lon="4.74328">
        <ele>170</ele>
        <time>2018-04-20T13:10:29Z</time>
      </trkpt>
      <trkpt lat="45.93906" lon="4.74317">
        <ele>170</ele>
        <time>2018-04-20T13:10:30Z</time>
      </trkpt>
      <trkpt lat="45.93906" lon="4.74305">
        <ele>170</ele>
        <time>2018-04-20T13:10:32Z</time>
      </trkpt>
      <trkpt lat="45.93906" lon="4.74298">
        <ele>170</ele>
        <time>2018-04-20T13:10:33Z</time>
      </trkpt>
      <trkpt lat="45.93906" lon="4.74291">
        <ele>170</ele>
        <time>2018-04-20T13:10:34Z</time>
      </trkpt>
      <trkpt lat="45.93905" lon="4.74285">
        <ele>170</ele>
        <time>2018-04-20T13:10:35Z</time>
      </trkpt>
      <trkpt lat="45.93905" lon="4.74272">
        <ele>170</ele>
        <time>2018-04-20T13:10:38Z</time>
      </trkpt>
      <trkpt lat="45.93905" lon="4.74262">
        <ele>170</ele>
        <time>2018-04-20T13:10:39Z</time>
      </trkpt>
      <trkpt lat="45.93906" lon="4.74249">
        <ele>170</ele>
        <time>2018-04-20T13:10:41Z</time>
      </trkpt>
      <trkpt lat="45.93907" lon="4.74243">
        <ele>170</ele>
        <time>2018-04-20T13:10:42Z</time>
      </trkpt>
      <trkpt lat="45.93908" lon="4.7423">
        <ele>170</ele>
        <time>2018-04-20T13:10:44Z</time>
      </trkpt>
      <trkpt lat="45.93908" lon="4.74224">
        <ele>170</ele>
        <time>2018-04-20T13:10:45Z</time>
      </trkpt>
      <trkpt lat="45.93909" lon="4.74213">
        <ele>169</ele>
        <time>2018-04-20T13:10:47Z</time>
      </trkpt>
      <trkpt lat="45.93909" lon="4.74208">
        <ele>169</ele>
        <time>2018-04-20T13:10:48Z</time>
      </trkpt>
      <trkpt lat="45.9391" lon="4.74196">
        <ele>169</ele>
        <time>2018-04-20T13:10:50Z</time>
      </trkpt>
      <trkpt lat="45.93911" lon="4.74189">
        <ele>169</ele>
        <time>2018-04-20T13:10:51Z</time>
      </trkpt>
      <trkpt lat="45.93911" lon="4.74183">
        <ele>169</ele>
        <time>2018-04-20T13:10:52Z</time>
      </trkpt>
      <trkpt lat="45.93908" lon="4.74175">
        <ele>169</ele>
        <time>2018-04-20T13:10:53Z</time>
      </trkpt>
      <trkpt lat="45.93907" lon="4.74163">
        <ele>169</ele>
        <time>2018-04-20T13:10:55Z</time>
      </trkpt>
      <trkpt lat="45.93906" lon="4.74156">
        <ele>169</ele>
        <time>2018-04-20T13:10:56Z</time>
      </trkpt>
      <trkpt lat="45.93907" lon="4.74145">
        <ele>169</ele>
        <time>2018-04-20T13:10:58Z</time>
      </trkpt>
      <trkpt lat="45.93907" lon="4.74139">
        <ele>169</ele>
        <time>2018-04-20T13:10:59Z</time>
      </trkpt>
      <trkpt lat="45.93908" lon="4.74126">
        <ele>170</ele>
        <time>2018-04-20T13:11:01Z</time>
      </trkpt>
      <trkpt lat="45.93908" lon="4.74119">
        <ele>170</ele>
        <time>2018-04-20T13:11:02Z</time>
      </trkpt>
      <trkpt lat="45.93908" lon="4.74108">
        <ele>170</ele>
        <time>2018-04-20T13:11:04Z</time>
      </trkpt>
      <trkpt lat="45.93909" lon="4.74102">
        <ele>170</ele>
        <time>2018-04-20T13:11:05Z</time>
      </trkpt>
      <trkpt lat="45.93909" lon="4.74094">
        <ele>170</ele>
        <time>2018-04-20T13:11:07Z</time>
      </trkpt>
      <trkpt lat="45.93909" lon="4.74087">
        <ele>170</ele>
        <time>2018-04-20T13:11:08Z</time>
      </trkpt>
      <trkpt lat="45.9391" lon="4.74076">
        <ele>170</ele>
        <time>2018-04-20T13:11:10Z</time>
      </trkpt>
      <trkpt lat="45.9391" lon="4.7407">
        <ele>170</ele>
        <time>2018-04-20T13:11:11Z</time>
      </trkpt>
      <trkpt lat="45.9391" lon="4.74058">
        <ele>170</ele>
        <time>2018-04-20T13:11:13Z</time>
      </trkpt>
      <trkpt lat="45.93911" lon="4.74053">
        <ele>170</ele>
        <time>2018-04-20T13:11:14Z</time>
      </trkpt>
      <trkpt lat="45.93912" lon="4.74042">
        <ele>170</ele>
        <time>2018-04-20T13:11:16Z</time>
      </trkpt>
      <trkpt lat="45.93912" lon="4.74037">
        <ele>170</ele>
        <time>2018-04-20T13:11:17Z</time>
      </trkpt>
      <trkpt lat="45.93915" lon="4.74025">
        <ele>171</ele>
        <time>2018-04-20T13:11:19Z</time>
      </trkpt>
      <trkpt lat="45.93915" lon="4.74019">
        <ele>171</ele>
        <time>2018-04-20T13:11:20Z</time>
      </trkpt>
      <trkpt lat="45.93919" lon="4.74011">
        <ele>172</ele>
        <time>2018-04-20T13:11:23Z</time>
      </trkpt>
      <trkpt lat="45.9392" lon="4.74007">
        <ele>172</ele>
        <time>2018-04-20T13:11:24Z</time>
      </trkpt>
      <trkpt lat="45.93923" lon="4.73999">
        <ele>172</ele>
        <time>2018-04-20T13:11:26Z</time>
      </trkpt>
      <trkpt lat="45.93926" lon="4.73986">
        <ele>172</ele>
        <time>2018-04-20T13:11:27Z</time>
      </trkpt>
      <trkpt lat="45.93927" lon="4.73976">
        <ele>172</ele>
        <time>2018-04-20T13:11:29Z</time>
      </trkpt>
      <trkpt lat="45.93928" lon="4.73974">
        <ele>172</ele>
        <time>2018-04-20T13:11:30Z</time>
      </trkpt>
      <trkpt lat="45.9393" lon="4.73963">
        <ele>172</ele>
        <time>2018-04-20T13:11:33Z</time>
      </trkpt>
      <trkpt lat="45.93931" lon="4.7396">
        <ele>172</ele>
        <time>2018-04-20T13:11:34Z</time>
      </trkpt>
      <trkpt lat="45.93933" lon="4.73947">
        <ele>172</ele>
        <time>2018-04-20T13:11:35Z</time>
      </trkpt>
      <trkpt lat="45.93936" lon="4.73936">
        <ele>172</ele>
        <time>2018-04-20T13:11:37Z</time>
      </trkpt>
      <trkpt lat="45.93937" lon="4.73927">
        <ele>172</ele>
        <time>2018-04-20T13:11:38Z</time>
      </trkpt>
      <trkpt lat="45.9394" lon="4.73917">
        <ele>172</ele>
        <time>2018-04-20T13:11:40Z</time>
      </trkpt>
      <trkpt lat="45.9394" lon="4.7391">
        <ele>172</ele>
        <time>2018-04-20T13:11:41Z</time>
      </trkpt>
      <trkpt lat="45.9394" lon="4.73903">
        <ele>172</ele>
        <time>2018-04-20T13:11:42Z</time>
      </trkpt>
      <trkpt lat="45.9394" lon="4.73897">
        <ele>172</ele>
        <time>2018-04-20T13:11:43Z</time>
      </trkpt>
      <trkpt lat="45.93943" lon="4.73885">
        <ele>172</ele>
        <time>2018-04-20T13:11:45Z</time>
      </trkpt>
      <trkpt lat="45.93943" lon="4.7388">
        <ele>172</ele>
        <time>2018-04-20T13:11:46Z</time>
      </trkpt>
      <trkpt lat="45.93943" lon="4.73873">
        <ele>172</ele>
        <time>2018-04-20T13:11:47Z</time>
      </trkpt>
      <trkpt lat="45.93943" lon="4.73867">
        <ele>172</ele>
        <time>2018-04-20T13:11:48Z</time>
      </trkpt>
      <trkpt lat="45.93941" lon="4.73856">
        <ele>172</ele>
        <time>2018-04-20T13:11:50Z</time>
      </trkpt>
      <trkpt lat="45.93941" lon="4.73854">
        <ele>172</ele>
        <time>2018-04-20T13:11:51Z</time>
      </trkpt>
      <trkpt lat="45.93946" lon="4.73844">
        <ele>172</ele>
        <time>2018-04-20T13:11:52Z</time>
      </trkpt>
      <trkpt lat="45.93947" lon="4.73839">
        <ele>172</ele>
        <time>2018-04-20T13:11:53Z</time>
      </trkpt>
      <trkpt lat="45.93948" lon="4.73833">
        <ele>172</ele>
        <time>2018-04-20T13:11:54Z</time>
      </trkpt>
      <trkpt lat="45.93948" lon="4.73826">
        <ele>172</ele>
        <time>2018-04-20T13:11:55Z</time>
      </trkpt>
      <trkpt lat="45.9395" lon="4.73814">
        <ele>172</ele>
        <time>2018-04-20T13:11:57Z</time>
      </trkpt>
      <trkpt lat="45.9395" lon="4.73808">
        <ele>172</ele>
        <time>2018-04-20T13:11:58Z</time>
      </trkpt>
      <trkpt lat="45.93949" lon="4.73797">
        <ele>172</ele>
        <time>2018-04-20T13:12:00Z</time>
      </trkpt>
      <trkpt lat="45.93952" lon="4.73791">
        <ele>172</ele>
        <time>2018-04-20T13:12:01Z</time>
      </trkpt>
      <trkpt lat="45.93954" lon="4.73779">
        <ele>172</ele>
        <time>2018-04-20T13:12:03Z</time>
      </trkpt>
      <trkpt lat="45.93954" lon="4.73773">
        <ele>172</ele>
        <time>2018-04-20T13:12:04Z</time>
      </trkpt>
      <trkpt lat="45.93954" lon="4.73762">
        <ele>172</ele>
        <time>2018-04-20T13:12:07Z</time>
      </trkpt>
      <trkpt lat="45.93956" lon="4.73752">
        <ele>172</ele>
        <time>2018-04-20T13:12:08Z</time>
      </trkpt>
      <trkpt lat="45.93958" lon="4.73741">
        <ele>172</ele>
        <time>2018-04-20T13:12:10Z</time>
      </trkpt>
      <trkpt lat="45.93959" lon="4.73735">
        <ele>172</ele>
        <time>2018-04-20T13:12:11Z</time>
      </trkpt>
      <trkpt lat="45.93959" lon="4.73722">
        <ele>172</ele>
        <time>2018-04-20T13:12:13Z</time>
      </trkpt>
      <trkpt lat="45.9396" lon="4.7372">
        <ele>172</ele>
        <time>2018-04-20T13:12:14Z</time>
      </trkpt>
      <trkpt lat="45.93963" lon="4.73708">
        <ele>172</ele>
        <time>2018-04-20T13:12:16Z</time>
      </trkpt>
      <trkpt lat="45.93964" lon="4.73703">
        <ele>172</ele>
        <time>2018-04-20T13:12:17Z</time>
      </trkpt>
      <trkpt lat="45.93965" lon="4.73691">
        <ele>172</ele>
        <time>2018-04-20T13:12:19Z</time>
      </trkpt>
      <trkpt lat="45.93966" lon="4.73685">
        <ele>172</ele>
        <time>2018-04-20T13:12:20Z</time>
      </trkpt>
      <trkpt lat="45.93968" lon="4.73674">
        <ele>172</ele>
        <time>2018-04-20T13:12:22Z</time>
      </trkpt>
      <trkpt lat="45.93969" lon="4.73669">
        <ele>172</ele>
        <time>2018-04-20T13:12:23Z</time>
      </trkpt>
      <trkpt lat="45.9397" lon="4.73659">
        <ele>171</ele>
        <time>2018-04-20T13:12:25Z</time>
      </trkpt>
      <trkpt lat="45.93971" lon="4.73653">
        <ele>171</ele>
        <time>2018-04-20T13:12:26Z</time>
      </trkpt>
      <trkpt lat="45.93972" lon="4.73642">
        <ele>170</ele>
        <time>2018-04-20T13:12:28Z</time>
      </trkpt>
      <trkpt lat="45.93973" lon="4.7364">
        <ele>170</ele>
        <time>2018-04-20T13:12:29Z</time>
      </trkpt>
      <trkpt lat="45.93974" lon="4.73632">
        <ele>170</ele>
        <time>2018-04-20T13:12:30Z</time>
      </trkpt>
      <trkpt lat="45.93974" lon="4.73627">
        <ele>170</ele>
        <time>2018-04-20T13:12:31Z</time>
      </trkpt>
      <trkpt lat="45.93976" lon="4.73617">
        <ele>170</ele>
        <time>2018-04-20T13:12:34Z</time>
      </trkpt>
      <trkpt lat="45.93977" lon="4.73607">
        <ele>169</ele>
        <time>2018-04-20T13:12:35Z</time>
      </trkpt>
      <trkpt lat="45.93979" lon="4.73599">
        <ele>169</ele>
        <time>2018-04-20T13:12:37Z</time>
      </trkpt>
      <trkpt lat="45.93981" lon="4.73591">
        <ele>169</ele>
        <time>2018-04-20T13:12:38Z</time>
      </trkpt>
      <trkpt lat="45.93985" lon="4.7358">
        <ele>168</ele>
        <time>2018-04-20T13:12:40Z</time>
      </trkpt>
      <trkpt lat="45.93986" lon="4.73574">
        <ele>168</ele>
        <time>2018-04-20T13:12:41Z</time>
      </trkpt>
      <trkpt lat="45.9399" lon="4.73563">
        <ele>168</ele>
        <time>2018-04-20T13:12:43Z</time>
      </trkpt>
      <trkpt lat="45.93991" lon="4.73558">
        <ele>168</ele>
        <time>2018-04-20T13:12:44Z</time>
      </trkpt>
      <trkpt lat="45.93994" lon="4.73548">
        <ele>168</ele>
        <time>2018-04-20T13:12:46Z</time>
      </trkpt>
      <trkpt lat="45.93997" lon="4.73543">
        <ele>168</ele>
        <time>2018-04-20T13:12:47Z</time>
      </trkpt>
      <trkpt lat="45.94001" lon="4.73532">
        <ele>171</ele>
        <time>2018-04-20T13:12:49Z</time>
      </trkpt>
      <trkpt lat="45.94004" lon="4.73527">
        <ele>171</ele>
        <time>2018-04-20T13:12:50Z</time>
      </trkpt>
      <trkpt lat="45.94008" lon="4.73517">
        <ele>170</ele>
        <time>2018-04-20T13:12:53Z</time>
      </trkpt>
      <trkpt lat="45.94011" lon="4.73509">
        <ele>170</ele>
        <time>2018-04-20T13:12:54Z</time>
      </trkpt>
      <trkpt lat="45.94016" lon="4.73499">
        <ele>170</ele>
        <time>2018-04-20T13:12:56Z</time>
      </trkpt>
      <trkpt lat="45.94019" lon="4.73494">
        <ele>170</ele>
        <time>2018-04-20T13:12:57Z</time>
      </trkpt>
      <trkpt lat="45.94024" lon="4.73485">
        <ele>170</ele>
        <time>2018-04-20T13:12:59Z</time>
      </trkpt>
      <trkpt lat="45.94027" lon="4.73481">
        <ele>171</ele>
        <time>2018-04-20T13:13:00Z</time>
      </trkpt>
      <trkpt lat="45.9403" lon="4.73477">
        <ele>171</ele>
        <time>2018-04-20T13:13:02Z</time>
      </trkpt>
      <trkpt lat="45.94034" lon="4.7347">
        <ele>171</ele>
        <time>2018-04-20T13:13:03Z</time>
      </trkpt>
      <trkpt lat="45.94039" lon="4.73461">
        <ele>171</ele>
        <time>2018-04-20T13:13:05Z</time>
      </trkpt>
      <trkpt lat="45.94042" lon="4.73457">
        <ele>171</ele>
        <time>2018-04-20T13:13:06Z</time>
      </trkpt>
      <trkpt lat="45.94048" lon="4.73449">
        <ele>171</ele>
        <time>2018-04-20T13:13:08Z</time>
      </trkpt>
      <trkpt lat="45.94051" lon="4.73445">
        <ele>172</ele>
        <time>2018-04-20T13:13:09Z</time>
      </trkpt>
      <trkpt lat="45.94054" lon="4.7344">
        <ele>172</ele>
        <time>2018-04-20T13:13:10Z</time>
      </trkpt>
      <trkpt lat="45.94057" lon="4.73436">
        <ele>172</ele>
        <time>2018-04-20T13:13:11Z</time>
      </trkpt>
      <trkpt lat="45.9406" lon="4.73431">
        <ele>172</ele>
        <time>2018-04-20T13:13:12Z</time>
      </trkpt>
      <trkpt lat="45.94062" lon="4.73423">
        <ele>172</ele>
        <time>2018-04-20T13:13:13Z</time>
      </trkpt>
      <trkpt lat="45.94067" lon="4.73413">
        <ele>172</ele>
        <time>2018-04-20T13:13:15Z</time>
      </trkpt>
      <trkpt lat="45.9407" lon="4.7341">
        <ele>172</ele>
        <time>2018-04-20T13:13:16Z</time>
      </trkpt>
      <trkpt lat="45.94074" lon="4.734">
        <ele>171</ele>
        <time>2018-04-20T13:13:19Z</time>
      </trkpt>
      <trkpt lat="45.94075" lon="4.73398">
        <ele>171</ele>
        <time>2018-04-20T13:13:20Z</time>
      </trkpt>
      <trkpt lat="45.9408" lon="4.73389">
        <ele>171</ele>
        <time>2018-04-20T13:13:24Z</time>
      </trkpt>
      <trkpt lat="45.94081" lon="4.73386">
        <ele>171</ele>
        <time>2018-04-20T13:13:25Z</time>
      </trkpt>
      <trkpt lat="45.94083" lon="4.73379">
        <ele>171</ele>
        <time>2018-04-20T13:16:05Z</time>
      </trkpt>
      <trkpt lat="45.94083" lon="4.73379">
        <ele>171</ele>
        <time>2018-04-20T13:16:06Z</time>
      </trkpt>
      <trkpt lat="45.94087" lon="4.7338">
        <ele>174</ele>
        <time>2018-04-20T13:16:24Z</time>
      </trkpt>
      <trkpt lat="45.94087" lon="4.7338">
        <ele>174</ele>
        <time>2018-04-20T13:16:25Z</time>
      </trkpt>
      <trkpt lat="45.94092" lon="4.73372">
        <ele>173</ele>
        <time>2018-04-20T13:16:31Z</time>
      </trkpt>
      <trkpt lat="45.94093" lon="4.7337">
        <ele>173</ele>
        <time>2018-04-20T13:16:32Z</time>
      </trkpt>
      <trkpt lat="45.94095" lon="4.73367">
        <ele>173</ele>
        <time>2018-04-20T13:16:33Z</time>
      </trkpt>
      <trkpt lat="45.94102" lon="4.73358">
        <ele>173</ele>
        <time>2018-04-20T13:16:34Z</time>
      </trkpt>
      <trkpt lat="45.94109" lon="4.7335">
        <ele>173</ele>
        <time>2018-04-20T13:16:36Z</time>
      </trkpt>
      <trkpt lat="45.94111" lon="4.73348">
        <ele>173</ele>
        <time>2018-04-20T13:16:37Z</time>
      </trkpt>
      <trkpt lat="45.94117" lon="4.7334">
        <ele>173</ele>
        <time>2018-04-20T13:16:40Z</time>
      </trkpt>
      <trkpt lat="45.94119" lon="4.73337">
        <ele>173</ele>
        <time>2018-04-20T13:16:41Z</time>
      </trkpt>
      <trkpt lat="45.94123" lon="4.73331">
        <ele>171</ele>
        <time>2018-04-20T13:16:43Z</time>
      </trkpt>
      <trkpt lat="45.9413" lon="4.73321">
        <ele>171</ele>
        <time>2018-04-20T13:16:44Z</time>
      </trkpt>
      <trkpt lat="45.94137" lon="4.73314">
        <ele>171</ele>
        <time>2018-04-20T13:16:46Z</time>
      </trkpt>
      <trkpt lat="45.94141" lon="4.7331">
        <ele>171</ele>
        <time>2018-04-20T13:16:47Z</time>
      </trkpt>
      <trkpt lat="45.94144" lon="4.73299">
        <ele>171</ele>
        <time>2018-04-20T13:16:49Z</time>
      </trkpt>
      <trkpt lat="45.94146" lon="4.73292">
        <ele>170</ele>
        <time>2018-04-20T13:16:50Z</time>
      </trkpt>
      <trkpt lat="45.94154" lon="4.73286">
        <ele>170</ele>
        <time>2018-04-20T13:16:52Z</time>
      </trkpt>
      <trkpt lat="45.94156" lon="4.73283">
        <ele>170</ele>
        <time>2018-04-20T13:16:53Z</time>
      </trkpt>
      <trkpt lat="45.94163" lon="4.73276">
        <ele>170</ele>
        <time>2018-04-20T13:16:56Z</time>
      </trkpt>
      <trkpt lat="45.94169" lon="4.73272">
        <ele>172</ele>
        <time>2018-04-20T13:16:57Z</time>
      </trkpt>
      <trkpt lat="45.94172" lon="4.73268">
        <ele>172</ele>
        <time>2018-04-20T13:16:58Z</time>
      </trkpt>
      <trkpt lat="45.94177" lon="4.73262">
        <ele>171</ele>
        <time>2018-04-20T13:16:59Z</time>
      </trkpt>
      <trkpt lat="45.94183" lon="4.73255">
        <ele>171</ele>
        <time>2018-04-20T13:17:01Z</time>
      </trkpt>
      <trkpt lat="45.94188" lon="4.73252">
        <ele>172</ele>
        <time>2018-04-20T13:17:02Z</time>
      </trkpt>
      <trkpt lat="45.94195" lon="4.73245">
        <ele>169</ele>
        <time>2018-04-20T13:17:04Z</time>
      </trkpt>
      <trkpt lat="45.94198" lon="4.73241">
        <ele>169</ele>
        <time>2018-04-20T13:17:05Z</time>
      </trkpt>
      <trkpt lat="45.94206" lon="4.73236">
        <ele>169</ele>
        <time>2018-04-20T13:17:07Z</time>
      </trkpt>
      <trkpt lat="45.9421" lon="4.73232">
        <ele>169</ele>
        <time>2018-04-20T13:17:08Z</time>
      </trkpt>
      <trkpt lat="45.94217" lon="4.73229">
        <ele>169</ele>
        <time>2018-04-20T13:17:10Z</time>
      </trkpt>
      <trkpt lat="45.94221" lon="4.73226">
        <ele>169</ele>
        <time>2018-04-20T13:17:11Z</time>
      </trkpt>
      <trkpt lat="45.94228" lon="4.73219">
        <ele>169</ele>
        <time>2018-04-20T13:17:13Z</time>
      </trkpt>
      <trkpt lat="45.94234" lon="4.73216">
        <ele>169</ele>
        <time>2018-04-20T13:17:14Z</time>
      </trkpt>
      <trkpt lat="45.94241" lon="4.73208">
        <ele>169</ele>
        <time>2018-04-20T13:17:16Z</time>
      </trkpt>
      <trkpt lat="45.94248" lon="4.73204">
        <ele>168</ele>
        <time>2018-04-20T13:17:17Z</time>
      </trkpt>
      <trkpt lat="45.94256" lon="4.73201">
        <ele>170</ele>
        <time>2018-04-20T13:17:19Z</time>
      </trkpt>
      <trkpt lat="45.94259" lon="4.73198">
        <ele>170</ele>
        <time>2018-04-20T13:17:20Z</time>
      </trkpt>
      <trkpt lat="45.94267" lon="4.73193">
        <ele>169</ele>
        <time>2018-04-20T13:17:22Z</time>
      </trkpt>
      <trkpt lat="45.94269" lon="4.7319">
        <ele>169</ele>
        <time>2018-04-20T13:17:23Z</time>
      </trkpt>
      <trkpt lat="45.94276" lon="4.73184">
        <ele>169</ele>
        <time>2018-04-20T13:17:25Z</time>
      </trkpt>
      <trkpt lat="45.94279" lon="4.73179">
        <ele>169</ele>
        <time>2018-04-20T13:17:26Z</time>
      </trkpt>
      <trkpt lat="45.94287" lon="4.73173">
        <ele>170</ele>
        <time>2018-04-20T13:17:28Z</time>
      </trkpt>
      <trkpt lat="45.9429" lon="4.7317">
        <ele>170</ele>
        <time>2018-04-20T13:17:29Z</time>
      </trkpt>
      <trkpt lat="45.94294" lon="4.73166">
        <ele>167</ele>
        <time>2018-04-20T13:17:30Z</time>
      </trkpt>
      <trkpt lat="45.94298" lon="4.73163">
        <ele>168</ele>
        <time>2018-04-20T13:17:31Z</time>
      </trkpt>
      <trkpt lat="45.94305" lon="4.73158">
        <ele>168</ele>
        <time>2018-04-20T13:17:33Z</time>
      </trkpt>
      <trkpt lat="45.94306" lon="4.73157">
        <ele>168</ele>
        <time>2018-04-20T13:17:34Z</time>
      </trkpt>
      <trkpt lat="45.9431" lon="4.73156">
        <ele>168</ele>
        <time>2018-04-20T13:17:36Z</time>
      </trkpt>
      <trkpt lat="45.94317" lon="4.7315">
        <ele>168</ele>
        <time>2018-04-20T13:17:37Z</time>
      </trkpt>
      <trkpt lat="45.94325" lon="4.73145">
        <ele>168</ele>
        <time>2018-04-20T13:17:39Z</time>
      </trkpt>
      <trkpt lat="45.94329" lon="4.73143">
        <ele>168</ele>
        <time>2018-04-20T13:17:40Z</time>
      </trkpt>
      <trkpt lat="45.94333" lon="4.7314">
        <ele>168</ele>
        <time>2018-04-20T13:17:41Z</time>
      </trkpt>
      <trkpt lat="45.94338" lon="4.73136">
        <ele>170</ele>
        <time>2018-04-20T13:17:42Z</time>
      </trkpt>
      <trkpt lat="45.94345" lon="4.7313">
        <ele>169</ele>
        <time>2018-04-20T13:17:44Z</time>
      </trkpt>
      <trkpt lat="45.94348" lon="4.73127">
        <ele>169</ele>
        <time>2018-04-20T13:17:45Z</time>
      </trkpt>
      <trkpt lat="45.94354" lon="4.73123">
        <ele>169</ele>
        <time>2018-04-20T13:17:47Z</time>
      </trkpt>
      <trkpt lat="45.94359" lon="4.73115">
        <ele>169</ele>
        <time>2018-04-20T13:17:48Z</time>
      </trkpt>
      <trkpt lat="45.94364" lon="4.73111">
        <ele>169</ele>
        <time>2018-04-20T13:17:50Z</time>
      </trkpt>
      <trkpt lat="45.94369" lon="4.73107">
        <ele>169</ele>
        <time>2018-04-20T13:17:51Z</time>
      </trkpt>
      <trkpt lat="45.94376" lon="4.73102">
        <ele>169</ele>
        <time>2018-04-20T13:17:53Z</time>
      </trkpt>
      <trkpt lat="45.94379" lon="4.73099">
        <ele>169</ele>
        <time>2018-04-20T13:17:54Z</time>
      </trkpt>
      <trkpt lat="45.94386" lon="4.73093">
        <ele>169</ele>
        <time>2018-04-20T13:17:56Z</time>
      </trkpt>
      <trkpt lat="45.9439" lon="4.73091">
        <ele>169</ele>
        <time>2018-04-20T13:17:57Z</time>
      </trkpt>
      <trkpt lat="45.94396" lon="4.73085">
        <ele>169</ele>
        <time>2018-04-20T13:17:59Z</time>
      </trkpt>
      <trkpt lat="45.94399" lon="4.73083">
        <ele>168</ele>
        <time>2018-04-20T13:18:00Z</time>
      </trkpt>
      <trkpt lat="45.94405" lon="4.73077">
        <ele>168</ele>
        <time>2018-04-20T13:18:03Z</time>
      </trkpt>
      <trkpt lat="45.94407" lon="4.73074">
        <ele>168</ele>
        <time>2018-04-20T13:18:04Z</time>
      </trkpt>
      <trkpt lat="45.94412" lon="4.73067">
        <ele>168</ele>
        <time>2018-04-20T13:18:06Z</time>
      </trkpt>
      <trkpt lat="45.94415" lon="4.73063">
        <ele>168</ele>
        <time>2018-04-20T13:18:07Z</time>
      </trkpt>
      <trkpt lat="45.94423" lon="4.73051">
        <ele>169</ele>
        <time>2018-04-20T13:18:08Z</time>
      </trkpt>
      <trkpt lat="45.94429" lon="4.73044">
        <ele>169</ele>
        <time>2018-04-20T13:18:11Z</time>
      </trkpt>
      <trkpt lat="45.94431" lon="4.7304">
        <ele>169</ele>
        <time>2018-04-20T13:18:12Z</time>
      </trkpt>
      <trkpt lat="45.94436" lon="4.73034">
        <ele>169</ele>
        <time>2018-04-20T13:18:14Z</time>
      </trkpt>
      <trkpt lat="45.94438" lon="4.73031">
        <ele>169</ele>
        <time>2018-04-20T13:18:15Z</time>
      </trkpt>
      <trkpt lat="45.94445" lon="4.73023">
        <ele>169</ele>
        <time>2018-04-20T13:18:18Z</time>
      </trkpt>
      <trkpt lat="45.94448" lon="4.73022">
        <ele>169</ele>
        <time>2018-04-20T13:18:19Z</time>
      </trkpt>
      <trkpt lat="45.94455" lon="4.7302">
        <ele>169</ele>
        <time>2018-04-20T13:18:22Z</time>
      </trkpt>
      <trkpt lat="45.94464" lon="4.73018">
        <ele>169</ele>
        <time>2018-04-20T13:18:23Z</time>
      </trkpt>
      <trkpt lat="45.94471" lon="4.73014">
        <ele>170</ele>
        <time>2018-04-20T13:18:24Z</time>
      </trkpt>
      <trkpt lat="45.94473" lon="4.73015">
        <ele>170</ele>
        <time>2018-04-20T13:18:25Z</time>
      </trkpt>
      <trkpt lat="45.94481" lon="4.73016">
        <ele>170</ele>
        <time>2018-04-20T13:18:27Z</time>
      </trkpt>
      <trkpt lat="45.94487" lon="4.73016">
        <ele>170</ele>
        <time>2018-04-20T13:18:28Z</time>
      </trkpt>
      <trkpt lat="45.94493" lon="4.73016">
        <ele>170</ele>
        <time>2018-04-20T13:18:30Z</time>
      </trkpt>
      <trkpt lat="45.94499" lon="4.73016">
        <ele>170</ele>
        <time>2018-04-20T13:18:31Z</time>
      </trkpt>
      <trkpt lat="45.94506" lon="4.73014">
        <ele>171</ele>
        <time>2018-04-20T13:18:33Z</time>
      </trkpt>
      <trkpt lat="45.94508" lon="4.73014">
        <ele>171</ele>
        <time>2018-04-20T13:18:34Z</time>
      </trkpt>
      <trkpt lat="45.94516" lon="4.73014">
        <ele>171</ele>
        <time>2018-04-20T13:18:37Z</time>
      </trkpt>
      <trkpt lat="45.94519" lon="4.73014">
        <ele>171</ele>
        <time>2018-04-20T13:18:38Z</time>
      </trkpt>
      <trkpt lat="45.94527" lon="4.73013">
        <ele>171</ele>
        <time>2018-04-20T13:18:39Z</time>
      </trkpt>
      <trkpt lat="45.94529" lon="4.73014">
        <ele>171</ele>
        <time>2018-04-20T13:18:40Z</time>
      </trkpt>
      <trkpt lat="45.94536" lon="4.7302">
        <ele>171</ele>
        <time>2018-04-20T13:18:44Z</time>
      </trkpt>
      <trkpt lat="45.94538" lon="4.73022">
        <ele>171</ele>
        <time>2018-04-20T13:18:45Z</time>
      </trkpt>
      <trkpt lat="45.94545" lon="4.73031">
        <ele>171</ele>
        <time>2018-04-20T13:18:48Z</time>
      </trkpt>
      <trkpt lat="45.94546" lon="4.73034">
        <ele>171</ele>
        <time>2018-04-20T13:18:49Z</time>
      </trkpt>
      <trkpt lat="45.94548" lon="4.73046">
        <ele>172</ele>
        <time>2018-04-20T13:18:52Z</time>
      </trkpt>
      <trkpt lat="45.9455" lon="4.73058">
        <ele>172</ele>
        <time>2018-04-20T13:18:53Z</time>
      </trkpt>
      <trkpt lat="45.9455" lon="4.7307">
        <ele>172</ele>
        <time>2018-04-20T13:18:57Z</time>
      </trkpt>
      <trkpt lat="45.9455" lon="4.73073">
        <ele>172</ele>
        <time>2018-04-20T13:18:58Z</time>
      </trkpt>
      <trkpt lat="45.9455" lon="4.73084">
        <ele>172</ele>
        <time>2018-04-20T13:19:01Z</time>
      </trkpt>
      <trkpt lat="45.9455" lon="4.73087">
        <ele>172</ele>
        <time>2018-04-20T13:19:02Z</time>
      </trkpt>
      <trkpt lat="45.94551" lon="4.73098">
        <ele>173</ele>
        <time>2018-04-20T13:19:05Z</time>
      </trkpt>
      <trkpt lat="45.94551" lon="4.73101">
        <ele>173</ele>
        <time>2018-04-20T13:19:06Z</time>
      </trkpt>
      <trkpt lat="45.94546" lon="4.73111">
        <ele>173</ele>
        <time>2018-04-20T13:19:11Z</time>
      </trkpt>
      <trkpt lat="45.94543" lon="4.73111">
        <ele>173</ele>
        <time>2018-04-20T13:19:12Z</time>
      </trkpt>
      <trkpt lat="45.94537" lon="4.73109">
        <ele>173</ele>
        <time>2018-04-20T13:19:14Z</time>
      </trkpt>
      <trkpt lat="45.94534" lon="4.73108">
        <ele>173</ele>
        <time>2018-04-20T13:19:15Z</time>
      </trkpt>
      <trkpt lat="45.94527" lon="4.73105">
        <ele>173</ele>
        <time>2018-04-20T13:19:17Z</time>
      </trkpt>
      <trkpt lat="45.94524" lon="4.73103">
        <ele>173</ele>
        <time>2018-04-20T13:19:18Z</time>
      </trkpt>
      <trkpt lat="45.94515" lon="4.73099">
        <ele>172</ele>
        <time>2018-04-20T13:19:19Z</time>
      </trkpt>
      <trkpt lat="45.94507" lon="4.73095">
        <ele>172</ele>
        <time>2018-04-20T13:19:22Z</time>
      </trkpt>
      <trkpt lat="45.94505" lon="4.73094">
        <ele>172</ele>
        <time>2018-04-20T13:19:23Z</time>
      </trkpt>
      <trkpt lat="45.94502" lon="4.73092">
        <ele>172</ele>
        <time>2018-04-20T13:19:24Z</time>
      </trkpt>
      <trkpt lat="45.94495" lon="4.73088">
        <ele>172</ele>
        <time>2018-04-20T13:19:25Z</time>
      </trkpt>
      <trkpt lat="45.94489" lon="4.73084">
        <ele>172</ele>
        <time>2018-04-20T13:19:28Z</time>
      </trkpt>
      <trkpt lat="45.94487" lon="4.73082">
        <ele>171</ele>
        <time>2018-04-20T13:19:29Z</time>
      </trkpt>
      <trkpt lat="45.9448" lon="4.73075">
        <ele>171</ele>
        <time>2018-04-20T13:19:32Z</time>
      </trkpt>
      <trkpt lat="45.94477" lon="4.73073">
        <ele>170</ele>
        <time>2018-04-20T13:19:33Z</time>
      </trkpt>
      <trkpt lat="45.9447" lon="4.73066">
        <ele>170</ele>
        <time>2018-04-20T13:19:36Z</time>
      </trkpt>
      <trkpt lat="45.94468" lon="4.73062">
        <ele>170</ele>
        <time>2018-04-20T13:19:37Z</time>
      </trkpt>
      <trkpt lat="45.94466" lon="4.73054">
        <ele>170</ele>
        <time>2018-04-20T13:19:39Z</time>
      </trkpt>
      <trkpt lat="45.94464" lon="4.7305">
        <ele>170</ele>
        <time>2018-04-20T13:19:40Z</time>
      </trkpt>
      <trkpt lat="45.94463" lon="4.73042">
        <ele>170</ele>
        <time>2018-04-20T13:19:42Z</time>
      </trkpt>
      <trkpt lat="45.94462" lon="4.73037">
        <ele>170</ele>
        <time>2018-04-20T13:19:43Z</time>
      </trkpt>
      <trkpt lat="45.9446" lon="4.73028">
        <ele>169</ele>
        <time>2018-04-20T13:19:45Z</time>
      </trkpt>
      <trkpt lat="45.94457" lon="4.73013">
        <ele>169</ele>
        <time>2018-04-20T13:19:46Z</time>
      </trkpt>
      <trkpt lat="45.94455" lon="4.73003">
        <ele>169</ele>
        <time>2018-04-20T13:19:50Z</time>
      </trkpt>
      <trkpt lat="45.94454" lon="4.73">
        <ele>169</ele>
        <time>2018-04-20T13:19:51Z</time>
      </trkpt>
      <trkpt lat="45.94452" lon="4.72992">
        <ele>167</ele>
        <time>2018-04-20T13:19:54Z</time>
      </trkpt>
      <trkpt lat="45.94451" lon="4.72988">
        <ele>167</ele>
        <time>2018-04-20T13:19:55Z</time>
      </trkpt>
      <trkpt lat="45.9445" lon="4.72979">
        <ele>167</ele>
        <time>2018-04-20T13:19:57Z</time>
      </trkpt>
      <trkpt lat="45.94449" lon="4.72975">
        <ele>167</ele>
        <time>2018-04-20T13:19:58Z</time>
      </trkpt>
      <trkpt lat="45.94448" lon="4.72966">
        <ele>167</ele>
        <time>2018-04-20T13:20:00Z</time>
      </trkpt>
      <trkpt lat="45.94447" lon="4.72961">
        <ele>167</ele>
        <time>2018-04-20T13:20:01Z</time>
      </trkpt>
      <trkpt lat="45.94446" lon="4.72952">
        <ele>167</ele>
        <time>2018-04-20T13:20:03Z</time>
      </trkpt>
      <trkpt lat="45.94446" lon="4.72947">
        <ele>167</ele>
        <time>2018-04-20T13:20:04Z</time>
      </trkpt>
      <trkpt lat="45.94444" lon="4.72938">
        <ele>167</ele>
        <time>2018-04-20T13:20:06Z</time>
      </trkpt>
      <trkpt lat="45.94444" lon="4.72933">
        <ele>167</ele>
        <time>2018-04-20T13:20:07Z</time>
      </trkpt>
      <trkpt lat="45.94442" lon="4.72921">
        <ele>167</ele>
        <time>2018-04-20T13:20:10Z</time>
      </trkpt>
      <trkpt lat="45.94442" lon="4.72917">
        <ele>166</ele>
        <time>2018-04-20T13:20:11Z</time>
      </trkpt>
      <trkpt lat="45.94441" lon="4.72908">
        <ele>166</ele>
        <time>2018-04-20T13:20:13Z</time>
      </trkpt>
      <trkpt lat="45.9444" lon="4.72903">
        <ele>166</ele>
        <time>2018-04-20T13:20:14Z</time>
      </trkpt>
      <trkpt lat="45.94439" lon="4.72893">
        <ele>166</ele>
        <time>2018-04-20T13:20:16Z</time>
      </trkpt>
      <trkpt lat="45.94438" lon="4.72887">
        <ele>166</ele>
        <time>2018-04-20T13:20:17Z</time>
      </trkpt>
      <trkpt lat="45.94436" lon="4.72877">
        <ele>166</ele>
        <time>2018-04-20T13:20:19Z</time>
      </trkpt>
      <trkpt lat="45.94435" lon="4.72872">
        <ele>166</ele>
        <time>2018-04-20T13:20:20Z</time>
      </trkpt>
      <trkpt lat="45.94433" lon="4.72859">
        <ele>166</ele>
        <time>2018-04-20T13:20:21Z</time>
      </trkpt>
      <trkpt lat="45.9443" lon="4.72848">
        <ele>166</ele>
        <time>2018-04-20T13:20:23Z</time>
      </trkpt>
      <trkpt lat="45.94431" lon="4.7284">
        <ele>166</ele>
        <time>2018-04-20T13:20:24Z</time>
      </trkpt>
      <trkpt lat="45.9443" lon="4.72828">
        <ele>167</ele>
        <time>2018-04-20T13:20:26Z</time>
      </trkpt>
      <trkpt lat="45.94429" lon="4.72822">
        <ele>167</ele>
        <time>2018-04-20T13:20:27Z</time>
      </trkpt>
      <trkpt lat="45.94427" lon="4.72814">
        <ele>167</ele>
        <time>2018-04-20T13:20:28Z</time>
      </trkpt>
      <trkpt lat="45.94426" lon="4.72806">
        <ele>167</ele>
        <time>2018-04-20T13:20:29Z</time>
      </trkpt>
      <trkpt lat="45.94426" lon="4.72799">
        <ele>167</ele>
        <time>2018-04-20T13:20:30Z</time>
      </trkpt>
      <trkpt lat="45.94425" lon="4.72792">
        <ele>168</ele>
        <time>2018-04-20T13:20:31Z</time>
      </trkpt>
      <trkpt lat="45.94424" lon="4.72786">
        <ele>168</ele>
        <time>2018-04-20T13:20:32Z</time>
      </trkpt>
      <trkpt lat="45.94422" lon="4.72779">
        <ele>168</ele>
        <time>2018-04-20T13:20:33Z</time>
      </trkpt>
      <trkpt lat="45.94421" lon="4.72767">
        <ele>169</ele>
        <time>2018-04-20T13:20:35Z</time>
      </trkpt>
      <trkpt lat="45.94421" lon="4.7276">
        <ele>170</ele>
        <time>2018-04-20T13:20:36Z</time>
      </trkpt>
      <trkpt lat="45.9442" lon="4.72753">
        <ele>170</ele>
        <time>2018-04-20T13:20:37Z</time>
      </trkpt>
      <trkpt lat="45.9442" lon="4.72747">
        <ele>171</ele>
        <time>2018-04-20T13:20:38Z</time>
      </trkpt>
      <trkpt lat="45.94419" lon="4.72741">
        <ele>171</ele>
        <time>2018-04-20T13:20:39Z</time>
      </trkpt>
      <trkpt lat="45.94419" lon="4.72734">
        <ele>171</ele>
        <time>2018-04-20T13:20:40Z</time>
      </trkpt>
      <trkpt lat="45.94418" lon="4.72727">
        <ele>171</ele>
        <time>2018-04-20T13:20:41Z</time>
      </trkpt>
      <trkpt lat="45.94417" lon="4.7272">
        <ele>171</ele>
        <time>2018-04-20T13:20:42Z</time>
      </trkpt>
      <trkpt lat="45.94417" lon="4.72713">
        <ele>172</ele>
        <time>2018-04-20T13:20:43Z</time>
      </trkpt>
      <trkpt lat="45.94417" lon="4.72707">
        <ele>172</ele>
        <time>2018-04-20T13:20:44Z</time>
      </trkpt>
      <trkpt lat="45.94416" lon="4.727">
        <ele>172</ele>
        <time>2018-04-20T13:20:45Z</time>
      </trkpt>
      <trkpt lat="45.94415" lon="4.72694">
        <ele>173</ele>
        <time>2018-04-20T13:20:46Z</time>
      </trkpt>
      <trkpt lat="45.94413" lon="4.72682">
        <ele>173</ele>
        <time>2018-04-20T13:20:48Z</time>
      </trkpt>
      <trkpt lat="45.94412" lon="4.72676">
        <ele>173</ele>
        <time>2018-04-20T13:20:49Z</time>
      </trkpt>
      <trkpt lat="45.94411" lon="4.72669">
        <ele>174</ele>
        <time>2018-04-20T13:20:50Z</time>
      </trkpt>
      <trkpt lat="45.94409" lon="4.72664">
        <ele>174</ele>
        <time>2018-04-20T13:20:51Z</time>
      </trkpt>
      <trkpt lat="45.9441" lon="4.72657">
        <ele>174</ele>
        <time>2018-04-20T13:20:52Z</time>
      </trkpt>
      <trkpt lat="45.9441" lon="4.7265">
        <ele>174</ele>
        <time>2018-04-20T13:20:53Z</time>
      </trkpt>
      <trkpt lat="45.94411" lon="4.72639">
        <ele>174</ele>
        <time>2018-04-20T13:20:56Z</time>
      </trkpt>
      <trkpt lat="45.94411" lon="4.72636">
        <ele>174</ele>
        <time>2018-04-20T13:20:57Z</time>
      </trkpt>
      <trkpt lat="45.9441" lon="4.72626">
        <ele>174</ele>
        <time>2018-04-20T13:21:00Z</time>
      </trkpt>
      <trkpt lat="45.9441" lon="4.72622">
        <ele>173</ele>
        <time>2018-04-20T13:21:01Z</time>
      </trkpt>
      <trkpt lat="45.9441" lon="4.72615">
        <ele>173</ele>
        <time>2018-04-20T13:21:03Z</time>
      </trkpt>
      <trkpt lat="45.94408" lon="4.72602">
        <ele>173</ele>
        <time>2018-04-20T13:21:04Z</time>
      </trkpt>
      <trkpt lat="45.94404" lon="4.72593">
        <ele>173</ele>
        <time>2018-04-20T13:21:06Z</time>
      </trkpt>
      <trkpt lat="45.94404" lon="4.7259">
        <ele>173</ele>
        <time>2018-04-20T13:21:07Z</time>
      </trkpt>
      <trkpt lat="45.94402" lon="4.72583">
        <ele>173</ele>
        <time>2018-04-20T13:21:08Z</time>
      </trkpt>
      <trkpt lat="45.94401" lon="4.72577">
        <ele>173</ele>
        <time>2018-04-20T13:21:09Z</time>
      </trkpt>
      <trkpt lat="45.94399" lon="4.72566">
        <ele>173</ele>
        <time>2018-04-20T13:21:12Z</time>
      </trkpt>
      <trkpt lat="45.94397" lon="4.72557">
        <ele>173</ele>
        <time>2018-04-20T13:21:13Z</time>
      </trkpt>
      <trkpt lat="45.94395" lon="4.72545">
        <ele>173</ele>
        <time>2018-04-20T13:21:15Z</time>
      </trkpt>
      <trkpt lat="45.94395" lon="4.72538">
        <ele>174</ele>
        <time>2018-04-20T13:21:16Z</time>
      </trkpt>
      <trkpt lat="45.94392" lon="4.72527">
        <ele>174</ele>
        <time>2018-04-20T13:21:18Z</time>
      </trkpt>
      <trkpt lat="45.94392" lon="4.7252">
        <ele>174</ele>
        <time>2018-04-20T13:21:19Z</time>
      </trkpt>
      <trkpt lat="45.94388" lon="4.7251">
        <ele>174</ele>
        <time>2018-04-20T13:21:21Z</time>
      </trkpt>
      <trkpt lat="45.94386" lon="4.72503">
        <ele>174</ele>
        <time>2018-04-20T13:21:22Z</time>
      </trkpt>
      <trkpt lat="45.94383" lon="4.72498">
        <ele>173</ele>
        <time>2018-04-20T13:21:23Z</time>
      </trkpt>
      <trkpt lat="45.94381" lon="4.72493">
        <ele>173</ele>
        <time>2018-04-20T13:21:24Z</time>
      </trkpt>
      <trkpt lat="45.94377" lon="4.72481">
        <ele>173</ele>
        <time>2018-04-20T13:21:26Z</time>
      </trkpt>
      <trkpt lat="45.94374" lon="4.72476">
        <ele>173</ele>
        <time>2018-04-20T13:21:27Z</time>
      </trkpt>
      <trkpt lat="45.94369" lon="4.72466">
        <ele>173</ele>
        <time>2018-04-20T13:21:29Z</time>
      </trkpt>
      <trkpt lat="45.94367" lon="4.72461">
        <ele>173</ele>
        <time>2018-04-20T13:21:30Z</time>
      </trkpt>
      <trkpt lat="45.94363" lon="4.7245">
        <ele>173</ele>
        <time>2018-04-20T13:21:32Z</time>
      </trkpt>
      <trkpt lat="45.9436" lon="4.72445">
        <ele>173</ele>
        <time>2018-04-20T13:21:33Z</time>
      </trkpt>
      <trkpt lat="45.94356" lon="4.72436">
        <ele>173</ele>
        <time>2018-04-20T13:21:35Z</time>
      </trkpt>
      <trkpt lat="45.94353" lon="4.7243">
        <ele>173</ele>
        <time>2018-04-20T13:21:36Z</time>
      </trkpt>
      <trkpt lat="45.94348" lon="4.7242">
        <ele>173</ele>
        <time>2018-04-20T13:21:38Z</time>
      </trkpt>
      <trkpt lat="45.94346" lon="4.72415">
        <ele>173</ele>
        <time>2018-04-20T13:21:39Z</time>
      </trkpt>
      <trkpt lat="45.94344" lon="4.72409">
        <ele>173</ele>
        <time>2018-04-20T13:21:41Z</time>
      </trkpt>
      <trkpt lat="45.94342" lon="4.72402">
        <ele>173</ele>
        <time>2018-04-20T13:21:42Z</time>
      </trkpt>
      <trkpt lat="45.94339" lon="4.72393">
        <ele>172</ele>
        <time>2018-04-20T13:21:45Z</time>
      </trkpt>
      <trkpt lat="45.94337" lon="4.72383">
        <ele>172</ele>
        <time>2018-04-20T13:21:46Z</time>
      </trkpt>
      <trkpt lat="45.94335" lon="4.72377">
        <ele>172</ele>
        <time>2018-04-20T13:21:47Z</time>
      </trkpt>
      <trkpt lat="45.94332" lon="4.72372">
        <ele>172</ele>
        <time>2018-04-20T13:21:48Z</time>
      </trkpt>
      <trkpt lat="45.94327" lon="4.72362">
        <ele>172</ele>
        <time>2018-04-20T13:21:50Z</time>
      </trkpt>
      <trkpt lat="45.94326" lon="4.7236">
        <ele>172</ele>
        <time>2018-04-20T13:21:51Z</time>
      </trkpt>
      <trkpt lat="45.94321" lon="4.72351">
        <ele>172</ele>
        <time>2018-04-20T13:21:54Z</time>
      </trkpt>
      <trkpt lat="45.9432" lon="4.72348">
        <ele>172</ele>
        <time>2018-04-20T13:21:55Z</time>
      </trkpt>
      <trkpt lat="45.94315" lon="4.72338">
        <ele>172</ele>
        <time>2018-04-20T13:21:56Z</time>
      </trkpt>
      <trkpt lat="45.94314" lon="4.72335">
        <ele>172</ele>
        <time>2018-04-20T13:21:57Z</time>
      </trkpt>
      <trkpt lat="45.9431" lon="4.72328">
        <ele>172</ele>
        <time>2018-04-20T13:21:58Z</time>
      </trkpt>
      <trkpt lat="45.94308" lon="4.72323">
        <ele>171</ele>
        <time>2018-04-20T13:21:59Z</time>
      </trkpt>
      <trkpt lat="45.94304" lon="4.72312">
        <ele>171</ele>
        <time>2018-04-20T13:22:02Z</time>
      </trkpt>
      <trkpt lat="45.94303" lon="4.72309">
        <ele>171</ele>
        <time>2018-04-20T13:22:03Z</time>
      </trkpt>
      <trkpt lat="45.94299" lon="4.72298">
        <ele>171</ele>
        <time>2018-04-20T13:22:06Z</time>
      </trkpt>
      <trkpt lat="45.94297" lon="4.72294">
        <ele>171</ele>
        <time>2018-04-20T13:22:07Z</time>
      </trkpt>
      <trkpt lat="45.94295" lon="4.7229">
        <ele>171</ele>
        <time>2018-04-20T13:22:08Z</time>
      </trkpt>
      <trkpt lat="45.94288" lon="4.72278">
        <ele>171</ele>
        <time>2018-04-20T13:22:09Z</time>
      </trkpt>
      <trkpt lat="45.94285" lon="4.72274">
        <ele>171</ele>
        <time>2018-04-20T13:22:10Z</time>
      </trkpt>
      <trkpt lat="45.94281" lon="4.7227">
        <ele>171</ele>
        <time>2018-04-20T13:22:11Z</time>
      </trkpt>
      <trkpt lat="45.94276" lon="4.72267">
        <ele>171</ele>
        <time>2018-04-20T13:22:12Z</time>
      </trkpt>
      <trkpt lat="45.94272" lon="4.72266">
        <ele>171</ele>
        <time>2018-04-20T13:22:13Z</time>
      </trkpt>
      <trkpt lat="45.94267" lon="4.72267">
        <ele>171</ele>
        <time>2018-04-20T13:22:14Z</time>
      </trkpt>
      <trkpt lat="45.94263" lon="4.7227">
        <ele>171</ele>
        <time>2018-04-20T13:22:15Z</time>
      </trkpt>
      <trkpt lat="45.94258" lon="4.72273">
        <ele>171</ele>
        <time>2018-04-20T13:22:16Z</time>
      </trkpt>
      <trkpt lat="45.94254" lon="4.72275">
        <ele>171</ele>
        <time>2018-04-20T13:22:17Z</time>
      </trkpt>
      <trkpt lat="45.94247" lon="4.72278">
        <ele>171</ele>
        <time>2018-04-20T13:22:19Z</time>
      </trkpt>
      <trkpt lat="45.94242" lon="4.72281">
        <ele>171</ele>
        <time>2018-04-20T13:22:20Z</time>
      </trkpt>
      <trkpt lat="45.94235" lon="4.72284">
        <ele>171</ele>
        <time>2018-04-20T13:22:23Z</time>
      </trkpt>
      <trkpt lat="45.94227" lon="4.72285">
        <ele>171</ele>
        <time>2018-04-20T13:22:24Z</time>
      </trkpt>
      <trkpt lat="45.94219" lon="4.72285">
        <ele>171</ele>
        <time>2018-04-20T13:22:26Z</time>
      </trkpt>
      <trkpt lat="45.94215" lon="4.72285">
        <ele>171</ele>
        <time>2018-04-20T13:22:27Z</time>
      </trkpt>
      <trkpt lat="45.94207" lon="4.72285">
        <ele>171</ele>
        <time>2018-04-20T13:22:29Z</time>
      </trkpt>
      <trkpt lat="45.94202" lon="4.72286">
        <ele>171</ele>
        <time>2018-04-20T13:22:30Z</time>
      </trkpt>
      <trkpt lat="45.94193" lon="4.72286">
        <ele>171</ele>
        <time>2018-04-20T13:22:32Z</time>
      </trkpt>
      <trkpt lat="45.94189" lon="4.72286">
        <ele>171</ele>
        <time>2018-04-20T13:22:33Z</time>
      </trkpt>
      <trkpt lat="45.94181" lon="4.72286">
        <ele>171</ele>
        <time>2018-04-20T13:22:35Z</time>
      </trkpt>
      <trkpt lat="45.94179" lon="4.72286">
        <ele>171</ele>
        <time>2018-04-20T13:22:36Z</time>
      </trkpt>
      <trkpt lat="45.94171" lon="4.72283">
        <ele>171</ele>
        <time>2018-04-20T13:23:05Z</time>
      </trkpt>
      <trkpt lat="45.9417" lon="4.72283">
        <ele>171</ele>
        <time>2018-04-20T13:23:06Z</time>
      </trkpt>
      <trkpt lat="45.94161" lon="4.72284">
        <ele>171</ele>
        <time>2018-04-20T13:23:10Z</time>
      </trkpt>
      <trkpt lat="45.94158" lon="4.72283">
        <ele>171</ele>
        <time>2018-04-20T13:23:11Z</time>
      </trkpt>
      <trkpt lat="45.94155" lon="4.72283">
        <ele>171</ele>
        <time>2018-04-20T13:23:12Z</time>
      </trkpt>
      <trkpt lat="45.94147" lon="4.7228">
        <ele>171</ele>
        <time>2018-04-20T13:23:13Z</time>
      </trkpt>
      <trkpt lat="45.94141" lon="4.72276">
        <ele>171</ele>
        <time>2018-04-20T13:23:16Z</time>
      </trkpt>
      <trkpt lat="45.94135" lon="4.72271">
        <ele>171</ele>
        <time>2018-04-20T13:23:17Z</time>
      </trkpt>
      <trkpt lat="45.94127" lon="4.72267">
        <ele>171</ele>
        <time>2018-04-20T13:23:19Z</time>
      </trkpt>
      <trkpt lat="45.94124" lon="4.72265">
        <ele>171</ele>
        <time>2018-04-20T13:23:20Z</time>
      </trkpt>
      <trkpt lat="45.94117" lon="4.72263">
        <ele>171</ele>
        <time>2018-04-20T13:23:23Z</time>
      </trkpt>
      <trkpt lat="45.94115" lon="4.72262">
        <ele>171</ele>
        <time>2018-04-20T13:23:24Z</time>
      </trkpt>
      <trkpt lat="45.94106" lon="4.72261">
        <ele>171</ele>
        <time>2018-04-20T13:23:27Z</time>
      </trkpt>
      <trkpt lat="45.94103" lon="4.72261">
        <ele>171</ele>
        <time>2018-04-20T13:23:28Z</time>
      </trkpt>
      <trkpt lat="45.94094" lon="4.72262">
        <ele>171</ele>
        <time>2018-04-20T13:23:31Z</time>
      </trkpt>
      <trkpt lat="45.94091" lon="4.72263">
        <ele>171</ele>
        <time>2018-04-20T13:23:32Z</time>
      </trkpt>
      <trkpt lat="45.94084" lon="4.72266">
        <ele>171</ele>
        <time>2018-04-20T13:23:34Z</time>
      </trkpt>
      <trkpt lat="45.9408" lon="4.72268">
        <ele>171</ele>
        <time>2018-04-20T13:23:35Z</time>
      </trkpt>
      <trkpt lat="45.94074" lon="4.72273">
        <ele>171</ele>
        <time>2018-04-20T13:23:37Z</time>
      </trkpt>
      <trkpt lat="45.94072" lon="4.72276">
        <ele>171</ele>
        <time>2018-04-20T13:23:38Z</time>
      </trkpt>
      <trkpt lat="45.94066" lon="4.72282">
        <ele>171</ele>
        <time>2018-04-20T13:23:40Z</time>
      </trkpt>
      <trkpt lat="45.94064" lon="4.72286">
        <ele>171</ele>
        <time>2018-04-20T13:23:41Z</time>
      </trkpt>
      <trkpt lat="45.94061" lon="4.72289">
        <ele>171</ele>
        <time>2018-04-20T13:23:42Z</time>
      </trkpt>
      <trkpt lat="45.94055" lon="4.72298">
        <ele>171</ele>
        <time>2018-04-20T13:23:43Z</time>
      </trkpt>
      <trkpt lat="45.94051" lon="4.72303">
        <ele>171</ele>
        <time>2018-04-20T13:23:45Z</time>
      </trkpt>
      <trkpt lat="45.94047" lon="4.72309">
        <ele>171</ele>
        <time>2018-04-20T13:23:46Z</time>
      </trkpt>
      <trkpt lat="45.94044" lon="4.72313">
        <ele>171</ele>
        <time>2018-04-20T13:23:47Z</time>
      </trkpt>
      <trkpt lat="45.9404" lon="4.72317">
        <ele>171</ele>
        <time>2018-04-20T13:23:48Z</time>
      </trkpt>
      <trkpt lat="45.94037" lon="4.72321">
        <ele>171</ele>
        <time>2018-04-20T13:23:49Z</time>
      </trkpt>
      <trkpt lat="45.94033" lon="4.72326">
        <ele>171</ele>
        <time>2018-04-20T13:23:50Z</time>
      </trkpt>
      <trkpt lat="45.94027" lon="4.72335">
        <ele>171</ele>
        <time>2018-04-20T13:23:52Z</time>
      </trkpt>
      <trkpt lat="45.94023" lon="4.72339">
        <ele>171</ele>
        <time>2018-04-20T13:23:53Z</time>
      </trkpt>
      <trkpt lat="45.94016" lon="4.72345">
        <ele>171</ele>
        <time>2018-04-20T13:23:55Z</time>
      </trkpt>
      <trkpt lat="45.94014" lon="4.7235">
        <ele>171</ele>
        <time>2018-04-20T13:23:56Z</time>
      </trkpt>
      <trkpt lat="45.94007" lon="4.72355">
        <ele>171</ele>
        <time>2018-04-20T13:23:58Z</time>
      </trkpt>
      <trkpt lat="45.94003" lon="4.7236">
        <ele>171</ele>
        <time>2018-04-20T13:23:59Z</time>
      </trkpt>
      <trkpt lat="45.93999" lon="4.72366">
        <ele>171</ele>
        <time>2018-04-20T13:24:00Z</time>
      </trkpt>
      <trkpt lat="45.93996" lon="4.72371">
        <ele>171</ele>
        <time>2018-04-20T13:24:01Z</time>
      </trkpt>
      <trkpt lat="45.9399" lon="4.72378">
        <ele>171</ele>
        <time>2018-04-20T13:24:03Z</time>
      </trkpt>
      <trkpt lat="45.93986" lon="4.72383">
        <ele>171</ele>
        <time>2018-04-20T13:24:04Z</time>
      </trkpt>
      <trkpt lat="45.93982" lon="4.72388">
        <ele>171</ele>
        <time>2018-04-20T13:24:05Z</time>
      </trkpt>
      <trkpt lat="45.93979" lon="4.72393">
        <ele>171</ele>
        <time>2018-04-20T13:24:06Z</time>
      </trkpt>
      <trkpt lat="45.93974" lon="4.72397">
        <ele>171</ele>
        <time>2018-04-20T13:24:07Z</time>
      </trkpt>
      <trkpt lat="45.9397" lon="4.72402">
        <ele>171</ele>
        <time>2018-04-20T13:24:08Z</time>
      </trkpt>
      <trkpt lat="45.93966" lon="4.72406">
        <ele>171</ele>
        <time>2018-04-20T13:24:09Z</time>
      </trkpt>
      <trkpt lat="45.93963" lon="4.72411">
        <ele>171</ele>
        <time>2018-04-20T13:24:10Z</time>
      </trkpt>
      <trkpt lat="45.93959" lon="4.72415">
        <ele>171</ele>
        <time>2018-04-20T13:24:11Z</time>
      </trkpt>
      <trkpt lat="45.93955" lon="4.7242">
        <ele>171</ele>
        <time>2018-04-20T13:24:12Z</time>
      </trkpt>
      <trkpt lat="45.93951" lon="4.72425">
        <ele>171</ele>
        <time>2018-04-20T13:24:13Z</time>
      </trkpt>
      <trkpt lat="45.93947" lon="4.7243">
        <ele>171</ele>
        <time>2018-04-20T13:24:14Z</time>
      </trkpt>
      <trkpt lat="45.93939" lon="4.72437">
        <ele>171</ele>
        <time>2018-04-20T13:24:16Z</time>
      </trkpt>
      <trkpt lat="45.93935" lon="4.72441">
        <ele>171</ele>
        <time>2018-04-20T13:24:17Z</time>
      </trkpt>
      <trkpt lat="45.93932" lon="4.72446">
        <ele>171</ele>
        <time>2018-04-20T13:24:18Z</time>
      </trkpt>
      <trkpt lat="45.93929" lon="4.7245">
        <ele>171</ele>
        <time>2018-04-20T13:24:19Z</time>
      </trkpt>
      <trkpt lat="45.93923" lon="4.7246">
        <ele>171</ele>
        <time>2018-04-20T13:24:21Z</time>
      </trkpt>
      <trkpt lat="45.9392" lon="4.72465">
        <ele>171</ele>
        <time>2018-04-20T13:24:22Z</time>
      </trkpt>
      <trkpt lat="45.93913" lon="4.72474">
        <ele>172</ele>
        <time>2018-04-20T13:24:24Z</time>
      </trkpt>
      <trkpt lat="45.9391" lon="4.72479">
        <ele>172</ele>
        <time>2018-04-20T13:24:25Z</time>
      </trkpt>
      <trkpt lat="45.93904" lon="4.72487">
        <ele>172</ele>
        <time>2018-04-20T13:24:27Z</time>
      </trkpt>
      <trkpt lat="45.93901" lon="4.72492">
        <ele>172</ele>
        <time>2018-04-20T13:24:28Z</time>
      </trkpt>
      <trkpt lat="45.93896" lon="4.72498">
        <ele>172</ele>
        <time>2018-04-20T13:24:30Z</time>
      </trkpt>
      <trkpt lat="45.93891" lon="4.72505">
        <ele>173</ele>
        <time>2018-04-20T13:24:31Z</time>
      </trkpt>
      <trkpt lat="45.93888" lon="4.72509">
        <ele>173</ele>
        <time>2018-04-20T13:24:32Z</time>
      </trkpt>
      <trkpt lat="45.93884" lon="4.72514">
        <ele>173</ele>
        <time>2018-04-20T13:24:33Z</time>
      </trkpt>
      <trkpt lat="45.93875" lon="4.72516">
        <ele>173</ele>
        <time>2018-04-20T13:24:35Z</time>
      </trkpt>
      <trkpt lat="45.93871" lon="4.72514">
        <ele>173</ele>
        <time>2018-04-20T13:24:36Z</time>
      </trkpt>
      <trkpt lat="45.93865" lon="4.72513">
        <ele>173</ele>
        <time>2018-04-20T13:24:37Z</time>
      </trkpt>
      <trkpt lat="45.93862" lon="4.72511">
        <ele>173</ele>
        <time>2018-04-20T13:24:38Z</time>
      </trkpt>
      <trkpt lat="45.93857" lon="4.72507">
        <ele>173</ele>
        <time>2018-04-20T13:24:40Z</time>
      </trkpt>
      <trkpt lat="45.93822" lon="4.72472">
        <ele>172</ele>
        <time>2018-04-20T13:24:50Z</time>
      </trkpt>
      <trkpt lat="45.93819" lon="4.72466">
        <ele>172</ele>
        <time>2018-04-20T13:24:51Z</time>
      </trkpt>
      <trkpt lat="45.93814" lon="4.72463">
        <ele>172</ele>
        <time>2018-04-20T13:24:52Z</time>
      </trkpt>
      <trkpt lat="45.93808" lon="4.72455">
        <ele>172</ele>
        <time>2018-04-20T13:24:55Z</time>
      </trkpt>
      <trkpt lat="45.93807" lon="4.72453">
        <ele>172</ele>
        <time>2018-04-20T13:24:56Z</time>
      </trkpt>
      <trkpt lat="45.93802" lon="4.72446">
        <ele>172</ele>
        <time>2018-04-20T13:24:58Z</time>
      </trkpt>
      <trkpt lat="45.93795" lon="4.7244">
        <ele>172</ele>
        <time>2018-04-20T13:24:59Z</time>
      </trkpt>
      <trkpt lat="45.93791" lon="4.72436">
        <ele>172</ele>
        <time>2018-04-20T13:25:01Z</time>
      </trkpt>
      <trkpt lat="45.93786" lon="4.7243">
        <ele>172</ele>
        <time>2018-04-20T13:25:02Z</time>
      </trkpt>
      <trkpt lat="45.9378" lon="4.72426">
        <ele>172</ele>
        <time>2018-04-20T13:25:04Z</time>
      </trkpt>
      <trkpt lat="45.93778" lon="4.72424">
        <ele>171</ele>
        <time>2018-04-20T13:25:05Z</time>
      </trkpt>
      <trkpt lat="45.93771" lon="4.72419">
        <ele>171</ele>
        <time>2018-04-20T13:25:07Z</time>
      </trkpt>
      <trkpt lat="45.93769" lon="4.72417">
        <ele>171</ele>
        <time>2018-04-20T13:25:08Z</time>
      </trkpt>
      <trkpt lat="45.93763" lon="4.72411">
        <ele>171</ele>
        <time>2018-04-20T13:25:11Z</time>
      </trkpt>
      <trkpt lat="45.93761" lon="4.72409">
        <ele>171</ele>
        <time>2018-04-20T13:25:12Z</time>
      </trkpt>
      <trkpt lat="45.93755" lon="4.724">
        <ele>171</ele>
        <time>2018-04-20T13:25:13Z</time>
      </trkpt>
      <trkpt lat="45.93751" lon="4.72397">
        <ele>171</ele>
        <time>2018-04-20T13:25:14Z</time>
      </trkpt>
      <trkpt lat="45.93745" lon="4.72392">
        <ele>171</ele>
        <time>2018-04-20T13:25:16Z</time>
      </trkpt>
      <trkpt lat="45.93741" lon="4.72389">
        <ele>171</ele>
        <time>2018-04-20T13:25:17Z</time>
      </trkpt>
      <trkpt lat="45.93735" lon="4.72384">
        <ele>171</ele>
        <time>2018-04-20T13:25:19Z</time>
      </trkpt>
      <trkpt lat="45.93731" lon="4.72381">
        <ele>171</ele>
        <time>2018-04-20T13:25:20Z</time>
      </trkpt>
      <trkpt lat="45.93726" lon="4.72376">
        <ele>171</ele>
        <time>2018-04-20T13:25:22Z</time>
      </trkpt>
      <trkpt lat="45.93721" lon="4.72371">
        <ele>172</ele>
        <time>2018-04-20T13:25:23Z</time>
      </trkpt>
      <trkpt lat="45.93715" lon="4.72365">
        <ele>172</ele>
        <time>2018-04-20T13:25:25Z</time>
      </trkpt>
      <trkpt lat="45.93713" lon="4.72363">
        <ele>172</ele>
        <time>2018-04-20T13:25:26Z</time>
      </trkpt>
      <trkpt lat="45.93707" lon="4.72357">
        <ele>171</ele>
        <time>2018-04-20T13:25:30Z</time>
      </trkpt>
      <trkpt lat="45.93703" lon="4.72353">
        <ele>171</ele>
        <time>2018-04-20T13:25:31Z</time>
      </trkpt>
      <trkpt lat="45.93703" lon="4.72353">
        <ele>171</ele>
        <time>2018-04-20T13:25:32Z</time>
      </trkpt>
      <trkpt lat="45.9369" lon="4.72339">
        <ele>171</ele>
        <time>2018-04-20T13:25:34Z</time>
      </trkpt>
      <trkpt lat="45.93683" lon="4.72332">
        <ele>171</ele>
        <time>2018-04-20T13:25:36Z</time>
      </trkpt>
      <trkpt lat="45.93679" lon="4.72328">
        <ele>171</ele>
        <time>2018-04-20T13:25:37Z</time>
      </trkpt>
      <trkpt lat="45.93672" lon="4.72322">
        <ele>171</ele>
        <time>2018-04-20T13:25:39Z</time>
      </trkpt>
      <trkpt lat="45.93666" lon="4.72318">
        <ele>172</ele>
        <time>2018-04-20T13:25:40Z</time>
      </trkpt>
      <trkpt lat="45.93662" lon="4.72314">
        <ele>172</ele>
        <time>2018-04-20T13:25:41Z</time>
      </trkpt>
      <trkpt lat="45.93658" lon="4.72309">
        <ele>172</ele>
        <time>2018-04-20T13:25:42Z</time>
      </trkpt>
      <trkpt lat="45.93651" lon="4.72302">
        <ele>172</ele>
        <time>2018-04-20T13:25:44Z</time>
      </trkpt>
      <trkpt lat="45.93648" lon="4.72299">
        <ele>172</ele>
        <time>2018-04-20T13:25:45Z</time>
      </trkpt>
      <trkpt lat="45.93639" lon="4.72297">
        <ele>172</ele>
        <time>2018-04-20T13:25:51Z</time>
      </trkpt>
      <trkpt lat="45.93639" lon="4.72297">
        <ele>172</ele>
        <time>2018-04-20T13:25:52Z</time>
      </trkpt>
      <trkpt lat="45.93634" lon="4.72289">
        <ele>172</ele>
        <time>2018-04-20T13:26:00Z</time>
      </trkpt>
      <trkpt lat="45.93632" lon="4.72287">
        <ele>172</ele>
        <time>2018-04-20T13:26:01Z</time>
      </trkpt>
      <trkpt lat="45.9363" lon="4.72285">
        <ele>172</ele>
        <time>2018-04-20T13:26:02Z</time>
      </trkpt>
      <trkpt lat="45.93622" lon="4.72278">
        <ele>172</ele>
        <time>2018-04-20T13:26:03Z</time>
      </trkpt>
      <trkpt lat="45.93619" lon="4.72276">
        <ele>172</ele>
        <time>2018-04-20T13:26:05Z</time>
      </trkpt>
      <trkpt lat="45.93614" lon="4.72271">
        <ele>172</ele>
        <time>2018-04-20T13:26:06Z</time>
      </trkpt>
      <trkpt lat="45.93607" lon="4.72265">
        <ele>172</ele>
        <time>2018-04-20T13:26:08Z</time>
      </trkpt>
      <trkpt lat="45.93606" lon="4.72264">
        <ele>173</ele>
        <time>2018-04-20T13:26:09Z</time>
      </trkpt>
      <trkpt lat="45.93601" lon="4.72259">
        <ele>173</ele>
        <time>2018-04-20T13:26:10Z</time>
      </trkpt>
      <trkpt lat="45.93598" lon="4.72256">
        <ele>173</ele>
        <time>2018-04-20T13:26:11Z</time>
      </trkpt>
      <trkpt lat="45.93591" lon="4.72249">
        <ele>173</ele>
        <time>2018-04-20T13:26:15Z</time>
      </trkpt>
      <trkpt lat="45.93591" lon="4.72248">
        <ele>173</ele>
        <time>2018-04-20T13:26:16Z</time>
      </trkpt>
      <trkpt lat="45.93583" lon="4.72241">
        <ele>173</ele>
        <time>2018-04-20T13:26:29Z</time>
      </trkpt>
      <trkpt lat="45.93583" lon="4.72241">
        <ele>173</ele>
        <time>2018-04-20T13:26:30Z</time>
      </trkpt>
      <trkpt lat="45.93575" lon="4.72235">
        <ele>173</ele>
        <time>2018-04-20T13:26:45Z</time>
      </trkpt>
      <trkpt lat="45.93573" lon="4.72233">
        <ele>173</ele>
        <time>2018-04-20T13:26:46Z</time>
      </trkpt>
      <trkpt lat="45.93568" lon="4.72231">
        <ele>173</ele>
        <time>2018-04-20T13:26:48Z</time>
      </trkpt>
      <trkpt lat="45.93558" lon="4.72233">
        <ele>173</ele>
        <time>2018-04-20T13:26:49Z</time>
      </trkpt>
      <trkpt lat="45.93554" lon="4.72242">
        <ele>173</ele>
        <time>2018-04-20T13:26:52Z</time>
      </trkpt>
      <trkpt lat="45.93553" lon="4.72245">
        <ele>172</ele>
        <time>2018-04-20T13:26:53Z</time>
      </trkpt>
      <trkpt lat="45.93551" lon="4.72249">
        <ele>172</ele>
        <time>2018-04-20T13:26:54Z</time>
      </trkpt>
      <trkpt lat="45.93547" lon="4.7226">
        <ele>172</ele>
        <time>2018-04-20T13:26:55Z</time>
      </trkpt>
      <trkpt lat="45.93543" lon="4.7227">
        <ele>172</ele>
        <time>2018-04-20T13:26:57Z</time>
      </trkpt>
      <trkpt lat="45.93541" lon="4.72276">
        <ele>172</ele>
        <time>2018-04-20T13:26:58Z</time>
      </trkpt>
      <trkpt lat="45.93536" lon="4.72286">
        <ele>172</ele>
        <time>2018-04-20T13:27:00Z</time>
      </trkpt>
      <trkpt lat="45.93534" lon="4.7229">
        <ele>172</ele>
        <time>2018-04-20T13:27:01Z</time>
      </trkpt>
      <trkpt lat="45.9353" lon="4.723">
        <ele>173</ele>
        <time>2018-04-20T13:27:03Z</time>
      </trkpt>
      <trkpt lat="45.93528" lon="4.72304">
        <ele>173</ele>
        <time>2018-04-20T13:27:04Z</time>
      </trkpt>
      <trkpt lat="45.93522" lon="4.72314">
        <ele>173</ele>
        <time>2018-04-20T13:27:08Z</time>
      </trkpt>
      <trkpt lat="45.93521" lon="4.72317">
        <ele>173</ele>
        <time>2018-04-20T13:27:09Z</time>
      </trkpt>
      <trkpt lat="45.93526" lon="4.72326">
        <ele>173</ele>
        <time>2018-04-20T13:27:16Z</time>
      </trkpt>
      <trkpt lat="45.93529" lon="4.72324">
        <ele>173</ele>
        <time>2018-04-20T13:27:17Z</time>
      </trkpt>
      <trkpt lat="45.93536" lon="4.72319">
        <ele>173</ele>
        <time>2018-04-20T13:27:20Z</time>
      </trkpt>
      <trkpt lat="45.93539" lon="4.72319">
        <ele>173</ele>
        <time>2018-04-20T13:27:21Z</time>
      </trkpt>
      <trkpt lat="45.93548" lon="4.72321">
        <ele>173</ele>
        <time>2018-04-20T13:27:24Z</time>
      </trkpt>
      <trkpt lat="45.9355" lon="4.72322">
        <ele>173</ele>
        <time>2018-04-20T13:27:25Z</time>
      </trkpt>
      <trkpt lat="45.93558" lon="4.72327">
        <ele>173</ele>
        <time>2018-04-20T13:27:28Z</time>
      </trkpt>
      <trkpt lat="45.93561" lon="4.72329">
        <ele>173</ele>
        <time>2018-04-20T13:27:29Z</time>
      </trkpt>
      <trkpt lat="45.93566" lon="4.72334">
        <ele>173</ele>
        <time>2018-04-20T13:27:31Z</time>
      </trkpt>
      <trkpt lat="45.93576" lon="4.72342">
        <ele>173</ele>
        <time>2018-04-20T13:27:32Z</time>
      </trkpt>
      <trkpt lat="45.93584" lon="4.72347">
        <ele>173</ele>
        <time>2018-04-20T13:27:35Z</time>
      </trkpt>
      <trkpt lat="45.93586" lon="4.72348">
        <ele>173</ele>
        <time>2018-04-20T13:27:36Z</time>
      </trkpt>
      <trkpt lat="45.93593" lon="4.72352">
        <ele>172</ele>
        <time>2018-04-20T13:27:39Z</time>
      </trkpt>
      <trkpt lat="45.93595" lon="4.72354">
        <ele>172</ele>
        <time>2018-04-20T13:27:40Z</time>
      </trkpt>
      <trkpt lat="45.93599" lon="4.72358">
        <ele>172</ele>
        <time>2018-04-20T13:27:42Z</time>
      </trkpt>
      <trkpt lat="45.93607" lon="4.72365">
        <ele>172</ele>
        <time>2018-04-20T13:27:43Z</time>
      </trkpt>
      <trkpt lat="45.93614" lon="4.72372">
        <ele>172</ele>
        <time>2018-04-20T13:27:45Z</time>
      </trkpt>
      <trkpt lat="45.93617" lon="4.72376">
        <ele>172</ele>
        <time>2018-04-20T13:27:46Z</time>
      </trkpt>
      <trkpt lat="45.93623" lon="4.72383">
        <ele>172</ele>
        <time>2018-04-20T13:27:48Z</time>
      </trkpt>
      <trkpt lat="45.93626" lon="4.72387">
        <ele>172</ele>
        <time>2018-04-20T13:27:49Z</time>
      </trkpt>
      <trkpt lat="45.93632" lon="4.72395">
        <ele>172</ele>
        <time>2018-04-20T13:27:51Z</time>
      </trkpt>
      <trkpt lat="45.93635" lon="4.724">
        <ele>172</ele>
        <time>2018-04-20T13:27:52Z</time>
      </trkpt>
      <trkpt lat="45.9364" lon="4.72405">
        <ele>172</ele>
        <time>2018-04-20T13:27:54Z</time>
      </trkpt>
      <trkpt lat="45.93644" lon="4.7241">
        <ele>172</ele>
        <time>2018-04-20T13:27:55Z</time>
      </trkpt>
      <trkpt lat="45.93649" lon="4.72419">
        <ele>172</ele>
        <time>2018-04-20T13:27:57Z</time>
      </trkpt>
      <trkpt lat="45.93651" lon="4.72423">
        <ele>172</ele>
        <time>2018-04-20T13:27:58Z</time>
      </trkpt>
      <trkpt lat="45.93656" lon="4.7243">
        <ele>172</ele>
        <time>2018-04-20T13:28:00Z</time>
      </trkpt>
      <trkpt lat="45.93658" lon="4.72432">
        <ele>172</ele>
        <time>2018-04-20T13:28:01Z</time>
      </trkpt>
      <trkpt lat="45.93662" lon="4.72441">
        <ele>172</ele>
        <time>2018-04-20T13:28:07Z</time>
      </trkpt>
      <trkpt lat="45.93663" lon="4.72443">
        <ele>172</ele>
        <time>2018-04-20T13:28:08Z</time>
      </trkpt>
      <trkpt lat="45.93668" lon="4.72451">
        <ele>171</ele>
        <time>2018-04-20T13:28:11Z</time>
      </trkpt>
      <trkpt lat="45.93671" lon="4.72453">
        <ele>171</ele>
        <time>2018-04-20T13:28:12Z</time>
      </trkpt>
      <trkpt lat="45.93676" lon="4.72458">
        <ele>171</ele>
        <time>2018-04-20T13:28:14Z</time>
      </trkpt>
      <trkpt lat="45.93679" lon="4.72461">
        <ele>171</ele>
        <time>2018-04-20T13:28:15Z</time>
      </trkpt>
      <trkpt lat="45.93685" lon="4.72466">
        <ele>171</ele>
        <time>2018-04-20T13:28:17Z</time>
      </trkpt>
      <trkpt lat="45.93688" lon="4.72469">
        <ele>171</ele>
        <time>2018-04-20T13:28:18Z</time>
      </trkpt>
      <trkpt lat="45.93693" lon="4.72473">
        <ele>171</ele>
        <time>2018-04-20T13:28:20Z</time>
      </trkpt>
      <trkpt lat="45.93696" lon="4.72475">
        <ele>171</ele>
        <time>2018-04-20T13:28:21Z</time>
      </trkpt>
      <trkpt lat="45.93704" lon="4.72481">
        <ele>171</ele>
        <time>2018-04-20T13:28:22Z</time>
      </trkpt>
      <trkpt lat="45.9371" lon="4.72487">
        <ele>171</ele>
        <time>2018-04-20T13:28:25Z</time>
      </trkpt>
      <trkpt lat="45.93712" lon="4.72489">
        <ele>171</ele>
        <time>2018-04-20T13:28:26Z</time>
      </trkpt>
      <trkpt lat="45.93718" lon="4.72496">
        <ele>171</ele>
        <time>2018-04-20T13:28:29Z</time>
      </trkpt>
      <trkpt lat="45.9372" lon="4.72499">
        <ele>171</ele>
        <time>2018-04-20T13:28:30Z</time>
      </trkpt>
      <trkpt lat="45.93725" lon="4.72504">
        <ele>171</ele>
        <time>2018-04-20T13:28:32Z</time>
      </trkpt>
      <trkpt lat="45.93727" lon="4.72507">
        <ele>171</ele>
        <time>2018-04-20T13:28:33Z</time>
      </trkpt>
      <trkpt lat="45.93732" lon="4.72513">
        <ele>171</ele>
        <time>2018-04-20T13:28:35Z</time>
      </trkpt>
      <trkpt lat="45.93739" lon="4.72521">
        <ele>171</ele>
        <time>2018-04-20T13:28:36Z</time>
      </trkpt>
      <trkpt lat="45.93747" lon="4.72527">
        <ele>172</ele>
        <time>2018-04-20T13:28:39Z</time>
      </trkpt>
      <trkpt lat="45.93753" lon="4.72531">
        <ele>173</ele>
        <time>2018-04-20T13:28:40Z</time>
      </trkpt>
      <trkpt lat="45.9376" lon="4.72538">
        <ele>173</ele>
        <time>2018-04-20T13:28:42Z</time>
      </trkpt>
      <trkpt lat="45.93764" lon="4.7254">
        <ele>173</ele>
        <time>2018-04-20T13:28:43Z</time>
      </trkpt>
      <trkpt lat="45.93771" lon="4.72546">
        <ele>173</ele>
        <time>2018-04-20T13:28:52Z</time>
      </trkpt>
      <trkpt lat="45.93776" lon="4.72551">
        <ele>173</ele>
        <time>2018-04-20T13:28:53Z</time>
      </trkpt>
      <trkpt lat="45.93782" lon="4.72557">
        <ele>173</ele>
        <time>2018-04-20T13:28:55Z</time>
      </trkpt>
      <trkpt lat="45.93785" lon="4.7256">
        <ele>174</ele>
        <time>2018-04-20T13:28:56Z</time>
      </trkpt>
      <trkpt lat="45.93791" lon="4.72566">
        <ele>174</ele>
        <time>2018-04-20T13:28:58Z</time>
      </trkpt>
      <trkpt lat="45.93798" lon="4.72573">
        <ele>174</ele>
        <time>2018-04-20T13:28:59Z</time>
      </trkpt>
      <trkpt lat="45.93802" lon="4.72579">
        <ele>174</ele>
        <time>2018-04-20T13:29:00Z</time>
      </trkpt>
      <trkpt lat="45.93805" lon="4.72583">
        <ele>174</ele>
        <time>2018-04-20T13:29:01Z</time>
      </trkpt>
      <trkpt lat="45.93809" lon="4.72589">
        <ele>174</ele>
        <time>2018-04-20T13:29:03Z</time>
      </trkpt>
      <trkpt lat="45.93811" lon="4.72593">
        <ele>174</ele>
        <time>2018-04-20T13:29:04Z</time>
      </trkpt>
      <trkpt lat="45.93812" lon="4.72605">
        <ele>173</ele>
        <time>2018-04-20T13:29:08Z</time>
      </trkpt>
      <trkpt lat="45.93811" lon="4.72608">
        <ele>173</ele>
        <time>2018-04-20T13:29:09Z</time>
      </trkpt>
      <trkpt lat="45.93807" lon="4.72615">
        <ele>173</ele>
        <time>2018-04-20T13:29:12Z</time>
      </trkpt>
      <trkpt lat="45.93805" lon="4.72618">
        <ele>173</ele>
        <time>2018-04-20T13:29:13Z</time>
      </trkpt>
      <trkpt lat="45.93802" lon="4.72621">
        <ele>173</ele>
        <time>2018-04-20T13:29:14Z</time>
      </trkpt>
      <trkpt lat="45.93796" lon="4.7263">
        <ele>173</ele>
        <time>2018-04-20T13:29:15Z</time>
      </trkpt>
      <trkpt lat="45.93793" lon="4.72635">
        <ele>173</ele>
        <time>2018-04-20T13:29:17Z</time>
      </trkpt>
      <trkpt lat="45.93788" lon="4.72642">
        <ele>173</ele>
        <time>2018-04-20T13:29:18Z</time>
      </trkpt>
      <trkpt lat="45.93786" lon="4.72646">
        <ele>173</ele>
        <time>2018-04-20T13:29:20Z</time>
      </trkpt>
      <trkpt lat="45.93781" lon="4.72652">
        <ele>173</ele>
        <time>2018-04-20T13:29:21Z</time>
      </trkpt>
      <trkpt lat="45.93775" lon="4.7266">
        <ele>173</ele>
        <time>2018-04-20T13:29:23Z</time>
      </trkpt>
      <trkpt lat="45.93772" lon="4.72665">
        <ele>173</ele>
        <time>2018-04-20T13:29:24Z</time>
      </trkpt>
      <trkpt lat="45.93766" lon="4.72672">
        <ele>173</ele>
        <time>2018-04-20T13:29:26Z</time>
      </trkpt>
      <trkpt lat="45.93762" lon="4.72676">
        <ele>173</ele>
        <time>2018-04-20T13:29:27Z</time>
      </trkpt>
      <trkpt lat="45.93758" lon="4.72681">
        <ele>173</ele>
        <time>2018-04-20T13:29:28Z</time>
      </trkpt>
      <trkpt lat="45.93755" lon="4.72685">
        <ele>173</ele>
        <time>2018-04-20T13:29:29Z</time>
      </trkpt>
      <trkpt lat="45.93751" lon="4.72689">
        <ele>173</ele>
        <time>2018-04-20T13:29:30Z</time>
      </trkpt>
      <trkpt lat="45.93748" lon="4.72693">
        <ele>173</ele>
        <time>2018-04-20T13:29:31Z</time>
      </trkpt>
      <trkpt lat="45.93741" lon="4.72699">
        <ele>173</ele>
        <time>2018-04-20T13:29:33Z</time>
      </trkpt>
      <trkpt lat="45.93738" lon="4.72703">
        <ele>173</ele>
        <time>2018-04-20T13:29:34Z</time>
      </trkpt>
      <trkpt lat="45.93731" lon="4.72711">
        <ele>173</ele>
        <time>2018-04-20T13:29:36Z</time>
      </trkpt>
      <trkpt lat="45.93728" lon="4.72714">
        <ele>173</ele>
        <time>2018-04-20T13:29:37Z</time>
      </trkpt>
      <trkpt lat="45.9372" lon="4.7272">
        <ele>173</ele>
        <time>2018-04-20T13:29:39Z</time>
      </trkpt>
      <trkpt lat="45.93717" lon="4.72724">
        <ele>173</ele>
        <time>2018-04-20T13:29:40Z</time>
      </trkpt>
      <trkpt lat="45.93714" lon="4.72727">
        <ele>173</ele>
        <time>2018-04-20T13:29:41Z</time>
      </trkpt>
      <trkpt lat="45.93709" lon="4.72731">
        <ele>173</ele>
        <time>2018-04-20T13:29:42Z</time>
      </trkpt>
      <trkpt lat="45.93705" lon="4.72735">
        <ele>173</ele>
        <time>2018-04-20T13:29:43Z</time>
      </trkpt>
      <trkpt lat="45.93701" lon="4.72739">
        <ele>173</ele>
        <time>2018-04-20T13:29:44Z</time>
      </trkpt>
      <trkpt lat="45.93697" lon="4.72742">
        <ele>173</ele>
        <time>2018-04-20T13:29:45Z</time>
      </trkpt>
      <trkpt lat="45.93693" lon="4.72746">
        <ele>173</ele>
        <time>2018-04-20T13:29:46Z</time>
      </trkpt>
      <trkpt lat="45.93685" lon="4.72753">
        <ele>173</ele>
        <time>2018-04-20T13:29:48Z</time>
      </trkpt>
      <trkpt lat="45.93682" lon="4.72756">
        <ele>173</ele>
        <time>2018-04-20T13:29:49Z</time>
      </trkpt>
      <trkpt lat="45.93677" lon="4.72761">
        <ele>173</ele>
        <time>2018-04-20T13:29:52Z</time>
      </trkpt>
      <trkpt lat="45.93671" lon="4.72767">
        <ele>173</ele>
        <time>2018-04-20T13:29:53Z</time>
      </trkpt>
      <trkpt lat="45.93667" lon="4.7277">
        <ele>173</ele>
        <time>2018-04-20T13:29:55Z</time>
      </trkpt>
      <trkpt lat="45.93662" lon="4.72774">
        <ele>174</ele>
        <time>2018-04-20T13:29:56Z</time>
      </trkpt>
      <trkpt lat="45.93654" lon="4.72778">
        <ele>174</ele>
        <time>2018-04-20T13:29:58Z</time>
      </trkpt>
      <trkpt lat="45.93651" lon="4.72781">
        <ele>174</ele>
        <time>2018-04-20T13:29:59Z</time>
      </trkpt>
      <trkpt lat="45.93644" lon="4.72787">
        <ele>173</ele>
        <time>2018-04-20T13:30:01Z</time>
      </trkpt>
      <trkpt lat="45.9364" lon="4.7279">
        <ele>173</ele>
        <time>2018-04-20T13:30:02Z</time>
      </trkpt>
      <trkpt lat="45.93633" lon="4.72796">
        <ele>173</ele>
        <time>2018-04-20T13:30:04Z</time>
      </trkpt>
      <trkpt lat="45.93629" lon="4.72799">
        <ele>173</ele>
        <time>2018-04-20T13:30:05Z</time>
      </trkpt>
      <trkpt lat="45.93621" lon="4.72805">
        <ele>173</ele>
        <time>2018-04-20T13:30:07Z</time>
      </trkpt>
      <trkpt lat="45.93617" lon="4.72808">
        <ele>173</ele>
        <time>2018-04-20T13:30:08Z</time>
      </trkpt>
      <trkpt lat="45.9361" lon="4.72813">
        <ele>173</ele>
        <time>2018-04-20T13:30:10Z</time>
      </trkpt>
      <trkpt lat="45.93608" lon="4.72814">
        <ele>173</ele>
        <time>2018-04-20T13:30:11Z</time>
      </trkpt>
      <trkpt lat="45.93603" lon="4.72818">
        <ele>173</ele>
        <time>2018-04-20T13:30:12Z</time>
      </trkpt>
      <trkpt lat="45.936" lon="4.72821">
        <ele>173</ele>
        <time>2018-04-20T13:30:13Z</time>
      </trkpt>
      <trkpt lat="45.93598" lon="4.72822">
        <ele>173</ele>
        <time>2018-04-20T13:30:14Z</time>
      </trkpt>
      <trkpt lat="45.93592" lon="4.72827">
        <ele>173</ele>
        <time>2018-04-20T13:30:15Z</time>
      </trkpt>
      <trkpt lat="45.93584" lon="4.72833">
        <ele>172</ele>
        <time>2018-04-20T13:30:17Z</time>
      </trkpt>
      <trkpt lat="45.93581" lon="4.72836">
        <ele>172</ele>
        <time>2018-04-20T13:30:18Z</time>
      </trkpt>
      <trkpt lat="45.93577" lon="4.72841">
        <ele>172</ele>
        <time>2018-04-20T13:30:19Z</time>
      </trkpt>
      <trkpt lat="45.93574" lon="4.72844">
        <ele>172</ele>
        <time>2018-04-20T13:30:20Z</time>
      </trkpt>
      <trkpt lat="45.93567" lon="4.72851">
        <ele>172</ele>
        <time>2018-04-20T13:30:22Z</time>
      </trkpt>
      <trkpt lat="45.93564" lon="4.72855">
        <ele>172</ele>
        <time>2018-04-20T13:30:23Z</time>
      </trkpt>
      <trkpt lat="45.93557" lon="4.72862">
        <ele>172</ele>
        <time>2018-04-20T13:30:25Z</time>
      </trkpt>
      <trkpt lat="45.93552" lon="4.72866">
        <ele>172</ele>
        <time>2018-04-20T13:30:26Z</time>
      </trkpt>
      <trkpt lat="45.93546" lon="4.72872">
        <ele>172</ele>
        <time>2018-04-20T13:30:28Z</time>
      </trkpt>
      <trkpt lat="45.93543" lon="4.72875">
        <ele>172</ele>
        <time>2018-04-20T13:30:29Z</time>
      </trkpt>
      <trkpt lat="45.93539" lon="4.72879">
        <ele>172</ele>
        <time>2018-04-20T13:30:30Z</time>
      </trkpt>
      <trkpt lat="45.93535" lon="4.72883">
        <ele>172</ele>
        <time>2018-04-20T13:30:31Z</time>
      </trkpt>
      <trkpt lat="45.93528" lon="4.72891">
        <ele>172</ele>
        <time>2018-04-20T13:30:33Z</time>
      </trkpt>
      <trkpt lat="45.93525" lon="4.72896">
        <ele>172</ele>
        <time>2018-04-20T13:30:34Z</time>
      </trkpt>
      <trkpt lat="45.9352" lon="4.72902">
        <ele>172</ele>
        <time>2018-04-20T13:30:36Z</time>
      </trkpt>
      <trkpt lat="45.93516" lon="4.72906">
        <ele>172</ele>
        <time>2018-04-20T13:30:37Z</time>
      </trkpt>
      <trkpt lat="45.9351" lon="4.72914">
        <ele>172</ele>
        <time>2018-04-20T13:30:39Z</time>
      </trkpt>
      <trkpt lat="45.93508" lon="4.72915">
        <ele>172</ele>
        <time>2018-04-20T13:30:40Z</time>
      </trkpt>
      <trkpt lat="45.93504" lon="4.7292">
        <ele>172</ele>
        <time>2018-04-20T13:30:41Z</time>
      </trkpt>
      <trkpt lat="45.93501" lon="4.72924">
        <ele>172</ele>
        <time>2018-04-20T13:30:42Z</time>
      </trkpt>
      <trkpt lat="45.93497" lon="4.72934">
        <ele>172</ele>
        <time>2018-04-20T13:30:44Z</time>
      </trkpt>
      <trkpt lat="45.93496" lon="4.7294">
        <ele>172</ele>
        <time>2018-04-20T13:30:45Z</time>
      </trkpt>
      <trkpt lat="45.93493" lon="4.72951">
        <ele>171</ele>
        <time>2018-04-20T13:30:47Z</time>
      </trkpt>
      <trkpt lat="45.93492" lon="4.72958">
        <ele>171</ele>
        <time>2018-04-20T13:30:48Z</time>
      </trkpt>
      <trkpt lat="45.9349" lon="4.72966">
        <ele>171</ele>
        <time>2018-04-20T13:30:50Z</time>
      </trkpt>
      <trkpt lat="45.93488" lon="4.72973">
        <ele>171</ele>
        <time>2018-04-20T13:30:51Z</time>
      </trkpt>
      <trkpt lat="45.93487" lon="4.72985">
        <ele>170</ele>
        <time>2018-04-20T13:30:53Z</time>
      </trkpt>
      <trkpt lat="45.93487" lon="4.72992">
        <ele>170</ele>
        <time>2018-04-20T13:30:54Z</time>
      </trkpt>
      <trkpt lat="45.93487" lon="4.72999">
        <ele>170</ele>
        <time>2018-04-20T13:30:57Z</time>
      </trkpt>
      <trkpt lat="45.93486" lon="4.73008">
        <ele>170</ele>
        <time>2018-04-20T13:30:58Z</time>
      </trkpt>
      <trkpt lat="45.93484" lon="4.7302">
        <ele>170</ele>
        <time>2018-04-20T13:31:00Z</time>
      </trkpt>
      <trkpt lat="45.93485" lon="4.73025">
        <ele>170</ele>
        <time>2018-04-20T13:31:01Z</time>
      </trkpt>
      <trkpt lat="45.93485" lon="4.73038">
        <ele>170</ele>
        <time>2018-04-20T13:31:03Z</time>
      </trkpt>
      <trkpt lat="45.93485" lon="4.7304">
        <ele>170</ele>
        <time>2018-04-20T13:31:04Z</time>
      </trkpt>
      <trkpt lat="45.93487" lon="4.73052">
        <ele>170</ele>
        <time>2018-04-20T13:31:06Z</time>
      </trkpt>
      <trkpt lat="45.93487" lon="4.73058">
        <ele>170</ele>
        <time>2018-04-20T13:31:07Z</time>
      </trkpt>
      <trkpt lat="45.93486" lon="4.73071">
        <ele>170</ele>
        <time>2018-04-20T13:31:10Z</time>
      </trkpt>
      <trkpt lat="45.93486" lon="4.73074">
        <ele>170</ele>
        <time>2018-04-20T13:31:11Z</time>
      </trkpt>
      <trkpt lat="45.93485" lon="4.73085">
        <ele>170</ele>
        <time>2018-04-20T13:31:12Z</time>
      </trkpt>
      <trkpt lat="45.93486" lon="4.73091">
        <ele>170</ele>
        <time>2018-04-20T13:31:13Z</time>
      </trkpt>
      <trkpt lat="45.93487" lon="4.73096">
        <ele>170</ele>
        <time>2018-04-20T13:31:14Z</time>
      </trkpt>
      <trkpt lat="45.93486" lon="4.73106">
        <ele>170</ele>
        <time>2018-04-20T13:31:15Z</time>
      </trkpt>
      <trkpt lat="45.93486" lon="4.73117">
        <ele>170</ele>
        <time>2018-04-20T13:31:17Z</time>
      </trkpt>
      <trkpt lat="45.93487" lon="4.73124">
        <ele>170</ele>
        <time>2018-04-20T13:31:18Z</time>
      </trkpt>
      <trkpt lat="45.93487" lon="4.73134">
        <ele>170</ele>
        <time>2018-04-20T13:31:20Z</time>
      </trkpt>
      <trkpt lat="45.93488" lon="4.73139">
        <ele>170</ele>
        <time>2018-04-20T13:31:21Z</time>
      </trkpt>
      <trkpt lat="45.93491" lon="4.7315">
        <ele>170</ele>
        <time>2018-04-20T13:31:23Z</time>
      </trkpt>
      <trkpt lat="45.93493" lon="4.73155">
        <ele>170</ele>
        <time>2018-04-20T13:31:24Z</time>
      </trkpt>
      <trkpt lat="45.93495" lon="4.73164">
        <ele>170</ele>
        <time>2018-04-20T13:31:26Z</time>
      </trkpt>
      <trkpt lat="45.93497" lon="4.73171">
        <ele>170</ele>
        <time>2018-04-20T13:31:27Z</time>
      </trkpt>
      <trkpt lat="45.93499" lon="4.73182">
        <ele>169</ele>
        <time>2018-04-20T13:31:31Z</time>
      </trkpt>
      <trkpt lat="45.935" lon="4.73186">
        <ele>169</ele>
        <time>2018-04-20T13:31:32Z</time>
      </trkpt>
      <trkpt lat="45.93501" lon="4.73196">
        <ele>169</ele>
        <time>2018-04-20T13:31:33Z</time>
      </trkpt>
      <trkpt lat="45.93501" lon="4.73202">
        <ele>169</ele>
        <time>2018-04-20T13:31:34Z</time>
      </trkpt>
      <trkpt lat="45.93502" lon="4.7321">
        <ele>169</ele>
        <time>2018-04-20T13:31:35Z</time>
      </trkpt>
      <trkpt lat="45.93504" lon="4.73217">
        <ele>169</ele>
        <time>2018-04-20T13:31:36Z</time>
      </trkpt>
      <trkpt lat="45.93506" lon="4.73224">
        <ele>169</ele>
        <time>2018-04-20T13:31:37Z</time>
      </trkpt>
      <trkpt lat="45.93508" lon="4.73232">
        <ele>169</ele>
        <time>2018-04-20T13:31:38Z</time>
      </trkpt>
      <trkpt lat="45.9351" lon="4.73239">
        <ele>169</ele>
        <time>2018-04-20T13:31:39Z</time>
      </trkpt>
      <trkpt lat="45.93512" lon="4.73246">
        <ele>169</ele>
        <time>2018-04-20T13:31:40Z</time>
      </trkpt>
      <trkpt lat="45.93514" lon="4.73252">
        <ele>169</ele>
        <time>2018-04-20T13:31:41Z</time>
      </trkpt>
      <trkpt lat="45.93515" lon="4.73258">
        <ele>169</ele>
        <time>2018-04-20T13:31:42Z</time>
      </trkpt>
      <trkpt lat="45.93518" lon="4.7327">
        <ele>169</ele>
        <time>2018-04-20T13:31:44Z</time>
      </trkpt>
      <trkpt lat="45.93519" lon="4.73276">
        <ele>169</ele>
        <time>2018-04-20T13:31:45Z</time>
      </trkpt>
      <trkpt lat="45.93522" lon="4.73288">
        <ele>169</ele>
        <time>2018-04-20T13:31:47Z</time>
      </trkpt>
      <trkpt lat="45.93523" lon="4.73294">
        <ele>169</ele>
        <time>2018-04-20T13:31:48Z</time>
      </trkpt>
      <trkpt lat="45.93524" lon="4.73305">
        <ele>169</ele>
        <time>2018-04-20T13:31:50Z</time>
      </trkpt>
      <trkpt lat="45.93524" lon="4.73313">
        <ele>169</ele>
        <time>2018-04-20T13:31:51Z</time>
      </trkpt>
      <trkpt lat="45.93525" lon="4.73325">
        <ele>169</ele>
        <time>2018-04-20T13:31:53Z</time>
      </trkpt>
      <trkpt lat="45.93525" lon="4.73332">
        <ele>169</ele>
        <time>2018-04-20T13:31:54Z</time>
      </trkpt>
      <trkpt lat="45.93528" lon="4.73341">
        <ele>169</ele>
        <time>2018-04-20T13:31:56Z</time>
      </trkpt>
      <trkpt lat="45.93528" lon="4.73344">
        <ele>169</ele>
        <time>2018-04-20T13:31:57Z</time>
      </trkpt>
      <trkpt lat="45.93529" lon="4.73353">
        <ele>169</ele>
        <time>2018-04-20T13:31:58Z</time>
      </trkpt>
      <trkpt lat="45.9353" lon="4.73358">
        <ele>169</ele>
        <time>2018-04-20T13:31:59Z</time>
      </trkpt>
      <trkpt lat="45.93533" lon="4.73369">
        <ele>169</ele>
        <time>2018-04-20T13:32:01Z</time>
      </trkpt>
      <trkpt lat="45.93533" lon="4.73375">
        <ele>169</ele>
        <time>2018-04-20T13:32:02Z</time>
      </trkpt>
      <trkpt lat="45.93536" lon="4.73387">
        <ele>169</ele>
        <time>2018-04-20T13:32:04Z</time>
      </trkpt>
      <trkpt lat="45.93537" lon="4.73393">
        <ele>169</ele>
        <time>2018-04-20T13:32:05Z</time>
      </trkpt>
      <trkpt lat="45.93539" lon="4.73404">
        <ele>169</ele>
        <time>2018-04-20T13:32:07Z</time>
      </trkpt>
      <trkpt lat="45.9354" lon="4.73409">
        <ele>169</ele>
        <time>2018-04-20T13:32:08Z</time>
      </trkpt>
      <trkpt lat="45.93542" lon="4.73421">
        <ele>169</ele>
        <time>2018-04-20T13:32:10Z</time>
      </trkpt>
      <trkpt lat="45.93543" lon="4.73426">
        <ele>169</ele>
        <time>2018-04-20T13:32:11Z</time>
      </trkpt>
      <trkpt lat="45.93547" lon="4.73436">
        <ele>169</ele>
        <time>2018-04-20T13:32:13Z</time>
      </trkpt>
      <trkpt lat="45.93548" lon="4.73442">
        <ele>169</ele>
        <time>2018-04-20T13:32:14Z</time>
      </trkpt>
      <trkpt lat="45.93551" lon="4.73453">
        <ele>169</ele>
        <time>2018-04-20T13:32:16Z</time>
      </trkpt>
      <trkpt lat="45.93552" lon="4.73456">
        <ele>169</ele>
        <time>2018-04-20T13:32:17Z</time>
      </trkpt>
      <trkpt lat="45.93553" lon="4.73459">
        <ele>169</ele>
        <time>2018-04-20T13:32:18Z</time>
      </trkpt>
      <trkpt lat="45.93555" lon="4.73468">
        <ele>169</ele>
        <time>2018-04-20T13:32:19Z</time>
      </trkpt>
      <trkpt lat="45.93558" lon="4.73479">
        <ele>169</ele>
        <time>2018-04-20T13:32:21Z</time>
      </trkpt>
      <trkpt lat="45.9356" lon="4.73484">
        <ele>169</ele>
        <time>2018-04-20T13:32:22Z</time>
      </trkpt>
      <trkpt lat="45.93561" lon="4.73491">
        <ele>169</ele>
        <time>2018-04-20T13:32:23Z</time>
      </trkpt>
      <trkpt lat="45.93561" lon="4.735">
        <ele>169</ele>
        <time>2018-04-20T13:32:24Z</time>
      </trkpt>
      <trkpt lat="45.93564" lon="4.73506">
        <ele>168</ele>
        <time>2018-04-20T13:32:25Z</time>
      </trkpt>
      <trkpt lat="45.93565" lon="4.73513">
        <ele>168</ele>
        <time>2018-04-20T13:32:26Z</time>
      </trkpt>
      <trkpt lat="45.93569" lon="4.73519">
        <ele>168</ele>
        <time>2018-04-20T13:32:27Z</time>
      </trkpt>
      <trkpt lat="45.9357" lon="4.73525">
        <ele>168</ele>
        <time>2018-04-20T13:32:28Z</time>
      </trkpt>
      <trkpt lat="45.93572" lon="4.73532">
        <ele>169</ele>
        <time>2018-04-20T13:32:29Z</time>
      </trkpt>
      <trkpt lat="45.93573" lon="4.73538">
        <ele>169</ele>
        <time>2018-04-20T13:32:30Z</time>
      </trkpt>
      <trkpt lat="45.93575" lon="4.73549">
        <ele>168</ele>
        <time>2018-04-20T13:32:32Z</time>
      </trkpt>
      <trkpt lat="45.93577" lon="4.73554">
        <ele>168</ele>
        <time>2018-04-20T13:32:33Z</time>
      </trkpt>
      <trkpt lat="45.93577" lon="4.73565">
        <ele>168</ele>
        <time>2018-04-20T13:32:35Z</time>
      </trkpt>
      <trkpt lat="45.93577" lon="4.7357">
        <ele>168</ele>
        <time>2018-04-20T13:32:36Z</time>
      </trkpt>
      <trkpt lat="45.9358" lon="4.7358">
        <ele>168</ele>
        <time>2018-04-20T13:32:38Z</time>
      </trkpt>
      <trkpt lat="45.93581" lon="4.73585">
        <ele>168</ele>
        <time>2018-04-20T13:32:39Z</time>
      </trkpt>
      <trkpt lat="45.93582" lon="4.73598">
        <ele>168</ele>
        <time>2018-04-20T13:32:41Z</time>
      </trkpt>
      <trkpt lat="45.93582" lon="4.73605">
        <ele>168</ele>
        <time>2018-04-20T13:32:42Z</time>
      </trkpt>
      <trkpt lat="45.93582" lon="4.73616">
        <ele>168</ele>
        <time>2018-04-20T13:32:44Z</time>
      </trkpt>
      <trkpt lat="45.93581" lon="4.7362">
        <ele>168</ele>
        <time>2018-04-20T13:32:45Z</time>
      </trkpt>
      <trkpt lat="45.93581" lon="4.73626">
        <ele>168</ele>
        <time>2018-04-20T13:32:46Z</time>
      </trkpt>
      <trkpt lat="45.93581" lon="4.73633">
        <ele>168</ele>
        <time>2018-04-20T13:32:47Z</time>
      </trkpt>
      <trkpt lat="45.93583" lon="4.73645">
        <ele>168</ele>
        <time>2018-04-20T13:32:49Z</time>
      </trkpt>
      <trkpt lat="45.93583" lon="4.73651">
        <ele>168</ele>
        <time>2018-04-20T13:32:50Z</time>
      </trkpt>
      <trkpt lat="45.93585" lon="4.73663">
        <ele>168</ele>
        <time>2018-04-20T13:32:52Z</time>
      </trkpt>
      <trkpt lat="45.93585" lon="4.73669">
        <ele>168</ele>
        <time>2018-04-20T13:32:53Z</time>
      </trkpt>
      <trkpt lat="45.93586" lon="4.7368">
        <ele>169</ele>
        <time>2018-04-20T13:32:55Z</time>
      </trkpt>
      <trkpt lat="45.93587" lon="4.73686">
        <ele>169</ele>
        <time>2018-04-20T13:32:56Z</time>
      </trkpt>
      <trkpt lat="45.93587" lon="4.73697">
        <ele>169</ele>
        <time>2018-04-20T13:32:59Z</time>
      </trkpt>
      <trkpt lat="45.93588" lon="4.737">
        <ele>169</ele>
        <time>2018-04-20T13:33:00Z</time>
      </trkpt>
      <trkpt lat="45.93588" lon="4.73702">
        <ele>169</ele>
        <time>2018-04-20T13:33:01Z</time>
      </trkpt>
      <trkpt lat="45.93588" lon="4.73704">
        <ele>169</ele>
        <time>2018-04-20T13:33:02Z</time>
      </trkpt>
      <trkpt lat="45.93587" lon="4.73705">
        <ele>169</ele>
        <time>2018-04-20T13:37:36Z</time>
      </trkpt>
      <trkpt lat="45.93587" lon="4.73705">
        <ele>169</ele>
        <time>2018-04-20T13:37:37Z</time>
      </trkpt>
      <trkpt lat="45.93582" lon="4.73712">
        <ele>169</ele>
        <time>2018-04-20T13:37:41Z</time>
      </trkpt>
      <trkpt lat="45.93579" lon="4.73715">
        <ele>169</ele>
        <time>2018-04-20T13:37:42Z</time>
      </trkpt>
      <trkpt lat="45.93573" lon="4.73723">
        <ele>169</ele>
        <time>2018-04-20T13:37:43Z</time>
      </trkpt>
      <trkpt lat="45.9357" lon="4.73727">
        <ele>169</ele>
        <time>2018-04-20T13:37:44Z</time>
      </trkpt>
      <trkpt lat="45.93567" lon="4.73731">
        <ele>169</ele>
        <time>2018-04-20T13:37:46Z</time>
      </trkpt>
      <trkpt lat="45.93561" lon="4.73737">
        <ele>169</ele>
        <time>2018-04-20T13:37:47Z</time>
      </trkpt>
      <trkpt lat="45.93558" lon="4.7374">
        <ele>169</ele>
        <time>2018-04-20T13:37:48Z</time>
      </trkpt>
      <trkpt lat="45.93554" lon="4.73744">
        <ele>169</ele>
        <time>2018-04-20T13:37:49Z</time>
      </trkpt>
      <trkpt lat="45.93547" lon="4.73753">
        <ele>169</ele>
        <time>2018-04-20T13:37:51Z</time>
      </trkpt>
      <trkpt lat="45.93544" lon="4.73757">
        <ele>169</ele>
        <time>2018-04-20T13:37:52Z</time>
      </trkpt>
      <trkpt lat="45.93538" lon="4.73764">
        <ele>169</ele>
        <time>2018-04-20T13:37:54Z</time>
      </trkpt>
      <trkpt lat="45.93534" lon="4.73767">
        <ele>169</ele>
        <time>2018-04-20T13:37:55Z</time>
      </trkpt>
      <trkpt lat="45.9353" lon="4.73771">
        <ele>169</ele>
        <time>2018-04-20T13:37:56Z</time>
      </trkpt>
      <trkpt lat="45.93526" lon="4.73775">
        <ele>169</ele>
        <time>2018-04-20T13:37:57Z</time>
      </trkpt>
      <trkpt lat="45.93519" lon="4.73783">
        <ele>169</ele>
        <time>2018-04-20T13:37:59Z</time>
      </trkpt>
      <trkpt lat="45.93516" lon="4.73787">
        <ele>169</ele>
        <time>2018-04-20T13:38:00Z</time>
      </trkpt>
      <trkpt lat="45.93509" lon="4.73793">
        <ele>169</ele>
        <time>2018-04-20T13:38:02Z</time>
      </trkpt>
      <trkpt lat="45.93506" lon="4.73797">
        <ele>169</ele>
        <time>2018-04-20T13:38:03Z</time>
      </trkpt>
      <trkpt lat="45.93499" lon="4.73803">
        <ele>169</ele>
        <time>2018-04-20T13:38:05Z</time>
      </trkpt>
      <trkpt lat="45.93498" lon="4.73804">
        <ele>169</ele>
        <time>2018-04-20T13:38:06Z</time>
      </trkpt>
      <trkpt lat="45.93493" lon="4.73808">
        <ele>169</ele>
        <time>2018-04-20T13:38:07Z</time>
      </trkpt>
      <trkpt lat="45.93489" lon="4.73811">
        <ele>169</ele>
        <time>2018-04-20T13:38:08Z</time>
      </trkpt>
      <trkpt lat="45.93482" lon="4.73817">
        <ele>169</ele>
        <time>2018-04-20T13:38:10Z</time>
      </trkpt>
      <trkpt lat="45.93479" lon="4.73819">
        <ele>169</ele>
        <time>2018-04-20T13:38:11Z</time>
      </trkpt>
      <trkpt lat="45.93471" lon="4.73824">
        <ele>169</ele>
        <time>2018-04-20T13:38:13Z</time>
      </trkpt>
      <trkpt lat="45.93468" lon="4.73826">
        <ele>169</ele>
        <time>2018-04-20T13:38:14Z</time>
      </trkpt>
      <trkpt lat="45.9346" lon="4.73828">
        <ele>169</ele>
        <time>2018-04-20T13:38:16Z</time>
      </trkpt>
      <trkpt lat="45.93456" lon="4.7383">
        <ele>169</ele>
        <time>2018-04-20T13:38:17Z</time>
      </trkpt>
      <trkpt lat="45.93449" lon="4.73833">
        <ele>169</ele>
        <time>2018-04-20T13:38:19Z</time>
      </trkpt>
      <trkpt lat="45.93445" lon="4.73835">
        <ele>169</ele>
        <time>2018-04-20T13:38:20Z</time>
      </trkpt>
      <trkpt lat="45.9344" lon="4.73836">
        <ele>169</ele>
        <time>2018-04-20T13:38:21Z</time>
      </trkpt>
      <trkpt lat="45.93435" lon="4.73837">
        <ele>169</ele>
        <time>2018-04-20T13:38:22Z</time>
      </trkpt>
      <trkpt lat="45.93428" lon="4.73842">
        <ele>169</ele>
        <time>2018-04-20T13:38:24Z</time>
      </trkpt>
      <trkpt lat="45.93425" lon="4.73844">
        <ele>169</ele>
        <time>2018-04-20T13:38:25Z</time>
      </trkpt>
      <trkpt lat="45.93418" lon="4.73851">
        <ele>169</ele>
        <time>2018-04-20T13:38:27Z</time>
      </trkpt>
      <trkpt lat="45.93415" lon="4.73851">
        <ele>169</ele>
        <time>2018-04-20T13:38:28Z</time>
      </trkpt>
      <trkpt lat="45.93407" lon="4.73857">
        <ele>169</ele>
        <time>2018-04-20T13:38:30Z</time>
      </trkpt>
      <trkpt lat="45.93404" lon="4.7386">
        <ele>169</ele>
        <time>2018-04-20T13:38:31Z</time>
      </trkpt>
      <trkpt lat="45.93396" lon="4.73864">
        <ele>169</ele>
        <time>2018-04-20T13:38:33Z</time>
      </trkpt>
      <trkpt lat="45.93393" lon="4.73865">
        <ele>169</ele>
        <time>2018-04-20T13:38:34Z</time>
      </trkpt>
      <trkpt lat="45.93386" lon="4.7387">
        <ele>169</ele>
        <time>2018-04-20T13:38:36Z</time>
      </trkpt>
      <trkpt lat="45.93383" lon="4.73873">
        <ele>169</ele>
        <time>2018-04-20T13:38:37Z</time>
      </trkpt>
      <trkpt lat="45.93376" lon="4.73877">
        <ele>168</ele>
        <time>2018-04-20T13:38:39Z</time>
      </trkpt>
      <trkpt lat="45.93372" lon="4.7388">
        <ele>168</ele>
        <time>2018-04-20T13:38:40Z</time>
      </trkpt>
      <trkpt lat="45.93365" lon="4.73887">
        <ele>168</ele>
        <time>2018-04-20T13:38:42Z</time>
      </trkpt>
      <trkpt lat="45.93362" lon="4.73891">
        <ele>168</ele>
        <time>2018-04-20T13:38:43Z</time>
      </trkpt>
      <trkpt lat="45.93356" lon="4.73898">
        <ele>168</ele>
        <time>2018-04-20T13:38:45Z</time>
      </trkpt>
      <trkpt lat="45.93354" lon="4.73901">
        <ele>168</ele>
        <time>2018-04-20T13:38:46Z</time>
      </trkpt>
      <trkpt lat="45.93348" lon="4.7391">
        <ele>168</ele>
        <time>2018-04-20T13:38:48Z</time>
      </trkpt>
      <trkpt lat="45.93346" lon="4.73914">
        <ele>168</ele>
        <time>2018-04-20T13:38:49Z</time>
      </trkpt>
      <trkpt lat="45.93345" lon="4.73916">
        <ele>168</ele>
        <time>2018-04-20T13:38:50Z</time>
      </trkpt>
      <trkpt lat="45.93341" lon="4.73926">
        <ele>168</ele>
        <time>2018-04-20T13:38:51Z</time>
      </trkpt>
      <trkpt lat="45.93338" lon="4.73931">
        <ele>168</ele>
        <time>2018-04-20T13:38:52Z</time>
      </trkpt>
      <trkpt lat="45.93334" lon="4.73936">
        <ele>168</ele>
        <time>2018-04-20T13:38:53Z</time>
      </trkpt>
      <trkpt lat="45.93331" lon="4.73942">
        <ele>168</ele>
        <time>2018-04-20T13:38:54Z</time>
      </trkpt>
      <trkpt lat="45.93327" lon="4.73947">
        <ele>168</ele>
        <time>2018-04-20T13:38:55Z</time>
      </trkpt>
      <trkpt lat="45.93323" lon="4.73953">
        <ele>168</ele>
        <time>2018-04-20T13:38:57Z</time>
      </trkpt>
      <trkpt lat="45.9332" lon="4.7396">
        <ele>168</ele>
        <time>2018-04-20T13:38:58Z</time>
      </trkpt>
      <trkpt lat="45.93317" lon="4.73966">
        <ele>168</ele>
        <time>2018-04-20T13:38:59Z</time>
      </trkpt>
      <trkpt lat="45.93314" lon="4.73972">
        <ele>168</ele>
        <time>2018-04-20T13:39:00Z</time>
      </trkpt>
      <trkpt lat="45.93311" lon="4.73977">
        <ele>168</ele>
        <time>2018-04-20T13:39:01Z</time>
      </trkpt>
      <trkpt lat="45.93309" lon="4.73983">
        <ele>168</ele>
        <time>2018-04-20T13:39:02Z</time>
      </trkpt>
      <trkpt lat="45.93305" lon="4.7399">
        <ele>168</ele>
        <time>2018-04-20T13:39:04Z</time>
      </trkpt>
      <trkpt lat="45.93303" lon="4.73994">
        <ele>168</ele>
        <time>2018-04-20T13:39:05Z</time>
      </trkpt>
      <trkpt lat="45.933" lon="4.73998">
        <ele>168</ele>
        <time>2018-04-20T13:39:06Z</time>
      </trkpt>
      <trkpt lat="45.93297" lon="4.74004">
        <ele>168</ele>
        <time>2018-04-20T13:39:07Z</time>
      </trkpt>
      <trkpt lat="45.93292" lon="4.74014">
        <ele>168</ele>
        <time>2018-04-20T13:39:09Z</time>
      </trkpt>
      <trkpt lat="45.9329" lon="4.7402">
        <ele>168</ele>
        <time>2018-04-20T13:39:10Z</time>
      </trkpt>
      <trkpt lat="45.93284" lon="4.74028">
        <ele>168</ele>
        <time>2018-04-20T13:39:12Z</time>
      </trkpt>
      <trkpt lat="45.93282" lon="4.74034">
        <ele>168</ele>
        <time>2018-04-20T13:39:13Z</time>
      </trkpt>
      <trkpt lat="45.93277" lon="4.74044">
        <ele>168</ele>
        <time>2018-04-20T13:39:15Z</time>
      </trkpt>
      <trkpt lat="45.93275" lon="4.74048">
        <ele>168</ele>
        <time>2018-04-20T13:39:16Z</time>
      </trkpt>
      <trkpt lat="45.9327" lon="4.74059">
        <ele>168</ele>
        <time>2018-04-20T13:39:19Z</time>
      </trkpt>
      <trkpt lat="45.93269" lon="4.74061">
        <ele>168</ele>
        <time>2018-04-20T13:39:20Z</time>
      </trkpt>
      <trkpt lat="45.93264" lon="4.74069">
        <ele>167</ele>
        <time>2018-04-20T13:39:21Z</time>
      </trkpt>
      <trkpt lat="45.93262" lon="4.74073">
        <ele>167</ele>
        <time>2018-04-20T13:39:22Z</time>
      </trkpt>
      <trkpt lat="45.93257" lon="4.74083">
        <ele>167</ele>
        <time>2018-04-20T13:39:24Z</time>
      </trkpt>
      <trkpt lat="45.93254" lon="4.74088">
        <ele>167</ele>
        <time>2018-04-20T13:39:25Z</time>
      </trkpt>
      <trkpt lat="45.9325" lon="4.74096">
        <ele>167</ele>
        <time>2018-04-20T13:39:27Z</time>
      </trkpt>
      <trkpt lat="45.93248" lon="4.74102">
        <ele>167</ele>
        <time>2018-04-20T13:39:28Z</time>
      </trkpt>
      <trkpt lat="45.93243" lon="4.7411">
        <ele>167</ele>
        <time>2018-04-20T13:39:30Z</time>
      </trkpt>
      <trkpt lat="45.9324" lon="4.74115">
        <ele>167</ele>
        <time>2018-04-20T13:39:31Z</time>
      </trkpt>
      <trkpt lat="45.93234" lon="4.74117">
        <ele>167</ele>
        <time>2018-04-20T13:39:34Z</time>
      </trkpt>
      <trkpt lat="45.93226" lon="4.74118">
        <ele>167</ele>
        <time>2018-04-20T13:39:35Z</time>
      </trkpt>
      <trkpt lat="45.93219" lon="4.74114">
        <ele>167</ele>
        <time>2018-04-20T13:39:37Z</time>
      </trkpt>
      <trkpt lat="45.93217" lon="4.74114">
        <ele>167</ele>
        <time>2018-04-20T13:39:38Z</time>
      </trkpt>
      <trkpt lat="45.93211" lon="4.74109">
        <ele>167</ele>
        <time>2018-04-20T13:39:41Z</time>
      </trkpt>
      <trkpt lat="45.93204" lon="4.74102">
        <ele>167</ele>
        <time>2018-04-20T13:39:42Z</time>
      </trkpt>
      <trkpt lat="45.93201" lon="4.74099">
        <ele>167</ele>
        <time>2018-04-20T13:39:43Z</time>
      </trkpt>
      <trkpt lat="45.93197" lon="4.74094">
        <ele>167</ele>
        <time>2018-04-20T13:39:44Z</time>
      </trkpt>
      <trkpt lat="45.9319" lon="4.74088">
        <ele>168</ele>
        <time>2018-04-20T13:39:46Z</time>
      </trkpt>
      <trkpt lat="45.93186" lon="4.74084">
        <ele>168</ele>
        <time>2018-04-20T13:39:47Z</time>
      </trkpt>
      <trkpt lat="45.9318" lon="4.74078">
        <ele>168</ele>
        <time>2018-04-20T13:39:49Z</time>
      </trkpt>
      <trkpt lat="45.93176" lon="4.74074">
        <ele>168</ele>
        <time>2018-04-20T13:39:50Z</time>
      </trkpt>
      <trkpt lat="45.93169" lon="4.74069">
        <ele>168</ele>
        <time>2018-04-20T13:39:52Z</time>
      </trkpt>
      <trkpt lat="45.93166" lon="4.74065">
        <ele>168</ele>
        <time>2018-04-20T13:39:53Z</time>
      </trkpt>
      <trkpt lat="45.9316" lon="4.74056">
        <ele>168</ele>
        <time>2018-04-20T13:39:55Z</time>
      </trkpt>
      <trkpt lat="45.93157" lon="4.74054">
        <ele>168</ele>
        <time>2018-04-20T13:39:56Z</time>
      </trkpt>
      <trkpt lat="45.93151" lon="4.74046">
        <ele>168</ele>
        <time>2018-04-20T13:39:58Z</time>
      </trkpt>
      <trkpt lat="45.93147" lon="4.74042">
        <ele>168</ele>
        <time>2018-04-20T13:39:59Z</time>
      </trkpt>
      <trkpt lat="45.93141" lon="4.74038">
        <ele>168</ele>
        <time>2018-04-20T13:40:00Z</time>
      </trkpt>
      <trkpt lat="45.93137" lon="4.74034">
        <ele>168</ele>
        <time>2018-04-20T13:40:01Z</time>
      </trkpt>
      <trkpt lat="45.9313" lon="4.74029">
        <ele>168</ele>
        <time>2018-04-20T13:40:03Z</time>
      </trkpt>
      <trkpt lat="45.93128" lon="4.74028">
        <ele>168</ele>
        <time>2018-04-20T13:40:04Z</time>
      </trkpt>
      <trkpt lat="45.93121" lon="4.74025">
        <ele>168</ele>
        <time>2018-04-20T13:40:05Z</time>
      </trkpt>
      <trkpt lat="45.93117" lon="4.74023">
        <ele>168</ele>
        <time>2018-04-20T13:40:06Z</time>
      </trkpt>
      <trkpt lat="45.93109" lon="4.7402">
        <ele>168</ele>
        <time>2018-04-20T13:40:08Z</time>
      </trkpt>
      <trkpt lat="45.93104" lon="4.7402">
        <ele>168</ele>
        <time>2018-04-20T13:40:09Z</time>
      </trkpt>
      <trkpt lat="45.93097" lon="4.74018">
        <ele>168</ele>
        <time>2018-04-20T13:40:11Z</time>
      </trkpt>
      <trkpt lat="45.93093" lon="4.74017">
        <ele>168</ele>
        <time>2018-04-20T13:40:12Z</time>
      </trkpt>
      <trkpt lat="45.93088" lon="4.74015">
        <ele>168</ele>
        <time>2018-04-20T13:40:13Z</time>
      </trkpt>
      <trkpt lat="45.93083" lon="4.74015">
        <ele>169</ele>
        <time>2018-04-20T13:40:14Z</time>
      </trkpt>
      <trkpt lat="45.93078" lon="4.74013">
        <ele>169</ele>
        <time>2018-04-20T13:40:15Z</time>
      </trkpt>
      <trkpt lat="45.93073" lon="4.74012">
        <ele>169</ele>
        <time>2018-04-20T13:40:16Z</time>
      </trkpt>
      <trkpt lat="45.93068" lon="4.74011">
        <ele>169</ele>
        <time>2018-04-20T13:40:17Z</time>
      </trkpt>
      <trkpt lat="45.93064" lon="4.74009">
        <ele>169</ele>
        <time>2018-04-20T13:40:18Z</time>
      </trkpt>
      <trkpt lat="45.93059" lon="4.74007">
        <ele>169</ele>
        <time>2018-04-20T13:40:19Z</time>
      </trkpt>
      <trkpt lat="45.93055" lon="4.74005">
        <ele>169</ele>
        <time>2018-04-20T13:40:20Z</time>
      </trkpt>
      <trkpt lat="45.93049" lon="4.74007">
        <ele>169</ele>
        <time>2018-04-20T13:40:21Z</time>
      </trkpt>
      <trkpt lat="45.93045" lon="4.74006">
        <ele>169</ele>
        <time>2018-04-20T13:40:22Z</time>
      </trkpt>
      <trkpt lat="45.93037" lon="4.74003">
        <ele>169</ele>
        <time>2018-04-20T13:40:24Z</time>
      </trkpt>
      <trkpt lat="45.93033" lon="4.74001">
        <ele>169</ele>
        <time>2018-04-20T13:40:25Z</time>
      </trkpt>
      <trkpt lat="45.93025" lon="4.74002">
        <ele>170</ele>
        <time>2018-04-20T13:40:27Z</time>
      </trkpt>
      <trkpt lat="45.93022" lon="4.74002">
        <ele>170</ele>
        <time>2018-04-20T13:40:28Z</time>
      </trkpt>
      <trkpt lat="45.93018" lon="4.74003">
        <ele>170</ele>
        <time>2018-04-20T13:40:30Z</time>
      </trkpt>
      <trkpt lat="45.93011" lon="4.74007">
        <ele>170</ele>
        <time>2018-04-20T13:40:31Z</time>
      </trkpt>
      <trkpt lat="45.93006" lon="4.74013">
        <ele>170</ele>
        <time>2018-04-20T13:40:33Z</time>
      </trkpt>
      <trkpt lat="45.93002" lon="4.74021">
        <ele>170</ele>
        <time>2018-04-20T13:40:34Z</time>
      </trkpt>
      <trkpt lat="45.93" lon="4.74032">
        <ele>171</ele>
        <time>2018-04-20T13:40:36Z</time>
      </trkpt>
      <trkpt lat="45.92998" lon="4.74039">
        <ele>171</ele>
        <time>2018-04-20T13:40:37Z</time>
      </trkpt>
      <trkpt lat="45.92997" lon="4.74051">
        <ele>171</ele>
        <time>2018-04-20T13:40:39Z</time>
      </trkpt>
      <trkpt lat="45.92996" lon="4.74055">
        <ele>171</ele>
        <time>2018-04-20T13:40:40Z</time>
      </trkpt>
      <trkpt lat="45.92997" lon="4.74066">
        <ele>171</ele>
        <time>2018-04-20T13:40:42Z</time>
      </trkpt>
      <trkpt lat="45.92996" lon="4.74071">
        <ele>171</ele>
        <time>2018-04-20T13:40:43Z</time>
      </trkpt>
      <trkpt lat="45.92997" lon="4.74083">
        <ele>171</ele>
        <time>2018-04-20T13:40:45Z</time>
      </trkpt>
      <trkpt lat="45.92997" lon="4.74088">
        <ele>171</ele>
        <time>2018-04-20T13:40:46Z</time>
      </trkpt>
      <trkpt lat="45.92996" lon="4.74097">
        <ele>171</ele>
        <time>2018-04-20T13:40:48Z</time>
      </trkpt>
      <trkpt lat="45.92996" lon="4.74102">
        <ele>171</ele>
        <time>2018-04-20T13:40:49Z</time>
      </trkpt>
      <trkpt lat="45.92994" lon="4.74113">
        <ele>171</ele>
        <time>2018-04-20T13:40:51Z</time>
      </trkpt>
      <trkpt lat="45.92994" lon="4.74119">
        <ele>171</ele>
        <time>2018-04-20T13:40:52Z</time>
      </trkpt>
      <trkpt lat="45.92992" lon="4.7413">
        <ele>171</ele>
        <time>2018-04-20T13:40:55Z</time>
      </trkpt>
      <trkpt lat="45.92991" lon="4.74134">
        <ele>171</ele>
        <time>2018-04-20T13:40:56Z</time>
      </trkpt>
      <trkpt lat="45.92989" lon="4.74144">
        <ele>170</ele>
        <time>2018-04-20T13:40:59Z</time>
      </trkpt>
      <trkpt lat="45.92988" lon="4.74148">
        <ele>170</ele>
        <time>2018-04-20T13:41:00Z</time>
      </trkpt>
      <trkpt lat="45.92985" lon="4.7416">
        <ele>170</ele>
        <time>2018-04-20T13:41:03Z</time>
      </trkpt>
      <trkpt lat="45.92984" lon="4.74164">
        <ele>170</ele>
        <time>2018-04-20T13:41:04Z</time>
      </trkpt>
      <trkpt lat="45.9298" lon="4.74174">
        <ele>170</ele>
        <time>2018-04-20T13:41:07Z</time>
      </trkpt>
      <trkpt lat="45.92979" lon="4.74178">
        <ele>170</ele>
        <time>2018-04-20T13:41:08Z</time>
      </trkpt>
      <trkpt lat="45.92974" lon="4.74188">
        <ele>170</ele>
        <time>2018-04-20T13:41:11Z</time>
      </trkpt>
      <trkpt lat="45.92973" lon="4.74192">
        <ele>170</ele>
        <time>2018-04-20T13:41:12Z</time>
      </trkpt>
      <trkpt lat="45.92967" lon="4.74201">
        <ele>170</ele>
        <time>2018-04-20T13:41:15Z</time>
      </trkpt>
      <trkpt lat="45.92965" lon="4.74204">
        <ele>170</ele>
        <time>2018-04-20T13:41:16Z</time>
      </trkpt>
      <trkpt lat="45.92957" lon="4.74208">
        <ele>170</ele>
        <time>2018-04-20T13:41:19Z</time>
      </trkpt>
      <trkpt lat="45.92954" lon="4.74209">
        <ele>170</ele>
        <time>2018-04-20T13:41:20Z</time>
      </trkpt>
      <trkpt lat="45.92945" lon="4.74208">
        <ele>170</ele>
        <time>2018-04-20T13:41:23Z</time>
      </trkpt>
      <trkpt lat="45.92942" lon="4.74207">
        <ele>170</ele>
        <time>2018-04-20T13:41:24Z</time>
      </trkpt>
      <trkpt lat="45.92939" lon="4.74206">
        <ele>170</ele>
        <time>2018-04-20T13:41:25Z</time>
      </trkpt>
      <trkpt lat="45.9293" lon="4.74201">
        <ele>170</ele>
        <time>2018-04-20T13:41:26Z</time>
      </trkpt>
      <trkpt lat="45.92922" lon="4.74196">
        <ele>170</ele>
        <time>2018-04-20T13:41:29Z</time>
      </trkpt>
      <trkpt lat="45.9292" lon="4.74195">
        <ele>171</ele>
        <time>2018-04-20T13:41:30Z</time>
      </trkpt>
      <trkpt lat="45.92913" lon="4.74191">
        <ele>171</ele>
        <time>2018-04-20T13:41:33Z</time>
      </trkpt>
      <trkpt lat="45.9291" lon="4.74189">
        <ele>171</ele>
        <time>2018-04-20T13:41:34Z</time>
      </trkpt>
      <trkpt lat="45.92908" lon="4.74188">
        <ele>171</ele>
        <time>2018-04-20T13:41:35Z</time>
      </trkpt>
      <trkpt lat="45.92901" lon="4.74184">
        <ele>171</ele>
        <time>2018-04-20T13:41:36Z</time>
      </trkpt>
      <trkpt lat="45.92897" lon="4.74181">
        <ele>171</ele>
        <time>2018-04-20T13:41:38Z</time>
      </trkpt>
      <trkpt lat="45.92891" lon="4.74176">
        <ele>171</ele>
        <time>2018-04-20T13:41:39Z</time>
      </trkpt>
      <trkpt lat="45.92885" lon="4.74168">
        <ele>171</ele>
        <time>2018-04-20T13:41:41Z</time>
      </trkpt>
      <trkpt lat="45.92883" lon="4.74164">
        <ele>172</ele>
        <time>2018-04-20T13:41:42Z</time>
      </trkpt>
      <trkpt lat="45.92881" lon="4.74155">
        <ele>172</ele>
        <time>2018-04-20T13:41:43Z</time>
      </trkpt>
      <trkpt lat="45.92881" lon="4.74149">
        <ele>172</ele>
        <time>2018-04-20T13:41:44Z</time>
      </trkpt>
      <trkpt lat="45.9288" lon="4.74137">
        <ele>172</ele>
        <time>2018-04-20T13:41:46Z</time>
      </trkpt>
      <trkpt lat="45.92883" lon="4.7413">
        <ele>172</ele>
        <time>2018-04-20T13:41:47Z</time>
      </trkpt>
      <trkpt lat="45.92885" lon="4.7412">
        <ele>172</ele>
        <time>2018-04-20T13:41:49Z</time>
      </trkpt>
      <trkpt lat="45.92889" lon="4.74116">
        <ele>172</ele>
        <time>2018-04-20T13:41:50Z</time>
      </trkpt>
      <trkpt lat="45.92892" lon="4.74111">
        <ele>172</ele>
        <time>2018-04-20T13:41:51Z</time>
      </trkpt>
      <trkpt lat="45.92897" lon="4.74107">
        <ele>172</ele>
        <time>2018-04-20T13:41:52Z</time>
      </trkpt>
      <trkpt lat="45.92902" lon="4.74102">
        <ele>172</ele>
        <time>2018-04-20T13:41:53Z</time>
      </trkpt>
      <trkpt lat="45.92906" lon="4.74098">
        <ele>172</ele>
        <time>2018-04-20T13:41:54Z</time>
      </trkpt>
      <trkpt lat="45.92908" lon="4.74092">
        <ele>172</ele>
        <time>2018-04-20T13:41:55Z</time>
      </trkpt>
      <trkpt lat="45.9291" lon="4.74083">
        <ele>173</ele>
        <time>2018-04-20T13:41:56Z</time>
      </trkpt>
      <trkpt lat="45.92911" lon="4.74073">
        <ele>173</ele>
        <time>2018-04-20T13:41:57Z</time>
      </trkpt>
      <trkpt lat="45.92911" lon="4.74067">
        <ele>173</ele>
        <time>2018-04-20T13:41:58Z</time>
      </trkpt>
      <trkpt lat="45.92911" lon="4.74061">
        <ele>172</ele>
        <time>2018-04-20T13:41:59Z</time>
      </trkpt>
      <trkpt lat="45.92912" lon="4.74054">
        <ele>172</ele>
        <time>2018-04-20T13:42:00Z</time>
      </trkpt>
      <trkpt lat="45.92915" lon="4.74043">
        <ele>172</ele>
        <time>2018-04-20T13:42:03Z</time>
      </trkpt>
      <trkpt lat="45.92918" lon="4.74035">
        <ele>172</ele>
        <time>2018-04-20T13:42:04Z</time>
      </trkpt>
      <trkpt lat="45.9292" lon="4.74027">
        <ele>172</ele>
        <time>2018-04-20T13:42:07Z</time>
      </trkpt>
      <trkpt lat="45.92919" lon="4.74018">
        <ele>172</ele>
        <time>2018-04-20T13:42:08Z</time>
      </trkpt>
      <trkpt lat="45.92918" lon="4.74008">
        <ele>172</ele>
        <time>2018-04-20T13:42:11Z</time>
      </trkpt>
      <trkpt lat="45.92918" lon="4.74005">
        <ele>172</ele>
        <time>2018-04-20T13:42:12Z</time>
      </trkpt>
      <trkpt lat="45.92915" lon="4.73994">
        <ele>172</ele>
        <time>2018-04-20T13:42:15Z</time>
      </trkpt>
      <trkpt lat="45.92915" lon="4.7399">
        <ele>172</ele>
        <time>2018-04-20T13:42:16Z</time>
      </trkpt>
      <trkpt lat="45.92912" lon="4.7398">
        <ele>172</ele>
        <time>2018-04-20T13:42:18Z</time>
      </trkpt>
      <trkpt lat="45.92911" lon="4.73975">
        <ele>172</ele>
        <time>2018-04-20T13:42:19Z</time>
      </trkpt>
      <trkpt lat="45.92909" lon="4.73967">
        <ele>172</ele>
        <time>2018-04-20T13:42:21Z</time>
      </trkpt>
      <trkpt lat="45.92908" lon="4.73963">
        <ele>172</ele>
        <time>2018-04-20T13:42:22Z</time>
      </trkpt>
      <trkpt lat="45.92903" lon="4.73953">
        <ele>172</ele>
        <time>2018-04-20T13:44:14Z</time>
      </trkpt>
      <trkpt lat="45.92903" lon="4.73951">
        <ele>172</ele>
        <time>2018-04-20T13:44:15Z</time>
      </trkpt>
      <trkpt lat="45.92904" lon="4.73939">
        <ele>172</ele>
        <time>2018-04-20T13:44:30Z</time>
      </trkpt>
      <trkpt lat="45.92904" lon="4.73938">
        <ele>172</ele>
        <time>2018-04-20T13:44:31Z</time>
      </trkpt>
      <trkpt lat="45.92898" lon="4.7393">
        <ele>172</ele>
        <time>2018-04-20T13:45:28Z</time>
      </trkpt>
      <trkpt lat="45.92897" lon="4.73927">
        <ele>172</ele>
        <time>2018-04-20T13:45:29Z</time>
      </trkpt>
      <trkpt lat="45.92892" lon="4.73918">
        <ele>172</ele>
        <time>2018-04-20T13:45:32Z</time>
      </trkpt>
      <trkpt lat="45.92891" lon="4.73914">
        <ele>172</ele>
        <time>2018-04-20T13:45:33Z</time>
      </trkpt>
      <trkpt lat="45.92888" lon="4.73902">
        <ele>173</ele>
        <time>2018-04-20T13:45:34Z</time>
      </trkpt>
      <trkpt lat="45.92886" lon="4.7389">
        <ele>173</ele>
        <time>2018-04-20T13:45:36Z</time>
      </trkpt>
      <trkpt lat="45.92884" lon="4.73885">
        <ele>173</ele>
        <time>2018-04-20T13:45:37Z</time>
      </trkpt>
      <trkpt lat="45.92881" lon="4.73874">
        <ele>173</ele>
        <time>2018-04-20T13:45:39Z</time>
      </trkpt>
      <trkpt lat="45.9288" lon="4.73868">
        <ele>173</ele>
        <time>2018-04-20T13:45:40Z</time>
      </trkpt>
      <trkpt lat="45.92878" lon="4.73857">
        <ele>173</ele>
        <time>2018-04-20T13:45:42Z</time>
      </trkpt>
      <trkpt lat="45.92877" lon="4.73851">
        <ele>173</ele>
        <time>2018-04-20T13:45:43Z</time>
      </trkpt>
      <trkpt lat="45.92872" lon="4.7384">
        <ele>173</ele>
        <time>2018-04-20T13:45:45Z</time>
      </trkpt>
      <trkpt lat="45.9287" lon="4.73835">
        <ele>173</ele>
        <time>2018-04-20T13:45:46Z</time>
      </trkpt>
      <trkpt lat="45.92865" lon="4.73825">
        <ele>173</ele>
        <time>2018-04-20T13:45:48Z</time>
      </trkpt>
      <trkpt lat="45.92862" lon="4.73821">
        <ele>173</ele>
        <time>2018-04-20T13:45:49Z</time>
      </trkpt>
      <trkpt lat="45.92859" lon="4.73811">
        <ele>173</ele>
        <time>2018-04-20T13:45:51Z</time>
      </trkpt>
      <trkpt lat="45.92857" lon="4.73805">
        <ele>173</ele>
        <time>2018-04-20T13:45:52Z</time>
      </trkpt>
      <trkpt lat="45.92854" lon="4.738">
        <ele>173</ele>
        <time>2018-04-20T13:45:53Z</time>
      </trkpt>
      <trkpt lat="45.92851" lon="4.73795">
        <ele>173</ele>
        <time>2018-04-20T13:45:54Z</time>
      </trkpt>
      <trkpt lat="45.92844" lon="4.73788">
        <ele>173</ele>
        <time>2018-04-20T13:45:56Z</time>
      </trkpt>
      <trkpt lat="45.92839" lon="4.73785">
        <ele>173</ele>
        <time>2018-04-20T13:45:57Z</time>
      </trkpt>
      <trkpt lat="45.92831" lon="4.73779">
        <ele>173</ele>
        <time>2018-04-20T13:45:59Z</time>
      </trkpt>
      <trkpt lat="45.92828" lon="4.73777">
        <ele>173</ele>
        <time>2018-04-20T13:46:00Z</time>
      </trkpt>
      <trkpt lat="45.9282" lon="4.73772">
        <ele>173</ele>
        <time>2018-04-20T13:46:04Z</time>
      </trkpt>
      <trkpt lat="45.92813" lon="4.73768">
        <ele>173</ele>
        <time>2018-04-20T13:46:05Z</time>
      </trkpt>
      <trkpt lat="45.92809" lon="4.73766">
        <ele>173</ele>
        <time>2018-04-20T13:46:07Z</time>
      </trkpt>
      <trkpt lat="45.92804" lon="4.73762">
        <ele>173</ele>
        <time>2018-04-20T13:46:08Z</time>
      </trkpt>
      <trkpt lat="45.92797" lon="4.73757">
        <ele>173</ele>
        <time>2018-04-20T13:46:10Z</time>
      </trkpt>
      <trkpt lat="45.92796" lon="4.73755">
        <ele>173</ele>
        <time>2018-04-20T13:46:11Z</time>
      </trkpt>
      <trkpt lat="45.92789" lon="4.73748">
        <ele>172</ele>
        <time>2018-04-20T13:46:15Z</time>
      </trkpt>
      <trkpt lat="45.92788" lon="4.73744">
        <ele>172</ele>
        <time>2018-04-20T13:46:16Z</time>
      </trkpt>
      <trkpt lat="45.92783" lon="4.73735">
        <ele>172</ele>
        <time>2018-04-20T13:46:19Z</time>
      </trkpt>
      <trkpt lat="45.92781" lon="4.73733">
        <ele>172</ele>
        <time>2018-04-20T13:46:20Z</time>
      </trkpt>
      <trkpt lat="45.92773" lon="4.73728">
        <ele>172</ele>
        <time>2018-04-20T13:46:21Z</time>
      </trkpt>
      <trkpt lat="45.92769" lon="4.73728">
        <ele>172</ele>
        <time>2018-04-20T13:46:22Z</time>
      </trkpt>
      <trkpt lat="45.92761" lon="4.73726">
        <ele>172</ele>
        <time>2018-04-20T13:46:24Z</time>
      </trkpt>
      <trkpt lat="45.92759" lon="4.73725">
        <ele>172</ele>
        <time>2018-04-20T13:46:25Z</time>
      </trkpt>
      <trkpt lat="45.92754" lon="4.73724">
        <ele>172</ele>
        <time>2018-04-20T13:46:26Z</time>
      </trkpt>
      <trkpt lat="45.9275" lon="4.73723">
        <ele>172</ele>
        <time>2018-04-20T13:46:27Z</time>
      </trkpt>
      <trkpt lat="45.92742" lon="4.73721">
        <ele>173</ele>
        <time>2018-04-20T13:46:29Z</time>
      </trkpt>
      <trkpt lat="45.92737" lon="4.73721">
        <ele>173</ele>
        <time>2018-04-20T13:46:30Z</time>
      </trkpt>
      <trkpt lat="45.92728" lon="4.73721">
        <ele>173</ele>
        <time>2018-04-20T13:46:32Z</time>
      </trkpt>
      <trkpt lat="45.92724" lon="4.73717">
        <ele>173</ele>
        <time>2018-04-20T13:46:33Z</time>
      </trkpt>
      <trkpt lat="45.92718" lon="4.73716">
        <ele>173</ele>
        <time>2018-04-20T13:46:34Z</time>
      </trkpt>
      <trkpt lat="45.92714" lon="4.73716">
        <ele>173</ele>
        <time>2018-04-20T13:46:35Z</time>
      </trkpt>
      <trkpt lat="45.92709" lon="4.73715">
        <ele>173</ele>
        <time>2018-04-20T13:46:36Z</time>
      </trkpt>
      <trkpt lat="45.92705" lon="4.73711">
        <ele>173</ele>
        <time>2018-04-20T13:46:37Z</time>
      </trkpt>
      <trkpt lat="45.927" lon="4.7371">
        <ele>173</ele>
        <time>2018-04-20T13:46:38Z</time>
      </trkpt>
      <trkpt lat="45.92696" lon="4.73709">
        <ele>173</ele>
        <time>2018-04-20T13:46:39Z</time>
      </trkpt>
      <trkpt lat="45.92687" lon="4.73707">
        <ele>173</ele>
        <time>2018-04-20T13:46:41Z</time>
      </trkpt>
      <trkpt lat="45.92683" lon="4.73705">
        <ele>173</ele>
        <time>2018-04-20T13:46:42Z</time>
      </trkpt>
      <trkpt lat="45.92675" lon="4.73702">
        <ele>174</ele>
        <time>2018-04-20T13:46:44Z</time>
      </trkpt>
      <trkpt lat="45.9267" lon="4.73701">
        <ele>174</ele>
        <time>2018-04-20T13:46:45Z</time>
      </trkpt>
      <trkpt lat="45.92662" lon="4.73696">
        <ele>173</ele>
        <time>2018-04-20T13:46:47Z</time>
      </trkpt>
      <trkpt lat="45.9266" lon="4.73696">
        <ele>173</ele>
        <time>2018-04-20T13:46:48Z</time>
      </trkpt>
      <trkpt lat="45.92655" lon="4.73693">
        <ele>173</ele>
        <time>2018-04-20T13:46:49Z</time>
      </trkpt>
      <trkpt lat="45.92652" lon="4.73691">
        <ele>173</ele>
        <time>2018-04-20T13:46:50Z</time>
      </trkpt>
      <trkpt lat="45.92645" lon="4.73683">
        <ele>173</ele>
        <time>2018-04-20T13:46:52Z</time>
      </trkpt>
      <trkpt lat="45.92643" lon="4.73678">
        <ele>173</ele>
        <time>2018-04-20T13:46:53Z</time>
      </trkpt>
      <trkpt lat="45.92638" lon="4.73673">
        <ele>173</ele>
        <time>2018-04-20T13:46:55Z</time>
      </trkpt>
      <trkpt lat="45.92634" lon="4.73666">
        <ele>173</ele>
        <time>2018-04-20T13:46:56Z</time>
      </trkpt>
      <trkpt lat="45.92631" lon="4.73655">
        <ele>173</ele>
        <time>2018-04-20T13:46:58Z</time>
      </trkpt>
      <trkpt lat="45.92631" lon="4.73649">
        <ele>173</ele>
        <time>2018-04-20T13:46:59Z</time>
      </trkpt>
      <trkpt lat="45.92628" lon="4.73642">
        <ele>173</ele>
        <time>2018-04-20T13:47:00Z</time>
      </trkpt>
      <trkpt lat="45.92627" lon="4.73636">
        <ele>173</ele>
        <time>2018-04-20T13:47:01Z</time>
      </trkpt>
      <trkpt lat="45.9262" lon="4.73629">
        <ele>173</ele>
        <time>2018-04-20T13:47:03Z</time>
      </trkpt>
      <trkpt lat="45.92616" lon="4.73626">
        <ele>173</ele>
        <time>2018-04-20T13:47:04Z</time>
      </trkpt>
      <trkpt lat="45.9261" lon="4.73624">
        <ele>173</ele>
        <time>2018-04-20T13:47:05Z</time>
      </trkpt>
      <trkpt lat="45.92606" lon="4.73623">
        <ele>173</ele>
        <time>2018-04-20T13:47:06Z</time>
      </trkpt>
      <trkpt lat="45.92597" lon="4.73621">
        <ele>173</ele>
        <time>2018-04-20T13:47:08Z</time>
      </trkpt>
      <trkpt lat="45.92592" lon="4.73621">
        <ele>173</ele>
        <time>2018-04-20T13:47:09Z</time>
      </trkpt>
      <trkpt lat="45.92584" lon="4.73622">
        <ele>173</ele>
        <time>2018-04-20T13:47:11Z</time>
      </trkpt>
      <trkpt lat="45.9258" lon="4.73624">
        <ele>173</ele>
        <time>2018-04-20T13:47:12Z</time>
      </trkpt>
      <trkpt lat="45.92572" lon="4.73627">
        <ele>173</ele>
        <time>2018-04-20T13:47:14Z</time>
      </trkpt>
      <trkpt lat="45.92566" lon="4.73627">
        <ele>173</ele>
        <time>2018-04-20T13:47:15Z</time>
      </trkpt>
      <trkpt lat="45.92557" lon="4.73627">
        <ele>173</ele>
        <time>2018-04-20T13:47:17Z</time>
      </trkpt>
      <trkpt lat="45.92556" lon="4.73628">
        <ele>173</ele>
        <time>2018-04-20T13:47:18Z</time>
      </trkpt>
      <trkpt lat="45.92551" lon="4.73626">
        <ele>173</ele>
        <time>2018-04-20T13:47:19Z</time>
      </trkpt>
      <trkpt lat="45.92547" lon="4.73628">
        <ele>173</ele>
        <time>2018-04-20T13:47:20Z</time>
      </trkpt>
      <trkpt lat="45.92538" lon="4.73632">
        <ele>173</ele>
        <time>2018-04-20T13:47:22Z</time>
      </trkpt>
      <trkpt lat="45.92534" lon="4.73632">
        <ele>173</ele>
        <time>2018-04-20T13:47:23Z</time>
      </trkpt>
      <trkpt lat="45.92526" lon="4.73633">
        <ele>173</ele>
        <time>2018-04-20T13:47:25Z</time>
      </trkpt>
      <trkpt lat="45.92524" lon="4.73633">
        <ele>173</ele>
        <time>2018-04-20T13:47:26Z</time>
      </trkpt>
      <trkpt lat="45.92518" lon="4.73633">
        <ele>173</ele>
        <time>2018-04-20T13:47:27Z</time>
      </trkpt>
      <trkpt lat="45.92514" lon="4.73633">
        <ele>173</ele>
        <time>2018-04-20T13:47:28Z</time>
      </trkpt>
      <trkpt lat="45.92506" lon="4.73635">
        <ele>174</ele>
        <time>2018-04-20T13:47:30Z</time>
      </trkpt>
      <trkpt lat="45.92503" lon="4.73641">
        <ele>174</ele>
        <time>2018-04-20T13:47:31Z</time>
      </trkpt>
      <trkpt lat="45.92494" lon="4.73639">
        <ele>174</ele>
        <time>2018-04-20T13:47:34Z</time>
      </trkpt>
      <trkpt lat="45.92491" lon="4.73639">
        <ele>174</ele>
        <time>2018-04-20T13:47:35Z</time>
      </trkpt>
      <trkpt lat="45.92483" lon="4.73639">
        <ele>174</ele>
        <time>2018-04-20T13:47:38Z</time>
      </trkpt>
      <trkpt lat="45.9248" lon="4.7364">
        <ele>174</ele>
        <time>2018-04-20T13:47:39Z</time>
      </trkpt>
      <trkpt lat="45.92477" lon="4.73641">
        <ele>174</ele>
        <time>2018-04-20T13:47:40Z</time>
      </trkpt>
      <trkpt lat="45.92471" lon="4.73646">
        <ele>174</ele>
        <time>2018-04-20T13:47:41Z</time>
      </trkpt>
      <trkpt lat="45.92468" lon="4.73658">
        <ele>174</ele>
        <time>2018-04-20T13:47:44Z</time>
      </trkpt>
      <trkpt lat="45.92467" lon="4.73662">
        <ele>174</ele>
        <time>2018-04-20T13:47:45Z</time>
      </trkpt>
      <trkpt lat="45.92467" lon="4.7367">
        <ele>174</ele>
        <time>2018-04-20T13:47:47Z</time>
      </trkpt>
      <trkpt lat="45.92467" lon="4.73675">
        <ele>174</ele>
        <time>2018-04-20T13:47:48Z</time>
      </trkpt>
      <trkpt lat="45.92466" lon="4.73685">
        <ele>174</ele>
        <time>2018-04-20T13:47:50Z</time>
      </trkpt>
      <trkpt lat="45.92466" lon="4.73689">
        <ele>174</ele>
        <time>2018-04-20T13:47:51Z</time>
      </trkpt>
      <trkpt lat="45.92465" lon="4.737">
        <ele>174</ele>
        <time>2018-04-20T13:47:54Z</time>
      </trkpt>
      <trkpt lat="45.92465" lon="4.73703">
        <ele>174</ele>
        <time>2018-04-20T13:47:55Z</time>
      </trkpt>
      <trkpt lat="45.92457" lon="4.73709">
        <ele>174</ele>
        <time>2018-04-20T13:49:13Z</time>
      </trkpt>
      <trkpt lat="45.92456" lon="4.73708">
        <ele>174</ele>
        <time>2018-04-20T13:49:14Z</time>
      </trkpt>
      <trkpt lat="45.92463" lon="4.73701">
        <ele>174</ele>
        <time>2018-04-20T13:49:55Z</time>
      </trkpt>
      <trkpt lat="45.92464" lon="4.73701">
        <ele>174</ele>
        <time>2018-04-20T13:49:56Z</time>
      </trkpt>
      <trkpt lat="45.92466" lon="4.737">
        <ele>174</ele>
        <time>2018-04-20T13:50:09.111Z</time>
      </trkpt>
    </trkseg>
  </trk>
</gpx>